<?xml version="1.0" encoding="UTF-8"?>
<gpx version="1.1" creator="https://www.youtrack.es" xsi:schemaLocation="http://www.topografix.com/GPX/1/1 http://www.topografix.com/GPX/1/1/gpx.xsd http://www.garmin.com/xmlschemas/GpxExtensions/v3 http://www.garmin.com/xmlschemas/GpxExtensionsv3.xsd http://www.garmin.com/xmlschemas/TrackPointExtension/v1 http://www.garmin.com/xmlschemas/TrackPointExtensionv1.xsd" xmlns:gpxtpx="http://www.garmin.com/xmlschemas/TrackPointExtension/v1" xmlns:gpxx="http://www.garmin.com/xmlschemas/GpxExtensions/v3" xmlns:xsi="http://www.w3.org/2001/XMLSchema-instance">
  <metadata>
    <author>
      <name>angel portilla silva</name>
      <email id="portillasilvaangel" domain="gmail.com"/>
    </author>
    <link href="https://www.youtrack.es">
      <text>YouTrack.es</text>
    </link>
    <time>2026-05-08T20:34:43Z</time>
  </metadata>
  <trk>
    <src>https://www.youtrack.es</src>
    <link href="https://www.youtrack.es/ruta/28834-castillos-del-loira--eurovelo-6-francia-nantes-briare-">
      <text>YouTrack.es</text>
    </link>
    <trkseg>
      <trkpt lat="47.215057" lon="-1.550988">
        <ele>14.632</ele>
        <time>2021-09-05T16:35:43Z</time>
      </trkpt>
      <trkpt lat="47.215218" lon="-1.549640">
        <ele>18.192</ele>
        <time>2021-09-05T16:36:57Z</time>
      </trkpt>
      <trkpt lat="47.216001" lon="-1.547560">
        <ele>18.811</ele>
        <time>2021-09-05T16:38:30Z</time>
      </trkpt>
      <trkpt lat="47.215854" lon="-1.546926">
        <ele>17.008</ele>
        <time>2021-09-05T16:38:53Z</time>
      </trkpt>
      <trkpt lat="47.215043" lon="-1.546279">
        <ele>21.861</ele>
        <time>2021-09-05T16:39:31Z</time>
      </trkpt>
      <trkpt lat="47.214703" lon="-1.545831">
        <ele>21.866</ele>
        <time>2021-09-05T16:40:37Z</time>
      </trkpt>
      <trkpt lat="47.214927" lon="-1.545924">
        <ele>23.994</ele>
        <time>2021-09-05T16:40:53Z</time>
      </trkpt>
      <trkpt lat="47.215031" lon="-1.545753">
        <ele>22.399</ele>
        <time>2021-09-05T16:41:21Z</time>
      </trkpt>
      <trkpt lat="47.215138" lon="-1.546067">
        <ele>24.390</ele>
        <time>2021-09-05T16:41:40Z</time>
      </trkpt>
      <trkpt lat="47.215543" lon="-1.546204">
        <ele>22.027</ele>
        <time>2021-09-05T16:42:15Z</time>
      </trkpt>
      <trkpt lat="47.216003" lon="-1.544881">
        <ele>19.473</ele>
        <time>2021-09-05T16:43:21Z</time>
      </trkpt>
      <trkpt lat="47.216066" lon="-1.544084">
        <ele>14.598</ele>
        <time>2021-09-05T16:43:39Z</time>
      </trkpt>
      <trkpt lat="47.215700" lon="-1.543055">
        <ele>13.367</ele>
        <time>2021-09-05T16:44:03Z</time>
      </trkpt>
      <trkpt lat="47.213526" lon="-1.539948">
        <ele>15.381</ele>
        <time>2021-09-05T16:45:58Z</time>
      </trkpt>
      <trkpt lat="47.213057" lon="-1.536813">
        <ele>17.319</ele>
        <time>2021-09-05T16:47:07Z</time>
      </trkpt>
      <trkpt lat="47.212675" lon="-1.536603">
        <ele>11.408</ele>
        <time>2021-09-05T16:48:59Z</time>
      </trkpt>
      <trkpt lat="47.212743" lon="-1.536245">
        <ele>10.314</ele>
        <time>2021-09-05T16:49:17Z</time>
      </trkpt>
      <trkpt lat="47.212939" lon="-1.536303">
        <ele>16.459</ele>
        <time>2021-09-05T16:49:23Z</time>
      </trkpt>
      <trkpt lat="47.213013" lon="-1.536151">
        <ele>18.467</ele>
        <time>2021-09-05T16:49:27Z</time>
      </trkpt>
      <trkpt lat="47.212891" lon="-1.534408">
        <ele>11.182</ele>
        <time>2021-09-05T16:50:05Z</time>
      </trkpt>
      <trkpt lat="47.213560" lon="-1.528410">
        <ele>13.733</ele>
        <time>2021-09-05T16:51:52Z</time>
      </trkpt>
      <trkpt lat="47.214562" lon="-1.524505">
        <ele>16.230</ele>
        <time>2021-09-05T16:52:59Z</time>
      </trkpt>
      <trkpt lat="47.216545" lon="-1.518332">
        <ele>11.446</ele>
        <time>2021-09-05T16:54:49Z</time>
      </trkpt>
      <trkpt lat="47.218133" lon="-1.514927">
        <ele>14.181</ele>
        <time>2021-09-05T16:55:55Z</time>
      </trkpt>
      <trkpt lat="47.218618" lon="-1.512973">
        <ele>13.378</ele>
        <time>2021-09-05T16:56:28Z</time>
      </trkpt>
      <trkpt lat="47.219984" lon="-1.509044">
        <ele>9.333</ele>
        <time>2021-09-05T16:57:40Z</time>
      </trkpt>
      <trkpt lat="47.220470" lon="-1.506874">
        <ele>7.626</ele>
        <time>2021-09-05T16:58:24Z</time>
      </trkpt>
      <trkpt lat="47.220734" lon="-1.504055">
        <ele>10.508</ele>
        <time>2021-09-05T16:59:07Z</time>
      </trkpt>
      <trkpt lat="47.221325" lon="-1.502692">
        <ele>12.955</ele>
        <time>2021-09-05T17:00:03Z</time>
      </trkpt>
      <trkpt lat="47.221754" lon="-1.501245">
        <ele>10.150</ele>
        <time>2021-09-05T17:00:30Z</time>
      </trkpt>
      <trkpt lat="47.222953" lon="-1.495934">
        <ele>6.768</ele>
        <time>2021-09-05T17:02:01Z</time>
      </trkpt>
      <trkpt lat="47.224893" lon="-1.490816">
        <ele>-2.623</ele>
        <time>2021-09-05T17:03:30Z</time>
      </trkpt>
      <trkpt lat="47.225904" lon="-1.487655">
        <ele>8.934</ele>
        <time>2021-09-05T17:04:33Z</time>
      </trkpt>
      <trkpt lat="47.226006" lon="-1.486976">
        <ele>12.331</ele>
        <time>2021-09-05T17:05:34Z</time>
      </trkpt>
      <trkpt lat="47.227102" lon="-1.484161">
        <ele>12.297</ele>
        <time>2021-09-05T17:06:24Z</time>
      </trkpt>
      <trkpt lat="47.228983" lon="-1.481309">
        <ele>9.632</ele>
        <time>2021-09-05T17:07:23Z</time>
      </trkpt>
      <trkpt lat="47.229234" lon="-1.481072">
        <ele>5.584</ele>
        <time>2021-09-05T17:07:29Z</time>
      </trkpt>
      <trkpt lat="47.229541" lon="-1.481028">
        <ele>9.307</ele>
        <time>2021-09-05T17:07:37Z</time>
      </trkpt>
      <trkpt lat="47.231139" lon="-1.478599">
        <ele>6.917</ele>
        <time>2021-09-05T17:08:33Z</time>
      </trkpt>
      <trkpt lat="47.232003" lon="-1.476450">
        <ele>10.808</ele>
        <time>2021-09-05T17:09:11Z</time>
      </trkpt>
      <trkpt lat="47.232667" lon="-1.475262">
        <ele>14.436</ele>
        <time>2021-09-05T17:09:35Z</time>
      </trkpt>
      <trkpt lat="47.233317" lon="-1.474739">
        <ele>12.241</ele>
        <time>2021-09-05T17:09:57Z</time>
      </trkpt>
      <trkpt lat="47.234874" lon="-1.473898">
        <ele>13.049</ele>
        <time>2021-09-05T17:10:36Z</time>
      </trkpt>
      <trkpt lat="47.236549" lon="-1.472446">
        <ele>16.114</ele>
        <time>2021-09-05T17:11:22Z</time>
      </trkpt>
      <trkpt lat="47.238237" lon="-1.470166">
        <ele>11.425</ele>
        <time>2021-09-05T17:15:30Z</time>
      </trkpt>
      <trkpt lat="47.238382" lon="-1.469774">
        <ele>12.832</ele>
        <time>2021-09-05T17:15:55Z</time>
      </trkpt>
      <trkpt lat="47.239568" lon="-1.468367">
        <ele>17.948</ele>
        <time>2021-09-05T17:16:48Z</time>
      </trkpt>
      <trkpt lat="47.240694" lon="-1.467347">
        <ele>13.193</ele>
        <time>2021-09-05T17:17:24Z</time>
      </trkpt>
      <trkpt lat="47.241943" lon="-1.465394">
        <ele>9.418</ele>
        <time>2021-09-05T17:18:20Z</time>
      </trkpt>
      <trkpt lat="47.242507" lon="-1.464802">
        <ele>8.898</ele>
        <time>2021-09-05T17:18:43Z</time>
      </trkpt>
      <trkpt lat="47.243564" lon="-1.463022">
        <ele>9.917</ele>
        <time>2021-09-05T17:19:19Z</time>
      </trkpt>
      <trkpt lat="47.244676" lon="-1.461630">
        <ele>11.408</ele>
        <time>2021-09-05T17:20:04Z</time>
      </trkpt>
      <trkpt lat="47.245474" lon="-1.460423">
        <ele>10.889</ele>
        <time>2021-09-05T17:20:40Z</time>
      </trkpt>
      <trkpt lat="47.246250" lon="-1.458738">
        <ele>10.154</ele>
        <time>2021-09-05T17:21:16Z</time>
      </trkpt>
      <trkpt lat="47.247858" lon="-1.453706">
        <ele>9.952</ele>
        <time>2021-09-05T17:22:44Z</time>
      </trkpt>
      <trkpt lat="47.248972" lon="-1.451755">
        <ele>10.987</ele>
        <time>2021-09-05T17:23:44Z</time>
      </trkpt>
      <trkpt lat="47.249846" lon="-1.451037">
        <ele>6.238</ele>
        <time>2021-09-05T17:25:05Z</time>
      </trkpt>
      <trkpt lat="47.250165" lon="-1.451529">
        <ele>11.045</ele>
        <time>2021-09-05T17:25:25Z</time>
      </trkpt>
      <trkpt lat="47.250061" lon="-1.452069">
        <ele>6.951</ele>
        <time>2021-09-05T17:55:27Z</time>
      </trkpt>
      <trkpt lat="47.250158" lon="-1.452090">
        <ele>9.666</ele>
        <time>2021-09-05T17:57:22Z</time>
      </trkpt>
      <trkpt lat="47.250025" lon="-1.452274">
        <ele>9.982</ele>
        <time>2021-09-05T17:58:10Z</time>
      </trkpt>
      <trkpt lat="47.249764" lon="-1.451966">
        <ele>9.543</ele>
        <time>2021-09-05T17:58:27Z</time>
      </trkpt>
      <trkpt lat="47.249690" lon="-1.451492">
        <ele>7.817</ele>
        <time>2021-09-05T17:58:43Z</time>
      </trkpt>
      <trkpt lat="47.249584" lon="-1.451574">
        <ele>10.008</ele>
        <time>2021-09-05T17:59:30Z</time>
      </trkpt>
      <trkpt lat="47.249920" lon="-1.452243">
        <ele>10.196</ele>
        <time>2021-09-06T11:06:49Z</time>
      </trkpt>
      <trkpt lat="47.250104" lon="-1.452198">
        <ele>10.971</ele>
        <time>2021-09-06T11:07:40Z</time>
      </trkpt>
      <trkpt lat="47.250220" lon="-1.451604">
        <ele>9.099</ele>
        <time>2021-09-06T11:08:16Z</time>
      </trkpt>
      <trkpt lat="47.249796" lon="-1.450853">
        <ele>15.924</ele>
        <time>2021-09-06T11:08:45Z</time>
      </trkpt>
      <trkpt lat="47.252262" lon="-1.448739">
        <ele>6.445</ele>
        <time>2021-09-06T11:10:07Z</time>
      </trkpt>
      <trkpt lat="47.253708" lon="-1.447071">
        <ele>10.862</ele>
        <time>2021-09-06T11:10:54Z</time>
      </trkpt>
      <trkpt lat="47.255609" lon="-1.444433">
        <ele>7.998</ele>
        <time>2021-09-06T11:11:59Z</time>
      </trkpt>
      <trkpt lat="47.258514" lon="-1.441011">
        <ele>11.573</ele>
        <time>2021-09-06T11:13:28Z</time>
      </trkpt>
      <trkpt lat="47.259091" lon="-1.439979">
        <ele>12.896</ele>
        <time>2021-09-06T11:13:47Z</time>
      </trkpt>
      <trkpt lat="47.260329" lon="-1.438658">
        <ele>10.531</ele>
        <time>2021-09-06T11:14:22Z</time>
      </trkpt>
      <trkpt lat="47.262331" lon="-1.435685">
        <ele>12.424</ele>
        <time>2021-09-06T11:18:47Z</time>
      </trkpt>
      <trkpt lat="47.259224" lon="-1.431045">
        <ele>11.808</ele>
        <time>2021-09-06T11:21:46Z</time>
      </trkpt>
      <trkpt lat="47.257491" lon="-1.426658">
        <ele>25.377</ele>
        <time>2021-09-06T11:23:49Z</time>
      </trkpt>
      <trkpt lat="47.257176" lon="-1.426253">
        <ele>24.682</ele>
        <time>2021-09-06T11:24:01Z</time>
      </trkpt>
      <trkpt lat="47.257053" lon="-1.425536">
        <ele>19.070</ele>
        <time>2021-09-06T11:25:11Z</time>
      </trkpt>
      <trkpt lat="47.257212" lon="-1.426007">
        <ele>18.275</ele>
        <time>2021-09-06T11:25:26Z</time>
      </trkpt>
      <trkpt lat="47.257621" lon="-1.425841">
        <ele>19.566</ele>
        <time>2021-09-06T11:25:45Z</time>
      </trkpt>
      <trkpt lat="47.257639" lon="-1.426044">
        <ele>18.023</ele>
        <time>2021-09-06T11:25:56Z</time>
      </trkpt>
      <trkpt lat="47.258877" lon="-1.424959">
        <ele>14.499</ele>
        <time>2021-09-06T11:26:57Z</time>
      </trkpt>
      <trkpt lat="47.261278" lon="-1.421871">
        <ele>12.734</ele>
        <time>2021-09-06T11:28:17Z</time>
      </trkpt>
      <trkpt lat="47.262047" lon="-1.420450">
        <ele>14.012</ele>
        <time>2021-09-06T11:28:57Z</time>
      </trkpt>
      <trkpt lat="47.261759" lon="-1.420828">
        <ele>15.132</ele>
        <time>2021-09-06T11:29:14Z</time>
      </trkpt>
      <trkpt lat="47.261630" lon="-1.420581">
        <ele>15.805</ele>
        <time>2021-09-06T11:29:35Z</time>
      </trkpt>
      <trkpt lat="47.261785" lon="-1.420807">
        <ele>15.108</ele>
        <time>2021-09-06T11:29:56Z</time>
      </trkpt>
      <trkpt lat="47.262034" lon="-1.420458">
        <ele>15.639</ele>
        <time>2021-09-06T11:30:09Z</time>
      </trkpt>
      <trkpt lat="47.262106" lon="-1.420670">
        <ele>15.654</ele>
        <time>2021-09-06T11:30:21Z</time>
      </trkpt>
      <trkpt lat="47.262828" lon="-1.419176">
        <ele>9.872</ele>
        <time>2021-09-06T11:30:52Z</time>
      </trkpt>
      <trkpt lat="47.265556" lon="-1.414640">
        <ele>11.337</ele>
        <time>2021-09-06T11:32:30Z</time>
      </trkpt>
      <trkpt lat="47.266254" lon="-1.413074">
        <ele>11.878</ele>
        <time>2021-09-06T11:33:10Z</time>
      </trkpt>
      <trkpt lat="47.267696" lon="-1.411160">
        <ele>9.915</ele>
        <time>2021-09-06T11:33:57Z</time>
      </trkpt>
      <trkpt lat="47.267956" lon="-1.410329">
        <ele>11.071</ele>
        <time>2021-09-06T11:34:13Z</time>
      </trkpt>
      <trkpt lat="47.268669" lon="-1.409196">
        <ele>10.426</ele>
        <time>2021-09-06T11:34:41Z</time>
      </trkpt>
      <trkpt lat="47.269263" lon="-1.407891">
        <ele>9.283</ele>
        <time>2021-09-06T11:35:05Z</time>
      </trkpt>
      <trkpt lat="47.269411" lon="-1.406098">
        <ele>11.425</ele>
        <time>2021-09-06T11:35:36Z</time>
      </trkpt>
      <trkpt lat="47.269776" lon="-1.405249">
        <ele>12.917</ele>
        <time>2021-09-06T11:35:54Z</time>
      </trkpt>
      <trkpt lat="47.273694" lon="-1.399032">
        <ele>13.508</ele>
        <time>2021-09-06T11:38:16Z</time>
      </trkpt>
      <trkpt lat="47.274232" lon="-1.398822">
        <ele>15.166</ele>
        <time>2021-09-06T11:38:31Z</time>
      </trkpt>
      <trkpt lat="47.274991" lon="-1.397028">
        <ele>11.731</ele>
        <time>2021-09-06T11:39:33Z</time>
      </trkpt>
      <trkpt lat="47.276228" lon="-1.395198">
        <ele>12.459</ele>
        <time>2021-09-06T11:41:02Z</time>
      </trkpt>
      <trkpt lat="47.277946" lon="-1.391765">
        <ele>17.054</ele>
        <time>2021-09-06T11:42:12Z</time>
      </trkpt>
      <trkpt lat="47.279689" lon="-1.388941">
        <ele>14.345</ele>
        <time>2021-09-06T11:43:12Z</time>
      </trkpt>
      <trkpt lat="47.280287" lon="-1.388237">
        <ele>13.252</ele>
        <time>2021-09-06T11:43:31Z</time>
      </trkpt>
      <trkpt lat="47.281702" lon="-1.387203">
        <ele>11.898</ele>
        <time>2021-09-06T11:44:10Z</time>
      </trkpt>
      <trkpt lat="47.282151" lon="-1.385030">
        <ele>9.353</ele>
        <time>2021-09-06T11:46:28Z</time>
      </trkpt>
      <trkpt lat="47.283468" lon="-1.382392">
        <ele>10.761</ele>
        <time>2021-09-06T11:47:27Z</time>
      </trkpt>
      <trkpt lat="47.283820" lon="-1.381243">
        <ele>15.621</ele>
        <time>2021-09-06T11:47:51Z</time>
      </trkpt>
      <trkpt lat="47.284599" lon="-1.380319">
        <ele>14.213</ele>
        <time>2021-09-06T11:48:17Z</time>
      </trkpt>
      <trkpt lat="47.285037" lon="-1.380212">
        <ele>14.108</ele>
        <time>2021-09-06T11:48:28Z</time>
      </trkpt>
      <trkpt lat="47.285336" lon="-1.379536">
        <ele>13.224</ele>
        <time>2021-09-06T11:48:49Z</time>
      </trkpt>
      <trkpt lat="47.288386" lon="-1.375747">
        <ele>19.269</ele>
        <time>2021-09-06T11:50:49Z</time>
      </trkpt>
      <trkpt lat="47.293055" lon="-1.381675">
        <ele>16.417</ele>
        <time>2021-09-06T11:53:24Z</time>
      </trkpt>
      <trkpt lat="47.294500" lon="-1.383196">
        <ele>24.752</ele>
        <time>2021-09-06T11:54:05Z</time>
      </trkpt>
      <trkpt lat="47.295904" lon="-1.378771">
        <ele>15.573</ele>
        <time>2021-09-06T11:55:32Z</time>
      </trkpt>
      <trkpt lat="47.297747" lon="-1.375211">
        <ele>19.750</ele>
        <time>2021-09-06T11:56:41Z</time>
      </trkpt>
      <trkpt lat="47.301049" lon="-1.369891">
        <ele>18.076</ele>
        <time>2021-09-06T11:58:38Z</time>
      </trkpt>
      <trkpt lat="47.305200" lon="-1.361333">
        <ele>11.261</ele>
        <time>2021-09-06T12:01:21Z</time>
      </trkpt>
      <trkpt lat="47.305833" lon="-1.360306">
        <ele>17.436</ele>
        <time>2021-09-06T12:01:44Z</time>
      </trkpt>
      <trkpt lat="47.310653" lon="-1.354757">
        <ele>15.017</ele>
        <time>2021-09-06T12:04:21Z</time>
      </trkpt>
      <trkpt lat="47.313026" lon="-1.350947">
        <ele>21.418</ele>
        <time>2021-09-06T12:06:32Z</time>
      </trkpt>
      <trkpt lat="47.313249" lon="-1.350800">
        <ele>22.408</ele>
        <time>2021-09-06T12:06:40Z</time>
      </trkpt>
      <trkpt lat="47.316666" lon="-1.345170">
        <ele>16.681</ele>
        <time>2021-09-06T12:08:40Z</time>
      </trkpt>
      <trkpt lat="47.320637" lon="-1.339071">
        <ele>17.536</ele>
        <time>2021-09-06T12:11:04Z</time>
      </trkpt>
      <trkpt lat="47.323532" lon="-1.332521">
        <ele>17.394</ele>
        <time>2021-09-06T12:13:33Z</time>
      </trkpt>
      <trkpt lat="47.323668" lon="-1.332318">
        <ele>18.669</ele>
        <time>2021-09-06T12:13:48Z</time>
      </trkpt>
      <trkpt lat="47.323724" lon="-1.332393">
        <ele>18.730</ele>
        <time>2021-09-06T12:14:24Z</time>
      </trkpt>
      <trkpt lat="47.324241" lon="-1.331408">
        <ele>19.757</ele>
        <time>2021-09-06T12:15:40Z</time>
      </trkpt>
      <trkpt lat="47.324463" lon="-1.331416">
        <ele>19.653</ele>
        <time>2021-09-06T12:16:33Z</time>
      </trkpt>
      <trkpt lat="47.326542" lon="-1.329077">
        <ele>16.318</ele>
        <time>2021-09-06T12:17:44Z</time>
      </trkpt>
      <trkpt lat="47.328329" lon="-1.326130">
        <ele>16.449</ele>
        <time>2021-09-06T12:18:55Z</time>
      </trkpt>
      <trkpt lat="47.330458" lon="-1.321895">
        <ele>17.302</ele>
        <time>2021-09-06T12:20:21Z</time>
      </trkpt>
      <trkpt lat="47.330451" lon="-1.321519">
        <ele>17.922</ele>
        <time>2021-09-06T12:23:03Z</time>
      </trkpt>
      <trkpt lat="47.330528" lon="-1.321446">
        <ele>17.408</ele>
        <time>2021-09-06T12:23:12Z</time>
      </trkpt>
      <trkpt lat="47.330473" lon="-1.321694">
        <ele>19.262</ele>
        <time>2021-09-06T12:23:57Z</time>
      </trkpt>
      <trkpt lat="47.330950" lon="-1.320951">
        <ele>13.287</ele>
        <time>2021-09-06T12:58:25Z</time>
      </trkpt>
      <trkpt lat="47.331020" lon="-1.320466">
        <ele>14.555</ele>
        <time>2021-09-06T12:58:41Z</time>
      </trkpt>
      <trkpt lat="47.331646" lon="-1.319709">
        <ele>7.110</ele>
        <time>2021-09-06T12:59:33Z</time>
      </trkpt>
      <trkpt lat="47.335801" lon="-1.311506">
        <ele>14.541</ele>
        <time>2021-09-06T13:04:03Z</time>
      </trkpt>
      <trkpt lat="47.337219" lon="-1.309491">
        <ele>15.138</ele>
        <time>2021-09-06T13:04:56Z</time>
      </trkpt>
      <trkpt lat="47.338744" lon="-1.307916">
        <ele>17.454</ele>
        <time>2021-09-06T13:05:42Z</time>
      </trkpt>
      <trkpt lat="47.339526" lon="-1.306819">
        <ele>18.199</ele>
        <time>2021-09-06T13:06:09Z</time>
      </trkpt>
      <trkpt lat="47.339934" lon="-1.306843">
        <ele>15.147</ele>
        <time>2021-09-06T13:06:44Z</time>
      </trkpt>
      <trkpt lat="47.340671" lon="-1.305667">
        <ele>18.829</ele>
        <time>2021-09-06T13:07:12Z</time>
      </trkpt>
      <trkpt lat="47.342300" lon="-1.301822">
        <ele>11.521</ele>
        <time>2021-09-06T13:08:29Z</time>
      </trkpt>
      <trkpt lat="47.342768" lon="-1.299447">
        <ele>14.908</ele>
        <time>2021-09-06T13:09:06Z</time>
      </trkpt>
      <trkpt lat="47.344094" lon="-1.296301">
        <ele>16.082</ele>
        <time>2021-09-06T13:09:59Z</time>
      </trkpt>
      <trkpt lat="47.344381" lon="-1.294246">
        <ele>14.677</ele>
        <time>2021-09-06T13:10:31Z</time>
      </trkpt>
      <trkpt lat="47.344360" lon="-1.291159">
        <ele>19.865</ele>
        <time>2021-09-06T13:11:30Z</time>
      </trkpt>
      <trkpt lat="47.344573" lon="-1.291047">
        <ele>18.610</ele>
        <time>2021-09-06T13:11:38Z</time>
      </trkpt>
      <trkpt lat="47.344977" lon="-1.289796">
        <ele>18.971</ele>
        <time>2021-09-06T13:12:25Z</time>
      </trkpt>
      <trkpt lat="47.345487" lon="-1.288817">
        <ele>26.818</ele>
        <time>2021-09-06T13:16:20Z</time>
      </trkpt>
      <trkpt lat="47.345744" lon="-1.288941">
        <ele>25.674</ele>
        <time>2021-09-06T13:17:13Z</time>
      </trkpt>
      <trkpt lat="47.346146" lon="-1.288171">
        <ele>17.519</ele>
        <time>2021-09-06T13:19:08Z</time>
      </trkpt>
      <trkpt lat="47.345866" lon="-1.288188">
        <ele>21.387</ele>
        <time>2021-09-06T13:19:21Z</time>
      </trkpt>
      <trkpt lat="47.345694" lon="-1.288025">
        <ele>19.842</ele>
        <time>2021-09-06T13:19:30Z</time>
      </trkpt>
      <trkpt lat="47.346466" lon="-1.286076">
        <ele>16.726</ele>
        <time>2021-09-06T13:20:48Z</time>
      </trkpt>
      <trkpt lat="47.346356" lon="-1.285723">
        <ele>22.108</ele>
        <time>2021-09-06T13:22:15Z</time>
      </trkpt>
      <trkpt lat="47.346485" lon="-1.284389">
        <ele>19.416</ele>
        <time>2021-09-06T13:22:39Z</time>
      </trkpt>
      <trkpt lat="47.346278" lon="-1.284238">
        <ele>22.261</ele>
        <time>2021-09-06T13:22:47Z</time>
      </trkpt>
      <trkpt lat="47.346423" lon="-1.283946">
        <ele>19.719</ele>
        <time>2021-09-06T13:23:06Z</time>
      </trkpt>
      <trkpt lat="47.345995" lon="-1.282540">
        <ele>11.464</ele>
        <time>2021-09-06T13:23:42Z</time>
      </trkpt>
      <trkpt lat="47.345893" lon="-1.282394">
        <ele>16.865</ele>
        <time>2021-09-06T13:24:37Z</time>
      </trkpt>
      <trkpt lat="47.345449" lon="-1.282580">
        <ele>13.492</ele>
        <time>2021-09-06T13:24:53Z</time>
      </trkpt>
      <trkpt lat="47.345401" lon="-1.282477">
        <ele>16.498</ele>
        <time>2021-09-06T13:25:04Z</time>
      </trkpt>
      <trkpt lat="47.345118" lon="-1.282845">
        <ele>18.753</ele>
        <time>2021-09-06T13:25:30Z</time>
      </trkpt>
      <trkpt lat="47.345239" lon="-1.281595">
        <ele>19.081</ele>
        <time>2021-09-06T13:25:54Z</time>
      </trkpt>
      <trkpt lat="47.345163" lon="-1.280888">
        <ele>25.161</ele>
        <time>2021-09-06T13:26:10Z</time>
      </trkpt>
      <trkpt lat="47.344901" lon="-1.280213">
        <ele>23.617</ele>
        <time>2021-09-06T13:26:31Z</time>
      </trkpt>
      <trkpt lat="47.344559" lon="-1.279786">
        <ele>23.508</ele>
        <time>2021-09-06T13:26:47Z</time>
      </trkpt>
      <trkpt lat="47.344050" lon="-1.279499">
        <ele>23.526</ele>
        <time>2021-09-06T13:27:01Z</time>
      </trkpt>
      <trkpt lat="47.337756" lon="-1.277524">
        <ele>18.831</ele>
        <time>2021-09-06T13:29:27Z</time>
      </trkpt>
      <trkpt lat="47.337549" lon="-1.277334">
        <ele>18.229</ele>
        <time>2021-09-06T13:29:33Z</time>
      </trkpt>
      <trkpt lat="47.337663" lon="-1.277166">
        <ele>21.444</ele>
        <time>2021-09-06T13:29:40Z</time>
      </trkpt>
      <trkpt lat="47.337766" lon="-1.277452">
        <ele>22.025</ele>
        <time>2021-09-06T13:29:52Z</time>
      </trkpt>
      <trkpt lat="47.338116" lon="-1.277580">
        <ele>24.512</ele>
        <time>2021-09-06T13:30:06Z</time>
      </trkpt>
      <trkpt lat="47.338518" lon="-1.277339">
        <ele>24.188</ele>
        <time>2021-09-06T13:30:22Z</time>
      </trkpt>
      <trkpt lat="47.338718" lon="-1.277447">
        <ele>22.663</ele>
        <time>2021-09-06T13:30:30Z</time>
      </trkpt>
      <trkpt lat="47.338835" lon="-1.277767">
        <ele>21.496</ele>
        <time>2021-09-06T13:30:40Z</time>
      </trkpt>
      <trkpt lat="47.343982" lon="-1.279380">
        <ele>25.831</ele>
        <time>2021-09-06T13:34:12Z</time>
      </trkpt>
      <trkpt lat="47.344417" lon="-1.279623">
        <ele>26.024</ele>
        <time>2021-09-06T13:34:23Z</time>
      </trkpt>
      <trkpt lat="47.345115" lon="-1.280576">
        <ele>25.408</ele>
        <time>2021-09-06T13:34:42Z</time>
      </trkpt>
      <trkpt lat="47.345316" lon="-1.282382">
        <ele>20.657</ele>
        <time>2021-09-06T13:35:00Z</time>
      </trkpt>
      <trkpt lat="47.345492" lon="-1.282480">
        <ele>20.152</ele>
        <time>2021-09-06T13:35:04Z</time>
      </trkpt>
      <trkpt lat="47.345925" lon="-1.282391">
        <ele>21.290</ele>
        <time>2021-09-06T13:35:14Z</time>
      </trkpt>
      <trkpt lat="47.346231" lon="-1.283484">
        <ele>18.955</ele>
        <time>2021-09-06T13:35:35Z</time>
      </trkpt>
      <trkpt lat="47.346172" lon="-1.283987">
        <ele>25.296</ele>
        <time>2021-09-06T13:38:43Z</time>
      </trkpt>
      <trkpt lat="47.346288" lon="-1.283620">
        <ele>16.963</ele>
        <time>2021-09-06T13:57:11Z</time>
      </trkpt>
      <trkpt lat="47.346615" lon="-1.283584">
        <ele>17.159</ele>
        <time>2021-09-06T13:57:22Z</time>
      </trkpt>
      <trkpt lat="47.347253" lon="-1.281080">
        <ele>14.594</ele>
        <time>2021-09-06T13:58:09Z</time>
      </trkpt>
      <trkpt lat="47.347208" lon="-1.280779">
        <ele>15.367</ele>
        <time>2021-09-06T13:58:14Z</time>
      </trkpt>
      <trkpt lat="47.346843" lon="-1.280602">
        <ele>14.881</ele>
        <time>2021-09-06T13:58:23Z</time>
      </trkpt>
      <trkpt lat="47.346789" lon="-1.280276">
        <ele>14.419</ele>
        <time>2021-09-06T13:58:29Z</time>
      </trkpt>
      <trkpt lat="47.346998" lon="-1.278271">
        <ele>15.708</ele>
        <time>2021-09-06T13:58:59Z</time>
      </trkpt>
      <trkpt lat="47.347333" lon="-1.276910">
        <ele>11.934</ele>
        <time>2021-09-06T13:59:20Z</time>
      </trkpt>
      <trkpt lat="47.347298" lon="-1.275881">
        <ele>13.649</ele>
        <time>2021-09-06T13:59:34Z</time>
      </trkpt>
      <trkpt lat="47.347799" lon="-1.270718">
        <ele>14.757</ele>
        <time>2021-09-06T14:00:53Z</time>
      </trkpt>
      <trkpt lat="47.348185" lon="-1.268289">
        <ele>11.492</ele>
        <time>2021-09-06T14:01:30Z</time>
      </trkpt>
      <trkpt lat="47.348380" lon="-1.267616">
        <ele>12.133</ele>
        <time>2021-09-06T14:01:42Z</time>
      </trkpt>
      <trkpt lat="47.349481" lon="-1.266515">
        <ele>16.030</ele>
        <time>2021-09-06T14:02:27Z</time>
      </trkpt>
      <trkpt lat="47.349553" lon="-1.266291">
        <ele>18.696</ele>
        <time>2021-09-06T14:02:36Z</time>
      </trkpt>
      <trkpt lat="47.349160" lon="-1.262806">
        <ele>13.471</ele>
        <time>2021-09-06T14:03:48Z</time>
      </trkpt>
      <trkpt lat="47.348262" lon="-1.260182">
        <ele>15.728</ele>
        <time>2021-09-06T14:04:28Z</time>
      </trkpt>
      <trkpt lat="47.347719" lon="-1.257154">
        <ele>12.389</ele>
        <time>2021-09-06T14:05:10Z</time>
      </trkpt>
      <trkpt lat="47.347681" lon="-1.256272">
        <ele>10.217</ele>
        <time>2021-09-06T14:05:22Z</time>
      </trkpt>
      <trkpt lat="47.347985" lon="-1.253654">
        <ele>15.308</ele>
        <time>2021-09-06T14:06:05Z</time>
      </trkpt>
      <trkpt lat="47.347380" lon="-1.253533">
        <ele>8.670</ele>
        <time>2021-09-06T14:06:21Z</time>
      </trkpt>
      <trkpt lat="47.347166" lon="-1.253337">
        <ele>10.575</ele>
        <time>2021-09-06T14:06:29Z</time>
      </trkpt>
      <trkpt lat="47.347468" lon="-1.251373">
        <ele>9.573</ele>
        <time>2021-09-06T14:07:06Z</time>
      </trkpt>
      <trkpt lat="47.348097" lon="-1.248878">
        <ele>12.588</ele>
        <time>2021-09-06T14:07:56Z</time>
      </trkpt>
      <trkpt lat="47.350373" lon="-1.243366">
        <ele>11.049</ele>
        <time>2021-09-06T14:09:30Z</time>
      </trkpt>
      <trkpt lat="47.351748" lon="-1.238085">
        <ele>11.626</ele>
        <time>2021-09-06T14:11:00Z</time>
      </trkpt>
      <trkpt lat="47.353234" lon="-1.233132">
        <ele>13.912</ele>
        <time>2021-09-06T14:12:30Z</time>
      </trkpt>
      <trkpt lat="47.353876" lon="-1.231544">
        <ele>13.987</ele>
        <time>2021-09-06T14:12:58Z</time>
      </trkpt>
      <trkpt lat="47.357397" lon="-1.224263">
        <ele>7.563</ele>
        <time>2021-09-06T14:15:54Z</time>
      </trkpt>
      <trkpt lat="47.357065" lon="-1.223601">
        <ele>13.644</ele>
        <time>2021-09-06T14:16:08Z</time>
      </trkpt>
      <trkpt lat="47.357692" lon="-1.218308">
        <ele>13.918</ele>
        <time>2021-09-06T14:18:18Z</time>
      </trkpt>
      <trkpt lat="47.358805" lon="-1.212759">
        <ele>13.408</ele>
        <time>2021-09-06T14:19:56Z</time>
      </trkpt>
      <trkpt lat="47.360091" lon="-1.209371">
        <ele>9.764</ele>
        <time>2021-09-06T14:20:56Z</time>
      </trkpt>
      <trkpt lat="47.360534" lon="-1.207633">
        <ele>9.689</ele>
        <time>2021-09-06T14:21:26Z</time>
      </trkpt>
      <trkpt lat="47.360888" lon="-1.202293">
        <ele>7.497</ele>
        <time>2021-09-06T14:22:49Z</time>
      </trkpt>
      <trkpt lat="47.361428" lon="-1.201916">
        <ele>14.082</ele>
        <time>2021-09-06T14:23:05Z</time>
      </trkpt>
      <trkpt lat="47.361698" lon="-1.201482">
        <ele>10.453</ele>
        <time>2021-09-06T14:23:14Z</time>
      </trkpt>
      <trkpt lat="47.361950" lon="-1.200072">
        <ele>15.260</ele>
        <time>2021-09-06T14:23:36Z</time>
      </trkpt>
      <trkpt lat="47.362969" lon="-1.197225">
        <ele>13.576</ele>
        <time>2021-09-06T14:25:21Z</time>
      </trkpt>
      <trkpt lat="47.362133" lon="-1.196180">
        <ele>14.371</ele>
        <time>2021-09-06T14:25:48Z</time>
      </trkpt>
      <trkpt lat="47.361697" lon="-1.195919">
        <ele>13.131</ele>
        <time>2021-09-06T14:25:59Z</time>
      </trkpt>
      <trkpt lat="47.361679" lon="-1.195568">
        <ele>11.961</ele>
        <time>2021-09-06T14:26:10Z</time>
      </trkpt>
      <trkpt lat="47.362000" lon="-1.193069">
        <ele>12.007</ele>
        <time>2021-09-06T14:31:13Z</time>
      </trkpt>
      <trkpt lat="47.362087" lon="-1.190985">
        <ele>13.708</ele>
        <time>2021-09-06T14:31:49Z</time>
      </trkpt>
      <trkpt lat="47.361966" lon="-1.188679">
        <ele>10.171</ele>
        <time>2021-09-06T14:32:29Z</time>
      </trkpt>
      <trkpt lat="47.362412" lon="-1.187144">
        <ele>14.616</ele>
        <time>2021-09-06T14:33:02Z</time>
      </trkpt>
      <trkpt lat="47.362235" lon="-1.187035">
        <ele>11.914</ele>
        <time>2021-09-06T14:33:14Z</time>
      </trkpt>
      <trkpt lat="47.363196" lon="-1.187334">
        <ele>11.979</ele>
        <time>2021-09-06T14:33:47Z</time>
      </trkpt>
      <trkpt lat="47.363487" lon="-1.187628">
        <ele>12.160</ele>
        <time>2021-09-06T14:33:59Z</time>
      </trkpt>
      <trkpt lat="47.363624" lon="-1.187550">
        <ele>12.367</ele>
        <time>2021-09-06T14:34:05Z</time>
      </trkpt>
      <trkpt lat="47.363407" lon="-1.185931">
        <ele>15.523</ele>
        <time>2021-09-06T14:34:37Z</time>
      </trkpt>
      <trkpt lat="47.363438" lon="-1.183504">
        <ele>13.098</ele>
        <time>2021-09-06T14:35:16Z</time>
      </trkpt>
      <trkpt lat="47.363296" lon="-1.182987">
        <ele>8.736</ele>
        <time>2021-09-06T14:35:26Z</time>
      </trkpt>
      <trkpt lat="47.363376" lon="-1.181186">
        <ele>5.717</ele>
        <time>2021-09-06T14:36:02Z</time>
      </trkpt>
      <trkpt lat="47.363201" lon="-1.178821">
        <ele>13.718</ele>
        <time>2021-09-06T14:36:48Z</time>
      </trkpt>
      <trkpt lat="47.363327" lon="-1.178371">
        <ele>19.708</ele>
        <time>2021-09-06T14:37:02Z</time>
      </trkpt>
      <trkpt lat="47.363580" lon="-1.178649">
        <ele>17.031</ele>
        <time>2021-09-06T14:37:18Z</time>
      </trkpt>
      <trkpt lat="47.363670" lon="-1.179408">
        <ele>16.136</ele>
        <time>2021-09-06T14:39:45Z</time>
      </trkpt>
      <trkpt lat="47.363993" lon="-1.179463">
        <ele>13.884</ele>
        <time>2021-09-06T14:39:58Z</time>
      </trkpt>
      <trkpt lat="47.364077" lon="-1.177569">
        <ele>16.219</ele>
        <time>2021-09-06T14:42:33Z</time>
      </trkpt>
      <trkpt lat="47.363807" lon="-1.177433">
        <ele>19.690</ele>
        <time>2021-09-06T14:43:28Z</time>
      </trkpt>
      <trkpt lat="47.364428" lon="-1.177722">
        <ele>22.347</ele>
        <time>2021-09-06T14:45:50Z</time>
      </trkpt>
      <trkpt lat="47.364502" lon="-1.177504">
        <ele>26.943</ele>
        <time>2021-09-06T14:46:40Z</time>
      </trkpt>
      <trkpt lat="47.364257" lon="-1.176628">
        <ele>23.218</ele>
        <time>2021-09-06T14:47:16Z</time>
      </trkpt>
      <trkpt lat="47.364441" lon="-1.176981">
        <ele>21.236</ele>
        <time>2021-09-06T14:47:32Z</time>
      </trkpt>
      <trkpt lat="47.364447" lon="-1.177729">
        <ele>14.417</ele>
        <time>2021-09-06T14:49:25Z</time>
      </trkpt>
      <trkpt lat="47.364933" lon="-1.178025">
        <ele>22.018</ele>
        <time>2021-09-06T14:49:50Z</time>
      </trkpt>
      <trkpt lat="47.365342" lon="-1.177560">
        <ele>32.808</ele>
        <time>2021-09-06T14:50:15Z</time>
      </trkpt>
      <trkpt lat="47.365637" lon="-1.176351">
        <ele>25.681</ele>
        <time>2021-09-06T14:51:50Z</time>
      </trkpt>
      <trkpt lat="47.365845" lon="-1.176218">
        <ele>22.726</ele>
        <time>2021-09-06T14:51:58Z</time>
      </trkpt>
      <trkpt lat="47.365854" lon="-1.175851">
        <ele>27.374</ele>
        <time>2021-09-06T14:53:00Z</time>
      </trkpt>
      <trkpt lat="47.365886" lon="-1.176228">
        <ele>25.169</ele>
        <time>2021-09-06T14:53:12Z</time>
      </trkpt>
      <trkpt lat="47.365779" lon="-1.176375">
        <ele>25.040</ele>
        <time>2021-09-06T14:53:18Z</time>
      </trkpt>
      <trkpt lat="47.365671" lon="-1.176287">
        <ele>26.557</ele>
        <time>2021-09-06T14:53:23Z</time>
      </trkpt>
      <trkpt lat="47.365627" lon="-1.175867">
        <ele>27.413</ele>
        <time>2021-09-06T14:53:31Z</time>
      </trkpt>
      <trkpt lat="47.365899" lon="-1.174936">
        <ele>22.848</ele>
        <time>2021-09-06T14:53:51Z</time>
      </trkpt>
      <trkpt lat="47.366538" lon="-1.174751">
        <ele>13.949</ele>
        <time>2021-09-06T14:54:08Z</time>
      </trkpt>
      <trkpt lat="47.367138" lon="-1.174841">
        <ele>11.602</ele>
        <time>2021-09-06T14:54:25Z</time>
      </trkpt>
      <trkpt lat="47.367154" lon="-1.174641">
        <ele>12.022</ele>
        <time>2021-09-06T14:54:32Z</time>
      </trkpt>
      <trkpt lat="47.366662" lon="-1.174064">
        <ele>15.808</ele>
        <time>2021-09-06T14:54:56Z</time>
      </trkpt>
      <trkpt lat="47.366965" lon="-1.173645">
        <ele>17.952</ele>
        <time>2021-09-06T14:55:13Z</time>
      </trkpt>
      <trkpt lat="47.366894" lon="-1.173139">
        <ele>13.987</ele>
        <time>2021-09-06T14:55:23Z</time>
      </trkpt>
      <trkpt lat="47.367812" lon="-1.172005">
        <ele>9.495</ele>
        <time>2021-09-06T14:55:50Z</time>
      </trkpt>
      <trkpt lat="47.368954" lon="-1.171102">
        <ele>12.810</ele>
        <time>2021-09-06T14:56:27Z</time>
      </trkpt>
      <trkpt lat="47.370106" lon="-1.169557">
        <ele>16.781</ele>
        <time>2021-09-06T14:57:03Z</time>
      </trkpt>
      <trkpt lat="47.370354" lon="-1.168456">
        <ele>12.668</ele>
        <time>2021-09-06T14:57:27Z</time>
      </trkpt>
      <trkpt lat="47.371082" lon="-1.166577">
        <ele>8.084</ele>
        <time>2021-09-06T14:58:06Z</time>
      </trkpt>
      <trkpt lat="47.371423" lon="-1.161848">
        <ele>16.979</ele>
        <time>2021-09-06T14:59:23Z</time>
      </trkpt>
      <trkpt lat="47.371641" lon="-1.155075">
        <ele>14.012</ele>
        <time>2021-09-06T15:06:48Z</time>
      </trkpt>
      <trkpt lat="47.371917" lon="-1.152389">
        <ele>18.432</ele>
        <time>2021-09-06T15:07:34Z</time>
      </trkpt>
      <trkpt lat="47.374647" lon="-1.143191">
        <ele>16.805</ele>
        <time>2021-09-06T15:10:08Z</time>
      </trkpt>
      <trkpt lat="47.375392" lon="-1.138909">
        <ele>19.708</ele>
        <time>2021-09-06T15:11:27Z</time>
      </trkpt>
      <trkpt lat="47.375330" lon="-1.137635">
        <ele>16.879</ele>
        <time>2021-09-06T15:11:46Z</time>
      </trkpt>
      <trkpt lat="47.375535" lon="-1.136788">
        <ele>15.674</ele>
        <time>2021-09-06T15:11:58Z</time>
      </trkpt>
      <trkpt lat="47.375499" lon="-1.133899">
        <ele>14.642</ele>
        <time>2021-09-06T15:12:37Z</time>
      </trkpt>
      <trkpt lat="47.375050" lon="-1.111233">
        <ele>18.677</ele>
        <time>2021-09-06T15:19:28Z</time>
      </trkpt>
      <trkpt lat="47.374864" lon="-1.108761">
        <ele>6.528</ele>
        <time>2021-09-06T15:20:12Z</time>
      </trkpt>
      <trkpt lat="47.374777" lon="-1.108298">
        <ele>6.515</ele>
        <time>2021-09-06T15:20:19Z</time>
      </trkpt>
      <trkpt lat="47.373534" lon="-1.105680">
        <ele>12.811</ele>
        <time>2021-09-06T15:21:08Z</time>
      </trkpt>
      <trkpt lat="47.371676" lon="-1.100780">
        <ele>13.546</ele>
        <time>2021-09-06T15:22:39Z</time>
      </trkpt>
      <trkpt lat="47.370969" lon="-1.097699">
        <ele>19.432</ele>
        <time>2021-09-06T15:23:30Z</time>
      </trkpt>
      <trkpt lat="47.370887" lon="-1.096582">
        <ele>16.592</ele>
        <time>2021-09-06T15:23:47Z</time>
      </trkpt>
      <trkpt lat="47.371126" lon="-1.096214">
        <ele>13.011</ele>
        <time>2021-09-06T15:23:57Z</time>
      </trkpt>
      <trkpt lat="47.371574" lon="-1.096331">
        <ele>15.508</ele>
        <time>2021-09-06T15:24:11Z</time>
      </trkpt>
      <trkpt lat="47.372976" lon="-1.097652">
        <ele>12.321</ele>
        <time>2021-09-06T15:28:04Z</time>
      </trkpt>
      <trkpt lat="47.373153" lon="-1.097606">
        <ele>14.366</ele>
        <time>2021-09-06T15:28:10Z</time>
      </trkpt>
      <trkpt lat="47.373832" lon="-1.094961">
        <ele>11.594</ele>
        <time>2021-09-06T15:28:51Z</time>
      </trkpt>
      <trkpt lat="47.373910" lon="-1.091543">
        <ele>6.419</ele>
        <time>2021-09-06T15:29:42Z</time>
      </trkpt>
      <trkpt lat="47.374367" lon="-1.088819">
        <ele>10.840</ele>
        <time>2021-09-06T15:30:25Z</time>
      </trkpt>
      <trkpt lat="47.374298" lon="-1.087471">
        <ele>14.477</ele>
        <time>2021-09-06T15:30:46Z</time>
      </trkpt>
      <trkpt lat="47.374040" lon="-1.086854">
        <ele>13.673</ele>
        <time>2021-09-06T15:30:58Z</time>
      </trkpt>
      <trkpt lat="47.373975" lon="-1.085132">
        <ele>8.858</ele>
        <time>2021-09-06T15:31:24Z</time>
      </trkpt>
      <trkpt lat="47.374283" lon="-1.083101">
        <ele>13.323</ele>
        <time>2021-09-06T15:32:00Z</time>
      </trkpt>
      <trkpt lat="47.374200" lon="-1.078496">
        <ele>11.983</ele>
        <time>2021-09-06T15:33:14Z</time>
      </trkpt>
      <trkpt lat="47.374052" lon="-1.078204">
        <ele>12.511</ele>
        <time>2021-09-06T15:33:21Z</time>
      </trkpt>
      <trkpt lat="47.373277" lon="-1.077615">
        <ele>11.808</ele>
        <time>2021-09-06T15:33:45Z</time>
      </trkpt>
      <trkpt lat="47.373419" lon="-1.075252">
        <ele>17.910</ele>
        <time>2021-09-06T15:34:23Z</time>
      </trkpt>
      <trkpt lat="47.372743" lon="-1.071609">
        <ele>15.095</ele>
        <time>2021-09-06T15:35:29Z</time>
      </trkpt>
      <trkpt lat="47.372527" lon="-1.069451">
        <ele>16.823</ele>
        <time>2021-09-06T15:36:05Z</time>
      </trkpt>
      <trkpt lat="47.372837" lon="-1.068445">
        <ele>12.468</ele>
        <time>2021-09-06T15:36:22Z</time>
      </trkpt>
      <trkpt lat="47.372874" lon="-1.067278">
        <ele>12.369</ele>
        <time>2021-09-06T15:36:40Z</time>
      </trkpt>
      <trkpt lat="47.373379" lon="-1.066214">
        <ele>11.886</ele>
        <time>2021-09-06T15:37:01Z</time>
      </trkpt>
      <trkpt lat="47.373452" lon="-1.065745">
        <ele>11.742</ele>
        <time>2021-09-06T15:37:08Z</time>
      </trkpt>
      <trkpt lat="47.373146" lon="-1.064351">
        <ele>11.647</ele>
        <time>2021-09-06T15:37:31Z</time>
      </trkpt>
      <trkpt lat="47.373134" lon="-1.061351">
        <ele>12.165</ele>
        <time>2021-09-06T15:38:16Z</time>
      </trkpt>
      <trkpt lat="47.372765" lon="-1.060059">
        <ele>12.168</ele>
        <time>2021-09-06T15:38:37Z</time>
      </trkpt>
      <trkpt lat="47.372699" lon="-1.059257">
        <ele>12.614</ele>
        <time>2021-09-06T15:38:50Z</time>
      </trkpt>
      <trkpt lat="47.373025" lon="-1.056257">
        <ele>14.508</ele>
        <time>2021-09-06T15:39:39Z</time>
      </trkpt>
      <trkpt lat="47.373251" lon="-1.055369">
        <ele>13.394</ele>
        <time>2021-09-06T15:39:55Z</time>
      </trkpt>
      <trkpt lat="47.372648" lon="-1.055177">
        <ele>15.579</ele>
        <time>2021-09-06T15:40:11Z</time>
      </trkpt>
      <trkpt lat="47.372495" lon="-1.054823">
        <ele>17.637</ele>
        <time>2021-09-06T15:40:17Z</time>
      </trkpt>
      <trkpt lat="47.372729" lon="-1.053763">
        <ele>18.012</ele>
        <time>2021-09-06T15:41:12Z</time>
      </trkpt>
      <trkpt lat="47.372688" lon="-1.051766">
        <ele>15.263</ele>
        <time>2021-09-06T15:41:46Z</time>
      </trkpt>
      <trkpt lat="47.372366" lon="-1.050039">
        <ele>10.680</ele>
        <time>2021-09-06T15:42:18Z</time>
      </trkpt>
      <trkpt lat="47.372159" lon="-1.047651">
        <ele>11.446</ele>
        <time>2021-09-06T15:42:55Z</time>
      </trkpt>
      <trkpt lat="47.372135" lon="-1.046564">
        <ele>11.961</ele>
        <time>2021-09-06T15:43:11Z</time>
      </trkpt>
      <trkpt lat="47.372635" lon="-1.043291">
        <ele>11.292</ele>
        <time>2021-09-06T15:44:01Z</time>
      </trkpt>
      <trkpt lat="47.372947" lon="-1.038445">
        <ele>8.473</ele>
        <time>2021-09-06T15:45:17Z</time>
      </trkpt>
      <trkpt lat="47.371874" lon="-1.032471">
        <ele>9.720</ele>
        <time>2021-09-06T15:47:05Z</time>
      </trkpt>
      <trkpt lat="47.371757" lon="-1.026194">
        <ele>19.208</ele>
        <time>2021-09-06T15:48:36Z</time>
      </trkpt>
      <trkpt lat="47.371954" lon="-1.023623">
        <ele>17.157</ele>
        <time>2021-09-06T15:49:44Z</time>
      </trkpt>
      <trkpt lat="47.371819" lon="-1.022509">
        <ele>15.452</ele>
        <time>2021-09-06T15:50:10Z</time>
      </trkpt>
      <trkpt lat="47.371423" lon="-1.021957">
        <ele>15.550</ele>
        <time>2021-09-06T15:50:28Z</time>
      </trkpt>
      <trkpt lat="47.371279" lon="-1.021965">
        <ele>15.615</ele>
        <time>2021-09-06T15:50:40Z</time>
      </trkpt>
      <trkpt lat="47.371341" lon="-1.021740">
        <ele>13.076</ele>
        <time>2021-09-06T15:52:10Z</time>
      </trkpt>
      <trkpt lat="47.371000" lon="-1.020256">
        <ele>11.663</ele>
        <time>2021-09-06T15:52:40Z</time>
      </trkpt>
      <trkpt lat="47.371020" lon="-1.017908">
        <ele>15.069</ele>
        <time>2021-09-06T15:53:28Z</time>
      </trkpt>
      <trkpt lat="47.371329" lon="-1.016783">
        <ele>18.764</ele>
        <time>2021-09-06T15:54:10Z</time>
      </trkpt>
      <trkpt lat="47.368214" lon="-1.014811">
        <ele>12.852</ele>
        <time>2021-09-06T15:56:38Z</time>
      </trkpt>
      <trkpt lat="47.366857" lon="-1.014503">
        <ele>17.653</ele>
        <time>2021-09-06T15:57:14Z</time>
      </trkpt>
      <trkpt lat="47.367114" lon="-1.012887">
        <ele>13.708</ele>
        <time>2021-09-06T15:57:46Z</time>
      </trkpt>
      <trkpt lat="47.366887" lon="-1.012459">
        <ele>13.408</ele>
        <time>2021-09-06T15:59:36Z</time>
      </trkpt>
      <trkpt lat="47.366869" lon="-1.012848">
        <ele>19.593</ele>
        <time>2021-09-06T16:15:40Z</time>
      </trkpt>
      <trkpt lat="47.366877" lon="-1.012751">
        <ele>24.158</ele>
        <time>2021-09-06T16:25:55Z</time>
      </trkpt>
      <trkpt lat="47.366825" lon="-1.012607">
        <ele>13.016</ele>
        <time>2021-09-07T10:18:23Z</time>
      </trkpt>
      <trkpt lat="47.367138" lon="-1.012946">
        <ele>14.376</ele>
        <time>2021-09-07T10:18:50Z</time>
      </trkpt>
      <trkpt lat="47.366831" lon="-1.014342">
        <ele>17.513</ele>
        <time>2021-09-07T10:19:28Z</time>
      </trkpt>
      <trkpt lat="47.366223" lon="-1.014448">
        <ele>18.108</ele>
        <time>2021-09-07T10:19:51Z</time>
      </trkpt>
      <trkpt lat="47.366269" lon="-1.014737">
        <ele>17.489</ele>
        <time>2021-09-07T10:20:07Z</time>
      </trkpt>
      <trkpt lat="47.366127" lon="-1.014410">
        <ele>18.894</ele>
        <time>2021-09-07T10:22:03Z</time>
      </trkpt>
      <trkpt lat="47.363918" lon="-1.014604">
        <ele>16.883</ele>
        <time>2021-09-07T10:25:40Z</time>
      </trkpt>
      <trkpt lat="47.363914" lon="-1.014097">
        <ele>19.345</ele>
        <time>2021-09-07T10:26:07Z</time>
      </trkpt>
      <trkpt lat="47.363499" lon="-1.014129">
        <ele>17.916</ele>
        <time>2021-09-07T10:30:54Z</time>
      </trkpt>
      <trkpt lat="47.363736" lon="-1.015028">
        <ele>17.162</ele>
        <time>2021-09-07T10:31:30Z</time>
      </trkpt>
      <trkpt lat="47.363912" lon="-1.015102">
        <ele>20.572</ele>
        <time>2021-09-07T10:32:39Z</time>
      </trkpt>
      <trkpt lat="47.363793" lon="-1.015255">
        <ele>16.251</ele>
        <time>2021-09-07T10:33:24Z</time>
      </trkpt>
      <trkpt lat="47.363804" lon="-1.016501">
        <ele>19.929</ele>
        <time>2021-09-07T10:34:35Z</time>
      </trkpt>
      <trkpt lat="47.363573" lon="-1.017612">
        <ele>33.700</ele>
        <time>2021-09-07T10:36:08Z</time>
      </trkpt>
      <trkpt lat="47.363710" lon="-1.017985">
        <ele>38.620</ele>
        <time>2021-09-07T10:36:38Z</time>
      </trkpt>
      <trkpt lat="47.363611" lon="-1.017926">
        <ele>42.108</ele>
        <time>2021-09-07T10:37:08Z</time>
      </trkpt>
      <trkpt lat="47.363551" lon="-1.019043">
        <ele>42.470</ele>
        <time>2021-09-07T10:37:55Z</time>
      </trkpt>
      <trkpt lat="47.364057" lon="-1.019213">
        <ele>56.245</ele>
        <time>2021-09-07T10:41:02Z</time>
      </trkpt>
      <trkpt lat="47.364054" lon="-1.019315">
        <ele>54.834</ele>
        <time>2021-09-07T10:41:21Z</time>
      </trkpt>
      <trkpt lat="47.363947" lon="-1.019189">
        <ele>54.076</ele>
        <time>2021-09-07T10:46:42Z</time>
      </trkpt>
      <trkpt lat="47.364034" lon="-1.019229">
        <ele>44.297</ele>
        <time>2021-09-07T10:47:20Z</time>
      </trkpt>
      <trkpt lat="47.363868" lon="-1.019505">
        <ele>45.243</ele>
        <time>2021-09-07T10:47:59Z</time>
      </trkpt>
      <trkpt lat="47.363890" lon="-1.019957">
        <ele>44.843</ele>
        <time>2021-09-07T10:48:40Z</time>
      </trkpt>
      <trkpt lat="47.364108" lon="-1.020125">
        <ele>45.392</ele>
        <time>2021-09-07T10:48:56Z</time>
      </trkpt>
      <trkpt lat="47.364244" lon="-1.020040">
        <ele>45.984</ele>
        <time>2021-09-07T10:49:08Z</time>
      </trkpt>
      <trkpt lat="47.363355" lon="-1.019901">
        <ele>44.207</ele>
        <time>2021-09-07T10:51:54Z</time>
      </trkpt>
      <trkpt lat="47.363305" lon="-1.019782">
        <ele>44.917</ele>
        <time>2021-09-07T10:52:03Z</time>
      </trkpt>
      <trkpt lat="47.363353" lon="-1.019960">
        <ele>45.908</ele>
        <time>2021-09-07T10:52:16Z</time>
      </trkpt>
      <trkpt lat="47.363080" lon="-1.020035">
        <ele>44.746</ele>
        <time>2021-09-07T10:52:40Z</time>
      </trkpt>
      <trkpt lat="47.362839" lon="-1.020405">
        <ele>44.931</ele>
        <time>2021-09-07T10:53:01Z</time>
      </trkpt>
      <trkpt lat="47.362568" lon="-1.020206">
        <ele>42.110</ele>
        <time>2021-09-07T10:53:20Z</time>
      </trkpt>
      <trkpt lat="47.362527" lon="-1.019738">
        <ele>42.382</ele>
        <time>2021-09-07T10:53:35Z</time>
      </trkpt>
      <trkpt lat="47.363251" lon="-1.019663">
        <ele>46.593</ele>
        <time>2021-09-07T10:54:49Z</time>
      </trkpt>
      <trkpt lat="47.363277" lon="-1.018667">
        <ele>38.979</ele>
        <time>2021-09-07T10:55:19Z</time>
      </trkpt>
      <trkpt lat="47.363814" lon="-1.016686">
        <ele>33.139</ele>
        <time>2021-09-07T10:55:55Z</time>
      </trkpt>
      <trkpt lat="47.363824" lon="-1.015474">
        <ele>25.638</ele>
        <time>2021-09-07T10:56:22Z</time>
      </trkpt>
      <trkpt lat="47.363625" lon="-1.014818">
        <ele>15.339</ele>
        <time>2021-09-07T10:56:53Z</time>
      </trkpt>
      <trkpt lat="47.363826" lon="-1.014578">
        <ele>14.101</ele>
        <time>2021-09-07T10:57:58Z</time>
      </trkpt>
      <trkpt lat="47.363995" lon="-1.013868">
        <ele>16.221</ele>
        <time>2021-09-07T10:58:25Z</time>
      </trkpt>
      <trkpt lat="47.364022" lon="-1.012483">
        <ele>10.408</ele>
        <time>2021-09-07T10:58:59Z</time>
      </trkpt>
      <trkpt lat="47.363745" lon="-1.010996">
        <ele>8.011</ele>
        <time>2021-09-07T10:59:29Z</time>
      </trkpt>
      <trkpt lat="47.363580" lon="-1.008642">
        <ele>10.366</ele>
        <time>2021-09-07T11:00:13Z</time>
      </trkpt>
      <trkpt lat="47.363154" lon="-1.006853">
        <ele>8.485</ele>
        <time>2021-09-07T11:00:52Z</time>
      </trkpt>
      <trkpt lat="47.362863" lon="-1.004654">
        <ele>15.237</ele>
        <time>2021-09-07T11:01:38Z</time>
      </trkpt>
      <trkpt lat="47.364580" lon="-1.000107">
        <ele>11.428</ele>
        <time>2021-09-07T11:03:43Z</time>
      </trkpt>
      <trkpt lat="47.367924" lon="-0.973732">
        <ele>5.834</ele>
        <time>2021-09-07T11:10:29Z</time>
      </trkpt>
      <trkpt lat="47.372020" lon="-0.954774">
        <ele>9.194</ele>
        <time>2021-09-07T11:15:44Z</time>
      </trkpt>
      <trkpt lat="47.376027" lon="-0.944280">
        <ele>8.863</ele>
        <time>2021-09-07T11:18:54Z</time>
      </trkpt>
      <trkpt lat="47.377914" lon="-0.938815">
        <ele>6.966</ele>
        <time>2021-09-07T11:20:32Z</time>
      </trkpt>
      <trkpt lat="47.379883" lon="-0.934195">
        <ele>9.429</ele>
        <time>2021-09-07T11:21:58Z</time>
      </trkpt>
      <trkpt lat="47.380279" lon="-0.934571">
        <ele>11.521</ele>
        <time>2021-09-07T11:22:12Z</time>
      </trkpt>
      <trkpt lat="47.381120" lon="-0.934995">
        <ele>9.108</ele>
        <time>2021-09-07T11:22:33Z</time>
      </trkpt>
      <trkpt lat="47.383446" lon="-0.935074">
        <ele>9.944</ele>
        <time>2021-09-07T11:23:29Z</time>
      </trkpt>
      <trkpt lat="47.384037" lon="-0.933865">
        <ele>9.089</ele>
        <time>2021-09-07T11:23:55Z</time>
      </trkpt>
      <trkpt lat="47.384636" lon="-0.933270">
        <ele>10.798</ele>
        <time>2021-09-07T11:24:13Z</time>
      </trkpt>
      <trkpt lat="47.385280" lon="-0.932882">
        <ele>10.420</ele>
        <time>2021-09-07T11:24:29Z</time>
      </trkpt>
      <trkpt lat="47.386857" lon="-0.932428">
        <ele>9.471</ele>
        <time>2021-09-07T11:25:04Z</time>
      </trkpt>
      <trkpt lat="47.387348" lon="-0.931230">
        <ele>12.057</ele>
        <time>2021-09-07T11:25:36Z</time>
      </trkpt>
      <trkpt lat="47.387868" lon="-0.931404">
        <ele>10.857</ele>
        <time>2021-09-07T11:25:49Z</time>
      </trkpt>
      <trkpt lat="47.388369" lon="-0.931201">
        <ele>10.656</ele>
        <time>2021-09-07T11:26:01Z</time>
      </trkpt>
      <trkpt lat="47.388735" lon="-0.929742">
        <ele>11.919</ele>
        <time>2021-09-07T11:26:29Z</time>
      </trkpt>
      <trkpt lat="47.389100" lon="-0.929263">
        <ele>11.009</ele>
        <time>2021-09-07T11:26:41Z</time>
      </trkpt>
      <trkpt lat="47.389795" lon="-0.929373">
        <ele>10.919</ele>
        <time>2021-09-07T11:26:59Z</time>
      </trkpt>
      <trkpt lat="47.390125" lon="-0.929283">
        <ele>10.708</ele>
        <time>2021-09-07T11:27:07Z</time>
      </trkpt>
      <trkpt lat="47.391166" lon="-0.928300">
        <ele>8.069</ele>
        <time>2021-09-07T11:40:40Z</time>
      </trkpt>
      <trkpt lat="47.391787" lon="-0.925512">
        <ele>11.784</ele>
        <time>2021-09-07T11:41:31Z</time>
      </trkpt>
      <trkpt lat="47.392522" lon="-0.923678">
        <ele>9.673</ele>
        <time>2021-09-07T11:42:07Z</time>
      </trkpt>
      <trkpt lat="47.392762" lon="-0.922562">
        <ele>9.685</ele>
        <time>2021-09-07T11:42:27Z</time>
      </trkpt>
      <trkpt lat="47.392458" lon="-0.920419">
        <ele>10.386</ele>
        <time>2021-09-07T11:43:04Z</time>
      </trkpt>
      <trkpt lat="47.392498" lon="-0.917008">
        <ele>10.862</ele>
        <time>2021-09-07T11:43:57Z</time>
      </trkpt>
      <trkpt lat="47.393018" lon="-0.916551">
        <ele>13.052</ele>
        <time>2021-09-07T11:44:13Z</time>
      </trkpt>
      <trkpt lat="47.393976" lon="-0.914870">
        <ele>13.761</ele>
        <time>2021-09-07T11:44:47Z</time>
      </trkpt>
      <trkpt lat="47.394660" lon="-0.910988">
        <ele>11.024</ele>
        <time>2021-09-07T11:45:55Z</time>
      </trkpt>
      <trkpt lat="47.395364" lon="-0.909736">
        <ele>10.904</ele>
        <time>2021-09-07T11:46:20Z</time>
      </trkpt>
      <trkpt lat="47.394687" lon="-0.909154">
        <ele>10.614</ele>
        <time>2021-09-07T11:46:46Z</time>
      </trkpt>
      <trkpt lat="47.393660" lon="-0.908878">
        <ele>11.208</ele>
        <time>2021-09-07T11:47:11Z</time>
      </trkpt>
      <trkpt lat="47.392747" lon="-0.908082">
        <ele>10.450</ele>
        <time>2021-09-07T11:47:36Z</time>
      </trkpt>
      <trkpt lat="47.391927" lon="-0.907979">
        <ele>10.515</ele>
        <time>2021-09-07T11:47:56Z</time>
      </trkpt>
      <trkpt lat="47.392176" lon="-0.906231">
        <ele>10.974</ele>
        <time>2021-09-07T11:48:30Z</time>
      </trkpt>
      <trkpt lat="47.392022" lon="-0.905861">
        <ele>11.566</ele>
        <time>2021-09-07T11:48:38Z</time>
      </trkpt>
      <trkpt lat="47.389978" lon="-0.904996">
        <ele>8.047</ele>
        <time>2021-09-07T11:49:30Z</time>
      </trkpt>
      <trkpt lat="47.388323" lon="-0.904603">
        <ele>10.593</ele>
        <time>2021-09-07T11:50:09Z</time>
      </trkpt>
      <trkpt lat="47.388245" lon="-0.904402">
        <ele>10.743</ele>
        <time>2021-09-07T11:50:13Z</time>
      </trkpt>
      <trkpt lat="47.389063" lon="-0.898079">
        <ele>12.272</ele>
        <time>2021-09-07T11:52:05Z</time>
      </trkpt>
      <trkpt lat="47.389884" lon="-0.895850">
        <ele>10.838</ele>
        <time>2021-09-07T11:53:52Z</time>
      </trkpt>
      <trkpt lat="47.389683" lon="-0.890952">
        <ele>13.670</ele>
        <time>2021-09-07T11:55:15Z</time>
      </trkpt>
      <trkpt lat="47.390258" lon="-0.888804">
        <ele>13.917</ele>
        <time>2021-09-07T11:55:57Z</time>
      </trkpt>
      <trkpt lat="47.390685" lon="-0.885950">
        <ele>16.008</ele>
        <time>2021-09-07T11:56:51Z</time>
      </trkpt>
      <trkpt lat="47.391217" lon="-0.884127">
        <ele>13.971</ele>
        <time>2021-09-07T11:57:27Z</time>
      </trkpt>
      <trkpt lat="47.391483" lon="-0.879616">
        <ele>13.176</ele>
        <time>2021-09-07T11:58:51Z</time>
      </trkpt>
      <trkpt lat="47.391427" lon="-0.878017">
        <ele>12.575</ele>
        <time>2021-09-07T11:59:21Z</time>
      </trkpt>
      <trkpt lat="47.392168" lon="-0.874653">
        <ele>11.087</ele>
        <time>2021-09-07T12:00:22Z</time>
      </trkpt>
      <trkpt lat="47.392258" lon="-0.872529">
        <ele>15.218</ele>
        <time>2021-09-07T12:01:14Z</time>
      </trkpt>
      <trkpt lat="47.392072" lon="-0.867048">
        <ele>15.284</ele>
        <time>2021-09-07T12:03:02Z</time>
      </trkpt>
      <trkpt lat="47.392293" lon="-0.862338">
        <ele>19.384</ele>
        <time>2021-09-07T12:04:30Z</time>
      </trkpt>
      <trkpt lat="47.391813" lon="-0.860762">
        <ele>18.023</ele>
        <time>2021-09-07T12:05:55Z</time>
      </trkpt>
      <trkpt lat="47.391957" lon="-0.860631">
        <ele>17.638</ele>
        <time>2021-09-07T12:06:35Z</time>
      </trkpt>
      <trkpt lat="47.391711" lon="-0.860687">
        <ele>16.570</ele>
        <time>2021-09-07T12:06:58Z</time>
      </trkpt>
      <trkpt lat="47.391891" lon="-0.860914">
        <ele>19.117</ele>
        <time>2021-09-07T12:07:36Z</time>
      </trkpt>
      <trkpt lat="47.391838" lon="-0.861200">
        <ele>19.708</ele>
        <time>2021-09-07T12:07:51Z</time>
      </trkpt>
      <trkpt lat="47.389992" lon="-0.862567">
        <ele>16.491</ele>
        <time>2021-09-07T12:08:46Z</time>
      </trkpt>
      <trkpt lat="47.390251" lon="-0.862253">
        <ele>18.196</ele>
        <time>2021-09-07T12:09:31Z</time>
      </trkpt>
      <trkpt lat="47.390086" lon="-0.862076">
        <ele>15.615</ele>
        <time>2021-09-07T12:10:24Z</time>
      </trkpt>
      <trkpt lat="47.389966" lon="-0.861087">
        <ele>13.557</ele>
        <time>2021-09-07T12:10:46Z</time>
      </trkpt>
      <trkpt lat="47.389771" lon="-0.861001">
        <ele>14.318</ele>
        <time>2021-09-07T12:11:04Z</time>
      </trkpt>
      <trkpt lat="47.389887" lon="-0.860738">
        <ele>15.864</ele>
        <time>2021-09-07T12:12:30Z</time>
      </trkpt>
      <trkpt lat="47.390217" lon="-0.860529">
        <ele>13.374</ele>
        <time>2021-09-07T12:12:47Z</time>
      </trkpt>
      <trkpt lat="47.391185" lon="-0.860371">
        <ele>13.663</ele>
        <time>2021-09-07T12:13:30Z</time>
      </trkpt>
      <trkpt lat="47.391066" lon="-0.859771">
        <ele>19.489</ele>
        <time>2021-09-07T12:13:56Z</time>
      </trkpt>
      <trkpt lat="47.390185" lon="-0.858991">
        <ele>18.906</ele>
        <time>2021-09-07T12:14:37Z</time>
      </trkpt>
      <trkpt lat="47.389683" lon="-0.858129">
        <ele>20.326</ele>
        <time>2021-09-07T12:14:59Z</time>
      </trkpt>
      <trkpt lat="47.388293" lon="-0.853613">
        <ele>14.508</ele>
        <time>2021-09-07T12:16:35Z</time>
      </trkpt>
      <trkpt lat="47.386821" lon="-0.850400">
        <ele>12.326</ele>
        <time>2021-09-07T12:26:41Z</time>
      </trkpt>
      <trkpt lat="47.387967" lon="-0.848936">
        <ele>12.991</ele>
        <time>2021-09-07T12:28:07Z</time>
      </trkpt>
      <trkpt lat="47.388684" lon="-0.849187">
        <ele>11.910</ele>
        <time>2021-09-07T12:28:23Z</time>
      </trkpt>
      <trkpt lat="47.389136" lon="-0.848702">
        <ele>12.582</ele>
        <time>2021-09-07T12:28:36Z</time>
      </trkpt>
      <trkpt lat="47.389374" lon="-0.846759">
        <ele>12.553</ele>
        <time>2021-09-07T12:29:08Z</time>
      </trkpt>
      <trkpt lat="47.389011" lon="-0.843617">
        <ele>10.789</ele>
        <time>2021-09-07T12:30:00Z</time>
      </trkpt>
      <trkpt lat="47.386055" lon="-0.839220">
        <ele>9.399</ele>
        <time>2021-09-07T12:31:41Z</time>
      </trkpt>
      <trkpt lat="47.385495" lon="-0.839287">
        <ele>10.538</ele>
        <time>2021-09-07T12:31:57Z</time>
      </trkpt>
      <trkpt lat="47.384852" lon="-0.838599">
        <ele>10.874</ele>
        <time>2021-09-07T12:32:17Z</time>
      </trkpt>
      <trkpt lat="47.383364" lon="-0.834172">
        <ele>11.956</ele>
        <time>2021-09-07T12:34:37Z</time>
      </trkpt>
      <trkpt lat="47.382670" lon="-0.832764">
        <ele>11.421</ele>
        <time>2021-09-07T12:35:07Z</time>
      </trkpt>
      <trkpt lat="47.381491" lon="-0.831139">
        <ele>13.908</ele>
        <time>2021-09-07T12:35:46Z</time>
      </trkpt>
      <trkpt lat="47.378626" lon="-0.828384">
        <ele>12.475</ele>
        <time>2021-09-07T12:37:02Z</time>
      </trkpt>
      <trkpt lat="47.377623" lon="-0.826463">
        <ele>11.490</ele>
        <time>2021-09-07T12:37:39Z</time>
      </trkpt>
      <trkpt lat="47.376912" lon="-0.824212">
        <ele>12.579</ele>
        <time>2021-09-07T12:38:17Z</time>
      </trkpt>
      <trkpt lat="47.376170" lon="-0.820187">
        <ele>12.281</ele>
        <time>2021-09-07T12:39:27Z</time>
      </trkpt>
      <trkpt lat="47.374151" lon="-0.813838">
        <ele>11.872</ele>
        <time>2021-09-07T12:41:23Z</time>
      </trkpt>
      <trkpt lat="47.373610" lon="-0.809666">
        <ele>14.998</ele>
        <time>2021-09-07T12:43:47Z</time>
      </trkpt>
      <trkpt lat="47.372706" lon="-0.807292">
        <ele>13.598</ele>
        <time>2021-09-07T12:45:25Z</time>
      </trkpt>
      <trkpt lat="47.371553" lon="-0.802317">
        <ele>15.667</ele>
        <time>2021-09-07T12:47:01Z</time>
      </trkpt>
      <trkpt lat="47.371196" lon="-0.802113">
        <ele>14.338</ele>
        <time>2021-09-07T12:47:11Z</time>
      </trkpt>
      <trkpt lat="47.369476" lon="-0.802914">
        <ele>11.870</ele>
        <time>2021-09-07T12:47:57Z</time>
      </trkpt>
      <trkpt lat="47.367458" lon="-0.799454">
        <ele>15.017</ele>
        <time>2021-09-07T12:49:11Z</time>
      </trkpt>
      <trkpt lat="47.366969" lon="-0.797115">
        <ele>16.208</ele>
        <time>2021-09-07T12:49:50Z</time>
      </trkpt>
      <trkpt lat="47.366906" lon="-0.795945">
        <ele>16.551</ele>
        <time>2021-09-07T12:50:08Z</time>
      </trkpt>
      <trkpt lat="47.366520" lon="-0.794871">
        <ele>17.856</ele>
        <time>2021-09-07T12:50:28Z</time>
      </trkpt>
      <trkpt lat="47.366355" lon="-0.793874">
        <ele>18.255</ele>
        <time>2021-09-07T12:50:44Z</time>
      </trkpt>
      <trkpt lat="47.366380" lon="-0.792056">
        <ele>8.767</ele>
        <time>2021-09-07T12:51:13Z</time>
      </trkpt>
      <trkpt lat="47.365318" lon="-0.789921">
        <ele>8.468</ele>
        <time>2021-09-07T12:51:57Z</time>
      </trkpt>
      <trkpt lat="47.363368" lon="-0.782399">
        <ele>11.144</ele>
        <time>2021-09-07T12:54:16Z</time>
      </trkpt>
      <trkpt lat="47.362233" lon="-0.779342">
        <ele>14.864</ele>
        <time>2021-09-07T12:55:20Z</time>
      </trkpt>
      <trkpt lat="47.361833" lon="-0.777089">
        <ele>15.783</ele>
        <time>2021-09-07T12:56:00Z</time>
      </trkpt>
      <trkpt lat="47.361830" lon="-0.775187">
        <ele>13.354</ele>
        <time>2021-09-07T12:56:31Z</time>
      </trkpt>
      <trkpt lat="47.361412" lon="-0.774639">
        <ele>16.756</ele>
        <time>2021-09-07T12:56:45Z</time>
      </trkpt>
      <trkpt lat="47.360692" lon="-0.772248">
        <ele>14.411</ele>
        <time>2021-09-07T12:57:33Z</time>
      </trkpt>
      <trkpt lat="47.360562" lon="-0.772197">
        <ele>13.808</ele>
        <time>2021-09-07T12:57:37Z</time>
      </trkpt>
      <trkpt lat="47.359848" lon="-0.772712">
        <ele>14.923</ele>
        <time>2021-09-07T13:00:29Z</time>
      </trkpt>
      <trkpt lat="47.359228" lon="-0.772340">
        <ele>14.498</ele>
        <time>2021-09-07T13:00:49Z</time>
      </trkpt>
      <trkpt lat="47.357260" lon="-0.768896">
        <ele>13.487</ele>
        <time>2021-09-07T13:02:26Z</time>
      </trkpt>
      <trkpt lat="47.355914" lon="-0.766877">
        <ele>15.629</ele>
        <time>2021-09-07T13:03:20Z</time>
      </trkpt>
      <trkpt lat="47.355267" lon="-0.763859">
        <ele>19.820</ele>
        <time>2021-09-07T13:04:16Z</time>
      </trkpt>
      <trkpt lat="47.355063" lon="-0.761490">
        <ele>18.276</ele>
        <time>2021-09-07T13:05:29Z</time>
      </trkpt>
      <trkpt lat="47.352080" lon="-0.763128">
        <ele>21.636</ele>
        <time>2021-09-07T13:09:52Z</time>
      </trkpt>
      <trkpt lat="47.352589" lon="-0.762947">
        <ele>19.715</ele>
        <time>2021-09-07T13:11:19Z</time>
      </trkpt>
      <trkpt lat="47.353165" lon="-0.764627">
        <ele>25.439</ele>
        <time>2021-09-07T13:12:38Z</time>
      </trkpt>
      <trkpt lat="47.352983" lon="-0.764032">
        <ele>22.001</ele>
        <time>2021-09-07T13:13:00Z</time>
      </trkpt>
      <trkpt lat="47.353560" lon="-0.763543">
        <ele>22.221</ele>
        <time>2021-09-07T13:13:32Z</time>
      </trkpt>
      <trkpt lat="47.352894" lon="-0.761353">
        <ele>16.608</ele>
        <time>2021-09-07T13:24:48Z</time>
      </trkpt>
      <trkpt lat="47.352733" lon="-0.761176">
        <ele>18.881</ele>
        <time>2021-09-07T13:25:00Z</time>
      </trkpt>
      <trkpt lat="47.351584" lon="-0.762296">
        <ele>23.276</ele>
        <time>2021-09-07T13:27:37Z</time>
      </trkpt>
      <trkpt lat="47.351388" lon="-0.762052">
        <ele>25.145</ele>
        <time>2021-09-07T13:27:54Z</time>
      </trkpt>
      <trkpt lat="47.351523" lon="-0.760779">
        <ele>13.467</ele>
        <time>2021-09-07T13:28:21Z</time>
      </trkpt>
      <trkpt lat="47.351710" lon="-0.760351">
        <ele>12.068</ele>
        <time>2021-09-07T13:28:33Z</time>
      </trkpt>
      <trkpt lat="47.351882" lon="-0.760514">
        <ele>18.824</ele>
        <time>2021-09-07T13:28:44Z</time>
      </trkpt>
      <trkpt lat="47.352452" lon="-0.760361">
        <ele>18.764</ele>
        <time>2021-09-07T13:29:05Z</time>
      </trkpt>
      <trkpt lat="47.353299" lon="-0.762452">
        <ele>21.883</ele>
        <time>2021-09-07T13:29:55Z</time>
      </trkpt>
      <trkpt lat="47.355226" lon="-0.761339">
        <ele>23.476</ele>
        <time>2021-09-07T13:31:59Z</time>
      </trkpt>
      <trkpt lat="47.354860" lon="-0.760917">
        <ele>17.990</ele>
        <time>2021-09-07T14:08:03Z</time>
      </trkpt>
      <trkpt lat="47.354873" lon="-0.759893">
        <ele>10.019</ele>
        <time>2021-09-07T14:08:23Z</time>
      </trkpt>
      <trkpt lat="47.354709" lon="-0.759144">
        <ele>10.708</ele>
        <time>2021-09-07T14:08:36Z</time>
      </trkpt>
      <trkpt lat="47.353666" lon="-0.756481">
        <ele>12.775</ele>
        <time>2021-09-07T14:09:27Z</time>
      </trkpt>
      <trkpt lat="47.355284" lon="-0.754417">
        <ele>10.560</ele>
        <time>2021-09-07T14:10:20Z</time>
      </trkpt>
      <trkpt lat="47.357408" lon="-0.753644">
        <ele>10.519</ele>
        <time>2021-09-07T14:11:12Z</time>
      </trkpt>
      <trkpt lat="47.357843" lon="-0.751899">
        <ele>11.691</ele>
        <time>2021-09-07T14:11:46Z</time>
      </trkpt>
      <trkpt lat="47.358173" lon="-0.748584">
        <ele>16.372</ele>
        <time>2021-09-07T14:12:38Z</time>
      </trkpt>
      <trkpt lat="47.358849" lon="-0.748560">
        <ele>12.728</ele>
        <time>2021-09-07T14:12:59Z</time>
      </trkpt>
      <trkpt lat="47.358749" lon="-0.748554">
        <ele>12.298</ele>
        <time>2021-09-07T14:13:14Z</time>
      </trkpt>
      <trkpt lat="47.358922" lon="-0.748480">
        <ele>12.767</ele>
        <time>2021-09-07T14:13:52Z</time>
      </trkpt>
      <trkpt lat="47.358998" lon="-0.748188">
        <ele>14.097</ele>
        <time>2021-09-07T14:14:04Z</time>
      </trkpt>
      <trkpt lat="47.359859" lon="-0.748261">
        <ele>9.823</ele>
        <time>2021-09-07T14:14:30Z</time>
      </trkpt>
      <trkpt lat="47.360463" lon="-0.747976">
        <ele>11.125</ele>
        <time>2021-09-07T14:14:44Z</time>
      </trkpt>
      <trkpt lat="47.360616" lon="-0.748076">
        <ele>11.308</ele>
        <time>2021-09-07T14:14:50Z</time>
      </trkpt>
      <trkpt lat="47.361068" lon="-0.751736">
        <ele>12.697</ele>
        <time>2021-09-07T14:15:48Z</time>
      </trkpt>
      <trkpt lat="47.361892" lon="-0.753989">
        <ele>10.552</ele>
        <time>2021-09-07T14:16:23Z</time>
      </trkpt>
      <trkpt lat="47.362686" lon="-0.757251">
        <ele>12.861</ele>
        <time>2021-09-07T14:17:27Z</time>
      </trkpt>
      <trkpt lat="47.370380" lon="-0.753060">
        <ele>21.863</ele>
        <time>2021-09-07T14:20:59Z</time>
      </trkpt>
      <trkpt lat="47.369464" lon="-0.748808">
        <ele>14.114</ele>
        <time>2021-09-07T14:22:13Z</time>
      </trkpt>
      <trkpt lat="47.368129" lon="-0.744898">
        <ele>13.630</ele>
        <time>2021-09-07T14:23:24Z</time>
      </trkpt>
      <trkpt lat="47.368164" lon="-0.743869">
        <ele>13.090</ele>
        <time>2021-09-07T14:23:40Z</time>
      </trkpt>
      <trkpt lat="47.368479" lon="-0.742632">
        <ele>13.919</ele>
        <time>2021-09-07T14:24:01Z</time>
      </trkpt>
      <trkpt lat="47.367944" lon="-0.741032">
        <ele>15.773</ele>
        <time>2021-09-07T14:24:28Z</time>
      </trkpt>
      <trkpt lat="47.366707" lon="-0.734816">
        <ele>13.485</ele>
        <time>2021-09-07T14:26:44Z</time>
      </trkpt>
      <trkpt lat="47.365308" lon="-0.730794">
        <ele>14.513</ele>
        <time>2021-09-07T14:27:55Z</time>
      </trkpt>
      <trkpt lat="47.365127" lon="-0.729861">
        <ele>15.808</ele>
        <time>2021-09-07T14:28:10Z</time>
      </trkpt>
      <trkpt lat="47.363836" lon="-0.726742">
        <ele>14.885</ele>
        <time>2021-09-07T14:29:06Z</time>
      </trkpt>
      <trkpt lat="47.364650" lon="-0.723202">
        <ele>13.410</ele>
        <time>2021-09-07T14:30:04Z</time>
      </trkpt>
      <trkpt lat="47.364424" lon="-0.718790">
        <ele>15.269</ele>
        <time>2021-09-07T14:31:11Z</time>
      </trkpt>
      <trkpt lat="47.365040" lon="-0.716261">
        <ele>14.841</ele>
        <time>2021-09-07T14:31:58Z</time>
      </trkpt>
      <trkpt lat="47.365524" lon="-0.703964">
        <ele>18.722</ele>
        <time>2021-09-07T14:35:27Z</time>
      </trkpt>
      <trkpt lat="47.366029" lon="-0.700513">
        <ele>18.598</ele>
        <time>2021-09-07T14:36:25Z</time>
      </trkpt>
      <trkpt lat="47.365902" lon="-0.700573">
        <ele>18.338</ele>
        <time>2021-09-07T14:36:32Z</time>
      </trkpt>
      <trkpt lat="47.365857" lon="-0.700464">
        <ele>18.317</ele>
        <time>2021-09-07T14:36:35Z</time>
      </trkpt>
      <trkpt lat="47.366368" lon="-0.698381">
        <ele>15.769</ele>
        <time>2021-09-07T14:37:11Z</time>
      </trkpt>
      <trkpt lat="47.366534" lon="-0.696540">
        <ele>14.904</ele>
        <time>2021-09-07T14:37:37Z</time>
      </trkpt>
      <trkpt lat="47.367544" lon="-0.693624">
        <ele>17.624</ele>
        <time>2021-09-07T14:38:26Z</time>
      </trkpt>
      <trkpt lat="47.368108" lon="-0.691091">
        <ele>22.008</ele>
        <time>2021-09-07T14:39:06Z</time>
      </trkpt>
      <trkpt lat="47.368720" lon="-0.689717">
        <ele>16.144</ele>
        <time>2021-09-07T14:39:31Z</time>
      </trkpt>
      <trkpt lat="47.369898" lon="-0.687649">
        <ele>17.769</ele>
        <time>2021-09-07T14:40:13Z</time>
      </trkpt>
      <trkpt lat="47.370758" lon="-0.684908">
        <ele>17.618</ele>
        <time>2021-09-07T14:40:59Z</time>
      </trkpt>
      <trkpt lat="47.371504" lon="-0.684548">
        <ele>19.020</ele>
        <time>2021-09-07T14:41:22Z</time>
      </trkpt>
      <trkpt lat="47.371799" lon="-0.684561">
        <ele>15.911</ele>
        <time>2021-09-07T14:41:30Z</time>
      </trkpt>
      <trkpt lat="47.373864" lon="-0.685139">
        <ele>20.527</ele>
        <time>2021-09-07T14:44:25Z</time>
      </trkpt>
      <trkpt lat="47.374038" lon="-0.684603">
        <ele>30.657</ele>
        <time>2021-09-07T14:44:46Z</time>
      </trkpt>
      <trkpt lat="47.374274" lon="-0.684567">
        <ele>29.726</ele>
        <time>2021-09-07T14:44:56Z</time>
      </trkpt>
      <trkpt lat="47.375045" lon="-0.685001">
        <ele>35.813</ele>
        <time>2021-09-07T14:45:34Z</time>
      </trkpt>
      <trkpt lat="47.375974" lon="-0.685131">
        <ele>37.043</ele>
        <time>2021-09-07T14:46:19Z</time>
      </trkpt>
      <trkpt lat="47.376859" lon="-0.681911">
        <ele>47.407</ele>
        <time>2021-09-07T14:47:54Z</time>
      </trkpt>
      <trkpt lat="47.377505" lon="-0.680182">
        <ele>42.008</ele>
        <time>2021-09-07T14:48:37Z</time>
      </trkpt>
      <trkpt lat="47.377764" lon="-0.678524">
        <ele>39.879</ele>
        <time>2021-09-07T14:49:00Z</time>
      </trkpt>
      <trkpt lat="47.378270" lon="-0.676630">
        <ele>38.174</ele>
        <time>2021-09-07T14:49:34Z</time>
      </trkpt>
      <trkpt lat="47.378750" lon="-0.675480">
        <ele>42.523</ele>
        <time>2021-09-07T14:50:16Z</time>
      </trkpt>
      <trkpt lat="47.379648" lon="-0.672050">
        <ele>47.765</ele>
        <time>2021-09-07T14:51:37Z</time>
      </trkpt>
      <trkpt lat="47.380711" lon="-0.670178">
        <ele>46.156</ele>
        <time>2021-09-07T14:52:17Z</time>
      </trkpt>
      <trkpt lat="47.381459" lon="-0.669239">
        <ele>47.942</ele>
        <time>2021-09-07T14:52:36Z</time>
      </trkpt>
      <trkpt lat="47.383349" lon="-0.666248">
        <ele>40.272</ele>
        <time>2021-09-07T14:54:07Z</time>
      </trkpt>
      <trkpt lat="47.384211" lon="-0.665687">
        <ele>43.431</ele>
        <time>2021-09-07T14:54:30Z</time>
      </trkpt>
      <trkpt lat="47.383817" lon="-0.662599">
        <ele>40.073</ele>
        <time>2021-09-07T14:55:22Z</time>
      </trkpt>
      <trkpt lat="47.383253" lon="-0.660963">
        <ele>36.685</ele>
        <time>2021-09-07T14:55:50Z</time>
      </trkpt>
      <trkpt lat="47.383518" lon="-0.660081">
        <ele>33.513</ele>
        <time>2021-09-07T14:56:08Z</time>
      </trkpt>
      <trkpt lat="47.383107" lon="-0.659572">
        <ele>34.208</ele>
        <time>2021-09-07T14:56:24Z</time>
      </trkpt>
      <trkpt lat="47.383519" lon="-0.658286">
        <ele>30.715</ele>
        <time>2021-09-07T14:56:55Z</time>
      </trkpt>
      <trkpt lat="47.382761" lon="-0.657646">
        <ele>28.060</ele>
        <time>2021-09-07T14:57:21Z</time>
      </trkpt>
      <trkpt lat="47.382851" lon="-0.657046">
        <ele>27.349</ele>
        <time>2021-09-07T14:57:36Z</time>
      </trkpt>
      <trkpt lat="47.382735" lon="-0.656726">
        <ele>26.151</ele>
        <time>2021-09-07T14:59:06Z</time>
      </trkpt>
      <trkpt lat="47.383015" lon="-0.656306">
        <ele>25.172</ele>
        <time>2021-09-07T15:00:24Z</time>
      </trkpt>
      <trkpt lat="47.382839" lon="-0.656674">
        <ele>20.788</ele>
        <time>2021-09-07T15:00:46Z</time>
      </trkpt>
      <trkpt lat="47.382704" lon="-0.656698">
        <ele>18.958</ele>
        <time>2021-09-07T15:00:51Z</time>
      </trkpt>
      <trkpt lat="47.381582" lon="-0.655592">
        <ele>21.187</ele>
        <time>2021-09-07T15:01:35Z</time>
      </trkpt>
      <trkpt lat="47.380157" lon="-0.654458">
        <ele>19.817</ele>
        <time>2021-09-07T15:02:10Z</time>
      </trkpt>
      <trkpt lat="47.380071" lon="-0.654526">
        <ele>22.787</ele>
        <time>2021-09-07T15:02:16Z</time>
      </trkpt>
      <trkpt lat="47.380507" lon="-0.655160">
        <ele>20.515</ele>
        <time>2021-09-07T15:02:33Z</time>
      </trkpt>
      <trkpt lat="47.381029" lon="-0.655459">
        <ele>19.608</ele>
        <time>2021-09-07T15:02:50Z</time>
      </trkpt>
      <trkpt lat="47.385260" lon="-0.645589">
        <ele>14.339</ele>
        <time>2021-09-07T15:05:53Z</time>
      </trkpt>
      <trkpt lat="47.385966" lon="-0.643486">
        <ele>14.734</ele>
        <time>2021-09-07T15:06:31Z</time>
      </trkpt>
      <trkpt lat="47.386478" lon="-0.642852">
        <ele>16.493</ele>
        <time>2021-09-07T15:06:46Z</time>
      </trkpt>
      <trkpt lat="47.387297" lon="-0.640853">
        <ele>16.545</ele>
        <time>2021-09-07T15:07:18Z</time>
      </trkpt>
      <trkpt lat="47.387850" lon="-0.639893">
        <ele>15.366</ele>
        <time>2021-09-07T15:07:39Z</time>
      </trkpt>
      <trkpt lat="47.391102" lon="-0.635058">
        <ele>16.252</ele>
        <time>2021-09-07T15:09:27Z</time>
      </trkpt>
      <trkpt lat="47.391420" lon="-0.634023">
        <ele>18.182</ele>
        <time>2021-09-07T15:09:46Z</time>
      </trkpt>
      <trkpt lat="47.392351" lon="-0.632579">
        <ele>14.011</ele>
        <time>2021-09-07T15:10:17Z</time>
      </trkpt>
      <trkpt lat="47.393908" lon="-0.631004">
        <ele>15.899</ele>
        <time>2021-09-07T15:11:01Z</time>
      </trkpt>
      <trkpt lat="47.395170" lon="-0.630005">
        <ele>12.907</ele>
        <time>2021-09-07T15:11:32Z</time>
      </trkpt>
      <trkpt lat="47.396166" lon="-0.628606">
        <ele>19.827</ele>
        <time>2021-09-07T15:14:00Z</time>
      </trkpt>
      <trkpt lat="47.396875" lon="-0.628340">
        <ele>22.308</ele>
        <time>2021-09-07T15:15:39Z</time>
      </trkpt>
      <trkpt lat="47.398677" lon="-0.626801">
        <ele>23.447</ele>
        <time>2021-09-07T15:16:33Z</time>
      </trkpt>
      <trkpt lat="47.398981" lon="-0.628112">
        <ele>27.792</ele>
        <time>2021-09-07T15:17:32Z</time>
      </trkpt>
      <trkpt lat="47.398830" lon="-0.628827">
        <ele>29.261</ele>
        <time>2021-09-07T15:18:05Z</time>
      </trkpt>
      <trkpt lat="47.398145" lon="-0.630004">
        <ele>39.353</ele>
        <time>2021-09-07T15:19:11Z</time>
      </trkpt>
      <trkpt lat="47.398185" lon="-0.631874">
        <ele>51.954</ele>
        <time>2021-09-07T15:20:31Z</time>
      </trkpt>
      <trkpt lat="47.398289" lon="-0.632133">
        <ele>54.780</ele>
        <time>2021-09-07T15:20:46Z</time>
      </trkpt>
      <trkpt lat="47.398987" lon="-0.631825">
        <ele>50.320</ele>
        <time>2021-09-07T15:21:09Z</time>
      </trkpt>
      <trkpt lat="47.399913" lon="-0.631776">
        <ele>50.829</ele>
        <time>2021-09-07T15:21:38Z</time>
      </trkpt>
      <trkpt lat="47.400876" lon="-0.629646">
        <ele>53.373</ele>
        <time>2021-09-07T15:23:00Z</time>
      </trkpt>
      <trkpt lat="47.403171" lon="-0.626420">
        <ele>57.885</ele>
        <time>2021-09-07T15:25:16Z</time>
      </trkpt>
      <trkpt lat="47.403995" lon="-0.624877">
        <ele>47.713</ele>
        <time>2021-09-07T15:25:48Z</time>
      </trkpt>
      <trkpt lat="47.405112" lon="-0.623794">
        <ele>37.008</ele>
        <time>2021-09-07T15:26:05Z</time>
      </trkpt>
      <trkpt lat="47.405470" lon="-0.623017">
        <ele>29.335</ele>
        <time>2021-09-07T15:26:15Z</time>
      </trkpt>
      <trkpt lat="47.406213" lon="-0.622793">
        <ele>21.420</ele>
        <time>2021-09-07T15:27:05Z</time>
      </trkpt>
      <trkpt lat="47.406308" lon="-0.621544">
        <ele>16.299</ele>
        <time>2021-09-07T15:27:36Z</time>
      </trkpt>
      <trkpt lat="47.406587" lon="-0.620940">
        <ele>18.051</ele>
        <time>2021-09-07T15:27:53Z</time>
      </trkpt>
      <trkpt lat="47.408302" lon="-0.620045">
        <ele>20.572</ele>
        <time>2021-09-07T15:28:52Z</time>
      </trkpt>
      <trkpt lat="47.408140" lon="-0.619147">
        <ele>20.368</ele>
        <time>2021-09-07T15:29:15Z</time>
      </trkpt>
      <trkpt lat="47.408559" lon="-0.618953">
        <ele>18.028</ele>
        <time>2021-09-07T15:30:34Z</time>
      </trkpt>
      <trkpt lat="47.408552" lon="-0.618446">
        <ele>20.417</ele>
        <time>2021-09-07T15:30:48Z</time>
      </trkpt>
      <trkpt lat="47.409170" lon="-0.618129">
        <ele>17.463</ele>
        <time>2021-09-07T15:31:19Z</time>
      </trkpt>
      <trkpt lat="47.409398" lon="-0.617791">
        <ele>15.444</ele>
        <time>2021-09-07T15:31:31Z</time>
      </trkpt>
      <trkpt lat="47.409882" lon="-0.617463">
        <ele>17.518</ele>
        <time>2021-09-07T15:31:44Z</time>
      </trkpt>
      <trkpt lat="47.412725" lon="-0.616531">
        <ele>23.308</ele>
        <time>2021-09-07T15:33:01Z</time>
      </trkpt>
      <trkpt lat="47.413197" lon="-0.616025">
        <ele>17.944</ele>
        <time>2021-09-07T15:33:16Z</time>
      </trkpt>
      <trkpt lat="47.414668" lon="-0.614955">
        <ele>23.829</ele>
        <time>2021-09-07T15:33:58Z</time>
      </trkpt>
      <trkpt lat="47.415812" lon="-0.614419">
        <ele>20.488</ele>
        <time>2021-09-07T15:34:35Z</time>
      </trkpt>
      <trkpt lat="47.416379" lon="-0.613917">
        <ele>18.770</ele>
        <time>2021-09-07T15:34:57Z</time>
      </trkpt>
      <trkpt lat="47.417197" lon="-0.613520">
        <ele>17.711</ele>
        <time>2021-09-07T15:35:21Z</time>
      </trkpt>
      <trkpt lat="47.416784" lon="-0.612850">
        <ele>25.667</ele>
        <time>2021-09-07T15:35:41Z</time>
      </trkpt>
      <trkpt lat="47.417897" lon="-0.611363">
        <ele>20.347</ele>
        <time>2021-09-07T15:36:21Z</time>
      </trkpt>
      <trkpt lat="47.418420" lon="-0.611011">
        <ele>18.776</ele>
        <time>2021-09-07T15:36:39Z</time>
      </trkpt>
      <trkpt lat="47.418282" lon="-0.611293">
        <ele>19.338</ele>
        <time>2021-09-07T15:36:49Z</time>
      </trkpt>
      <trkpt lat="47.418343" lon="-0.611630">
        <ele>20.670</ele>
        <time>2021-09-07T15:36:57Z</time>
      </trkpt>
      <trkpt lat="47.418623" lon="-0.611777">
        <ele>20.217</ele>
        <time>2021-09-07T15:37:06Z</time>
      </trkpt>
      <trkpt lat="47.418762" lon="-0.611606">
        <ele>18.108</ele>
        <time>2021-09-07T15:38:07Z</time>
      </trkpt>
      <trkpt lat="47.418818" lon="-0.611816">
        <ele>19.151</ele>
        <time>2021-09-07T15:39:24Z</time>
      </trkpt>
      <trkpt lat="47.418668" lon="-0.611794">
        <ele>19.386</ele>
        <time>2021-09-07T15:39:45Z</time>
      </trkpt>
      <trkpt lat="47.418730" lon="-0.611671">
        <ele>19.755</ele>
        <time>2021-09-07T15:43:22Z</time>
      </trkpt>
      <trkpt lat="47.418867" lon="-0.611756">
        <ele>20.217</ele>
        <time>2021-09-07T15:43:36Z</time>
      </trkpt>
      <trkpt lat="47.418742" lon="-0.611656">
        <ele>15.428</ele>
        <time>2021-09-07T15:48:14Z</time>
      </trkpt>
      <trkpt lat="47.418831" lon="-0.610959">
        <ele>14.394</ele>
        <time>2021-09-07T15:48:31Z</time>
      </trkpt>
      <trkpt lat="47.418728" lon="-0.610642">
        <ele>17.384</ele>
        <time>2021-09-07T15:48:41Z</time>
      </trkpt>
      <trkpt lat="47.419412" lon="-0.610111">
        <ele>16.993</ele>
        <time>2021-09-07T15:49:04Z</time>
      </trkpt>
      <trkpt lat="47.421101" lon="-0.609168">
        <ele>15.396</ele>
        <time>2021-09-07T15:49:49Z</time>
      </trkpt>
      <trkpt lat="47.422049" lon="-0.607617">
        <ele>17.731</ele>
        <time>2021-09-07T15:50:45Z</time>
      </trkpt>
      <trkpt lat="47.421591" lon="-0.609908">
        <ele>17.624</ele>
        <time>2021-09-07T15:51:46Z</time>
      </trkpt>
      <trkpt lat="47.421566" lon="-0.610308">
        <ele>19.208</ele>
        <time>2021-09-07T15:52:01Z</time>
      </trkpt>
      <trkpt lat="47.421794" lon="-0.610688">
        <ele>19.217</ele>
        <time>2021-09-07T15:54:53Z</time>
      </trkpt>
      <trkpt lat="47.421612" lon="-0.609994">
        <ele>22.722</ele>
        <time>2021-09-07T16:17:54Z</time>
      </trkpt>
      <trkpt lat="47.421885" lon="-0.608206">
        <ele>16.591</ele>
        <time>2021-09-07T16:18:23Z</time>
      </trkpt>
      <trkpt lat="47.422138" lon="-0.607682">
        <ele>17.693</ele>
        <time>2021-09-07T16:18:35Z</time>
      </trkpt>
      <trkpt lat="47.422481" lon="-0.607274">
        <ele>17.594</ele>
        <time>2021-09-07T16:18:46Z</time>
      </trkpt>
      <trkpt lat="47.423724" lon="-0.606490">
        <ele>14.650</ele>
        <time>2021-09-07T16:19:20Z</time>
      </trkpt>
      <trkpt lat="47.424581" lon="-0.605597">
        <ele>15.380</ele>
        <time>2021-09-07T16:19:45Z</time>
      </trkpt>
      <trkpt lat="47.425505" lon="-0.605119">
        <ele>16.969</ele>
        <time>2021-09-07T16:20:09Z</time>
      </trkpt>
      <trkpt lat="47.425771" lon="-0.605154">
        <ele>18.015</ele>
        <time>2021-09-07T16:20:18Z</time>
      </trkpt>
      <trkpt lat="47.426495" lon="-0.604611">
        <ele>19.665</ele>
        <time>2021-09-07T16:20:34Z</time>
      </trkpt>
      <trkpt lat="47.427932" lon="-0.604540">
        <ele>14.411</ele>
        <time>2021-09-07T16:21:06Z</time>
      </trkpt>
      <trkpt lat="47.428946" lon="-0.604936">
        <ele>16.608</ele>
        <time>2021-09-07T16:21:29Z</time>
      </trkpt>
      <trkpt lat="47.429879" lon="-0.605098">
        <ele>17.589</ele>
        <time>2021-09-07T16:21:48Z</time>
      </trkpt>
      <trkpt lat="47.431910" lon="-0.604892">
        <ele>12.434</ele>
        <time>2021-09-07T16:22:31Z</time>
      </trkpt>
      <trkpt lat="47.432778" lon="-0.605145">
        <ele>16.033</ele>
        <time>2021-09-07T16:22:50Z</time>
      </trkpt>
      <trkpt lat="47.433422" lon="-0.605121">
        <ele>9.385</ele>
        <time>2021-09-07T16:23:03Z</time>
      </trkpt>
      <trkpt lat="47.434219" lon="-0.605312">
        <ele>12.646</ele>
        <time>2021-09-07T16:23:24Z</time>
      </trkpt>
      <trkpt lat="47.435460" lon="-0.604625">
        <ele>14.512</ele>
        <time>2021-09-07T16:23:58Z</time>
      </trkpt>
      <trkpt lat="47.436252" lon="-0.603953">
        <ele>15.732</ele>
        <time>2021-09-07T16:24:17Z</time>
      </trkpt>
      <trkpt lat="47.437281" lon="-0.603562">
        <ele>16.211</ele>
        <time>2021-09-07T16:24:39Z</time>
      </trkpt>
      <trkpt lat="47.438517" lon="-0.602592">
        <ele>14.072</ele>
        <time>2021-09-07T16:25:08Z</time>
      </trkpt>
      <trkpt lat="47.440451" lon="-0.601058">
        <ele>21.313</ele>
        <time>2021-09-07T16:25:54Z</time>
      </trkpt>
      <trkpt lat="47.444490" lon="-0.597144">
        <ele>19.414</ele>
        <time>2021-09-07T16:35:13Z</time>
      </trkpt>
      <trkpt lat="47.445611" lon="-0.596311">
        <ele>19.008</ele>
        <time>2021-09-07T16:35:57Z</time>
      </trkpt>
      <trkpt lat="47.446190" lon="-0.595948">
        <ele>20.685</ele>
        <time>2021-09-07T16:36:10Z</time>
      </trkpt>
      <trkpt lat="47.447963" lon="-0.595330">
        <ele>18.840</ele>
        <time>2021-09-07T16:36:50Z</time>
      </trkpt>
      <trkpt lat="47.449043" lon="-0.594773">
        <ele>21.619</ele>
        <time>2021-09-07T16:37:15Z</time>
      </trkpt>
      <trkpt lat="47.449771" lon="-0.593928">
        <ele>14.261</ele>
        <time>2021-09-07T16:37:35Z</time>
      </trkpt>
      <trkpt lat="47.450434" lon="-0.592684">
        <ele>17.822</ele>
        <time>2021-09-07T16:38:02Z</time>
      </trkpt>
      <trkpt lat="47.451442" lon="-0.594454">
        <ele>15.138</ele>
        <time>2021-09-07T16:39:02Z</time>
      </trkpt>
      <trkpt lat="47.451639" lon="-0.594591">
        <ele>16.958</ele>
        <time>2021-09-07T16:39:08Z</time>
      </trkpt>
      <trkpt lat="47.452362" lon="-0.594600">
        <ele>17.927</ele>
        <time>2021-09-07T16:39:26Z</time>
      </trkpt>
      <trkpt lat="47.453264" lon="-0.594179">
        <ele>20.274</ele>
        <time>2021-09-07T16:39:49Z</time>
      </trkpt>
      <trkpt lat="47.454561" lon="-0.594372">
        <ele>23.656</ele>
        <time>2021-09-07T16:40:18Z</time>
      </trkpt>
      <trkpt lat="47.454779" lon="-0.594906">
        <ele>21.421</ele>
        <time>2021-09-07T16:40:30Z</time>
      </trkpt>
      <trkpt lat="47.454918" lon="-0.595933">
        <ele>21.908</ele>
        <time>2021-09-07T16:40:48Z</time>
      </trkpt>
      <trkpt lat="47.454693" lon="-0.596559">
        <ele>23.935</ele>
        <time>2021-09-07T16:41:06Z</time>
      </trkpt>
      <trkpt lat="47.454204" lon="-0.595562">
        <ele>20.730</ele>
        <time>2021-09-07T16:41:33Z</time>
      </trkpt>
      <trkpt lat="47.454405" lon="-0.595868">
        <ele>21.459</ele>
        <time>2021-09-07T16:48:16Z</time>
      </trkpt>
      <trkpt lat="47.454457" lon="-0.595134">
        <ele>20.451</ele>
        <time>2021-09-07T16:48:35Z</time>
      </trkpt>
      <trkpt lat="47.454230" lon="-0.594845">
        <ele>20.832</ele>
        <time>2021-09-07T16:48:43Z</time>
      </trkpt>
      <trkpt lat="47.453727" lon="-0.594731">
        <ele>21.458</ele>
        <time>2021-09-07T16:48:59Z</time>
      </trkpt>
      <trkpt lat="47.453634" lon="-0.594526">
        <ele>30.818</ele>
        <time>2021-09-07T17:00:36Z</time>
      </trkpt>
      <trkpt lat="47.455004" lon="-0.594532">
        <ele>19.071</ele>
        <time>2021-09-08T10:20:45Z</time>
      </trkpt>
      <trkpt lat="47.456065" lon="-0.594545">
        <ele>54.041</ele>
        <time>2021-09-08T10:21:16Z</time>
      </trkpt>
      <trkpt lat="47.456722" lon="-0.595270">
        <ele>53.615</ele>
        <time>2021-09-08T10:21:36Z</time>
      </trkpt>
      <trkpt lat="47.457411" lon="-0.595490">
        <ele>55.508</ele>
        <time>2021-09-08T10:21:54Z</time>
      </trkpt>
      <trkpt lat="47.457875" lon="-0.595423">
        <ele>56.185</ele>
        <time>2021-09-08T10:22:08Z</time>
      </trkpt>
      <trkpt lat="47.458964" lon="-0.594940">
        <ele>54.130</ele>
        <time>2021-09-08T10:22:40Z</time>
      </trkpt>
      <trkpt lat="47.459175" lon="-0.594533">
        <ele>51.780</ele>
        <time>2021-09-08T10:22:52Z</time>
      </trkpt>
      <trkpt lat="47.459160" lon="-0.593695">
        <ele>53.432</ele>
        <time>2021-09-08T10:23:10Z</time>
      </trkpt>
      <trkpt lat="47.459729" lon="-0.592780">
        <ele>53.545</ele>
        <time>2021-09-08T10:23:34Z</time>
      </trkpt>
      <trkpt lat="47.460500" lon="-0.592472">
        <ele>51.589</ele>
        <time>2021-09-08T10:23:54Z</time>
      </trkpt>
      <trkpt lat="47.461232" lon="-0.592447">
        <ele>51.455</ele>
        <time>2021-09-08T10:24:12Z</time>
      </trkpt>
      <trkpt lat="47.463123" lon="-0.591600">
        <ele>54.015</ele>
        <time>2021-09-08T10:24:59Z</time>
      </trkpt>
      <trkpt lat="47.464926" lon="-0.588479">
        <ele>55.382</ele>
        <time>2021-09-08T10:26:10Z</time>
      </trkpt>
      <trkpt lat="47.465298" lon="-0.586401">
        <ele>59.643</ele>
        <time>2021-09-08T10:26:44Z</time>
      </trkpt>
      <trkpt lat="47.466006" lon="-0.584487">
        <ele>57.317</ele>
        <time>2021-09-08T10:27:16Z</time>
      </trkpt>
      <trkpt lat="47.465982" lon="-0.583536">
        <ele>57.308</ele>
        <time>2021-09-08T10:27:32Z</time>
      </trkpt>
      <trkpt lat="47.466189" lon="-0.582588">
        <ele>57.426</ele>
        <time>2021-09-08T10:27:50Z</time>
      </trkpt>
      <trkpt lat="47.465335" lon="-0.580105">
        <ele>56.721</ele>
        <time>2021-09-08T10:29:17Z</time>
      </trkpt>
      <trkpt lat="47.465551" lon="-0.579747">
        <ele>59.061</ele>
        <time>2021-09-08T10:29:25Z</time>
      </trkpt>
      <trkpt lat="47.466176" lon="-0.579225">
        <ele>60.783</ele>
        <time>2021-09-08T10:29:42Z</time>
      </trkpt>
      <trkpt lat="47.466443" lon="-0.578514">
        <ele>54.486</ele>
        <time>2021-09-08T10:29:57Z</time>
      </trkpt>
      <trkpt lat="47.466303" lon="-0.577541">
        <ele>54.240</ele>
        <time>2021-09-08T10:30:17Z</time>
      </trkpt>
      <trkpt lat="47.465694" lon="-0.576178">
        <ele>54.896</ele>
        <time>2021-09-08T10:30:43Z</time>
      </trkpt>
      <trkpt lat="47.465734" lon="-0.575082">
        <ele>56.826</ele>
        <time>2021-09-08T10:31:00Z</time>
      </trkpt>
      <trkpt lat="47.465946" lon="-0.574587">
        <ele>55.288</ele>
        <time>2021-09-08T10:31:09Z</time>
      </trkpt>
      <trkpt lat="47.467002" lon="-0.573378">
        <ele>57.424</ele>
        <time>2021-09-08T10:31:38Z</time>
      </trkpt>
      <trkpt lat="47.468624" lon="-0.570870">
        <ele>56.926</ele>
        <time>2021-09-08T10:32:33Z</time>
      </trkpt>
      <trkpt lat="47.470018" lon="-0.569116">
        <ele>58.308</ele>
        <time>2021-09-08T10:35:57Z</time>
      </trkpt>
      <trkpt lat="47.469929" lon="-0.567181">
        <ele>61.766</ele>
        <time>2021-09-08T10:36:39Z</time>
      </trkpt>
      <trkpt lat="47.470906" lon="-0.565125">
        <ele>62.051</ele>
        <time>2021-09-08T10:37:59Z</time>
      </trkpt>
      <trkpt lat="47.470879" lon="-0.564561">
        <ele>62.751</ele>
        <time>2021-09-08T10:38:14Z</time>
      </trkpt>
      <trkpt lat="47.470154" lon="-0.562743">
        <ele>63.573</ele>
        <time>2021-09-08T10:41:35Z</time>
      </trkpt>
      <trkpt lat="47.470054" lon="-0.562693">
        <ele>63.866</ele>
        <time>2021-09-08T10:41:41Z</time>
      </trkpt>
      <trkpt lat="47.469935" lon="-0.562942">
        <ele>62.920</ele>
        <time>2021-09-08T10:41:53Z</time>
      </trkpt>
      <trkpt lat="47.470091" lon="-0.562615">
        <ele>64.176</ele>
        <time>2021-09-08T10:43:36Z</time>
      </trkpt>
      <trkpt lat="47.468696" lon="-0.559098">
        <ele>87.146</ele>
        <time>2021-09-08T10:46:27Z</time>
      </trkpt>
      <trkpt lat="47.468872" lon="-0.558726">
        <ele>80.222</ele>
        <time>2021-09-08T10:46:40Z</time>
      </trkpt>
      <trkpt lat="47.468912" lon="-0.558881">
        <ele>77.662</ele>
        <time>2021-09-08T10:46:49Z</time>
      </trkpt>
      <trkpt lat="47.469754" lon="-0.558026">
        <ele>77.808</ele>
        <time>2021-09-08T10:57:13Z</time>
      </trkpt>
      <trkpt lat="47.469932" lon="-0.558003">
        <ele>77.408</ele>
        <time>2021-09-08T10:57:24Z</time>
      </trkpt>
      <trkpt lat="47.470643" lon="-0.558900">
        <ele>79.440</ele>
        <time>2021-09-08T10:59:06Z</time>
      </trkpt>
      <trkpt lat="47.470394" lon="-0.559277">
        <ele>77.875</ele>
        <time>2021-09-08T11:00:57Z</time>
      </trkpt>
      <trkpt lat="47.470596" lon="-0.558849">
        <ele>81.565</ele>
        <time>2021-09-08T11:01:33Z</time>
      </trkpt>
      <trkpt lat="47.471067" lon="-0.559344">
        <ele>84.947</ele>
        <time>2021-09-08T11:02:35Z</time>
      </trkpt>
      <trkpt lat="47.470780" lon="-0.558992">
        <ele>82.490</ele>
        <time>2021-09-08T11:03:39Z</time>
      </trkpt>
      <trkpt lat="47.470890" lon="-0.558765">
        <ele>80.674</ele>
        <time>2021-09-08T11:03:53Z</time>
      </trkpt>
      <trkpt lat="47.470778" lon="-0.558947">
        <ele>77.630</ele>
        <time>2021-09-08T11:04:09Z</time>
      </trkpt>
      <trkpt lat="47.470537" lon="-0.558621">
        <ele>81.160</ele>
        <time>2021-09-08T11:04:25Z</time>
      </trkpt>
      <trkpt lat="47.470804" lon="-0.558124">
        <ele>79.037</ele>
        <time>2021-09-08T11:04:50Z</time>
      </trkpt>
      <trkpt lat="47.470909" lon="-0.558152">
        <ele>81.349</ele>
        <time>2021-09-08T11:08:54Z</time>
      </trkpt>
      <trkpt lat="47.470921" lon="-0.557858">
        <ele>76.113</ele>
        <time>2021-09-08T11:09:27Z</time>
      </trkpt>
      <trkpt lat="47.470951" lon="-0.558113">
        <ele>76.608</ele>
        <time>2021-09-08T11:10:49Z</time>
      </trkpt>
      <trkpt lat="47.471222" lon="-0.557011">
        <ele>77.391</ele>
        <time>2021-09-08T11:12:49Z</time>
      </trkpt>
      <trkpt lat="47.471036" lon="-0.556666">
        <ele>78.686</ele>
        <time>2021-09-08T11:13:09Z</time>
      </trkpt>
      <trkpt lat="47.471194" lon="-0.556342">
        <ele>75.226</ele>
        <time>2021-09-08T11:13:25Z</time>
      </trkpt>
      <trkpt lat="47.470911" lon="-0.555933">
        <ele>75.468</ele>
        <time>2021-09-08T11:13:51Z</time>
      </trkpt>
      <trkpt lat="47.471080" lon="-0.555643">
        <ele>74.821</ele>
        <time>2021-09-08T11:15:20Z</time>
      </trkpt>
      <trkpt lat="47.470982" lon="-0.555313">
        <ele>74.525</ele>
        <time>2021-09-08T11:18:23Z</time>
      </trkpt>
      <trkpt lat="47.470858" lon="-0.555428">
        <ele>75.661</ele>
        <time>2021-09-08T11:19:19Z</time>
      </trkpt>
      <trkpt lat="47.470642" lon="-0.555209">
        <ele>75.611</ele>
        <time>2021-09-08T11:20:20Z</time>
      </trkpt>
      <trkpt lat="47.470725" lon="-0.555114">
        <ele>74.373</ele>
        <time>2021-09-08T11:20:27Z</time>
      </trkpt>
      <trkpt lat="47.471019" lon="-0.555601">
        <ele>76.485</ele>
        <time>2021-09-08T11:23:05Z</time>
      </trkpt>
      <trkpt lat="47.470861" lon="-0.555761">
        <ele>77.113</ele>
        <time>2021-09-08T11:24:04Z</time>
      </trkpt>
      <trkpt lat="47.470241" lon="-0.554907">
        <ele>76.808</ele>
        <time>2021-09-08T11:25:32Z</time>
      </trkpt>
      <trkpt lat="47.470163" lon="-0.554522">
        <ele>76.085</ele>
        <time>2021-09-08T11:25:50Z</time>
      </trkpt>
      <trkpt lat="47.470343" lon="-0.554206">
        <ele>75.160</ele>
        <time>2021-09-08T11:30:32Z</time>
      </trkpt>
      <trkpt lat="47.470138" lon="-0.554498">
        <ele>75.080</ele>
        <time>2021-09-08T11:31:36Z</time>
      </trkpt>
      <trkpt lat="47.470383" lon="-0.554180">
        <ele>81.562</ele>
        <time>2021-09-08T11:34:33Z</time>
      </trkpt>
      <trkpt lat="47.470842" lon="-0.554089">
        <ele>79.265</ele>
        <time>2021-09-08T11:35:58Z</time>
      </trkpt>
      <trkpt lat="47.470918" lon="-0.553883">
        <ele>78.669</ele>
        <time>2021-09-08T11:36:12Z</time>
      </trkpt>
      <trkpt lat="47.470790" lon="-0.553269">
        <ele>71.625</ele>
        <time>2021-09-08T11:36:52Z</time>
      </trkpt>
      <trkpt lat="47.471307" lon="-0.552386">
        <ele>72.035</ele>
        <time>2021-09-08T11:37:34Z</time>
      </trkpt>
      <trkpt lat="47.471193" lon="-0.551948">
        <ele>76.471</ele>
        <time>2021-09-08T11:37:58Z</time>
      </trkpt>
      <trkpt lat="47.470863" lon="-0.551943">
        <ele>82.141</ele>
        <time>2021-09-08T11:39:32Z</time>
      </trkpt>
      <trkpt lat="47.470725" lon="-0.551720">
        <ele>83.715</ele>
        <time>2021-09-08T11:39:47Z</time>
      </trkpt>
      <trkpt lat="47.471112" lon="-0.551091">
        <ele>77.008</ele>
        <time>2021-09-08T11:40:29Z</time>
      </trkpt>
      <trkpt lat="47.471107" lon="-0.550705">
        <ele>76.755</ele>
        <time>2021-09-08T11:40:45Z</time>
      </trkpt>
      <trkpt lat="47.471257" lon="-0.550990">
        <ele>79.530</ele>
        <time>2021-09-08T11:43:50Z</time>
      </trkpt>
      <trkpt lat="47.471220" lon="-0.550758">
        <ele>75.860</ele>
        <time>2021-09-08T11:44:10Z</time>
      </trkpt>
      <trkpt lat="47.471208" lon="-0.551024">
        <ele>73.722</ele>
        <time>2021-09-08T11:49:15Z</time>
      </trkpt>
      <trkpt lat="47.470886" lon="-0.551267">
        <ele>72.865</ele>
        <time>2021-09-08T11:49:27Z</time>
      </trkpt>
      <trkpt lat="47.470198" lon="-0.550356">
        <ele>72.089</ele>
        <time>2021-09-08T11:50:16Z</time>
      </trkpt>
      <trkpt lat="47.470233" lon="-0.549975">
        <ele>76.025</ele>
        <time>2021-09-08T11:53:13Z</time>
      </trkpt>
      <trkpt lat="47.470147" lon="-0.550108">
        <ele>77.585</ele>
        <time>2021-09-08T11:58:18Z</time>
      </trkpt>
      <trkpt lat="47.469672" lon="-0.549246">
        <ele>80.527</ele>
        <time>2021-09-08T12:00:31Z</time>
      </trkpt>
      <trkpt lat="47.469510" lon="-0.549182">
        <ele>90.068</ele>
        <time>2021-09-08T12:01:16Z</time>
      </trkpt>
      <trkpt lat="47.467984" lon="-0.551165">
        <ele>86.414</ele>
        <time>2021-09-08T12:02:43Z</time>
      </trkpt>
      <trkpt lat="47.468879" lon="-0.552541">
        <ele>82.308</ele>
        <time>2021-09-08T12:04:42Z</time>
      </trkpt>
      <trkpt lat="47.468612" lon="-0.552825">
        <ele>80.460</ele>
        <time>2021-09-08T12:05:08Z</time>
      </trkpt>
      <trkpt lat="47.469251" lon="-0.552312">
        <ele>83.195</ele>
        <time>2021-09-08T12:06:51Z</time>
      </trkpt>
      <trkpt lat="47.469592" lon="-0.552877">
        <ele>79.285</ele>
        <time>2021-09-08T12:07:30Z</time>
      </trkpt>
      <trkpt lat="47.469492" lon="-0.553166">
        <ele>76.817</ele>
        <time>2021-09-08T12:08:00Z</time>
      </trkpt>
      <trkpt lat="47.469157" lon="-0.553082">
        <ele>95.770</ele>
        <time>2021-09-08T12:08:27Z</time>
      </trkpt>
      <trkpt lat="47.469371" lon="-0.553378">
        <ele>81.564</ele>
        <time>2021-09-08T12:08:53Z</time>
      </trkpt>
      <trkpt lat="47.469060" lon="-0.553817">
        <ele>76.180</ele>
        <time>2021-09-08T12:09:18Z</time>
      </trkpt>
      <trkpt lat="47.469257" lon="-0.554232">
        <ele>79.340</ele>
        <time>2021-09-08T12:10:58Z</time>
      </trkpt>
      <trkpt lat="47.469164" lon="-0.554130">
        <ele>79.744</ele>
        <time>2021-09-08T12:11:08Z</time>
      </trkpt>
      <trkpt lat="47.469357" lon="-0.554881">
        <ele>76.205</ele>
        <time>2021-09-08T12:11:41Z</time>
      </trkpt>
      <trkpt lat="47.469245" lon="-0.554989">
        <ele>82.715</ele>
        <time>2021-09-08T12:12:42Z</time>
      </trkpt>
      <trkpt lat="47.469567" lon="-0.555397">
        <ele>79.608</ele>
        <time>2021-09-08T12:13:16Z</time>
      </trkpt>
      <trkpt lat="47.469562" lon="-0.555886">
        <ele>75.432</ele>
        <time>2021-09-08T12:13:59Z</time>
      </trkpt>
      <trkpt lat="47.469250" lon="-0.556932">
        <ele>70.677</ele>
        <time>2021-09-08T12:15:03Z</time>
      </trkpt>
      <trkpt lat="47.469267" lon="-0.557814">
        <ele>74.887</ele>
        <time>2021-09-08T12:15:42Z</time>
      </trkpt>
      <trkpt lat="47.468817" lon="-0.558414">
        <ele>68.589</ele>
        <time>2021-09-08T12:17:25Z</time>
      </trkpt>
      <trkpt lat="47.468803" lon="-0.558719">
        <ele>69.722</ele>
        <time>2021-09-08T12:17:34Z</time>
      </trkpt>
      <trkpt lat="47.468597" lon="-0.558851">
        <ele>69.916</ele>
        <time>2021-09-08T12:17:46Z</time>
      </trkpt>
      <trkpt lat="47.466471" lon="-0.553644">
        <ele>73.672</ele>
        <time>2021-09-08T12:20:43Z</time>
      </trkpt>
      <trkpt lat="47.466370" lon="-0.552999">
        <ele>80.812</ele>
        <time>2021-09-08T12:22:01Z</time>
      </trkpt>
      <trkpt lat="47.468862" lon="-0.549644">
        <ele>78.692</ele>
        <time>2021-09-08T12:24:04Z</time>
      </trkpt>
      <trkpt lat="47.468455" lon="-0.550086">
        <ele>78.673</ele>
        <time>2021-09-08T12:24:33Z</time>
      </trkpt>
      <trkpt lat="47.467267" lon="-0.546798">
        <ele>80.220</ele>
        <time>2021-09-08T12:28:48Z</time>
      </trkpt>
      <trkpt lat="47.467465" lon="-0.546663">
        <ele>95.708</ele>
        <time>2021-09-08T12:31:44Z</time>
      </trkpt>
      <trkpt lat="47.467547" lon="-0.545507">
        <ele>78.467</ele>
        <time>2021-09-08T12:32:53Z</time>
      </trkpt>
      <trkpt lat="47.465728" lon="-0.542924">
        <ele>75.292</ele>
        <time>2021-09-08T12:36:13Z</time>
      </trkpt>
      <trkpt lat="47.464886" lon="-0.541380">
        <ele>78.172</ele>
        <time>2021-09-08T12:36:47Z</time>
      </trkpt>
      <trkpt lat="47.463237" lon="-0.537082">
        <ele>81.114</ele>
        <time>2021-09-08T12:38:13Z</time>
      </trkpt>
      <trkpt lat="47.462605" lon="-0.534763">
        <ele>77.217</ele>
        <time>2021-09-08T12:39:01Z</time>
      </trkpt>
      <trkpt lat="47.462013" lon="-0.533455">
        <ele>82.571</ele>
        <time>2021-09-08T12:42:06Z</time>
      </trkpt>
      <trkpt lat="47.461082" lon="-0.530743">
        <ele>82.977</ele>
        <time>2021-09-08T12:43:42Z</time>
      </trkpt>
      <trkpt lat="47.460854" lon="-0.529853">
        <ele>86.167</ele>
        <time>2021-09-08T12:43:59Z</time>
      </trkpt>
      <trkpt lat="47.460828" lon="-0.528243">
        <ele>84.424</ele>
        <time>2021-09-08T12:44:22Z</time>
      </trkpt>
      <trkpt lat="47.460336" lon="-0.526332">
        <ele>71.904</ele>
        <time>2021-09-08T12:44:49Z</time>
      </trkpt>
      <trkpt lat="47.459666" lon="-0.522320">
        <ele>74.514</ele>
        <time>2021-09-08T12:45:47Z</time>
      </trkpt>
      <trkpt lat="47.459400" lon="-0.521675">
        <ele>74.308</ele>
        <time>2021-09-08T12:46:19Z</time>
      </trkpt>
      <trkpt lat="47.459366" lon="-0.520635">
        <ele>72.730</ele>
        <time>2021-09-08T12:47:34Z</time>
      </trkpt>
      <trkpt lat="47.458419" lon="-0.516284">
        <ele>73.625</ele>
        <time>2021-09-08T12:48:46Z</time>
      </trkpt>
      <trkpt lat="47.457838" lon="-0.514864">
        <ele>72.595</ele>
        <time>2021-09-08T12:49:10Z</time>
      </trkpt>
      <trkpt lat="47.458904" lon="-0.513415">
        <ele>70.117</ele>
        <time>2021-09-08T12:49:40Z</time>
      </trkpt>
      <trkpt lat="47.460136" lon="-0.512534">
        <ele>73.010</ele>
        <time>2021-09-08T12:50:20Z</time>
      </trkpt>
      <trkpt lat="47.460895" lon="-0.511409">
        <ele>72.034</ele>
        <time>2021-09-08T12:50:50Z</time>
      </trkpt>
      <trkpt lat="47.460469" lon="-0.509161">
        <ele>77.270</ele>
        <time>2021-09-08T12:51:41Z</time>
      </trkpt>
      <trkpt lat="47.460364" lon="-0.507718">
        <ele>76.380</ele>
        <time>2021-09-08T12:52:14Z</time>
      </trkpt>
      <trkpt lat="47.460479" lon="-0.507111">
        <ele>78.167</ele>
        <time>2021-09-08T12:52:48Z</time>
      </trkpt>
      <trkpt lat="47.460140" lon="-0.506390">
        <ele>71.081</ele>
        <time>2021-09-08T12:52:56Z</time>
      </trkpt>
      <trkpt lat="47.459912" lon="-0.505109">
        <ele>71.119</ele>
        <time>2021-09-08T12:53:08Z</time>
      </trkpt>
      <trkpt lat="47.459521" lon="-0.504395">
        <ele>69.608</ele>
        <time>2021-09-08T12:53:46Z</time>
      </trkpt>
      <trkpt lat="47.459545" lon="-0.504206">
        <ele>68.994</ele>
        <time>2021-09-08T12:54:21Z</time>
      </trkpt>
      <trkpt lat="47.459395" lon="-0.504147">
        <ele>69.769</ele>
        <time>2021-09-08T12:55:50Z</time>
      </trkpt>
      <trkpt lat="47.459351" lon="-0.504403">
        <ele>64.839</ele>
        <time>2021-09-08T12:56:57Z</time>
      </trkpt>
      <trkpt lat="47.459411" lon="-0.504219">
        <ele>64.911</ele>
        <time>2021-09-08T12:57:34Z</time>
      </trkpt>
      <trkpt lat="47.458774" lon="-0.504751">
        <ele>67.854</ele>
        <time>2021-09-08T12:58:04Z</time>
      </trkpt>
      <trkpt lat="47.457439" lon="-0.504999">
        <ele>69.068</ele>
        <time>2021-09-08T12:58:42Z</time>
      </trkpt>
      <trkpt lat="47.456654" lon="-0.503525">
        <ele>71.374</ele>
        <time>2021-09-08T12:59:24Z</time>
      </trkpt>
      <trkpt lat="47.455928" lon="-0.501679">
        <ele>69.244</ele>
        <time>2021-09-08T13:00:05Z</time>
      </trkpt>
      <trkpt lat="47.456319" lon="-0.500919">
        <ele>66.343</ele>
        <time>2021-09-08T13:01:40Z</time>
      </trkpt>
      <trkpt lat="47.456410" lon="-0.500218">
        <ele>66.564</ele>
        <time>2021-09-08T13:02:05Z</time>
      </trkpt>
      <trkpt lat="47.456678" lon="-0.499724">
        <ele>62.210</ele>
        <time>2021-09-08T13:02:39Z</time>
      </trkpt>
      <trkpt lat="47.456112" lon="-0.498826">
        <ele>67.108</ele>
        <time>2021-09-08T13:03:36Z</time>
      </trkpt>
      <trkpt lat="47.455590" lon="-0.496961">
        <ele>57.072</ele>
        <time>2021-09-08T13:04:13Z</time>
      </trkpt>
      <trkpt lat="47.455090" lon="-0.496542">
        <ele>59.227</ele>
        <time>2021-09-08T13:04:29Z</time>
      </trkpt>
      <trkpt lat="47.455637" lon="-0.496149">
        <ele>59.697</ele>
        <time>2021-09-08T13:06:23Z</time>
      </trkpt>
      <trkpt lat="47.455588" lon="-0.496029">
        <ele>63.089</ele>
        <time>2021-09-08T13:07:24Z</time>
      </trkpt>
      <trkpt lat="47.455222" lon="-0.496436">
        <ele>59.132</ele>
        <time>2021-09-08T13:12:26Z</time>
      </trkpt>
      <trkpt lat="47.455301" lon="-0.496672">
        <ele>59.976</ele>
        <time>2021-09-08T13:12:34Z</time>
      </trkpt>
      <trkpt lat="47.454830" lon="-0.496444">
        <ele>60.622</ele>
        <time>2021-09-08T13:12:54Z</time>
      </trkpt>
      <trkpt lat="47.454506" lon="-0.495572">
        <ele>58.082</ele>
        <time>2021-09-08T13:13:11Z</time>
      </trkpt>
      <trkpt lat="47.453672" lon="-0.494374">
        <ele>59.167</ele>
        <time>2021-09-08T13:13:40Z</time>
      </trkpt>
      <trkpt lat="47.453414" lon="-0.491641">
        <ele>60.681</ele>
        <time>2021-09-08T13:14:29Z</time>
      </trkpt>
      <trkpt lat="47.453222" lon="-0.490918">
        <ele>61.719</ele>
        <time>2021-09-08T13:14:39Z</time>
      </trkpt>
      <trkpt lat="47.453024" lon="-0.490592">
        <ele>61.108</ele>
        <time>2021-09-08T13:14:46Z</time>
      </trkpt>
      <trkpt lat="47.452670" lon="-0.490394">
        <ele>60.164</ele>
        <time>2021-09-08T13:15:22Z</time>
      </trkpt>
      <trkpt lat="47.452298" lon="-0.489154">
        <ele>57.159</ele>
        <time>2021-09-08T13:15:42Z</time>
      </trkpt>
      <trkpt lat="47.451779" lon="-0.488915">
        <ele>58.449</ele>
        <time>2021-09-08T13:15:56Z</time>
      </trkpt>
      <trkpt lat="47.451352" lon="-0.487561">
        <ele>60.781</ele>
        <time>2021-09-08T13:16:20Z</time>
      </trkpt>
      <trkpt lat="47.450409" lon="-0.486041">
        <ele>64.194</ele>
        <time>2021-09-08T13:16:56Z</time>
      </trkpt>
      <trkpt lat="47.449847" lon="-0.485773">
        <ele>61.048</ele>
        <time>2021-09-08T13:17:08Z</time>
      </trkpt>
      <trkpt lat="47.449558" lon="-0.486020">
        <ele>55.714</ele>
        <time>2021-09-08T13:17:51Z</time>
      </trkpt>
      <trkpt lat="47.449286" lon="-0.485809">
        <ele>54.414</ele>
        <time>2021-09-08T13:17:59Z</time>
      </trkpt>
      <trkpt lat="47.448821" lon="-0.486094">
        <ele>56.898</ele>
        <time>2021-09-08T13:18:11Z</time>
      </trkpt>
      <trkpt lat="47.448311" lon="-0.486181">
        <ele>56.515</ele>
        <time>2021-09-08T13:18:25Z</time>
      </trkpt>
      <trkpt lat="47.447963" lon="-0.485794">
        <ele>55.226</ele>
        <time>2021-09-08T13:18:35Z</time>
      </trkpt>
      <trkpt lat="47.447618" lon="-0.485844">
        <ele>54.308</ele>
        <time>2021-09-08T13:18:49Z</time>
      </trkpt>
      <trkpt lat="47.447397" lon="-0.485188">
        <ele>54.097</ele>
        <time>2021-09-08T13:19:03Z</time>
      </trkpt>
      <trkpt lat="47.447466" lon="-0.484862">
        <ele>54.832</ele>
        <time>2021-09-08T13:19:11Z</time>
      </trkpt>
      <trkpt lat="47.447665" lon="-0.484817">
        <ele>55.972</ele>
        <time>2021-09-08T13:19:25Z</time>
      </trkpt>
      <trkpt lat="47.447856" lon="-0.485373">
        <ele>58.734</ele>
        <time>2021-09-08T13:19:42Z</time>
      </trkpt>
      <trkpt lat="47.447815" lon="-0.485762">
        <ele>59.447</ele>
        <time>2021-09-08T13:19:50Z</time>
      </trkpt>
      <trkpt lat="47.447592" lon="-0.485744">
        <ele>58.051</ele>
        <time>2021-09-08T13:25:09Z</time>
      </trkpt>
      <trkpt lat="47.447341" lon="-0.485159">
        <ele>58.927</ele>
        <time>2021-09-08T13:25:59Z</time>
      </trkpt>
      <trkpt lat="47.447577" lon="-0.484646">
        <ele>60.517</ele>
        <time>2021-09-08T13:26:30Z</time>
      </trkpt>
      <trkpt lat="47.446966" lon="-0.483275">
        <ele>60.532</ele>
        <time>2021-09-08T13:27:11Z</time>
      </trkpt>
      <trkpt lat="47.446773" lon="-0.483193">
        <ele>58.692</ele>
        <time>2021-09-08T13:27:16Z</time>
      </trkpt>
      <trkpt lat="47.445910" lon="-0.483477">
        <ele>55.011</ele>
        <time>2021-09-08T13:27:33Z</time>
      </trkpt>
      <trkpt lat="47.444663" lon="-0.482852">
        <ele>54.008</ele>
        <time>2021-09-08T13:27:59Z</time>
      </trkpt>
      <trkpt lat="47.444105" lon="-0.482739">
        <ele>55.851</ele>
        <time>2021-09-08T13:28:11Z</time>
      </trkpt>
      <trkpt lat="47.443563" lon="-0.482059">
        <ele>58.936</ele>
        <time>2021-09-08T13:28:28Z</time>
      </trkpt>
      <trkpt lat="47.443222" lon="-0.481241">
        <ele>57.076</ele>
        <time>2021-09-08T13:28:45Z</time>
      </trkpt>
      <trkpt lat="47.443804" lon="-0.480757">
        <ele>56.248</ele>
        <time>2021-09-08T13:29:47Z</time>
      </trkpt>
      <trkpt lat="47.443907" lon="-0.480224">
        <ele>57.961</ele>
        <time>2021-09-08T13:30:08Z</time>
      </trkpt>
      <trkpt lat="47.442698" lon="-0.479581">
        <ele>58.765</ele>
        <time>2021-09-08T13:30:41Z</time>
      </trkpt>
      <trkpt lat="47.441758" lon="-0.478720">
        <ele>59.691</ele>
        <time>2021-09-08T13:31:14Z</time>
      </trkpt>
      <trkpt lat="47.441291" lon="-0.477982">
        <ele>60.071</ele>
        <time>2021-09-08T13:31:27Z</time>
      </trkpt>
      <trkpt lat="47.441242" lon="-0.477541">
        <ele>60.592</ele>
        <time>2021-09-08T13:31:33Z</time>
      </trkpt>
      <trkpt lat="47.441114" lon="-0.477519">
        <ele>59.573</ele>
        <time>2021-09-08T13:31:37Z</time>
      </trkpt>
      <trkpt lat="47.440769" lon="-0.477945">
        <ele>58.320</ele>
        <time>2021-09-08T13:31:51Z</time>
      </trkpt>
      <trkpt lat="47.440146" lon="-0.479035">
        <ele>50.008</ele>
        <time>2021-09-08T13:32:07Z</time>
      </trkpt>
      <trkpt lat="47.438980" lon="-0.479158">
        <ele>42.167</ele>
        <time>2021-09-08T13:32:26Z</time>
      </trkpt>
      <trkpt lat="47.438072" lon="-0.479796">
        <ele>48.072</ele>
        <time>2021-09-08T13:32:45Z</time>
      </trkpt>
      <trkpt lat="47.437309" lon="-0.479813">
        <ele>50.022</ele>
        <time>2021-09-08T13:33:04Z</time>
      </trkpt>
      <trkpt lat="47.436821" lon="-0.480022">
        <ele>50.774</ele>
        <time>2021-09-08T13:33:16Z</time>
      </trkpt>
      <trkpt lat="47.436263" lon="-0.478993">
        <ele>52.937</ele>
        <time>2021-09-08T13:33:42Z</time>
      </trkpt>
      <trkpt lat="47.435226" lon="-0.476305">
        <ele>50.511</ele>
        <time>2021-09-08T13:34:26Z</time>
      </trkpt>
      <trkpt lat="47.434503" lon="-0.475113">
        <ele>51.297</ele>
        <time>2021-09-08T13:35:13Z</time>
      </trkpt>
      <trkpt lat="47.436679" lon="-0.472626">
        <ele>53.537</ele>
        <time>2021-09-08T13:37:25Z</time>
      </trkpt>
      <trkpt lat="47.438507" lon="-0.470184">
        <ele>37.487</ele>
        <time>2021-09-08T13:38:15Z</time>
      </trkpt>
      <trkpt lat="47.441403" lon="-0.465051">
        <ele>42.342</ele>
        <time>2021-09-08T13:39:49Z</time>
      </trkpt>
      <trkpt lat="47.442832" lon="-0.461761">
        <ele>57.626</ele>
        <time>2021-09-08T13:41:29Z</time>
      </trkpt>
      <trkpt lat="47.443298" lon="-0.459700">
        <ele>58.908</ele>
        <time>2021-09-08T13:42:02Z</time>
      </trkpt>
      <trkpt lat="47.443719" lon="-0.456400">
        <ele>59.516</ele>
        <time>2021-09-08T13:42:54Z</time>
      </trkpt>
      <trkpt lat="47.443037" lon="-0.455973">
        <ele>49.381</ele>
        <time>2021-09-08T13:43:07Z</time>
      </trkpt>
      <trkpt lat="47.442246" lon="-0.455738">
        <ele>52.271</ele>
        <time>2021-09-08T13:43:21Z</time>
      </trkpt>
      <trkpt lat="47.441264" lon="-0.456278">
        <ele>50.233</ele>
        <time>2021-09-08T13:43:50Z</time>
      </trkpt>
      <trkpt lat="47.441238" lon="-0.456686">
        <ele>51.956</ele>
        <time>2021-09-08T13:45:22Z</time>
      </trkpt>
      <trkpt lat="47.441256" lon="-0.456312">
        <ele>53.180</ele>
        <time>2021-09-08T13:47:46Z</time>
      </trkpt>
      <trkpt lat="47.440771" lon="-0.456232">
        <ele>49.956</ele>
        <time>2021-09-08T13:56:01Z</time>
      </trkpt>
      <trkpt lat="47.440870" lon="-0.454611">
        <ele>48.266</ele>
        <time>2021-09-08T14:00:15Z</time>
      </trkpt>
      <trkpt lat="47.440675" lon="-0.455543">
        <ele>52.941</ele>
        <time>2021-09-08T14:00:55Z</time>
      </trkpt>
      <trkpt lat="47.440414" lon="-0.455903">
        <ele>52.081</ele>
        <time>2021-09-08T14:01:01Z</time>
      </trkpt>
      <trkpt lat="47.430452" lon="-0.454121">
        <ele>48.009</ele>
        <time>2021-09-08T14:04:32Z</time>
      </trkpt>
      <trkpt lat="47.428803" lon="-0.454940">
        <ele>48.408</ele>
        <time>2021-09-08T14:05:13Z</time>
      </trkpt>
      <trkpt lat="47.427237" lon="-0.455919">
        <ele>48.272</ele>
        <time>2021-09-08T14:05:51Z</time>
      </trkpt>
      <trkpt lat="47.427236" lon="-0.456117">
        <ele>51.497</ele>
        <time>2021-09-08T14:07:22Z</time>
      </trkpt>
      <trkpt lat="47.427251" lon="-0.455978">
        <ele>52.337</ele>
        <time>2021-09-08T14:07:38Z</time>
      </trkpt>
      <trkpt lat="47.427135" lon="-0.455980">
        <ele>52.629</ele>
        <time>2021-09-08T14:07:51Z</time>
      </trkpt>
      <trkpt lat="47.425838" lon="-0.456627">
        <ele>51.872</ele>
        <time>2021-09-08T14:08:21Z</time>
      </trkpt>
      <trkpt lat="47.424772" lon="-0.456813">
        <ele>52.736</ele>
        <time>2021-09-08T14:08:46Z</time>
      </trkpt>
      <trkpt lat="47.424404" lon="-0.456734">
        <ele>52.712</ele>
        <time>2021-09-08T14:08:54Z</time>
      </trkpt>
      <trkpt lat="47.423283" lon="-0.456322">
        <ele>51.252</ele>
        <time>2021-09-08T14:09:18Z</time>
      </trkpt>
      <trkpt lat="47.422118" lon="-0.455581">
        <ele>47.976</ele>
        <time>2021-09-08T14:09:45Z</time>
      </trkpt>
      <trkpt lat="47.421623" lon="-0.453133">
        <ele>52.690</ele>
        <time>2021-09-08T14:10:24Z</time>
      </trkpt>
      <trkpt lat="47.420017" lon="-0.448963">
        <ele>51.919</ele>
        <time>2021-09-08T14:11:52Z</time>
      </trkpt>
      <trkpt lat="47.420193" lon="-0.448047">
        <ele>52.508</ele>
        <time>2021-09-08T14:12:07Z</time>
      </trkpt>
      <trkpt lat="47.420254" lon="-0.446165">
        <ele>52.675</ele>
        <time>2021-09-08T14:12:34Z</time>
      </trkpt>
      <trkpt lat="47.419340" lon="-0.442093">
        <ele>52.490</ele>
        <time>2021-09-08T14:13:43Z</time>
      </trkpt>
      <trkpt lat="47.419210" lon="-0.439140">
        <ele>51.150</ele>
        <time>2021-09-08T14:14:24Z</time>
      </trkpt>
      <trkpt lat="47.419400" lon="-0.437338">
        <ele>54.752</ele>
        <time>2021-09-08T14:14:52Z</time>
      </trkpt>
      <trkpt lat="47.419420" lon="-0.434308">
        <ele>57.915</ele>
        <time>2021-09-08T14:15:51Z</time>
      </trkpt>
      <trkpt lat="47.419015" lon="-0.431460">
        <ele>58.659</ele>
        <time>2021-09-08T14:16:50Z</time>
      </trkpt>
      <trkpt lat="47.418701" lon="-0.431077">
        <ele>57.245</ele>
        <time>2021-09-08T14:17:04Z</time>
      </trkpt>
      <trkpt lat="47.418717" lon="-0.430877">
        <ele>57.035</ele>
        <time>2021-09-08T14:17:08Z</time>
      </trkpt>
      <trkpt lat="47.418862" lon="-0.430821">
        <ele>57.132</ele>
        <time>2021-09-08T14:17:12Z</time>
      </trkpt>
      <trkpt lat="47.419338" lon="-0.433826">
        <ele>57.192</ele>
        <time>2021-09-08T14:17:59Z</time>
      </trkpt>
      <trkpt lat="47.419387" lon="-0.435526">
        <ele>56.811</ele>
        <time>2021-09-08T14:18:29Z</time>
      </trkpt>
      <trkpt lat="47.418915" lon="-0.435347">
        <ele>56.008</ele>
        <time>2021-09-08T14:18:54Z</time>
      </trkpt>
      <trkpt lat="47.419369" lon="-0.435527">
        <ele>58.591</ele>
        <time>2021-09-08T14:19:08Z</time>
      </trkpt>
      <trkpt lat="47.419352" lon="-0.437519">
        <ele>56.986</ele>
        <time>2021-09-08T14:19:44Z</time>
      </trkpt>
      <trkpt lat="47.418066" lon="-0.437633">
        <ele>51.316</ele>
        <time>2021-09-08T14:20:18Z</time>
      </trkpt>
      <trkpt lat="47.417730" lon="-0.437437">
        <ele>48.648</ele>
        <time>2021-09-08T14:20:27Z</time>
      </trkpt>
      <trkpt lat="47.417261" lon="-0.437787">
        <ele>50.521</ele>
        <time>2021-09-08T14:20:49Z</time>
      </trkpt>
      <trkpt lat="47.417251" lon="-0.438215">
        <ele>50.595</ele>
        <time>2021-09-08T14:21:47Z</time>
      </trkpt>
      <trkpt lat="47.417382" lon="-0.437781">
        <ele>58.041</ele>
        <time>2021-09-08T15:23:00Z</time>
      </trkpt>
      <trkpt lat="47.417883" lon="-0.437592">
        <ele>54.181</ele>
        <time>2021-09-08T15:23:21Z</time>
      </trkpt>
      <trkpt lat="47.419340" lon="-0.437503">
        <ele>59.496</ele>
        <time>2021-09-08T15:24:08Z</time>
      </trkpt>
      <trkpt lat="47.419414" lon="-0.434725">
        <ele>54.931</ele>
        <time>2021-09-08T15:24:55Z</time>
      </trkpt>
      <trkpt lat="47.419080" lon="-0.431449">
        <ele>53.124</ele>
        <time>2021-09-08T15:25:51Z</time>
      </trkpt>
      <trkpt lat="47.419467" lon="-0.431288">
        <ele>51.208</ele>
        <time>2021-09-08T15:26:00Z</time>
      </trkpt>
      <trkpt lat="47.420186" lon="-0.431257">
        <ele>53.247</ele>
        <time>2021-09-08T15:26:16Z</time>
      </trkpt>
      <trkpt lat="47.420343" lon="-0.428201">
        <ele>51.312</ele>
        <time>2021-09-08T15:27:01Z</time>
      </trkpt>
      <trkpt lat="47.420428" lon="-0.428070">
        <ele>51.432</ele>
        <time>2021-09-08T15:27:05Z</time>
      </trkpt>
      <trkpt lat="47.420997" lon="-0.428173">
        <ele>54.524</ele>
        <time>2021-09-08T15:27:19Z</time>
      </trkpt>
      <trkpt lat="47.421707" lon="-0.424122">
        <ele>51.977</ele>
        <time>2021-09-08T15:28:18Z</time>
      </trkpt>
      <trkpt lat="47.422877" lon="-0.423379">
        <ele>54.451</ele>
        <time>2021-09-08T15:28:42Z</time>
      </trkpt>
      <trkpt lat="47.424669" lon="-0.421380">
        <ele>53.627</ele>
        <time>2021-09-08T15:29:25Z</time>
      </trkpt>
      <trkpt lat="47.425995" lon="-0.420550">
        <ele>56.467</ele>
        <time>2021-09-08T15:29:53Z</time>
      </trkpt>
      <trkpt lat="47.427331" lon="-0.420107">
        <ele>57.079</ele>
        <time>2021-09-08T15:30:20Z</time>
      </trkpt>
      <trkpt lat="47.427534" lon="-0.419858">
        <ele>56.505</ele>
        <time>2021-09-08T15:30:25Z</time>
      </trkpt>
      <trkpt lat="47.427883" lon="-0.415731">
        <ele>51.025</ele>
        <time>2021-09-08T15:31:22Z</time>
      </trkpt>
      <trkpt lat="47.427969" lon="-0.407498">
        <ele>49.608</ele>
        <time>2021-09-08T15:33:08Z</time>
      </trkpt>
      <trkpt lat="47.427787" lon="-0.407253">
        <ele>50.015</ele>
        <time>2021-09-08T15:33:13Z</time>
      </trkpt>
      <trkpt lat="47.422665" lon="-0.405933">
        <ele>51.420</ele>
        <time>2021-09-08T15:34:55Z</time>
      </trkpt>
      <trkpt lat="47.422160" lon="-0.405438">
        <ele>50.140</ele>
        <time>2021-09-08T15:35:07Z</time>
      </trkpt>
      <trkpt lat="47.422557" lon="-0.403890">
        <ele>47.752</ele>
        <time>2021-09-08T15:35:30Z</time>
      </trkpt>
      <trkpt lat="47.424929" lon="-0.397114">
        <ele>59.145</ele>
        <time>2021-09-08T15:37:06Z</time>
      </trkpt>
      <trkpt lat="47.425358" lon="-0.395543">
        <ele>53.189</ele>
        <time>2021-09-08T15:37:28Z</time>
      </trkpt>
      <trkpt lat="47.424658" lon="-0.389889">
        <ele>50.755</ele>
        <time>2021-09-08T15:38:42Z</time>
      </trkpt>
      <trkpt lat="47.424738" lon="-0.387366">
        <ele>47.865</ele>
        <time>2021-09-08T15:39:22Z</time>
      </trkpt>
      <trkpt lat="47.424995" lon="-0.384932">
        <ele>55.322</ele>
        <time>2021-09-08T15:39:54Z</time>
      </trkpt>
      <trkpt lat="47.424953" lon="-0.383816">
        <ele>51.462</ele>
        <time>2021-09-08T15:40:09Z</time>
      </trkpt>
      <trkpt lat="47.425234" lon="-0.383399">
        <ele>53.908</ele>
        <time>2021-09-08T15:40:19Z</time>
      </trkpt>
      <trkpt lat="47.425404" lon="-0.381596">
        <ele>54.108</ele>
        <time>2021-09-08T15:40:42Z</time>
      </trkpt>
      <trkpt lat="47.425094" lon="-0.379769">
        <ele>52.240</ele>
        <time>2021-09-08T15:41:06Z</time>
      </trkpt>
      <trkpt lat="47.424845" lon="-0.375603">
        <ele>51.525</ele>
        <time>2021-09-08T15:41:58Z</time>
      </trkpt>
      <trkpt lat="47.423833" lon="-0.372277">
        <ele>51.665</ele>
        <time>2021-09-08T15:42:46Z</time>
      </trkpt>
      <trkpt lat="47.422999" lon="-0.367942">
        <ele>50.247</ele>
        <time>2021-09-08T15:44:04Z</time>
      </trkpt>
      <trkpt lat="47.422842" lon="-0.367809">
        <ele>50.720</ele>
        <time>2021-09-08T15:44:08Z</time>
      </trkpt>
      <trkpt lat="47.421561" lon="-0.368384">
        <ele>51.894</ele>
        <time>2021-09-08T15:44:36Z</time>
      </trkpt>
      <trkpt lat="47.421325" lon="-0.368316">
        <ele>52.020</ele>
        <time>2021-09-08T15:44:42Z</time>
      </trkpt>
      <trkpt lat="47.419866" lon="-0.361140">
        <ele>50.650</ele>
        <time>2021-09-08T15:46:55Z</time>
      </trkpt>
      <trkpt lat="47.419744" lon="-0.360062">
        <ele>52.342</ele>
        <time>2021-09-08T15:47:10Z</time>
      </trkpt>
      <trkpt lat="47.420689" lon="-0.360028">
        <ele>54.722</ele>
        <time>2021-09-08T15:47:30Z</time>
      </trkpt>
      <trkpt lat="47.420754" lon="-0.359865">
        <ele>52.914</ele>
        <time>2021-09-08T15:47:34Z</time>
      </trkpt>
      <trkpt lat="47.420508" lon="-0.357272">
        <ele>49.708</ele>
        <time>2021-09-08T15:48:11Z</time>
      </trkpt>
      <trkpt lat="47.419369" lon="-0.351535">
        <ele>53.992</ele>
        <time>2021-09-08T15:50:08Z</time>
      </trkpt>
      <trkpt lat="47.419106" lon="-0.351030">
        <ele>52.387</ele>
        <time>2021-09-08T15:50:41Z</time>
      </trkpt>
      <trkpt lat="47.417955" lon="-0.351011">
        <ele>51.237</ele>
        <time>2021-09-08T15:51:09Z</time>
      </trkpt>
      <trkpt lat="47.417769" lon="-0.350848">
        <ele>52.759</ele>
        <time>2021-09-08T15:51:14Z</time>
      </trkpt>
      <trkpt lat="47.416833" lon="-0.345456">
        <ele>52.652</ele>
        <time>2021-09-08T15:52:34Z</time>
      </trkpt>
      <trkpt lat="47.415659" lon="-0.343711">
        <ele>51.416</ele>
        <time>2021-09-08T15:53:09Z</time>
      </trkpt>
      <trkpt lat="47.416445" lon="-0.342973">
        <ele>52.682</ele>
        <time>2021-09-08T15:53:30Z</time>
      </trkpt>
      <trkpt lat="47.416361" lon="-0.342442">
        <ele>52.362</ele>
        <time>2021-09-08T15:53:40Z</time>
      </trkpt>
      <trkpt lat="47.414267" lon="-0.335969">
        <ele>55.131</ele>
        <time>2021-09-08T15:55:12Z</time>
      </trkpt>
      <trkpt lat="47.413495" lon="-0.335634">
        <ele>54.461</ele>
        <time>2021-09-08T15:55:27Z</time>
      </trkpt>
      <trkpt lat="47.413151" lon="-0.335191">
        <ele>55.807</ele>
        <time>2021-09-08T15:55:36Z</time>
      </trkpt>
      <trkpt lat="47.413186" lon="-0.333518">
        <ele>51.508</ele>
        <time>2021-09-08T15:55:59Z</time>
      </trkpt>
      <trkpt lat="47.412913" lon="-0.333402">
        <ele>49.611</ele>
        <time>2021-09-08T15:56:07Z</time>
      </trkpt>
      <trkpt lat="47.411290" lon="-0.333662">
        <ele>53.136</ele>
        <time>2021-09-08T15:59:53Z</time>
      </trkpt>
      <trkpt lat="47.410841" lon="-0.332137">
        <ele>55.056</ele>
        <time>2021-09-08T16:00:26Z</time>
      </trkpt>
      <trkpt lat="47.410529" lon="-0.330334">
        <ele>52.428</ele>
        <time>2021-09-08T16:00:54Z</time>
      </trkpt>
      <trkpt lat="47.409988" lon="-0.323210">
        <ele>59.691</ele>
        <time>2021-09-08T16:02:34Z</time>
      </trkpt>
      <trkpt lat="47.409038" lon="-0.320628">
        <ele>57.965</ele>
        <time>2021-09-08T16:03:22Z</time>
      </trkpt>
      <trkpt lat="47.408971" lon="-0.319967">
        <ele>60.911</ele>
        <time>2021-09-08T16:03:43Z</time>
      </trkpt>
      <trkpt lat="47.409072" lon="-0.319910">
        <ele>55.871</ele>
        <time>2021-09-08T16:04:39Z</time>
      </trkpt>
      <trkpt lat="47.409013" lon="-0.320136">
        <ele>54.622</ele>
        <time>2021-09-08T16:04:47Z</time>
      </trkpt>
      <trkpt lat="47.408502" lon="-0.320250">
        <ele>54.462</ele>
        <time>2021-09-08T16:04:56Z</time>
      </trkpt>
      <trkpt lat="47.408885" lon="-0.319270">
        <ele>55.008</ele>
        <time>2021-09-08T16:36:30Z</time>
      </trkpt>
      <trkpt lat="47.408657" lon="-0.318356">
        <ele>56.308</ele>
        <time>2021-09-08T16:36:46Z</time>
      </trkpt>
      <trkpt lat="47.403735" lon="-0.319465">
        <ele>54.810</ele>
        <time>2021-09-08T16:39:03Z</time>
      </trkpt>
      <trkpt lat="47.404584" lon="-0.319242">
        <ele>51.875</ele>
        <time>2021-09-08T16:39:31Z</time>
      </trkpt>
      <trkpt lat="47.404359" lon="-0.319433">
        <ele>53.695</ele>
        <time>2021-09-08T16:39:44Z</time>
      </trkpt>
      <trkpt lat="47.404825" lon="-0.319359">
        <ele>50.757</ele>
        <time>2021-09-08T16:40:01Z</time>
      </trkpt>
      <trkpt lat="47.405005" lon="-0.319569">
        <ele>50.660</ele>
        <time>2021-09-08T16:40:32Z</time>
      </trkpt>
      <trkpt lat="47.405012" lon="-0.319114">
        <ele>49.364</ele>
        <time>2021-09-08T16:40:48Z</time>
      </trkpt>
      <trkpt lat="47.403957" lon="-0.318902">
        <ele>46.560</ele>
        <time>2021-09-08T16:41:16Z</time>
      </trkpt>
      <trkpt lat="47.402079" lon="-0.318098">
        <ele>52.660</ele>
        <time>2021-09-08T16:42:03Z</time>
      </trkpt>
      <trkpt lat="47.399341" lon="-0.317686">
        <ele>55.988</ele>
        <time>2021-09-08T16:43:21Z</time>
      </trkpt>
      <trkpt lat="47.398365" lon="-0.317023">
        <ele>53.524</ele>
        <time>2021-09-08T16:44:06Z</time>
      </trkpt>
      <trkpt lat="47.398171" lon="-0.316204">
        <ele>55.526</ele>
        <time>2021-09-08T16:44:31Z</time>
      </trkpt>
      <trkpt lat="47.397657" lon="-0.316140">
        <ele>58.108</ele>
        <time>2021-09-08T16:44:58Z</time>
      </trkpt>
      <trkpt lat="47.397646" lon="-0.315545">
        <ele>58.516</ele>
        <time>2021-09-08T16:45:36Z</time>
      </trkpt>
      <trkpt lat="47.398032" lon="-0.315479">
        <ele>56.361</ele>
        <time>2021-09-08T16:47:24Z</time>
      </trkpt>
      <trkpt lat="47.397613" lon="-0.315545">
        <ele>57.491</ele>
        <time>2021-09-08T16:48:33Z</time>
      </trkpt>
      <trkpt lat="47.397599" lon="-0.314538">
        <ele>60.333</ele>
        <time>2021-09-08T16:49:05Z</time>
      </trkpt>
      <trkpt lat="47.397534" lon="-0.314825">
        <ele>58.616</ele>
        <time>2021-09-08T16:49:21Z</time>
      </trkpt>
      <trkpt lat="47.397522" lon="-0.314728">
        <ele>57.960</ele>
        <time>2021-09-08T16:49:25Z</time>
      </trkpt>
      <trkpt lat="47.397771" lon="-0.313308">
        <ele>56.256</ele>
        <time>2021-09-08T16:49:54Z</time>
      </trkpt>
      <trkpt lat="47.397839" lon="-0.309496">
        <ele>55.026</ele>
        <time>2021-09-08T16:50:49Z</time>
      </trkpt>
      <trkpt lat="47.397569" lon="-0.306800">
        <ele>54.445</ele>
        <time>2021-09-08T16:51:30Z</time>
      </trkpt>
      <trkpt lat="47.397115" lon="-0.305055">
        <ele>54.847</ele>
        <time>2021-09-08T16:51:57Z</time>
      </trkpt>
      <trkpt lat="47.397026" lon="-0.302791">
        <ele>62.911</ele>
        <time>2021-09-08T16:52:49Z</time>
      </trkpt>
      <trkpt lat="47.396471" lon="-0.299416">
        <ele>60.208</ele>
        <time>2021-09-08T16:53:48Z</time>
      </trkpt>
      <trkpt lat="47.395279" lon="-0.295626">
        <ele>64.642</ele>
        <time>2021-09-08T16:55:09Z</time>
      </trkpt>
      <trkpt lat="47.395318" lon="-0.294197">
        <ele>59.357</ele>
        <time>2021-09-08T16:55:28Z</time>
      </trkpt>
      <trkpt lat="47.395135" lon="-0.293191">
        <ele>62.377</ele>
        <time>2021-09-08T16:55:41Z</time>
      </trkpt>
      <trkpt lat="47.394165" lon="-0.290849">
        <ele>54.159</ele>
        <time>2021-09-08T16:56:09Z</time>
      </trkpt>
      <trkpt lat="47.392792" lon="-0.286240">
        <ele>61.452</ele>
        <time>2021-09-08T16:57:23Z</time>
      </trkpt>
      <trkpt lat="47.392529" lon="-0.284753">
        <ele>56.856</ele>
        <time>2021-09-08T16:57:43Z</time>
      </trkpt>
      <trkpt lat="47.391934" lon="-0.283041">
        <ele>55.392</ele>
        <time>2021-09-08T16:58:09Z</time>
      </trkpt>
      <trkpt lat="47.390787" lon="-0.280998">
        <ele>52.712</ele>
        <time>2021-09-08T16:59:23Z</time>
      </trkpt>
      <trkpt lat="47.389019" lon="-0.278844">
        <ele>54.052</ele>
        <time>2021-09-08T17:00:15Z</time>
      </trkpt>
      <trkpt lat="47.387305" lon="-0.277682">
        <ele>55.353</ele>
        <time>2021-09-08T17:00:57Z</time>
      </trkpt>
      <trkpt lat="47.385715" lon="-0.276170">
        <ele>56.508</ele>
        <time>2021-09-08T17:01:38Z</time>
      </trkpt>
      <trkpt lat="47.384544" lon="-0.275348">
        <ele>53.108</ele>
        <time>2021-09-08T17:02:05Z</time>
      </trkpt>
      <trkpt lat="47.382591" lon="-0.273583">
        <ele>59.993</ele>
        <time>2021-09-08T17:02:48Z</time>
      </trkpt>
      <trkpt lat="47.378901" lon="-0.271081">
        <ele>55.098</ele>
        <time>2021-09-08T17:04:09Z</time>
      </trkpt>
      <trkpt lat="47.375184" lon="-0.268303">
        <ele>54.868</ele>
        <time>2021-09-08T17:05:29Z</time>
      </trkpt>
      <trkpt lat="47.374064" lon="-0.267374">
        <ele>55.440</ele>
        <time>2021-09-08T17:05:53Z</time>
      </trkpt>
      <trkpt lat="47.372962" lon="-0.266169">
        <ele>54.863</ele>
        <time>2021-09-08T17:06:24Z</time>
      </trkpt>
      <trkpt lat="47.371622" lon="-0.265227">
        <ele>55.957</ele>
        <time>2021-09-08T17:07:22Z</time>
      </trkpt>
      <trkpt lat="47.368762" lon="-0.263391">
        <ele>57.023</ele>
        <time>2021-09-08T17:09:48Z</time>
      </trkpt>
      <trkpt lat="47.363925" lon="-0.262808">
        <ele>49.633</ele>
        <time>2021-09-08T17:12:37Z</time>
      </trkpt>
      <trkpt lat="47.362924" lon="-0.262328">
        <ele>49.255</ele>
        <time>2021-09-08T17:13:04Z</time>
      </trkpt>
      <trkpt lat="47.360355" lon="-0.260400">
        <ele>45.907</ele>
        <time>2021-09-08T17:14:09Z</time>
      </trkpt>
      <trkpt lat="47.358538" lon="-0.258188">
        <ele>48.817</ele>
        <time>2021-09-08T17:14:56Z</time>
      </trkpt>
      <trkpt lat="47.358330" lon="-0.257746">
        <ele>50.408</ele>
        <time>2021-09-08T17:15:10Z</time>
      </trkpt>
      <trkpt lat="47.358308" lon="-0.258055">
        <ele>51.783</ele>
        <time>2021-09-08T17:15:21Z</time>
      </trkpt>
      <trkpt lat="47.358115" lon="-0.258248">
        <ele>46.448</ele>
        <time>2021-09-08T17:15:52Z</time>
      </trkpt>
      <trkpt lat="47.358262" lon="-0.257928">
        <ele>53.188</ele>
        <time>2021-09-08T17:16:11Z</time>
      </trkpt>
      <trkpt lat="47.358188" lon="-0.257625">
        <ele>55.290</ele>
        <time>2021-09-08T17:16:17Z</time>
      </trkpt>
      <trkpt lat="47.355682" lon="-0.252294">
        <ele>50.663</ele>
        <time>2021-09-08T17:17:52Z</time>
      </trkpt>
      <trkpt lat="47.354988" lon="-0.251254">
        <ele>50.027</ele>
        <time>2021-09-08T17:18:13Z</time>
      </trkpt>
      <trkpt lat="47.353285" lon="-0.249764">
        <ele>53.193</ele>
        <time>2021-09-08T17:18:57Z</time>
      </trkpt>
      <trkpt lat="47.352499" lon="-0.248854">
        <ele>48.443</ele>
        <time>2021-09-08T17:19:41Z</time>
      </trkpt>
      <trkpt lat="47.351715" lon="-0.247643">
        <ele>49.823</ele>
        <time>2021-09-08T17:20:08Z</time>
      </trkpt>
      <trkpt lat="47.350193" lon="-0.244527">
        <ele>57.183</ele>
        <time>2021-09-08T17:21:05Z</time>
      </trkpt>
      <trkpt lat="47.347991" lon="-0.241838">
        <ele>55.411</ele>
        <time>2021-09-08T17:22:01Z</time>
      </trkpt>
      <trkpt lat="47.343711" lon="-0.231870">
        <ele>53.808</ele>
        <time>2021-09-08T17:28:27Z</time>
      </trkpt>
      <trkpt lat="47.343515" lon="-0.232078">
        <ele>53.750</ele>
        <time>2021-09-08T17:30:16Z</time>
      </trkpt>
      <trkpt lat="47.342864" lon="-0.232038">
        <ele>54.815</ele>
        <time>2021-09-08T17:30:39Z</time>
      </trkpt>
      <trkpt lat="47.341229" lon="-0.231660">
        <ele>61.485</ele>
        <time>2021-09-08T17:31:19Z</time>
      </trkpt>
      <trkpt lat="47.341088" lon="-0.231174">
        <ele>55.757</ele>
        <time>2021-09-08T17:31:39Z</time>
      </trkpt>
      <trkpt lat="47.340830" lon="-0.231689">
        <ele>54.580</ele>
        <time>2021-09-08T17:32:08Z</time>
      </trkpt>
      <trkpt lat="47.338168" lon="-0.231107">
        <ele>68.584</ele>
        <time>2021-09-08T17:33:48Z</time>
      </trkpt>
      <trkpt lat="47.338059" lon="-0.230978">
        <ele>69.240</ele>
        <time>2021-09-08T17:33:55Z</time>
      </trkpt>
      <trkpt lat="47.337920" lon="-0.231209">
        <ele>64.930</ele>
        <time>2021-09-08T17:34:47Z</time>
      </trkpt>
      <trkpt lat="47.335249" lon="-0.232456">
        <ele>78.388</ele>
        <time>2021-09-08T17:36:33Z</time>
      </trkpt>
      <trkpt lat="47.334596" lon="-0.233123">
        <ele>83.024</ele>
        <time>2021-09-08T17:37:02Z</time>
      </trkpt>
      <trkpt lat="47.334415" lon="-0.233052">
        <ele>83.926</ele>
        <time>2021-09-08T17:37:07Z</time>
      </trkpt>
      <trkpt lat="47.334225" lon="-0.231892">
        <ele>83.708</ele>
        <time>2021-09-08T17:37:32Z</time>
      </trkpt>
      <trkpt lat="47.334469" lon="-0.231638">
        <ele>84.536</ele>
        <time>2021-09-08T17:37:48Z</time>
      </trkpt>
      <trkpt lat="47.334391" lon="-0.231724">
        <ele>87.731</ele>
        <time>2021-09-08T17:38:09Z</time>
      </trkpt>
      <trkpt lat="47.334522" lon="-0.231830">
        <ele>90.121</ele>
        <time>2021-09-08T17:39:22Z</time>
      </trkpt>
      <trkpt lat="47.334467" lon="-0.231605">
        <ele>93.663</ele>
        <time>2021-09-08T17:40:16Z</time>
      </trkpt>
      <trkpt lat="47.334555" lon="-0.231801">
        <ele>88.076</ele>
        <time>2021-09-08T17:40:37Z</time>
      </trkpt>
      <trkpt lat="47.334450" lon="-0.231747">
        <ele>75.990</ele>
        <time>2021-09-08T18:12:03Z</time>
      </trkpt>
      <trkpt lat="47.334274" lon="-0.231933">
        <ele>75.946</ele>
        <time>2021-09-08T18:12:20Z</time>
      </trkpt>
      <trkpt lat="47.334501" lon="-0.232646">
        <ele>85.846</ele>
        <time>2021-09-08T18:12:42Z</time>
      </trkpt>
      <trkpt lat="47.334653" lon="-0.232752">
        <ele>87.572</ele>
        <time>2021-09-08T18:12:51Z</time>
      </trkpt>
      <trkpt lat="47.335480" lon="-0.232255">
        <ele>80.813</ele>
        <time>2021-09-08T18:13:12Z</time>
      </trkpt>
      <trkpt lat="47.336559" lon="-0.231875">
        <ele>72.114</ele>
        <time>2021-09-08T18:13:38Z</time>
      </trkpt>
      <trkpt lat="47.338138" lon="-0.230928">
        <ele>67.008</ele>
        <time>2021-09-08T18:14:20Z</time>
      </trkpt>
      <trkpt lat="47.338509" lon="-0.231158">
        <ele>66.725</ele>
        <time>2021-09-08T18:14:35Z</time>
      </trkpt>
      <trkpt lat="47.339604" lon="-0.231395">
        <ele>63.160</ele>
        <time>2021-09-08T18:14:57Z</time>
      </trkpt>
      <trkpt lat="47.340918" lon="-0.231574">
        <ele>51.590</ele>
        <time>2021-09-08T18:15:28Z</time>
      </trkpt>
      <trkpt lat="47.341191" lon="-0.231406">
        <ele>52.742</ele>
        <time>2021-09-08T18:15:51Z</time>
      </trkpt>
      <trkpt lat="47.341474" lon="-0.231693">
        <ele>54.355</ele>
        <time>2021-09-08T18:16:09Z</time>
      </trkpt>
      <trkpt lat="47.342004" lon="-0.231799">
        <ele>58.999</ele>
        <time>2021-09-08T18:16:28Z</time>
      </trkpt>
      <trkpt lat="47.342002" lon="-0.231132">
        <ele>60.385</ele>
        <time>2021-09-08T18:16:48Z</time>
      </trkpt>
      <trkpt lat="47.341674" lon="-0.230540">
        <ele>58.345</ele>
        <time>2021-09-08T18:17:02Z</time>
      </trkpt>
      <trkpt lat="47.341636" lon="-0.230193">
        <ele>61.373</ele>
        <time>2021-09-08T18:17:08Z</time>
      </trkpt>
      <trkpt lat="47.342336" lon="-0.229482">
        <ele>55.885</ele>
        <time>2021-09-08T18:18:02Z</time>
      </trkpt>
      <trkpt lat="47.342411" lon="-0.229731">
        <ele>53.113</ele>
        <time>2021-09-08T18:19:43Z</time>
      </trkpt>
      <trkpt lat="47.342236" lon="-0.229543">
        <ele>28.018</ele>
        <time>2021-09-09T10:02:11Z</time>
      </trkpt>
      <trkpt lat="47.342499" lon="-0.230193">
        <ele>28.098</ele>
        <time>2021-09-09T10:02:14Z</time>
      </trkpt>
      <trkpt lat="47.342671" lon="-0.229918">
        <ele>34.217</ele>
        <time>2021-09-09T10:02:42Z</time>
      </trkpt>
      <trkpt lat="47.342515" lon="-0.229478">
        <ele>33.208</ele>
        <time>2021-09-09T10:02:55Z</time>
      </trkpt>
      <trkpt lat="47.342013" lon="-0.229707">
        <ele>28.049</ele>
        <time>2021-09-09T10:06:36Z</time>
      </trkpt>
      <trkpt lat="47.341703" lon="-0.229218">
        <ele>26.764</ele>
        <time>2021-09-09T10:06:58Z</time>
      </trkpt>
      <trkpt lat="47.341537" lon="-0.229381">
        <ele>19.125</ele>
        <time>2021-09-09T10:07:12Z</time>
      </trkpt>
      <trkpt lat="47.341099" lon="-0.230381">
        <ele>26.062</ele>
        <time>2021-09-09T10:07:36Z</time>
      </trkpt>
      <trkpt lat="47.341223" lon="-0.230874">
        <ele>27.031</ele>
        <time>2021-09-09T10:07:48Z</time>
      </trkpt>
      <trkpt lat="47.341031" lon="-0.231578">
        <ele>29.874</ele>
        <time>2021-09-09T10:08:12Z</time>
      </trkpt>
      <trkpt lat="47.339266" lon="-0.233022">
        <ele>36.047</ele>
        <time>2021-09-09T10:09:16Z</time>
      </trkpt>
      <trkpt lat="47.339014" lon="-0.233695">
        <ele>37.128</ele>
        <time>2021-09-09T10:09:33Z</time>
      </trkpt>
      <trkpt lat="47.339001" lon="-0.234667">
        <ele>36.843</ele>
        <time>2021-09-09T10:10:07Z</time>
      </trkpt>
      <trkpt lat="47.338310" lon="-0.234215">
        <ele>39.764</ele>
        <time>2021-09-09T10:10:28Z</time>
      </trkpt>
      <trkpt lat="47.338082" lon="-0.234254">
        <ele>40.510</ele>
        <time>2021-09-09T10:10:36Z</time>
      </trkpt>
      <trkpt lat="47.337665" lon="-0.234053">
        <ele>37.608</ele>
        <time>2021-09-09T10:10:53Z</time>
      </trkpt>
      <trkpt lat="47.337020" lon="-0.234218">
        <ele>34.112</ele>
        <time>2021-09-09T10:11:18Z</time>
      </trkpt>
      <trkpt lat="47.335690" lon="-0.234971">
        <ele>42.447</ele>
        <time>2021-09-09T10:12:55Z</time>
      </trkpt>
      <trkpt lat="47.334748" lon="-0.233144">
        <ele>58.398</ele>
        <time>2021-09-09T10:14:25Z</time>
      </trkpt>
      <trkpt lat="47.334451" lon="-0.233139">
        <ele>60.185</ele>
        <time>2021-09-09T10:14:39Z</time>
      </trkpt>
      <trkpt lat="47.334381" lon="-0.232454">
        <ele>60.844</ele>
        <time>2021-09-09T10:14:57Z</time>
      </trkpt>
      <trkpt lat="47.333739" lon="-0.230398">
        <ele>63.287</ele>
        <time>2021-09-09T10:15:47Z</time>
      </trkpt>
      <trkpt lat="47.333424" lon="-0.230044">
        <ele>64.710</ele>
        <time>2021-09-09T10:16:02Z</time>
      </trkpt>
      <trkpt lat="47.332845" lon="-0.228627">
        <ele>57.171</ele>
        <time>2021-09-09T10:16:46Z</time>
      </trkpt>
      <trkpt lat="47.330994" lon="-0.225461">
        <ele>57.032</ele>
        <time>2021-09-09T10:17:54Z</time>
      </trkpt>
      <trkpt lat="47.331394" lon="-0.226275">
        <ele>63.992</ele>
        <time>2021-09-09T10:18:27Z</time>
      </trkpt>
      <trkpt lat="47.330943" lon="-0.225354">
        <ele>54.111</ele>
        <time>2021-09-09T10:18:59Z</time>
      </trkpt>
      <trkpt lat="47.330619" lon="-0.223955">
        <ele>56.008</ele>
        <time>2021-09-09T10:19:20Z</time>
      </trkpt>
      <trkpt lat="47.330748" lon="-0.223374">
        <ele>53.921</ele>
        <time>2021-09-09T10:19:51Z</time>
      </trkpt>
      <trkpt lat="47.329970" lon="-0.220304">
        <ele>76.946</ele>
        <time>2021-09-09T10:21:22Z</time>
      </trkpt>
      <trkpt lat="47.329845" lon="-0.219315">
        <ele>76.877</ele>
        <time>2021-09-09T10:21:38Z</time>
      </trkpt>
      <trkpt lat="47.329248" lon="-0.217628">
        <ele>78.774</ele>
        <time>2021-09-09T10:22:12Z</time>
      </trkpt>
      <trkpt lat="47.329218" lon="-0.217058">
        <ele>76.863</ele>
        <time>2021-09-09T10:22:21Z</time>
      </trkpt>
      <trkpt lat="47.328488" lon="-0.215059">
        <ele>79.916</ele>
        <time>2021-09-09T10:23:06Z</time>
      </trkpt>
      <trkpt lat="47.327837" lon="-0.214299">
        <ele>83.379</ele>
        <time>2021-09-09T10:23:32Z</time>
      </trkpt>
      <trkpt lat="47.328477" lon="-0.214851">
        <ele>81.570</ele>
        <time>2021-09-09T10:24:00Z</time>
      </trkpt>
      <trkpt lat="47.328677" lon="-0.213850">
        <ele>82.283</ele>
        <time>2021-09-09T10:24:34Z</time>
      </trkpt>
      <trkpt lat="47.328400" lon="-0.212073">
        <ele>83.925</ele>
        <time>2021-09-09T10:25:00Z</time>
      </trkpt>
      <trkpt lat="47.328459" lon="-0.211244">
        <ele>80.417</ele>
        <time>2021-09-09T10:25:10Z</time>
      </trkpt>
      <trkpt lat="47.329170" lon="-0.209347">
        <ele>77.308</ele>
        <time>2021-09-09T10:25:35Z</time>
      </trkpt>
      <trkpt lat="47.329737" lon="-0.206622">
        <ele>66.826</ele>
        <time>2021-09-09T10:26:06Z</time>
      </trkpt>
      <trkpt lat="47.329544" lon="-0.205743">
        <ele>68.391</ele>
        <time>2021-09-09T10:26:23Z</time>
      </trkpt>
      <trkpt lat="47.328872" lon="-0.204148">
        <ele>64.792</ele>
        <time>2021-09-09T10:26:46Z</time>
      </trkpt>
      <trkpt lat="47.329144" lon="-0.203251">
        <ele>52.569</ele>
        <time>2021-09-09T10:26:58Z</time>
      </trkpt>
      <trkpt lat="47.329922" lon="-0.201765">
        <ele>43.998</ele>
        <time>2021-09-09T10:27:13Z</time>
      </trkpt>
      <trkpt lat="47.329915" lon="-0.201044">
        <ele>39.421</ele>
        <time>2021-09-09T10:27:33Z</time>
      </trkpt>
      <trkpt lat="47.329648" lon="-0.201031">
        <ele>42.134</ele>
        <time>2021-09-09T10:28:15Z</time>
      </trkpt>
      <trkpt lat="47.329608" lon="-0.201170">
        <ele>56.285</ele>
        <time>2021-09-09T10:34:16Z</time>
      </trkpt>
      <trkpt lat="47.329910" lon="-0.200963">
        <ele>32.832</ele>
        <time>2021-09-09T10:35:49Z</time>
      </trkpt>
      <trkpt lat="47.329573" lon="-0.200218">
        <ele>34.492</ele>
        <time>2021-09-09T10:37:32Z</time>
      </trkpt>
      <trkpt lat="47.329841" lon="-0.200944">
        <ele>33.311</ele>
        <time>2021-09-09T10:38:03Z</time>
      </trkpt>
      <trkpt lat="47.330269" lon="-0.200967">
        <ele>44.108</ele>
        <time>2021-09-09T10:41:01Z</time>
      </trkpt>
      <trkpt lat="47.330206" lon="-0.201900">
        <ele>43.671</ele>
        <time>2021-09-09T10:43:33Z</time>
      </trkpt>
      <trkpt lat="47.330348" lon="-0.200988">
        <ele>39.356</ele>
        <time>2021-09-09T10:44:47Z</time>
      </trkpt>
      <trkpt lat="47.329869" lon="-0.201001">
        <ele>36.357</ele>
        <time>2021-09-09T10:52:59Z</time>
      </trkpt>
      <trkpt lat="47.329205" lon="-0.201388">
        <ele>38.084</ele>
        <time>2021-09-09T10:53:25Z</time>
      </trkpt>
      <trkpt lat="47.329101" lon="-0.202246">
        <ele>41.083</ele>
        <time>2021-09-09T10:54:07Z</time>
      </trkpt>
      <trkpt lat="47.328888" lon="-0.202313">
        <ele>43.556</ele>
        <time>2021-09-09T10:54:20Z</time>
      </trkpt>
      <trkpt lat="47.328825" lon="-0.202531">
        <ele>46.799</ele>
        <time>2021-09-09T10:54:30Z</time>
      </trkpt>
      <trkpt lat="47.328878" lon="-0.203261">
        <ele>49.140</ele>
        <time>2021-09-09T10:54:59Z</time>
      </trkpt>
      <trkpt lat="47.329022" lon="-0.203495">
        <ele>48.877</ele>
        <time>2021-09-09T10:55:28Z</time>
      </trkpt>
      <trkpt lat="47.329275" lon="-0.203043">
        <ele>46.961</ele>
        <time>2021-09-09T10:55:55Z</time>
      </trkpt>
      <trkpt lat="47.328988" lon="-0.203458">
        <ele>51.127</ele>
        <time>2021-09-09T10:56:15Z</time>
      </trkpt>
      <trkpt lat="47.328860" lon="-0.203140">
        <ele>52.308</ele>
        <time>2021-09-09T10:56:26Z</time>
      </trkpt>
      <trkpt lat="47.328897" lon="-0.202443">
        <ele>52.615</ele>
        <time>2021-09-09T10:56:42Z</time>
      </trkpt>
      <trkpt lat="47.329137" lon="-0.202174">
        <ele>50.560</ele>
        <time>2021-09-09T10:56:50Z</time>
      </trkpt>
      <trkpt lat="47.329246" lon="-0.201402">
        <ele>44.791</ele>
        <time>2021-09-09T10:57:03Z</time>
      </trkpt>
      <trkpt lat="47.329830" lon="-0.200917">
        <ele>37.928</ele>
        <time>2021-09-09T10:57:20Z</time>
      </trkpt>
      <trkpt lat="47.329772" lon="-0.199583">
        <ele>30.937</ele>
        <time>2021-09-09T10:57:46Z</time>
      </trkpt>
      <trkpt lat="47.328175" lon="-0.197548">
        <ele>28.770</ele>
        <time>2021-09-09T10:58:36Z</time>
      </trkpt>
      <trkpt lat="47.326549" lon="-0.194900">
        <ele>30.313</ele>
        <time>2021-09-09T10:59:32Z</time>
      </trkpt>
      <trkpt lat="47.325320" lon="-0.192392">
        <ele>32.544</ele>
        <time>2021-09-09T11:00:23Z</time>
      </trkpt>
      <trkpt lat="47.324265" lon="-0.190692">
        <ele>37.037</ele>
        <time>2021-09-09T11:00:56Z</time>
      </trkpt>
      <trkpt lat="47.322972" lon="-0.187819">
        <ele>33.049</ele>
        <time>2021-09-09T11:01:42Z</time>
      </trkpt>
      <trkpt lat="47.322842" lon="-0.188056">
        <ele>31.813</ele>
        <time>2021-09-09T11:01:54Z</time>
      </trkpt>
      <trkpt lat="47.322951" lon="-0.187790">
        <ele>31.308</ele>
        <time>2021-09-09T11:02:39Z</time>
      </trkpt>
      <trkpt lat="47.322504" lon="-0.186812">
        <ele>31.691</ele>
        <time>2021-09-09T11:02:59Z</time>
      </trkpt>
      <trkpt lat="47.320226" lon="-0.183168">
        <ele>35.096</ele>
        <time>2021-09-09T11:04:11Z</time>
      </trkpt>
      <trkpt lat="47.318663" lon="-0.179201">
        <ele>30.367</ele>
        <time>2021-09-09T11:05:55Z</time>
      </trkpt>
      <trkpt lat="47.318551" lon="-0.178596">
        <ele>30.524</ele>
        <time>2021-09-09T11:07:17Z</time>
      </trkpt>
      <trkpt lat="47.318101" lon="-0.177751">
        <ele>31.843</ele>
        <time>2021-09-09T11:07:40Z</time>
      </trkpt>
      <trkpt lat="47.317208" lon="-0.174200">
        <ele>29.026</ele>
        <time>2021-09-09T11:08:34Z</time>
      </trkpt>
      <trkpt lat="47.316175" lon="-0.172761">
        <ele>27.939</ele>
        <time>2021-09-09T11:09:04Z</time>
      </trkpt>
      <trkpt lat="47.314852" lon="-0.170191">
        <ele>21.660</ele>
        <time>2021-09-09T11:09:49Z</time>
      </trkpt>
      <trkpt lat="47.314618" lon="-0.168140">
        <ele>28.335</ele>
        <time>2021-09-09T11:10:21Z</time>
      </trkpt>
      <trkpt lat="47.313882" lon="-0.165180">
        <ele>32.486</ele>
        <time>2021-09-09T11:11:06Z</time>
      </trkpt>
      <trkpt lat="47.313680" lon="-0.162191">
        <ele>31.014</ele>
        <time>2021-09-09T11:11:46Z</time>
      </trkpt>
      <trkpt lat="47.313471" lon="-0.161550">
        <ele>30.808</ele>
        <time>2021-09-09T11:11:56Z</time>
      </trkpt>
      <trkpt lat="47.312021" lon="-0.159462">
        <ele>33.591</ele>
        <time>2021-09-09T11:12:36Z</time>
      </trkpt>
      <trkpt lat="47.311040" lon="-0.157265">
        <ele>29.886</ele>
        <time>2021-09-09T11:13:13Z</time>
      </trkpt>
      <trkpt lat="47.308810" lon="-0.153636">
        <ele>32.057</ele>
        <time>2021-09-09T11:14:30Z</time>
      </trkpt>
      <trkpt lat="47.307626" lon="-0.152437">
        <ele>34.894</ele>
        <time>2021-09-09T11:14:59Z</time>
      </trkpt>
      <trkpt lat="47.307003" lon="-0.151014">
        <ele>32.523</ele>
        <time>2021-09-09T11:15:23Z</time>
      </trkpt>
      <trkpt lat="47.304608" lon="-0.147069">
        <ele>32.586</ele>
        <time>2021-09-09T11:16:35Z</time>
      </trkpt>
      <trkpt lat="47.300028" lon="-0.142310">
        <ele>43.729</ele>
        <time>2021-09-09T11:18:32Z</time>
      </trkpt>
      <trkpt lat="47.296944" lon="-0.139904">
        <ele>37.270</ele>
        <time>2021-09-09T11:19:38Z</time>
      </trkpt>
      <trkpt lat="47.295562" lon="-0.138611">
        <ele>39.594</ele>
        <time>2021-09-09T11:20:14Z</time>
      </trkpt>
      <trkpt lat="47.294933" lon="-0.138257">
        <ele>35.357</ele>
        <time>2021-09-09T11:20:30Z</time>
      </trkpt>
      <trkpt lat="47.293417" lon="-0.137012">
        <ele>37.722</ele>
        <time>2021-09-09T11:21:14Z</time>
      </trkpt>
      <trkpt lat="47.293392" lon="-0.136815">
        <ele>37.908</ele>
        <time>2021-09-09T11:21:18Z</time>
      </trkpt>
      <trkpt lat="47.293774" lon="-0.136306">
        <ele>30.527</ele>
        <time>2021-09-09T11:21:28Z</time>
      </trkpt>
      <trkpt lat="47.293747" lon="-0.136100">
        <ele>26.882</ele>
        <time>2021-09-09T11:21:31Z</time>
      </trkpt>
      <trkpt lat="47.291925" lon="-0.132870">
        <ele>33.423</ele>
        <time>2021-09-09T11:22:31Z</time>
      </trkpt>
      <trkpt lat="47.290693" lon="-0.129827">
        <ele>29.010</ele>
        <time>2021-09-09T11:23:22Z</time>
      </trkpt>
      <trkpt lat="47.287714" lon="-0.124161">
        <ele>27.279</ele>
        <time>2021-09-09T11:25:01Z</time>
      </trkpt>
      <trkpt lat="47.286341" lon="-0.121345">
        <ele>29.852</ele>
        <time>2021-09-09T11:25:48Z</time>
      </trkpt>
      <trkpt lat="47.285748" lon="-0.119805">
        <ele>31.695</ele>
        <time>2021-09-09T11:26:12Z</time>
      </trkpt>
      <trkpt lat="47.282892" lon="-0.115470">
        <ele>28.296</ele>
        <time>2021-09-09T11:27:39Z</time>
      </trkpt>
      <trkpt lat="47.281729" lon="-0.112758">
        <ele>30.225</ele>
        <time>2021-09-09T11:28:22Z</time>
      </trkpt>
      <trkpt lat="47.281329" lon="-0.113193">
        <ele>30.226</ele>
        <time>2021-09-09T11:28:34Z</time>
      </trkpt>
      <trkpt lat="47.278218" lon="-0.118252">
        <ele>30.808</ele>
        <time>2021-09-09T11:30:34Z</time>
      </trkpt>
      <trkpt lat="47.277844" lon="-0.118690">
        <ele>36.308</ele>
        <time>2021-09-09T11:31:04Z</time>
      </trkpt>
      <trkpt lat="47.276862" lon="-0.119186">
        <ele>37.380</ele>
        <time>2021-09-09T11:32:08Z</time>
      </trkpt>
      <trkpt lat="47.276197" lon="-0.119886">
        <ele>43.025</ele>
        <time>2021-09-09T11:32:34Z</time>
      </trkpt>
      <trkpt lat="47.275112" lon="-0.118463">
        <ele>37.246</ele>
        <time>2021-09-09T11:33:03Z</time>
      </trkpt>
      <trkpt lat="47.274223" lon="-0.116652">
        <ele>30.043</ele>
        <time>2021-09-09T11:33:28Z</time>
      </trkpt>
      <trkpt lat="47.273462" lon="-0.115785">
        <ele>26.792</ele>
        <time>2021-09-09T11:33:47Z</time>
      </trkpt>
      <trkpt lat="47.271491" lon="-0.120731">
        <ele>49.325</ele>
        <time>2021-09-09T11:37:57Z</time>
      </trkpt>
      <trkpt lat="47.271099" lon="-0.121164">
        <ele>47.818</ele>
        <time>2021-09-09T11:38:09Z</time>
      </trkpt>
      <trkpt lat="47.270683" lon="-0.120454">
        <ele>44.899</ele>
        <time>2021-09-09T11:38:19Z</time>
      </trkpt>
      <trkpt lat="47.270252" lon="-0.118856">
        <ele>48.855</ele>
        <time>2021-09-09T11:38:46Z</time>
      </trkpt>
      <trkpt lat="47.269315" lon="-0.117830">
        <ele>46.107</ele>
        <time>2021-09-09T11:39:14Z</time>
      </trkpt>
      <trkpt lat="47.269005" lon="-0.117220">
        <ele>50.317</ele>
        <time>2021-09-09T11:39:32Z</time>
      </trkpt>
      <trkpt lat="47.268677" lon="-0.115942">
        <ele>56.108</ele>
        <time>2021-09-09T11:40:10Z</time>
      </trkpt>
      <trkpt lat="47.268555" lon="-0.113079">
        <ele>66.843</ele>
        <time>2021-09-09T11:42:54Z</time>
      </trkpt>
      <trkpt lat="47.269160" lon="-0.112332">
        <ele>70.058</ele>
        <time>2021-09-09T11:43:15Z</time>
      </trkpt>
      <trkpt lat="47.269185" lon="-0.112131">
        <ele>70.469</ele>
        <time>2021-09-09T11:43:18Z</time>
      </trkpt>
      <trkpt lat="47.268235" lon="-0.110449">
        <ele>64.676</ele>
        <time>2021-09-09T11:44:00Z</time>
      </trkpt>
      <trkpt lat="47.267462" lon="-0.109645">
        <ele>65.635</ele>
        <time>2021-09-09T11:44:24Z</time>
      </trkpt>
      <trkpt lat="47.267939" lon="-0.106980">
        <ele>57.378</ele>
        <time>2021-09-09T11:44:53Z</time>
      </trkpt>
      <trkpt lat="47.267281" lon="-0.106381">
        <ele>54.161</ele>
        <time>2021-09-09T11:45:09Z</time>
      </trkpt>
      <trkpt lat="47.266193" lon="-0.105859">
        <ele>44.952</ele>
        <time>2021-09-09T11:45:33Z</time>
      </trkpt>
      <trkpt lat="47.266344" lon="-0.102842">
        <ele>34.184</ele>
        <time>2021-09-09T11:46:13Z</time>
      </trkpt>
      <trkpt lat="47.265747" lon="-0.101779">
        <ele>30.107</ele>
        <time>2021-09-09T11:46:27Z</time>
      </trkpt>
      <trkpt lat="47.265276" lon="-0.101365">
        <ele>30.717</ele>
        <time>2021-09-09T11:46:38Z</time>
      </trkpt>
      <trkpt lat="47.265112" lon="-0.101001">
        <ele>27.508</ele>
        <time>2021-09-09T11:46:45Z</time>
      </trkpt>
      <trkpt lat="47.265255" lon="-0.100822">
        <ele>27.836</ele>
        <time>2021-09-09T11:46:51Z</time>
      </trkpt>
      <trkpt lat="47.265808" lon="-0.101276">
        <ele>30.191</ele>
        <time>2021-09-09T11:47:15Z</time>
      </trkpt>
      <trkpt lat="47.265827" lon="-0.100838">
        <ele>26.112</ele>
        <time>2021-09-09T11:47:26Z</time>
      </trkpt>
      <trkpt lat="47.266010" lon="-0.100585">
        <ele>22.769</ele>
        <time>2021-09-09T11:48:31Z</time>
      </trkpt>
      <trkpt lat="47.266140" lon="-0.100704">
        <ele>21.818</ele>
        <time>2021-09-09T11:48:46Z</time>
      </trkpt>
      <trkpt lat="47.266501" lon="-0.099916">
        <ele>26.591</ele>
        <time>2021-09-09T11:49:23Z</time>
      </trkpt>
      <trkpt lat="47.265858" lon="-0.097947">
        <ele>20.354</ele>
        <time>2021-09-09T11:50:05Z</time>
      </trkpt>
      <trkpt lat="47.266025" lon="-0.096723">
        <ele>24.355</ele>
        <time>2021-09-09T11:50:55Z</time>
      </trkpt>
      <trkpt lat="47.265975" lon="-0.094704">
        <ele>28.751</ele>
        <time>2021-09-09T11:51:37Z</time>
      </trkpt>
      <trkpt lat="47.265821" lon="-0.094685">
        <ele>29.701</ele>
        <time>2021-09-09T11:51:45Z</time>
      </trkpt>
      <trkpt lat="47.265444" lon="-0.095098">
        <ele>31.611</ele>
        <time>2021-09-09T11:52:03Z</time>
      </trkpt>
      <trkpt lat="47.265778" lon="-0.094778">
        <ele>31.608</ele>
        <time>2021-09-09T11:52:42Z</time>
      </trkpt>
      <trkpt lat="47.265703" lon="-0.093585">
        <ele>31.173</ele>
        <time>2021-09-09T11:53:06Z</time>
      </trkpt>
      <trkpt lat="47.266212" lon="-0.092670">
        <ele>26.018</ele>
        <time>2021-09-09T11:53:25Z</time>
      </trkpt>
      <trkpt lat="47.265875" lon="-0.091945">
        <ele>24.929</ele>
        <time>2021-09-09T11:53:43Z</time>
      </trkpt>
      <trkpt lat="47.266409" lon="-0.091438">
        <ele>30.876</ele>
        <time>2021-09-09T11:54:03Z</time>
      </trkpt>
      <trkpt lat="47.268204" lon="-0.088747">
        <ele>30.165</ele>
        <time>2021-09-09T11:55:30Z</time>
      </trkpt>
      <trkpt lat="47.268317" lon="-0.087997">
        <ele>30.518</ele>
        <time>2021-09-09T11:55:41Z</time>
      </trkpt>
      <trkpt lat="47.268029" lon="-0.086785">
        <ele>33.361</ele>
        <time>2021-09-09T11:56:04Z</time>
      </trkpt>
      <trkpt lat="47.266229" lon="-0.084645">
        <ele>24.752</ele>
        <time>2021-09-09T11:57:06Z</time>
      </trkpt>
      <trkpt lat="47.264457" lon="-0.082152">
        <ele>25.818</ele>
        <time>2021-09-09T11:58:06Z</time>
      </trkpt>
      <trkpt lat="47.263465" lon="-0.080398">
        <ele>27.098</ele>
        <time>2021-09-09T11:58:44Z</time>
      </trkpt>
      <trkpt lat="47.263002" lon="-0.079172">
        <ele>27.517</ele>
        <time>2021-09-09T11:59:08Z</time>
      </trkpt>
      <trkpt lat="47.261350" lon="-0.076818">
        <ele>30.008</ele>
        <time>2021-09-09T12:00:59Z</time>
      </trkpt>
      <trkpt lat="47.260924" lon="-0.077086">
        <ele>33.119</ele>
        <time>2021-09-09T12:01:53Z</time>
      </trkpt>
      <trkpt lat="47.260493" lon="-0.077647">
        <ele>30.054</ele>
        <time>2021-09-09T12:02:25Z</time>
      </trkpt>
      <trkpt lat="47.260892" lon="-0.077080">
        <ele>29.155</ele>
        <time>2021-09-09T12:02:54Z</time>
      </trkpt>
      <trkpt lat="47.260351" lon="-0.075681">
        <ele>25.892</ele>
        <time>2021-09-09T12:03:35Z</time>
      </trkpt>
      <trkpt lat="47.260377" lon="-0.075318">
        <ele>23.121</ele>
        <time>2021-09-09T12:04:56Z</time>
      </trkpt>
      <trkpt lat="47.260135" lon="-0.075630">
        <ele>17.864</ele>
        <time>2021-09-09T12:06:13Z</time>
      </trkpt>
      <trkpt lat="47.259952" lon="-0.075706">
        <ele>17.697</ele>
        <time>2021-09-09T12:06:22Z</time>
      </trkpt>
      <trkpt lat="47.259836" lon="-0.075369">
        <ele>19.938</ele>
        <time>2021-09-09T12:06:58Z</time>
      </trkpt>
      <trkpt lat="47.259895" lon="-0.075580">
        <ele>26.214</ele>
        <time>2021-09-09T12:07:30Z</time>
      </trkpt>
      <trkpt lat="47.260015" lon="-0.075504">
        <ele>31.154</ele>
        <time>2021-09-09T12:22:16Z</time>
      </trkpt>
      <trkpt lat="47.259872" lon="-0.075431">
        <ele>31.109</ele>
        <time>2021-09-09T12:23:27Z</time>
      </trkpt>
      <trkpt lat="47.259596" lon="-0.075649">
        <ele>33.208</ele>
        <time>2021-09-09T12:24:05Z</time>
      </trkpt>
      <trkpt lat="47.259198" lon="-0.074916">
        <ele>41.149</ele>
        <time>2021-09-09T12:43:51Z</time>
      </trkpt>
      <trkpt lat="47.259282" lon="-0.075112">
        <ele>45.574</ele>
        <time>2021-09-09T13:06:51Z</time>
      </trkpt>
      <trkpt lat="47.259110" lon="-0.074971">
        <ele>45.185</ele>
        <time>2021-09-09T13:07:45Z</time>
      </trkpt>
      <trkpt lat="47.258677" lon="-0.075171">
        <ele>38.312</ele>
        <time>2021-09-09T13:08:20Z</time>
      </trkpt>
      <trkpt lat="47.258480" lon="-0.075006">
        <ele>35.241</ele>
        <time>2021-09-09T13:09:09Z</time>
      </trkpt>
      <trkpt lat="47.258176" lon="-0.075667">
        <ele>35.494</ele>
        <time>2021-09-09T13:09:46Z</time>
      </trkpt>
      <trkpt lat="47.258165" lon="-0.074030">
        <ele>35.257</ele>
        <time>2021-09-09T13:11:22Z</time>
      </trkpt>
      <trkpt lat="47.258251" lon="-0.073726">
        <ele>34.998</ele>
        <time>2021-09-09T13:11:33Z</time>
      </trkpt>
      <trkpt lat="47.258546" lon="-0.073489">
        <ele>31.565</ele>
        <time>2021-09-09T13:11:45Z</time>
      </trkpt>
      <trkpt lat="47.258565" lon="-0.073068">
        <ele>30.468</ele>
        <time>2021-09-09T13:11:58Z</time>
      </trkpt>
      <trkpt lat="47.258905" lon="-0.072750">
        <ele>23.914</ele>
        <time>2021-09-09T13:12:15Z</time>
      </trkpt>
      <trkpt lat="47.258876" lon="-0.072525">
        <ele>23.908</ele>
        <time>2021-09-09T13:12:21Z</time>
      </trkpt>
      <trkpt lat="47.258362" lon="-0.071610">
        <ele>26.044</ele>
        <time>2021-09-09T13:12:52Z</time>
      </trkpt>
      <trkpt lat="47.257821" lon="-0.072215">
        <ele>28.889</ele>
        <time>2021-09-09T13:14:00Z</time>
      </trkpt>
      <trkpt lat="47.257050" lon="-0.070376">
        <ele>27.360</ele>
        <time>2021-09-09T13:14:45Z</time>
      </trkpt>
      <trkpt lat="47.256617" lon="-0.069651">
        <ele>24.767</ele>
        <time>2021-09-09T13:15:07Z</time>
      </trkpt>
      <trkpt lat="47.256577" lon="-0.068895">
        <ele>25.066</ele>
        <time>2021-09-09T13:15:23Z</time>
      </trkpt>
      <trkpt lat="47.254869" lon="-0.066687">
        <ele>26.049</ele>
        <time>2021-09-09T13:16:27Z</time>
      </trkpt>
      <trkpt lat="47.253708" lon="-0.064648">
        <ele>26.432</ele>
        <time>2021-09-09T13:17:13Z</time>
      </trkpt>
      <trkpt lat="47.253156" lon="-0.062933">
        <ele>22.063</ele>
        <time>2021-09-09T13:17:51Z</time>
      </trkpt>
      <trkpt lat="47.253337" lon="-0.062642">
        <ele>26.425</ele>
        <time>2021-09-09T13:18:03Z</time>
      </trkpt>
      <trkpt lat="47.252305" lon="-0.060742">
        <ele>28.526</ele>
        <time>2021-09-09T13:18:49Z</time>
      </trkpt>
      <trkpt lat="47.251606" lon="-0.058007">
        <ele>27.408</ele>
        <time>2021-09-09T13:19:40Z</time>
      </trkpt>
      <trkpt lat="47.251747" lon="-0.057418">
        <ele>22.108</ele>
        <time>2021-09-09T13:19:48Z</time>
      </trkpt>
      <trkpt lat="47.251498" lon="-0.055652">
        <ele>26.980</ele>
        <time>2021-09-09T13:20:13Z</time>
      </trkpt>
      <trkpt lat="47.251759" lon="-0.051980">
        <ele>25.235</ele>
        <time>2021-09-09T13:21:12Z</time>
      </trkpt>
      <trkpt lat="47.251308" lon="-0.050519">
        <ele>30.946</ele>
        <time>2021-09-09T13:21:35Z</time>
      </trkpt>
      <trkpt lat="47.250964" lon="-0.047386">
        <ele>28.873</ele>
        <time>2021-09-09T13:22:27Z</time>
      </trkpt>
      <trkpt lat="47.250484" lon="-0.046656">
        <ele>31.362</ele>
        <time>2021-09-09T13:22:43Z</time>
      </trkpt>
      <trkpt lat="47.249619" lon="-0.046547">
        <ele>32.995</ele>
        <time>2021-09-09T13:23:02Z</time>
      </trkpt>
      <trkpt lat="47.249291" lon="-0.046184">
        <ele>32.218</ele>
        <time>2021-09-09T13:23:11Z</time>
      </trkpt>
      <trkpt lat="47.249101" lon="-0.045673">
        <ele>31.169</ele>
        <time>2021-09-09T13:23:25Z</time>
      </trkpt>
      <trkpt lat="47.248936" lon="-0.044798">
        <ele>29.339</ele>
        <time>2021-09-09T13:30:29Z</time>
      </trkpt>
      <trkpt lat="47.249084" lon="-0.044281">
        <ele>33.501</ele>
        <time>2021-09-09T13:30:39Z</time>
      </trkpt>
      <trkpt lat="47.248359" lon="-0.042926">
        <ele>31.721</ele>
        <time>2021-09-09T13:31:09Z</time>
      </trkpt>
      <trkpt lat="47.248372" lon="-0.042008">
        <ele>33.108</ele>
        <time>2021-09-09T13:31:24Z</time>
      </trkpt>
      <trkpt lat="47.246332" lon="-0.036994">
        <ele>25.321</ele>
        <time>2021-09-09T13:32:53Z</time>
      </trkpt>
      <trkpt lat="47.246912" lon="-0.036154">
        <ele>27.836</ele>
        <time>2021-09-09T13:33:15Z</time>
      </trkpt>
      <trkpt lat="47.245543" lon="-0.032838">
        <ele>29.037</ele>
        <time>2021-09-09T13:34:15Z</time>
      </trkpt>
      <trkpt lat="47.244480" lon="-0.029246">
        <ele>26.784</ele>
        <time>2021-09-09T13:35:15Z</time>
      </trkpt>
      <trkpt lat="47.243946" lon="-0.028126">
        <ele>26.523</ele>
        <time>2021-09-09T13:35:34Z</time>
      </trkpt>
      <trkpt lat="47.242260" lon="-0.022493">
        <ele>20.776</ele>
        <time>2021-09-09T13:37:12Z</time>
      </trkpt>
      <trkpt lat="47.242026" lon="-0.022041">
        <ele>19.199</ele>
        <time>2021-09-09T13:37:20Z</time>
      </trkpt>
      <trkpt lat="47.241749" lon="-0.021894">
        <ele>23.370</ele>
        <time>2021-09-09T13:37:26Z</time>
      </trkpt>
      <trkpt lat="47.241319" lon="-0.022489">
        <ele>25.799</ele>
        <time>2021-09-09T13:37:42Z</time>
      </trkpt>
      <trkpt lat="47.241037" lon="-0.022601">
        <ele>28.607</ele>
        <time>2021-09-09T13:37:53Z</time>
      </trkpt>
      <trkpt lat="47.240887" lon="-0.021980">
        <ele>28.327</ele>
        <time>2021-09-09T13:38:49Z</time>
      </trkpt>
      <trkpt lat="47.240694" lon="-0.021966">
        <ele>27.308</ele>
        <time>2021-09-09T13:38:59Z</time>
      </trkpt>
      <trkpt lat="47.239111" lon="-0.014710">
        <ele>30.077</ele>
        <time>2021-09-09T13:41:05Z</time>
      </trkpt>
      <trkpt lat="47.238932" lon="-0.014575">
        <ele>29.322</ele>
        <time>2021-09-09T13:41:16Z</time>
      </trkpt>
      <trkpt lat="47.238532" lon="-0.014698">
        <ele>36.463</ele>
        <time>2021-09-09T13:43:56Z</time>
      </trkpt>
      <trkpt lat="47.238584" lon="-0.014109">
        <ele>42.960</ele>
        <time>2021-09-09T13:52:11Z</time>
      </trkpt>
      <trkpt lat="47.238474" lon="-0.013975">
        <ele>41.019</ele>
        <time>2021-09-09T13:52:24Z</time>
      </trkpt>
      <trkpt lat="47.238184" lon="-0.014019">
        <ele>37.722</ele>
        <time>2021-09-09T13:52:44Z</time>
      </trkpt>
      <trkpt lat="47.237861" lon="-0.014584">
        <ele>48.035</ele>
        <time>2021-09-09T13:55:39Z</time>
      </trkpt>
      <trkpt lat="47.237968" lon="-0.014109">
        <ele>42.756</ele>
        <time>2021-09-09T13:56:28Z</time>
      </trkpt>
      <trkpt lat="47.238275" lon="-0.014119">
        <ele>44.418</ele>
        <time>2021-09-09T13:57:16Z</time>
      </trkpt>
      <trkpt lat="47.238567" lon="-0.013908">
        <ele>39.298</ele>
        <time>2021-09-09T13:58:05Z</time>
      </trkpt>
      <trkpt lat="47.237757" lon="-0.010654">
        <ele>30.817</ele>
        <time>2021-09-09T14:02:18Z</time>
      </trkpt>
      <trkpt lat="47.237575" lon="-0.010609">
        <ele>29.808</ele>
        <time>2021-09-09T14:02:38Z</time>
      </trkpt>
      <trkpt lat="47.237224" lon="-0.009807">
        <ele>39.519</ele>
        <time>2021-09-09T14:03:54Z</time>
      </trkpt>
      <trkpt lat="47.236965" lon="-0.010192">
        <ele>38.814</ele>
        <time>2021-09-09T14:04:15Z</time>
      </trkpt>
      <trkpt lat="47.236694" lon="-0.010156">
        <ele>39.625</ele>
        <time>2021-09-09T14:05:28Z</time>
      </trkpt>
      <trkpt lat="47.236776" lon="-0.010217">
        <ele>39.262</ele>
        <time>2021-09-09T14:05:51Z</time>
      </trkpt>
      <trkpt lat="47.236400" lon="-0.010404">
        <ele>39.221</ele>
        <time>2021-09-09T14:06:38Z</time>
      </trkpt>
      <trkpt lat="47.236588" lon="-0.010520">
        <ele>37.794</ele>
        <time>2021-09-09T14:06:52Z</time>
      </trkpt>
      <trkpt lat="47.236197" lon="-0.009762">
        <ele>33.657</ele>
        <time>2021-09-09T14:14:07Z</time>
      </trkpt>
      <trkpt lat="47.236714" lon="-0.008857">
        <ele>32.298</ele>
        <time>2021-09-09T14:15:29Z</time>
      </trkpt>
      <trkpt lat="47.235437" lon="-0.007190">
        <ele>31.587</ele>
        <time>2021-09-09T14:16:27Z</time>
      </trkpt>
      <trkpt lat="47.235405" lon="-0.006895">
        <ele>30.642</ele>
        <time>2021-09-09T14:16:37Z</time>
      </trkpt>
      <trkpt lat="47.235714" lon="-0.006496">
        <ele>30.926</ele>
        <time>2021-09-09T14:16:51Z</time>
      </trkpt>
      <trkpt lat="47.235708" lon="-0.006257">
        <ele>30.708</ele>
        <time>2021-09-09T14:16:57Z</time>
      </trkpt>
      <trkpt lat="47.234324" lon="-0.005169">
        <ele>36.356</ele>
        <time>2021-09-09T14:18:57Z</time>
      </trkpt>
      <trkpt lat="47.233859" lon="-0.005230">
        <ele>38.761</ele>
        <time>2021-09-09T14:19:20Z</time>
      </trkpt>
      <trkpt lat="47.233390" lon="-0.005452">
        <ele>41.532</ele>
        <time>2021-09-09T14:19:42Z</time>
      </trkpt>
      <trkpt lat="47.232358" lon="-0.006582">
        <ele>50.249</ele>
        <time>2021-09-09T14:20:53Z</time>
      </trkpt>
      <trkpt lat="47.231769" lon="-0.007646">
        <ele>52.148</ele>
        <time>2021-09-09T14:21:25Z</time>
      </trkpt>
      <trkpt lat="47.231330" lon="-0.008118">
        <ele>55.341</ele>
        <time>2021-09-09T14:21:46Z</time>
      </trkpt>
      <trkpt lat="47.229861" lon="-0.004866">
        <ele>57.634</ele>
        <time>2021-09-09T14:23:10Z</time>
      </trkpt>
      <trkpt lat="47.229366" lon="-0.003016">
        <ele>58.625</ele>
        <time>2021-09-09T14:23:46Z</time>
      </trkpt>
      <trkpt lat="47.228299" lon="-0.000094">
        <ele>58.899</ele>
        <time>2021-09-09T14:24:43Z</time>
      </trkpt>
      <trkpt lat="47.229239" lon="0.000577">
        <ele>57.107</ele>
        <time>2021-09-09T14:25:06Z</time>
      </trkpt>
      <trkpt lat="47.231409" lon="0.001553">
        <ele>45.827</ele>
        <time>2021-09-09T14:25:41Z</time>
      </trkpt>
      <trkpt lat="47.231942" lon="0.002074">
        <ele>39.008</ele>
        <time>2021-09-09T14:25:53Z</time>
      </trkpt>
      <trkpt lat="47.232017" lon="0.003048">
        <ele>43.567</ele>
        <time>2021-09-09T14:26:25Z</time>
      </trkpt>
      <trkpt lat="47.231877" lon="0.005249">
        <ele>55.392</ele>
        <time>2021-09-09T14:27:55Z</time>
      </trkpt>
      <trkpt lat="47.232117" lon="0.005655">
        <ele>57.083</ele>
        <time>2021-09-09T14:28:15Z</time>
      </trkpt>
      <trkpt lat="47.231650" lon="0.007902">
        <ele>59.040</ele>
        <time>2021-09-09T14:29:10Z</time>
      </trkpt>
      <trkpt lat="47.231448" lon="0.008082">
        <ele>59.049</ele>
        <time>2021-09-09T14:29:47Z</time>
      </trkpt>
      <trkpt lat="47.231375" lon="0.007919">
        <ele>58.712</ele>
        <time>2021-09-09T14:29:56Z</time>
      </trkpt>
      <trkpt lat="47.231176" lon="0.008038">
        <ele>55.415</ele>
        <time>2021-09-09T14:30:04Z</time>
      </trkpt>
      <trkpt lat="47.230993" lon="0.009963">
        <ele>60.466</ele>
        <time>2021-09-09T14:31:22Z</time>
      </trkpt>
      <trkpt lat="47.230053" lon="0.012260">
        <ele>57.563</ele>
        <time>2021-09-09T14:32:06Z</time>
      </trkpt>
      <trkpt lat="47.229808" lon="0.012642">
        <ele>59.044</ele>
        <time>2021-09-09T14:32:13Z</time>
      </trkpt>
      <trkpt lat="47.229199" lon="0.013128">
        <ele>60.418</ele>
        <time>2021-09-09T14:32:31Z</time>
      </trkpt>
      <trkpt lat="47.228583" lon="0.014041">
        <ele>63.808</ele>
        <time>2021-09-09T14:32:57Z</time>
      </trkpt>
      <trkpt lat="47.224697" lon="0.010064">
        <ele>67.024</ele>
        <time>2021-09-09T14:35:22Z</time>
      </trkpt>
      <trkpt lat="47.223913" lon="0.008676">
        <ele>59.119</ele>
        <time>2021-09-09T14:35:48Z</time>
      </trkpt>
      <trkpt lat="47.223421" lon="0.008980">
        <ele>53.370</ele>
        <time>2021-09-09T14:35:58Z</time>
      </trkpt>
      <trkpt lat="47.222214" lon="0.010388">
        <ele>45.897</ele>
        <time>2021-09-09T14:36:22Z</time>
      </trkpt>
      <trkpt lat="47.223428" lon="0.012828">
        <ele>43.826</ele>
        <time>2021-09-09T14:37:06Z</time>
      </trkpt>
      <trkpt lat="47.225829" lon="0.015380">
        <ele>41.099</ele>
        <time>2021-09-09T14:38:14Z</time>
      </trkpt>
      <trkpt lat="47.227318" lon="0.016177">
        <ele>32.152</ele>
        <time>2021-09-09T14:38:46Z</time>
      </trkpt>
      <trkpt lat="47.227849" lon="0.016994">
        <ele>29.043</ele>
        <time>2021-09-09T14:39:01Z</time>
      </trkpt>
      <trkpt lat="47.227253" lon="0.018900">
        <ele>28.811</ele>
        <time>2021-09-09T14:39:32Z</time>
      </trkpt>
      <trkpt lat="47.224605" lon="0.025171">
        <ele>37.221</ele>
        <time>2021-09-09T14:43:47Z</time>
      </trkpt>
      <trkpt lat="47.224193" lon="0.027010">
        <ele>31.203</ele>
        <time>2021-09-09T14:46:09Z</time>
      </trkpt>
      <trkpt lat="47.223910" lon="0.027614">
        <ele>32.208</ele>
        <time>2021-09-09T14:46:54Z</time>
      </trkpt>
      <trkpt lat="47.223198" lon="0.028155">
        <ele>35.929</ele>
        <time>2021-09-09T14:49:03Z</time>
      </trkpt>
      <trkpt lat="47.223069" lon="0.028845">
        <ele>37.224</ele>
        <time>2021-09-09T14:49:24Z</time>
      </trkpt>
      <trkpt lat="47.223144" lon="0.029005">
        <ele>33.325</ele>
        <time>2021-09-09T14:49:45Z</time>
      </trkpt>
      <trkpt lat="47.223830" lon="0.029208">
        <ele>22.962</ele>
        <time>2021-09-09T14:51:44Z</time>
      </trkpt>
      <trkpt lat="47.223916" lon="0.028688">
        <ele>24.911</ele>
        <time>2021-09-09T14:52:15Z</time>
      </trkpt>
      <trkpt lat="47.223940" lon="0.029127">
        <ele>26.564</ele>
        <time>2021-09-09T14:52:53Z</time>
      </trkpt>
      <trkpt lat="47.224905" lon="0.029471">
        <ele>24.287</ele>
        <time>2021-09-09T14:53:21Z</time>
      </trkpt>
      <trkpt lat="47.225268" lon="0.029021">
        <ele>26.838</ele>
        <time>2021-09-09T14:53:41Z</time>
      </trkpt>
      <trkpt lat="47.225570" lon="0.029514">
        <ele>27.075</ele>
        <time>2021-09-09T14:53:57Z</time>
      </trkpt>
      <trkpt lat="47.225603" lon="0.029936">
        <ele>26.228</ele>
        <time>2021-09-09T14:54:07Z</time>
      </trkpt>
      <trkpt lat="47.228097" lon="0.030588">
        <ele>26.020</ele>
        <time>2021-09-09T14:54:59Z</time>
      </trkpt>
      <trkpt lat="47.228965" lon="0.031098">
        <ele>21.808</ele>
        <time>2021-09-09T14:55:18Z</time>
      </trkpt>
      <trkpt lat="47.229119" lon="0.031455">
        <ele>19.255</ele>
        <time>2021-09-09T14:55:26Z</time>
      </trkpt>
      <trkpt lat="47.228919" lon="0.032043">
        <ele>22.860</ele>
        <time>2021-09-09T14:55:38Z</time>
      </trkpt>
      <trkpt lat="47.228223" lon="0.032667">
        <ele>23.971</ele>
        <time>2021-09-09T14:55:54Z</time>
      </trkpt>
      <trkpt lat="47.227400" lon="0.034280">
        <ele>25.428</ele>
        <time>2021-09-09T14:56:20Z</time>
      </trkpt>
      <trkpt lat="47.226835" lon="0.035915">
        <ele>20.517</ele>
        <time>2021-09-09T14:56:48Z</time>
      </trkpt>
      <trkpt lat="47.226071" lon="0.039099">
        <ele>26.590</ele>
        <time>2021-09-09T14:57:45Z</time>
      </trkpt>
      <trkpt lat="47.225549" lon="0.040446">
        <ele>22.293</ele>
        <time>2021-09-09T14:58:08Z</time>
      </trkpt>
      <trkpt lat="47.224236" lon="0.042722">
        <ele>25.994</ele>
        <time>2021-09-09T14:58:56Z</time>
      </trkpt>
      <trkpt lat="47.223863" lon="0.044512">
        <ele>26.233</ele>
        <time>2021-09-09T14:59:24Z</time>
      </trkpt>
      <trkpt lat="47.223447" lon="0.045623">
        <ele>26.523</ele>
        <time>2021-09-09T14:59:45Z</time>
      </trkpt>
      <trkpt lat="47.222906" lon="0.046263">
        <ele>20.415</ele>
        <time>2021-09-09T15:00:01Z</time>
      </trkpt>
      <trkpt lat="47.221918" lon="0.047952">
        <ele>23.908</ele>
        <time>2021-09-09T15:00:37Z</time>
      </trkpt>
      <trkpt lat="47.220148" lon="0.049818">
        <ele>25.811</ele>
        <time>2021-09-09T15:01:31Z</time>
      </trkpt>
      <trkpt lat="47.219369" lon="0.051391">
        <ele>26.336</ele>
        <time>2021-09-09T15:02:02Z</time>
      </trkpt>
      <trkpt lat="47.219151" lon="0.051254">
        <ele>26.517</ele>
        <time>2021-09-09T15:02:08Z</time>
      </trkpt>
      <trkpt lat="47.218762" lon="0.050540">
        <ele>26.934</ele>
        <time>2021-09-09T15:02:34Z</time>
      </trkpt>
      <trkpt lat="47.217364" lon="0.054971">
        <ele>27.473</ele>
        <time>2021-09-09T15:04:01Z</time>
      </trkpt>
      <trkpt lat="47.217468" lon="0.055126">
        <ele>27.836</ele>
        <time>2021-09-09T15:04:08Z</time>
      </trkpt>
      <trkpt lat="47.217389" lon="0.055428">
        <ele>27.069</ele>
        <time>2021-09-09T15:04:16Z</time>
      </trkpt>
      <trkpt lat="47.217590" lon="0.055660">
        <ele>26.490</ele>
        <time>2021-09-09T15:04:24Z</time>
      </trkpt>
      <trkpt lat="47.216815" lon="0.057406">
        <ele>23.731</ele>
        <time>2021-09-09T15:05:02Z</time>
      </trkpt>
      <trkpt lat="47.216393" lon="0.060450">
        <ele>25.561</ele>
        <time>2021-09-09T15:06:22Z</time>
      </trkpt>
      <trkpt lat="47.216275" lon="0.060770">
        <ele>26.407</ele>
        <time>2021-09-09T15:06:46Z</time>
      </trkpt>
      <trkpt lat="47.216431" lon="0.059342">
        <ele>26.408</ele>
        <time>2021-09-09T15:07:56Z</time>
      </trkpt>
      <trkpt lat="47.216199" lon="0.059572">
        <ele>27.291</ele>
        <time>2021-09-09T15:08:13Z</time>
      </trkpt>
      <trkpt lat="47.216014" lon="0.060208">
        <ele>28.736</ele>
        <time>2021-09-09T15:08:42Z</time>
      </trkpt>
      <trkpt lat="47.215476" lon="0.061107">
        <ele>35.477</ele>
        <time>2021-09-09T15:09:28Z</time>
      </trkpt>
      <trkpt lat="47.215551" lon="0.061447">
        <ele>38.264</ele>
        <time>2021-09-09T15:09:49Z</time>
      </trkpt>
      <trkpt lat="47.215321" lon="0.061428">
        <ele>35.963</ele>
        <time>2021-09-09T15:11:33Z</time>
      </trkpt>
      <trkpt lat="47.214873" lon="0.062274">
        <ele>39.896</ele>
        <time>2021-09-09T15:12:10Z</time>
      </trkpt>
      <trkpt lat="47.214949" lon="0.063952">
        <ele>40.759</ele>
        <time>2021-09-09T15:13:54Z</time>
      </trkpt>
      <trkpt lat="47.214225" lon="0.066486">
        <ele>31.710</ele>
        <time>2021-09-09T15:14:40Z</time>
      </trkpt>
      <trkpt lat="47.214214" lon="0.067797">
        <ele>29.527</ele>
        <time>2021-09-09T15:15:12Z</time>
      </trkpt>
      <trkpt lat="47.214027" lon="0.068528">
        <ele>29.768</ele>
        <time>2021-09-09T15:15:31Z</time>
      </trkpt>
      <trkpt lat="47.211569" lon="0.073921">
        <ele>34.114</ele>
        <time>2021-09-09T15:19:17Z</time>
      </trkpt>
      <trkpt lat="47.211442" lon="0.073648">
        <ele>36.408</ele>
        <time>2021-09-09T15:22:32Z</time>
      </trkpt>
      <trkpt lat="47.211499" lon="0.073803">
        <ele>35.540</ele>
        <time>2021-09-09T15:23:16Z</time>
      </trkpt>
      <trkpt lat="47.211336" lon="0.073974">
        <ele>47.875</ele>
        <time>2021-09-09T15:23:36Z</time>
      </trkpt>
      <trkpt lat="47.211495" lon="0.073828">
        <ele>38.486</ele>
        <time>2021-09-09T15:25:51Z</time>
      </trkpt>
      <trkpt lat="47.211609" lon="0.073934">
        <ele>39.253</ele>
        <time>2021-09-09T15:26:47Z</time>
      </trkpt>
      <trkpt lat="47.210902" lon="0.075306">
        <ele>33.462</ele>
        <time>2021-09-09T15:29:15Z</time>
      </trkpt>
      <trkpt lat="47.210632" lon="0.076216">
        <ele>29.335</ele>
        <time>2021-09-09T15:29:31Z</time>
      </trkpt>
      <trkpt lat="47.209697" lon="0.077697">
        <ele>26.638</ele>
        <time>2021-09-09T15:32:12Z</time>
      </trkpt>
      <trkpt lat="47.209254" lon="0.078107">
        <ele>31.529</ele>
        <time>2021-09-09T15:33:25Z</time>
      </trkpt>
      <trkpt lat="47.209501" lon="0.078721">
        <ele>32.811</ele>
        <time>2021-09-09T15:33:48Z</time>
      </trkpt>
      <trkpt lat="47.212148" lon="0.082945">
        <ele>25.621</ele>
        <time>2021-09-09T15:35:14Z</time>
      </trkpt>
      <trkpt lat="47.212774" lon="0.083649">
        <ele>28.803</ele>
        <time>2021-09-09T15:35:40Z</time>
      </trkpt>
      <trkpt lat="47.212662" lon="0.083694">
        <ele>28.808</ele>
        <time>2021-09-09T15:35:49Z</time>
      </trkpt>
      <trkpt lat="47.212705" lon="0.084207">
        <ele>23.969</ele>
        <time>2021-09-09T15:36:27Z</time>
      </trkpt>
      <trkpt lat="47.212368" lon="0.084105">
        <ele>27.764</ele>
        <time>2021-09-09T15:36:38Z</time>
      </trkpt>
      <trkpt lat="47.210588" lon="0.082646">
        <ele>23.235</ele>
        <time>2021-09-09T15:37:25Z</time>
      </trkpt>
      <trkpt lat="47.209865" lon="0.083727">
        <ele>22.092</ele>
        <time>2021-09-09T15:37:47Z</time>
      </trkpt>
      <trkpt lat="47.209083" lon="0.085873">
        <ele>15.721</ele>
        <time>2021-09-09T15:38:27Z</time>
      </trkpt>
      <trkpt lat="47.208126" lon="0.089588">
        <ele>22.624</ele>
        <time>2021-09-09T15:39:24Z</time>
      </trkpt>
      <trkpt lat="47.206055" lon="0.094514">
        <ele>24.977</ele>
        <time>2021-09-09T15:40:55Z</time>
      </trkpt>
      <trkpt lat="47.205800" lon="0.096177">
        <ele>20.718</ele>
        <time>2021-09-09T15:41:21Z</time>
      </trkpt>
      <trkpt lat="47.204662" lon="0.099666">
        <ele>20.582</ele>
        <time>2021-09-09T15:42:19Z</time>
      </trkpt>
      <trkpt lat="47.202738" lon="0.104336">
        <ele>25.143</ele>
        <time>2021-09-09T15:43:43Z</time>
      </trkpt>
      <trkpt lat="47.201327" lon="0.101892">
        <ele>21.717</ele>
        <time>2021-09-09T15:45:27Z</time>
      </trkpt>
      <trkpt lat="47.200568" lon="0.101201">
        <ele>21.708</ele>
        <time>2021-09-09T15:45:47Z</time>
      </trkpt>
      <trkpt lat="47.200181" lon="0.101044">
        <ele>28.856</ele>
        <time>2021-09-09T15:45:57Z</time>
      </trkpt>
      <trkpt lat="47.199016" lon="0.101583">
        <ele>27.071</ele>
        <time>2021-09-09T15:46:28Z</time>
      </trkpt>
      <trkpt lat="47.197779" lon="0.102823">
        <ele>32.522</ele>
        <time>2021-09-09T15:46:58Z</time>
      </trkpt>
      <trkpt lat="47.194881" lon="0.104398">
        <ele>25.699</ele>
        <time>2021-09-09T15:48:06Z</time>
      </trkpt>
      <trkpt lat="47.194107" lon="0.105363">
        <ele>19.328</ele>
        <time>2021-09-09T15:48:31Z</time>
      </trkpt>
      <trkpt lat="47.192323" lon="0.106804">
        <ele>25.581</ele>
        <time>2021-09-09T15:49:17Z</time>
      </trkpt>
      <trkpt lat="47.190746" lon="0.108648">
        <ele>23.974</ele>
        <time>2021-09-09T15:50:04Z</time>
      </trkpt>
      <trkpt lat="47.188985" lon="0.111764">
        <ele>24.525</ele>
        <time>2021-09-09T15:51:08Z</time>
      </trkpt>
      <trkpt lat="47.187462" lon="0.115734">
        <ele>24.978</ele>
        <time>2021-09-09T15:52:19Z</time>
      </trkpt>
      <trkpt lat="47.187233" lon="0.117296">
        <ele>23.933</ele>
        <time>2021-09-09T15:52:48Z</time>
      </trkpt>
      <trkpt lat="47.187433" lon="0.117652">
        <ele>19.326</ele>
        <time>2021-09-09T15:52:55Z</time>
      </trkpt>
      <trkpt lat="47.188407" lon="0.118006">
        <ele>24.608</ele>
        <time>2021-09-09T15:53:18Z</time>
      </trkpt>
      <trkpt lat="47.189662" lon="0.118701">
        <ele>19.465</ele>
        <time>2021-09-09T15:53:47Z</time>
      </trkpt>
      <trkpt lat="47.193808" lon="0.121451">
        <ele>28.170</ele>
        <time>2021-09-09T15:55:32Z</time>
      </trkpt>
      <trkpt lat="47.200755" lon="0.125629">
        <ele>27.851</ele>
        <time>2021-09-09T15:57:58Z</time>
      </trkpt>
      <trkpt lat="47.201486" lon="0.126177">
        <ele>23.898</ele>
        <time>2021-09-09T15:58:14Z</time>
      </trkpt>
      <trkpt lat="47.204060" lon="0.129123">
        <ele>28.137</ele>
        <time>2021-09-09T15:59:20Z</time>
      </trkpt>
      <trkpt lat="47.204625" lon="0.130283">
        <ele>30.470</ele>
        <time>2021-09-09T15:59:45Z</time>
      </trkpt>
      <trkpt lat="47.202061" lon="0.134409">
        <ele>27.983</ele>
        <time>2021-09-09T16:01:13Z</time>
      </trkpt>
      <trkpt lat="47.201167" lon="0.137834">
        <ele>29.234</ele>
        <time>2021-09-09T16:02:01Z</time>
      </trkpt>
      <trkpt lat="47.199995" lon="0.140915">
        <ele>26.773</ele>
        <time>2021-09-09T16:02:51Z</time>
      </trkpt>
      <trkpt lat="47.199873" lon="0.141729">
        <ele>27.285</ele>
        <time>2021-09-09T16:03:02Z</time>
      </trkpt>
      <trkpt lat="47.199965" lon="0.142909">
        <ele>25.913</ele>
        <time>2021-09-09T16:03:18Z</time>
      </trkpt>
      <trkpt lat="47.200126" lon="0.143379">
        <ele>25.908</ele>
        <time>2021-09-09T16:03:27Z</time>
      </trkpt>
      <trkpt lat="47.200750" lon="0.144144">
        <ele>29.995</ele>
        <time>2021-09-09T16:03:54Z</time>
      </trkpt>
      <trkpt lat="47.200491" lon="0.144731">
        <ele>32.290</ele>
        <time>2021-09-09T16:12:19Z</time>
      </trkpt>
      <trkpt lat="47.200202" lon="0.146576">
        <ele>29.941</ele>
        <time>2021-09-09T16:12:56Z</time>
      </trkpt>
      <trkpt lat="47.199870" lon="0.147024">
        <ele>27.938</ele>
        <time>2021-09-09T16:13:08Z</time>
      </trkpt>
      <trkpt lat="47.199448" lon="0.148053">
        <ele>26.097</ele>
        <time>2021-09-09T16:13:28Z</time>
      </trkpt>
      <trkpt lat="47.198031" lon="0.150136">
        <ele>24.910</ele>
        <time>2021-09-09T16:14:19Z</time>
      </trkpt>
      <trkpt lat="47.197165" lon="0.150811">
        <ele>26.013</ele>
        <time>2021-09-09T16:14:44Z</time>
      </trkpt>
      <trkpt lat="47.196491" lon="0.151911">
        <ele>25.044</ele>
        <time>2021-09-09T16:15:10Z</time>
      </trkpt>
      <trkpt lat="47.195677" lon="0.152826">
        <ele>26.347</ele>
        <time>2021-09-09T16:15:37Z</time>
      </trkpt>
      <trkpt lat="47.195338" lon="0.153599">
        <ele>24.629</ele>
        <time>2021-09-09T16:15:51Z</time>
      </trkpt>
      <trkpt lat="47.194662" lon="0.156355">
        <ele>30.721</ele>
        <time>2021-09-09T16:16:36Z</time>
      </trkpt>
      <trkpt lat="47.193719" lon="0.158063">
        <ele>26.408</ele>
        <time>2021-09-09T16:17:07Z</time>
      </trkpt>
      <trkpt lat="47.192764" lon="0.160332">
        <ele>29.112</ele>
        <time>2021-09-09T16:17:51Z</time>
      </trkpt>
      <trkpt lat="47.192846" lon="0.160818">
        <ele>28.937</ele>
        <time>2021-09-09T16:18:04Z</time>
      </trkpt>
      <trkpt lat="47.192936" lon="0.160790">
        <ele>24.468</ele>
        <time>2021-09-09T16:20:06Z</time>
      </trkpt>
      <trkpt lat="47.192633" lon="0.160443">
        <ele>37.015</ele>
        <time>2021-09-09T16:21:45Z</time>
      </trkpt>
      <trkpt lat="47.192532" lon="0.160508">
        <ele>31.434</ele>
        <time>2021-09-09T16:25:31Z</time>
      </trkpt>
      <trkpt lat="47.192594" lon="0.160431">
        <ele>33.117</ele>
        <time>2021-09-09T16:29:25Z</time>
      </trkpt>
      <trkpt lat="47.192257" lon="0.161116">
        <ele>30.820</ele>
        <time>2021-09-09T16:30:30Z</time>
      </trkpt>
      <trkpt lat="47.190439" lon="0.163137">
        <ele>24.081</ele>
        <time>2021-09-09T16:31:25Z</time>
      </trkpt>
      <trkpt lat="47.188919" lon="0.164392">
        <ele>28.575</ele>
        <time>2021-09-09T16:32:05Z</time>
      </trkpt>
      <trkpt lat="47.188310" lon="0.164694">
        <ele>30.028</ele>
        <time>2021-09-09T16:32:25Z</time>
      </trkpt>
      <trkpt lat="47.185915" lon="0.168864">
        <ele>25.620</ele>
        <time>2021-09-09T16:33:49Z</time>
      </trkpt>
      <trkpt lat="47.184649" lon="0.169514">
        <ele>27.008</ele>
        <time>2021-09-09T16:34:20Z</time>
      </trkpt>
      <trkpt lat="47.183369" lon="0.170798">
        <ele>30.995</ele>
        <time>2021-09-09T16:34:58Z</time>
      </trkpt>
      <trkpt lat="47.181844" lon="0.174467">
        <ele>24.590</ele>
        <time>2021-09-09T16:36:03Z</time>
      </trkpt>
      <trkpt lat="47.181473" lon="0.175736">
        <ele>23.691</ele>
        <time>2021-09-09T16:36:22Z</time>
      </trkpt>
      <trkpt lat="47.180855" lon="0.175468">
        <ele>31.118</ele>
        <time>2021-09-09T16:36:35Z</time>
      </trkpt>
      <trkpt lat="47.180343" lon="0.175004">
        <ele>30.187</ele>
        <time>2021-09-09T16:36:47Z</time>
      </trkpt>
      <trkpt lat="47.178833" lon="0.181110">
        <ele>13.480</ele>
        <time>2021-09-09T16:38:30Z</time>
      </trkpt>
      <trkpt lat="47.177715" lon="0.184115">
        <ele>19.463</ele>
        <time>2021-09-09T16:39:16Z</time>
      </trkpt>
      <trkpt lat="47.176821" lon="0.187619">
        <ele>20.964</ele>
        <time>2021-09-09T16:40:12Z</time>
      </trkpt>
      <trkpt lat="47.176510" lon="0.187942">
        <ele>20.277</ele>
        <time>2021-09-09T16:40:20Z</time>
      </trkpt>
      <trkpt lat="47.174430" lon="0.192297">
        <ele>13.961</ele>
        <time>2021-09-09T16:41:41Z</time>
      </trkpt>
      <trkpt lat="47.173842" lon="0.194595">
        <ele>28.427</ele>
        <time>2021-09-09T16:42:15Z</time>
      </trkpt>
      <trkpt lat="47.173108" lon="0.199098">
        <ele>27.008</ele>
        <time>2021-09-09T16:43:22Z</time>
      </trkpt>
      <trkpt lat="47.173979" lon="0.199979">
        <ele>26.765</ele>
        <time>2021-09-09T16:43:46Z</time>
      </trkpt>
      <trkpt lat="47.174317" lon="0.200770">
        <ele>27.580</ele>
        <time>2021-09-09T16:44:00Z</time>
      </trkpt>
      <trkpt lat="47.174674" lon="0.200955">
        <ele>28.211</ele>
        <time>2021-09-09T16:44:08Z</time>
      </trkpt>
      <trkpt lat="47.175182" lon="0.200933">
        <ele>33.338</ele>
        <time>2021-09-09T16:44:22Z</time>
      </trkpt>
      <trkpt lat="47.175245" lon="0.201059">
        <ele>33.647</ele>
        <time>2021-09-09T16:44:27Z</time>
      </trkpt>
      <trkpt lat="47.175063" lon="0.201134">
        <ele>31.970</ele>
        <time>2021-09-09T16:44:33Z</time>
      </trkpt>
      <trkpt lat="47.174853" lon="0.201018">
        <ele>31.793</ele>
        <time>2021-09-09T16:44:38Z</time>
      </trkpt>
      <trkpt lat="47.174330" lon="0.201198">
        <ele>30.664</ele>
        <time>2021-09-09T16:44:50Z</time>
      </trkpt>
      <trkpt lat="47.172450" lon="0.200148">
        <ele>28.794</ele>
        <time>2021-09-09T16:47:31Z</time>
      </trkpt>
      <trkpt lat="47.169220" lon="0.199137">
        <ele>34.357</ele>
        <time>2021-09-09T16:49:30Z</time>
      </trkpt>
      <trkpt lat="47.169312" lon="0.199376">
        <ele>32.722</ele>
        <time>2021-09-09T16:49:38Z</time>
      </trkpt>
      <trkpt lat="47.169863" lon="0.199488">
        <ele>33.108</ele>
        <time>2021-09-09T16:49:50Z</time>
      </trkpt>
      <trkpt lat="47.170001" lon="0.199690">
        <ele>32.197</ele>
        <time>2021-09-09T16:49:54Z</time>
      </trkpt>
      <trkpt lat="47.169867" lon="0.201383">
        <ele>27.172</ele>
        <time>2021-09-09T16:50:16Z</time>
      </trkpt>
      <trkpt lat="47.167781" lon="0.206778">
        <ele>31.873</ele>
        <time>2021-09-09T16:51:47Z</time>
      </trkpt>
      <trkpt lat="47.167089" lon="0.209649">
        <ele>24.790</ele>
        <time>2021-09-09T16:52:34Z</time>
      </trkpt>
      <trkpt lat="47.166607" lon="0.213899">
        <ele>30.679</ele>
        <time>2021-09-09T16:53:39Z</time>
      </trkpt>
      <trkpt lat="47.166514" lon="0.217452">
        <ele>31.722</ele>
        <time>2021-09-09T16:54:30Z</time>
      </trkpt>
      <trkpt lat="47.166882" lon="0.221497">
        <ele>25.225</ele>
        <time>2021-09-09T16:55:32Z</time>
      </trkpt>
      <trkpt lat="47.166501" lon="0.224529">
        <ele>29.526</ele>
        <time>2021-09-09T16:56:14Z</time>
      </trkpt>
      <trkpt lat="47.165676" lon="0.227871">
        <ele>24.996</ele>
        <time>2021-09-09T16:57:10Z</time>
      </trkpt>
      <trkpt lat="47.163607" lon="0.234094">
        <ele>27.331</ele>
        <time>2021-09-09T17:02:29Z</time>
      </trkpt>
      <trkpt lat="47.164014" lon="0.238179">
        <ele>32.924</ele>
        <time>2021-09-09T17:04:41Z</time>
      </trkpt>
      <trkpt lat="47.163885" lon="0.238268">
        <ele>33.208</ele>
        <time>2021-09-09T17:05:06Z</time>
      </trkpt>
      <trkpt lat="47.166018" lon="0.238140">
        <ele>32.217</ele>
        <time>2021-09-09T17:06:08Z</time>
      </trkpt>
      <trkpt lat="47.165862" lon="0.239310">
        <ele>28.392</ele>
        <time>2021-09-09T17:06:52Z</time>
      </trkpt>
      <trkpt lat="47.165679" lon="0.239532">
        <ele>35.353</ele>
        <time>2021-09-09T17:08:14Z</time>
      </trkpt>
      <trkpt lat="47.165724" lon="0.239936">
        <ele>33.730</ele>
        <time>2021-09-09T17:08:35Z</time>
      </trkpt>
      <trkpt lat="47.166076" lon="0.239761">
        <ele>33.919</ele>
        <time>2021-09-09T17:09:02Z</time>
      </trkpt>
      <trkpt lat="47.166340" lon="0.239971">
        <ele>32.852</ele>
        <time>2021-09-09T17:09:20Z</time>
      </trkpt>
      <trkpt lat="47.166881" lon="0.240056">
        <ele>38.085</ele>
        <time>2021-09-09T17:09:45Z</time>
      </trkpt>
      <trkpt lat="47.167005" lon="0.240224">
        <ele>34.146</ele>
        <time>2021-09-09T17:09:52Z</time>
      </trkpt>
      <trkpt lat="47.167451" lon="0.242714">
        <ele>39.245</ele>
        <time>2021-09-09T17:14:09Z</time>
      </trkpt>
      <trkpt lat="47.167288" lon="0.242772">
        <ele>34.647</ele>
        <time>2021-09-09T17:15:07Z</time>
      </trkpt>
      <trkpt lat="47.167334" lon="0.242561">
        <ele>37.011</ele>
        <time>2021-09-09T17:15:58Z</time>
      </trkpt>
      <trkpt lat="47.167408" lon="0.242678">
        <ele>44.308</ele>
        <time>2021-09-09T17:16:56Z</time>
      </trkpt>
      <trkpt lat="47.167879" lon="0.242172">
        <ele>46.072</ele>
        <time>2021-09-09T17:18:33Z</time>
      </trkpt>
      <trkpt lat="47.167992" lon="0.240687">
        <ele>54.667</ele>
        <time>2021-09-09T17:20:37Z</time>
      </trkpt>
      <trkpt lat="47.167931" lon="0.241904">
        <ele>46.578</ele>
        <time>2021-09-09T17:22:16Z</time>
      </trkpt>
      <trkpt lat="47.167435" lon="0.242725">
        <ele>42.355</ele>
        <time>2021-09-09T17:22:43Z</time>
      </trkpt>
      <trkpt lat="47.167530" lon="0.243452">
        <ele>37.044</ele>
        <time>2021-09-09T17:23:10Z</time>
      </trkpt>
      <trkpt lat="47.167373" lon="0.243540">
        <ele>36.337</ele>
        <time>2021-09-09T17:24:00Z</time>
      </trkpt>
      <trkpt lat="47.167291" lon="0.243425">
        <ele>40.090</ele>
        <time>2021-09-09T17:25:30Z</time>
      </trkpt>
      <trkpt lat="47.167577" lon="0.243588">
        <ele>42.931</ele>
        <time>2021-09-09T17:27:50Z</time>
      </trkpt>
      <trkpt lat="47.167715" lon="0.244294">
        <ele>33.415</ele>
        <time>2021-09-09T17:28:17Z</time>
      </trkpt>
      <trkpt lat="47.167645" lon="0.245281">
        <ele>34.965</ele>
        <time>2021-09-09T17:28:50Z</time>
      </trkpt>
      <trkpt lat="47.167875" lon="0.245299">
        <ele>40.411</ele>
        <time>2021-09-09T17:29:35Z</time>
      </trkpt>
      <trkpt lat="47.167847" lon="0.245115">
        <ele>45.408</ele>
        <time>2021-09-09T17:29:56Z</time>
      </trkpt>
      <trkpt lat="47.167638" lon="0.245011">
        <ele>40.519</ele>
        <time>2021-09-09T17:30:38Z</time>
      </trkpt>
      <trkpt lat="47.167662" lon="0.243982">
        <ele>40.014</ele>
        <time>2021-09-09T17:31:10Z</time>
      </trkpt>
      <trkpt lat="47.167069" lon="0.241044">
        <ele>31.035</ele>
        <time>2021-09-09T17:32:50Z</time>
      </trkpt>
      <trkpt lat="47.166083" lon="0.241251">
        <ele>34.842</ele>
        <time>2021-09-09T17:34:08Z</time>
      </trkpt>
      <trkpt lat="47.165879" lon="0.241164">
        <ele>35.271</ele>
        <time>2021-09-09T17:34:36Z</time>
      </trkpt>
      <trkpt lat="47.165634" lon="0.242244">
        <ele>35.464</ele>
        <time>2021-09-09T17:35:44Z</time>
      </trkpt>
      <trkpt lat="47.165692" lon="0.243599">
        <ele>25.387</ele>
        <time>2021-09-09T17:36:28Z</time>
      </trkpt>
      <trkpt lat="47.165810" lon="0.243565">
        <ele>25.698</ele>
        <time>2021-09-09T17:36:37Z</time>
      </trkpt>
      <trkpt lat="47.165851" lon="0.243173">
        <ele>29.294</ele>
        <time>2021-09-09T17:36:45Z</time>
      </trkpt>
      <trkpt lat="47.165669" lon="0.242203">
        <ele>30.457</ele>
        <time>2021-09-09T17:37:06Z</time>
      </trkpt>
      <trkpt lat="47.165977" lon="0.241205">
        <ele>32.122</ele>
        <time>2021-09-09T17:37:38Z</time>
      </trkpt>
      <trkpt lat="47.166158" lon="0.239809">
        <ele>29.508</ele>
        <time>2021-09-09T17:38:41Z</time>
      </trkpt>
      <trkpt lat="47.166697" lon="0.239566">
        <ele>25.827</ele>
        <time>2021-09-09T17:39:25Z</time>
      </trkpt>
      <trkpt lat="47.166529" lon="0.239955">
        <ele>29.932</ele>
        <time>2021-09-09T17:41:21Z</time>
      </trkpt>
      <trkpt lat="47.166665" lon="0.239505">
        <ele>40.963</ele>
        <time>2021-09-09T17:54:04Z</time>
      </trkpt>
      <trkpt lat="47.166637" lon="0.239903">
        <ele>29.320</ele>
        <time>2021-09-09T17:59:39Z</time>
      </trkpt>
      <trkpt lat="47.166290" lon="0.239627">
        <ele>28.769</ele>
        <time>2021-09-09T18:02:09Z</time>
      </trkpt>
      <trkpt lat="47.166411" lon="0.238737">
        <ele>35.092</ele>
        <time>2021-09-09T18:02:40Z</time>
      </trkpt>
      <trkpt lat="47.166003" lon="0.238439">
        <ele>28.735</ele>
        <time>2021-09-09T18:03:09Z</time>
      </trkpt>
      <trkpt lat="47.165962" lon="0.238124">
        <ele>33.266</ele>
        <time>2021-09-09T18:03:36Z</time>
      </trkpt>
      <trkpt lat="47.163971" lon="0.238238">
        <ele>34.235</ele>
        <time>2021-09-09T18:04:44Z</time>
      </trkpt>
      <trkpt lat="47.163770" lon="0.235314">
        <ele>34.286</ele>
        <time>2021-09-09T18:05:38Z</time>
      </trkpt>
      <trkpt lat="47.164302" lon="0.234889">
        <ele>19.414</ele>
        <time>2021-09-09T18:09:58Z</time>
      </trkpt>
      <trkpt lat="47.164394" lon="0.235092">
        <ele>19.708</ele>
        <time>2021-09-09T18:10:19Z</time>
      </trkpt>
      <trkpt lat="47.164702" lon="0.235072">
        <ele>27.371</ele>
        <time>2021-09-09T18:10:39Z</time>
      </trkpt>
      <trkpt lat="47.164706" lon="0.235609">
        <ele>27.736</ele>
        <time>2021-09-09T18:11:04Z</time>
      </trkpt>
      <trkpt lat="47.164959" lon="0.235615">
        <ele>30.197</ele>
        <time>2021-09-09T18:11:37Z</time>
      </trkpt>
      <trkpt lat="47.164990" lon="0.235752">
        <ele>27.974</ele>
        <time>2021-09-09T18:13:35Z</time>
      </trkpt>
      <trkpt lat="47.164769" lon="0.235651">
        <ele>28.463</ele>
        <time>2021-09-09T18:14:03Z</time>
      </trkpt>
      <trkpt lat="47.164618" lon="0.234318">
        <ele>31.226</ele>
        <time>2021-09-09T18:15:27Z</time>
      </trkpt>
      <trkpt lat="47.164182" lon="0.233999">
        <ele>32.679</ele>
        <time>2021-09-09T18:16:17Z</time>
      </trkpt>
      <trkpt lat="47.164135" lon="0.234668">
        <ele>30.080</ele>
        <time>2021-09-09T18:17:11Z</time>
      </trkpt>
      <trkpt lat="47.164006" lon="0.234780">
        <ele>30.043</ele>
        <time>2021-09-09T18:17:33Z</time>
      </trkpt>
      <trkpt lat="47.164091" lon="0.234728">
        <ele>30.964</ele>
        <time>2021-09-09T18:18:09Z</time>
      </trkpt>
      <trkpt lat="47.164703" lon="0.235547">
        <ele>28.310</ele>
        <time>2021-09-09T18:22:26Z</time>
      </trkpt>
      <trkpt lat="47.165005" lon="0.235690">
        <ele>25.808</ele>
        <time>2021-09-09T18:37:53Z</time>
      </trkpt>
      <trkpt lat="47.164669" lon="0.235586">
        <ele>31.572</ele>
        <time>2021-09-09T18:39:10Z</time>
      </trkpt>
      <trkpt lat="47.164125" lon="0.234561">
        <ele>28.177</ele>
        <time>2021-09-09T18:40:05Z</time>
      </trkpt>
      <trkpt lat="47.163894" lon="0.234534">
        <ele>29.448</ele>
        <time>2021-09-09T18:40:36Z</time>
      </trkpt>
      <trkpt lat="47.163916" lon="0.234243">
        <ele>23.895</ele>
        <time>2021-09-09T18:46:04Z</time>
      </trkpt>
      <trkpt lat="47.163945" lon="0.235266">
        <ele>34.689</ele>
        <time>2021-09-10T10:26:20Z</time>
      </trkpt>
      <trkpt lat="47.163789" lon="0.235310">
        <ele>68.606</ele>
        <time>2021-09-10T10:26:29Z</time>
      </trkpt>
      <trkpt lat="47.163965" lon="0.236741">
        <ele>79.026</ele>
        <time>2021-09-10T10:27:09Z</time>
      </trkpt>
      <trkpt lat="47.163951" lon="0.238293">
        <ele>79.308</ele>
        <time>2021-09-10T10:27:46Z</time>
      </trkpt>
      <trkpt lat="47.165975" lon="0.238107">
        <ele>78.696</ele>
        <time>2021-09-10T10:29:20Z</time>
      </trkpt>
      <trkpt lat="47.165720" lon="0.240001">
        <ele>83.331</ele>
        <time>2021-09-10T10:30:54Z</time>
      </trkpt>
      <trkpt lat="47.165844" lon="0.239804">
        <ele>82.112</ele>
        <time>2021-09-10T10:31:04Z</time>
      </trkpt>
      <trkpt lat="47.166041" lon="0.239802">
        <ele>81.586</ele>
        <time>2021-09-10T10:31:12Z</time>
      </trkpt>
      <trkpt lat="47.166859" lon="0.240097">
        <ele>78.547</ele>
        <time>2021-09-10T10:34:10Z</time>
      </trkpt>
      <trkpt lat="47.166996" lon="0.240321">
        <ele>76.286</ele>
        <time>2021-09-10T10:34:46Z</time>
      </trkpt>
      <trkpt lat="47.167793" lon="0.240284">
        <ele>78.395</ele>
        <time>2021-09-10T10:35:24Z</time>
      </trkpt>
      <trkpt lat="47.167783" lon="0.240378">
        <ele>88.167</ele>
        <time>2021-09-10T10:38:20Z</time>
      </trkpt>
      <trkpt lat="47.168039" lon="0.240124">
        <ele>94.525</ele>
        <time>2021-09-10T10:39:42Z</time>
      </trkpt>
      <trkpt lat="47.167976" lon="0.239455">
        <ele>106.326</ele>
        <time>2021-09-10T10:41:45Z</time>
      </trkpt>
      <trkpt lat="47.168146" lon="0.240052">
        <ele>106.208</ele>
        <time>2021-09-10T10:42:33Z</time>
      </trkpt>
      <trkpt lat="47.168820" lon="0.239758">
        <ele>107.108</ele>
        <time>2021-09-10T10:43:24Z</time>
      </trkpt>
      <trkpt lat="47.169100" lon="0.239026">
        <ele>115.410</ele>
        <time>2021-09-10T10:44:08Z</time>
      </trkpt>
      <trkpt lat="47.168643" lon="0.238054">
        <ele>118.985</ele>
        <time>2021-09-10T10:44:41Z</time>
      </trkpt>
      <trkpt lat="47.168244" lon="0.238015">
        <ele>116.956</ele>
        <time>2021-09-10T10:45:08Z</time>
      </trkpt>
      <trkpt lat="47.168655" lon="0.238042">
        <ele>119.760</ele>
        <time>2021-09-10T10:56:21Z</time>
      </trkpt>
      <trkpt lat="47.169464" lon="0.240052">
        <ele>121.781</ele>
        <time>2021-09-10T11:02:01Z</time>
      </trkpt>
      <trkpt lat="47.169300" lon="0.239994">
        <ele>121.030</ele>
        <time>2021-09-10T11:05:14Z</time>
      </trkpt>
      <trkpt lat="47.169530" lon="0.240171">
        <ele>124.129</ele>
        <time>2021-09-10T11:05:49Z</time>
      </trkpt>
      <trkpt lat="47.170265" lon="0.242046">
        <ele>129.921</ele>
        <time>2021-09-10T11:07:03Z</time>
      </trkpt>
      <trkpt lat="47.170438" lon="0.242649">
        <ele>134.718</ele>
        <time>2021-09-10T11:07:27Z</time>
      </trkpt>
      <trkpt lat="47.170343" lon="0.243150">
        <ele>136.298</ele>
        <time>2021-09-10T11:07:41Z</time>
      </trkpt>
      <trkpt lat="47.170941" lon="0.243604">
        <ele>134.717</ele>
        <time>2021-09-10T11:08:11Z</time>
      </trkpt>
      <trkpt lat="47.171392" lon="0.244627">
        <ele>136.408</ele>
        <time>2021-09-10T11:08:38Z</time>
      </trkpt>
      <trkpt lat="47.173068" lon="0.249343">
        <ele>125.439</ele>
        <time>2021-09-10T11:10:46Z</time>
      </trkpt>
      <trkpt lat="47.177439" lon="0.260687">
        <ele>116.224</ele>
        <time>2021-09-10T11:13:55Z</time>
      </trkpt>
      <trkpt lat="47.177876" lon="0.261739">
        <ele>115.625</ele>
        <time>2021-09-10T11:14:11Z</time>
      </trkpt>
      <trkpt lat="47.178430" lon="0.262095">
        <ele>118.699</ele>
        <time>2021-09-10T11:14:44Z</time>
      </trkpt>
      <trkpt lat="47.178500" lon="0.262771">
        <ele>116.460</ele>
        <time>2021-09-10T11:15:19Z</time>
      </trkpt>
      <trkpt lat="47.178748" lon="0.262867">
        <ele>116.329</ele>
        <time>2021-09-10T11:15:36Z</time>
      </trkpt>
      <trkpt lat="47.178415" lon="0.263252">
        <ele>117.788</ele>
        <time>2021-09-10T11:17:29Z</time>
      </trkpt>
      <trkpt lat="47.178664" lon="0.263249">
        <ele>118.130</ele>
        <time>2021-09-10T11:20:21Z</time>
      </trkpt>
      <trkpt lat="47.178801" lon="0.262916">
        <ele>115.017</ele>
        <time>2021-09-10T11:20:38Z</time>
      </trkpt>
      <trkpt lat="47.179590" lon="0.263654">
        <ele>120.487</ele>
        <time>2021-09-10T11:21:12Z</time>
      </trkpt>
      <trkpt lat="47.180473" lon="0.264117">
        <ele>113.615</ele>
        <time>2021-09-10T11:21:30Z</time>
      </trkpt>
      <trkpt lat="47.180628" lon="0.264503">
        <ele>108.308</ele>
        <time>2021-09-10T11:21:42Z</time>
      </trkpt>
      <trkpt lat="47.183098" lon="0.266884">
        <ele>109.399</ele>
        <time>2021-09-10T11:36:07Z</time>
      </trkpt>
      <trkpt lat="47.183238" lon="0.267309">
        <ele>109.544</ele>
        <time>2021-09-10T11:36:20Z</time>
      </trkpt>
      <trkpt lat="47.183597" lon="0.267433">
        <ele>111.085</ele>
        <time>2021-09-10T11:36:32Z</time>
      </trkpt>
      <trkpt lat="47.183902" lon="0.267814">
        <ele>111.059</ele>
        <time>2021-09-10T11:36:45Z</time>
      </trkpt>
      <trkpt lat="47.183862" lon="0.267656">
        <ele>110.440</ele>
        <time>2021-09-10T11:37:02Z</time>
      </trkpt>
      <trkpt lat="47.186342" lon="0.272416">
        <ele>114.449</ele>
        <time>2021-09-10T11:39:13Z</time>
      </trkpt>
      <trkpt lat="47.188100" lon="0.269901">
        <ele>122.598</ele>
        <time>2021-09-10T11:40:46Z</time>
      </trkpt>
      <trkpt lat="47.189475" lon="0.268715">
        <ele>118.780</ele>
        <time>2021-09-10T11:41:23Z</time>
      </trkpt>
      <trkpt lat="47.190548" lon="0.267468">
        <ele>112.423</ele>
        <time>2021-09-10T11:41:46Z</time>
      </trkpt>
      <trkpt lat="47.191589" lon="0.267314">
        <ele>111.983</ele>
        <time>2021-09-10T11:42:03Z</time>
      </trkpt>
      <trkpt lat="47.192617" lon="0.266871">
        <ele>106.011</ele>
        <time>2021-09-10T11:42:18Z</time>
      </trkpt>
      <trkpt lat="47.194083" lon="0.266526">
        <ele>103.408</ele>
        <time>2021-09-10T11:42:37Z</time>
      </trkpt>
      <trkpt lat="47.195541" lon="0.265078">
        <ele>95.990</ele>
        <time>2021-09-10T11:43:01Z</time>
      </trkpt>
      <trkpt lat="47.197645" lon="0.265611">
        <ele>95.415</ele>
        <time>2021-09-10T11:44:36Z</time>
      </trkpt>
      <trkpt lat="47.201040" lon="0.265363">
        <ele>96.816</ele>
        <time>2021-09-10T11:46:09Z</time>
      </trkpt>
      <trkpt lat="47.201235" lon="0.264693">
        <ele>95.180</ele>
        <time>2021-09-10T11:49:23Z</time>
      </trkpt>
      <trkpt lat="47.201434" lon="0.264586">
        <ele>93.861</ele>
        <time>2021-09-10T11:49:29Z</time>
      </trkpt>
      <trkpt lat="47.203086" lon="0.264741">
        <ele>96.370</ele>
        <time>2021-09-10T11:50:13Z</time>
      </trkpt>
      <trkpt lat="47.205780" lon="0.264674">
        <ele>90.029</ele>
        <time>2021-09-10T11:51:11Z</time>
      </trkpt>
      <trkpt lat="47.206380" lon="0.263921">
        <ele>87.211</ele>
        <time>2021-09-10T11:51:26Z</time>
      </trkpt>
      <trkpt lat="47.207460" lon="0.263016">
        <ele>84.596</ele>
        <time>2021-09-10T11:51:49Z</time>
      </trkpt>
      <trkpt lat="47.208359" lon="0.262572">
        <ele>79.931</ele>
        <time>2021-09-10T11:52:06Z</time>
      </trkpt>
      <trkpt lat="47.208626" lon="0.262788">
        <ele>80.224</ele>
        <time>2021-09-10T11:52:15Z</time>
      </trkpt>
      <trkpt lat="47.209223" lon="0.262393">
        <ele>80.808</ele>
        <time>2021-09-10T11:52:30Z</time>
      </trkpt>
      <trkpt lat="47.209656" lon="0.262514">
        <ele>82.247</ele>
        <time>2021-09-10T11:52:43Z</time>
      </trkpt>
      <trkpt lat="47.210010" lon="0.261994">
        <ele>80.022</ele>
        <time>2021-09-10T11:53:15Z</time>
      </trkpt>
      <trkpt lat="47.210778" lon="0.261479">
        <ele>84.073</ele>
        <time>2021-09-10T11:53:37Z</time>
      </trkpt>
      <trkpt lat="47.211419" lon="0.261703">
        <ele>84.627</ele>
        <time>2021-09-10T11:53:56Z</time>
      </trkpt>
      <trkpt lat="47.211486" lon="0.262079">
        <ele>85.228</ele>
        <time>2021-09-10T11:54:08Z</time>
      </trkpt>
      <trkpt lat="47.211013" lon="0.262525">
        <ele>86.337</ele>
        <time>2021-09-10T11:54:38Z</time>
      </trkpt>
      <trkpt lat="47.210767" lon="0.262495">
        <ele>86.636</ele>
        <time>2021-09-10T11:55:38Z</time>
      </trkpt>
      <trkpt lat="47.211519" lon="0.262137">
        <ele>83.478</ele>
        <time>2021-09-10T11:56:10Z</time>
      </trkpt>
      <trkpt lat="47.213291" lon="0.262916">
        <ele>88.887</ele>
        <time>2021-09-10T11:57:02Z</time>
      </trkpt>
      <trkpt lat="47.214779" lon="0.263213">
        <ele>84.142</ele>
        <time>2021-09-10T11:57:39Z</time>
      </trkpt>
      <trkpt lat="47.217906" lon="0.263135">
        <ele>92.626</ele>
        <time>2021-09-10T11:59:01Z</time>
      </trkpt>
      <trkpt lat="47.218988" lon="0.263401">
        <ele>95.308</ele>
        <time>2021-09-10T11:59:35Z</time>
      </trkpt>
      <trkpt lat="47.220135" lon="0.263493">
        <ele>98.476</ele>
        <time>2021-09-10T12:00:09Z</time>
      </trkpt>
      <trkpt lat="47.222435" lon="0.263292">
        <ele>101.781</ele>
        <time>2021-09-10T12:01:21Z</time>
      </trkpt>
      <trkpt lat="47.223227" lon="0.263047">
        <ele>102.822</ele>
        <time>2021-09-10T12:01:47Z</time>
      </trkpt>
      <trkpt lat="47.225509" lon="0.261560">
        <ele>111.256</ele>
        <time>2021-09-10T12:03:15Z</time>
      </trkpt>
      <trkpt lat="47.227196" lon="0.259727">
        <ele>110.517</ele>
        <time>2021-09-10T12:04:12Z</time>
      </trkpt>
      <trkpt lat="47.228331" lon="0.259037">
        <ele>111.756</ele>
        <time>2021-09-10T12:04:59Z</time>
      </trkpt>
      <trkpt lat="47.229168" lon="0.258229">
        <ele>123.025</ele>
        <time>2021-09-10T12:05:46Z</time>
      </trkpt>
      <trkpt lat="47.230209" lon="0.257733">
        <ele>130.937</ele>
        <time>2021-09-10T12:06:43Z</time>
      </trkpt>
      <trkpt lat="47.230501" lon="0.255633">
        <ele>128.957</ele>
        <time>2021-09-10T12:07:33Z</time>
      </trkpt>
      <trkpt lat="47.230769" lon="0.254867">
        <ele>127.700</ele>
        <time>2021-09-10T12:07:44Z</time>
      </trkpt>
      <trkpt lat="47.232634" lon="0.252188">
        <ele>117.720</ele>
        <time>2021-09-10T12:08:40Z</time>
      </trkpt>
      <trkpt lat="47.232556" lon="0.251424">
        <ele>115.308</ele>
        <time>2021-09-10T12:09:13Z</time>
      </trkpt>
      <trkpt lat="47.232527" lon="0.252079">
        <ele>119.183</ele>
        <time>2021-09-10T12:09:53Z</time>
      </trkpt>
      <trkpt lat="47.232745" lon="0.251952">
        <ele>118.598</ele>
        <time>2021-09-10T12:10:40Z</time>
      </trkpt>
      <trkpt lat="47.233181" lon="0.251263">
        <ele>118.539</ele>
        <time>2021-09-10T12:11:17Z</time>
      </trkpt>
      <trkpt lat="47.233652" lon="0.250124">
        <ele>111.253</ele>
        <time>2021-09-10T12:13:13Z</time>
      </trkpt>
      <trkpt lat="47.235073" lon="0.248212">
        <ele>106.374</ele>
        <time>2021-09-10T12:14:17Z</time>
      </trkpt>
      <trkpt lat="47.235397" lon="0.248001">
        <ele>106.023</ele>
        <time>2021-09-10T12:14:24Z</time>
      </trkpt>
      <trkpt lat="47.237510" lon="0.248959">
        <ele>92.792</ele>
        <time>2021-09-10T12:14:59Z</time>
      </trkpt>
      <trkpt lat="47.236838" lon="0.248760">
        <ele>95.564</ele>
        <time>2021-09-10T12:15:28Z</time>
      </trkpt>
      <trkpt lat="47.237357" lon="0.248826">
        <ele>94.039</ele>
        <time>2021-09-10T12:16:16Z</time>
      </trkpt>
      <trkpt lat="47.238305" lon="0.248682">
        <ele>86.401</ele>
        <time>2021-09-10T12:16:34Z</time>
      </trkpt>
      <trkpt lat="47.240910" lon="0.247376">
        <ele>70.021</ele>
        <time>2021-09-10T12:18:04Z</time>
      </trkpt>
      <trkpt lat="47.242020" lon="0.246963">
        <ele>71.308</ele>
        <time>2021-09-10T12:18:27Z</time>
      </trkpt>
      <trkpt lat="47.244912" lon="0.247812">
        <ele>67.731</ele>
        <time>2021-09-10T12:19:22Z</time>
      </trkpt>
      <trkpt lat="47.247601" lon="0.246493">
        <ele>69.186</ele>
        <time>2021-09-10T12:20:25Z</time>
      </trkpt>
      <trkpt lat="47.248625" lon="0.245727">
        <ele>73.257</ele>
        <time>2021-09-10T12:20:53Z</time>
      </trkpt>
      <trkpt lat="47.248841" lon="0.245916">
        <ele>73.331</ele>
        <time>2021-09-10T12:21:02Z</time>
      </trkpt>
      <trkpt lat="47.250099" lon="0.248557">
        <ele>74.112</ele>
        <time>2021-09-10T12:21:54Z</time>
      </trkpt>
      <trkpt lat="47.252434" lon="0.252521">
        <ele>78.431</ele>
        <time>2021-09-10T12:23:11Z</time>
      </trkpt>
      <trkpt lat="47.254322" lon="0.256343">
        <ele>75.420</ele>
        <time>2021-09-10T12:24:18Z</time>
      </trkpt>
      <trkpt lat="47.255519" lon="0.259827">
        <ele>73.952</ele>
        <time>2021-09-10T12:25:14Z</time>
      </trkpt>
      <trkpt lat="47.256721" lon="0.264543">
        <ele>74.555</ele>
        <time>2021-09-10T12:26:27Z</time>
      </trkpt>
      <trkpt lat="47.258000" lon="0.266885">
        <ele>74.907</ele>
        <time>2021-09-10T12:27:23Z</time>
      </trkpt>
      <trkpt lat="47.259321" lon="0.270956">
        <ele>74.517</ele>
        <time>2021-09-10T12:28:30Z</time>
      </trkpt>
      <trkpt lat="47.260303" lon="0.278079">
        <ele>74.408</ele>
        <time>2021-09-10T12:30:20Z</time>
      </trkpt>
      <trkpt lat="47.260337" lon="0.282655">
        <ele>77.753</ele>
        <time>2021-09-10T12:31:25Z</time>
      </trkpt>
      <trkpt lat="47.261276" lon="0.288149">
        <ele>76.028</ele>
        <time>2021-09-10T12:33:35Z</time>
      </trkpt>
      <trkpt lat="47.263142" lon="0.295198">
        <ele>77.579</ele>
        <time>2021-09-10T12:35:16Z</time>
      </trkpt>
      <trkpt lat="47.263239" lon="0.297366">
        <ele>76.423</ele>
        <time>2021-09-10T12:35:44Z</time>
      </trkpt>
      <trkpt lat="47.264056" lon="0.299376">
        <ele>75.254</ele>
        <time>2021-09-10T12:36:16Z</time>
      </trkpt>
      <trkpt lat="47.264161" lon="0.301178">
        <ele>77.833</ele>
        <time>2021-09-10T12:36:41Z</time>
      </trkpt>
      <trkpt lat="47.264458" lon="0.302702">
        <ele>75.662</ele>
        <time>2021-09-10T12:37:02Z</time>
      </trkpt>
      <trkpt lat="47.264781" lon="0.303659">
        <ele>77.634</ele>
        <time>2021-09-10T12:37:16Z</time>
      </trkpt>
      <trkpt lat="47.265371" lon="0.304746">
        <ele>76.743</ele>
        <time>2021-09-10T12:37:34Z</time>
      </trkpt>
      <trkpt lat="47.266147" lon="0.307161">
        <ele>77.364</ele>
        <time>2021-09-10T12:38:09Z</time>
      </trkpt>
      <trkpt lat="47.266529" lon="0.308021">
        <ele>76.110</ele>
        <time>2021-09-10T12:38:22Z</time>
      </trkpt>
      <trkpt lat="47.267860" lon="0.309929">
        <ele>76.308</ele>
        <time>2021-09-10T12:39:49Z</time>
      </trkpt>
      <trkpt lat="47.268564" lon="0.311596">
        <ele>75.822</ele>
        <time>2021-09-10T12:40:20Z</time>
      </trkpt>
      <trkpt lat="47.268889" lon="0.312851">
        <ele>75.727</ele>
        <time>2021-09-10T12:40:40Z</time>
      </trkpt>
      <trkpt lat="47.269641" lon="0.314150">
        <ele>73.198</ele>
        <time>2021-09-10T12:41:03Z</time>
      </trkpt>
      <trkpt lat="47.270077" lon="0.315248">
        <ele>74.952</ele>
        <time>2021-09-10T12:41:20Z</time>
      </trkpt>
      <trkpt lat="47.270923" lon="0.316438">
        <ele>74.573</ele>
        <time>2021-09-10T12:41:43Z</time>
      </trkpt>
      <trkpt lat="47.271552" lon="0.316904">
        <ele>74.592</ele>
        <time>2021-09-10T12:41:57Z</time>
      </trkpt>
      <trkpt lat="47.272086" lon="0.317660">
        <ele>77.561</ele>
        <time>2021-09-10T12:42:11Z</time>
      </trkpt>
      <trkpt lat="47.272573" lon="0.318785">
        <ele>70.353</ele>
        <time>2021-09-10T12:42:28Z</time>
      </trkpt>
      <trkpt lat="47.273053" lon="0.320608">
        <ele>76.225</ele>
        <time>2021-09-10T12:43:11Z</time>
      </trkpt>
      <trkpt lat="47.274116" lon="0.320878">
        <ele>75.426</ele>
        <time>2021-09-10T12:43:42Z</time>
      </trkpt>
      <trkpt lat="47.274591" lon="0.321204">
        <ele>74.608</ele>
        <time>2021-09-10T12:43:54Z</time>
      </trkpt>
      <trkpt lat="47.276636" lon="0.323407">
        <ele>76.708</ele>
        <time>2021-09-10T12:44:45Z</time>
      </trkpt>
      <trkpt lat="47.277340" lon="0.324451">
        <ele>78.030</ele>
        <time>2021-09-10T12:45:05Z</time>
      </trkpt>
      <trkpt lat="47.278144" lon="0.324935">
        <ele>81.365</ele>
        <time>2021-09-10T12:45:26Z</time>
      </trkpt>
      <trkpt lat="47.278678" lon="0.325475">
        <ele>77.716</ele>
        <time>2021-09-10T12:45:40Z</time>
      </trkpt>
      <trkpt lat="47.279517" lon="0.326769">
        <ele>75.380</ele>
        <time>2021-09-10T12:46:04Z</time>
      </trkpt>
      <trkpt lat="47.279789" lon="0.328225">
        <ele>76.621</ele>
        <time>2021-09-10T12:46:24Z</time>
      </trkpt>
      <trkpt lat="47.280669" lon="0.329975">
        <ele>77.110</ele>
        <time>2021-09-10T12:46:52Z</time>
      </trkpt>
      <trkpt lat="47.281303" lon="0.330744">
        <ele>75.789</ele>
        <time>2021-09-10T12:47:08Z</time>
      </trkpt>
      <trkpt lat="47.282150" lon="0.331457">
        <ele>77.131</ele>
        <time>2021-09-10T12:47:28Z</time>
      </trkpt>
      <trkpt lat="47.283601" lon="0.333462">
        <ele>77.259</ele>
        <time>2021-09-10T12:48:09Z</time>
      </trkpt>
      <trkpt lat="47.284314" lon="0.335139">
        <ele>75.403</ele>
        <time>2021-09-10T12:48:34Z</time>
      </trkpt>
      <trkpt lat="47.285818" lon="0.336846">
        <ele>76.223</ele>
        <time>2021-09-10T12:49:15Z</time>
      </trkpt>
      <trkpt lat="47.287800" lon="0.340562">
        <ele>77.508</ele>
        <time>2021-09-10T12:50:17Z</time>
      </trkpt>
      <trkpt lat="47.290498" lon="0.344490">
        <ele>79.753</ele>
        <time>2021-09-10T12:51:36Z</time>
      </trkpt>
      <trkpt lat="47.291051" lon="0.345899">
        <ele>78.348</ele>
        <time>2021-09-10T12:51:56Z</time>
      </trkpt>
      <trkpt lat="47.291675" lon="0.346961">
        <ele>77.129</ele>
        <time>2021-09-10T12:52:17Z</time>
      </trkpt>
      <trkpt lat="47.293786" lon="0.349869">
        <ele>77.863</ele>
        <time>2021-09-10T12:53:21Z</time>
      </trkpt>
      <trkpt lat="47.295108" lon="0.352383">
        <ele>78.944</ele>
        <time>2021-09-10T12:54:14Z</time>
      </trkpt>
      <trkpt lat="47.295468" lon="0.353561">
        <ele>78.283</ele>
        <time>2021-09-10T12:54:48Z</time>
      </trkpt>
      <trkpt lat="47.295437" lon="0.353996">
        <ele>79.792</ele>
        <time>2021-09-10T12:56:19Z</time>
      </trkpt>
      <trkpt lat="47.295702" lon="0.354268">
        <ele>79.474</ele>
        <time>2021-09-10T13:01:06Z</time>
      </trkpt>
      <trkpt lat="47.295772" lon="0.354145">
        <ele>69.717</ele>
        <time>2021-09-10T13:46:54Z</time>
      </trkpt>
      <trkpt lat="47.296104" lon="0.355322">
        <ele>72.787</ele>
        <time>2021-09-10T14:01:31Z</time>
      </trkpt>
      <trkpt lat="47.296190" lon="0.356448">
        <ele>73.015</ele>
        <time>2021-09-10T14:01:59Z</time>
      </trkpt>
      <trkpt lat="47.297166" lon="0.359842">
        <ele>69.508</ele>
        <time>2021-09-10T14:03:28Z</time>
      </trkpt>
      <trkpt lat="47.294438" lon="0.361010">
        <ele>69.489</ele>
        <time>2021-09-10T14:05:39Z</time>
      </trkpt>
      <trkpt lat="47.293306" lon="0.361209">
        <ele>68.474</ele>
        <time>2021-09-10T14:06:06Z</time>
      </trkpt>
      <trkpt lat="47.291912" lon="0.362329">
        <ele>62.375</ele>
        <time>2021-09-10T14:06:42Z</time>
      </trkpt>
      <trkpt lat="47.291387" lon="0.363249">
        <ele>63.019</ele>
        <time>2021-09-10T14:07:03Z</time>
      </trkpt>
      <trkpt lat="47.290914" lon="0.363659">
        <ele>65.010</ele>
        <time>2021-09-10T14:07:16Z</time>
      </trkpt>
      <trkpt lat="47.291533" lon="0.363381">
        <ele>63.589</ele>
        <time>2021-09-10T14:07:37Z</time>
      </trkpt>
      <trkpt lat="47.291803" lon="0.363092">
        <ele>65.148</ele>
        <time>2021-09-10T14:07:56Z</time>
      </trkpt>
      <trkpt lat="47.291818" lon="0.363377">
        <ele>53.770</ele>
        <time>2021-09-10T14:08:45Z</time>
      </trkpt>
      <trkpt lat="47.291789" lon="0.363211">
        <ele>54.716</ele>
        <time>2021-09-10T14:16:42Z</time>
      </trkpt>
      <trkpt lat="47.291387" lon="0.363324">
        <ele>66.576</ele>
        <time>2021-09-10T14:17:10Z</time>
      </trkpt>
      <trkpt lat="47.285271" lon="0.366760">
        <ele>67.413</ele>
        <time>2021-09-10T14:20:09Z</time>
      </trkpt>
      <trkpt lat="47.284689" lon="0.367629">
        <ele>67.808</ele>
        <time>2021-09-10T14:20:28Z</time>
      </trkpt>
      <trkpt lat="47.284339" lon="0.370058">
        <ele>72.459</ele>
        <time>2021-09-10T14:20:59Z</time>
      </trkpt>
      <trkpt lat="47.283568" lon="0.370998">
        <ele>69.864</ele>
        <time>2021-09-10T14:21:19Z</time>
      </trkpt>
      <trkpt lat="47.281568" lon="0.374103">
        <ele>75.225</ele>
        <time>2021-09-10T14:22:17Z</time>
      </trkpt>
      <trkpt lat="47.281433" lon="0.386715">
        <ele>72.559</ele>
        <time>2021-09-10T14:25:11Z</time>
      </trkpt>
      <trkpt lat="47.281553" lon="0.387575">
        <ele>72.670</ele>
        <time>2021-09-10T14:25:23Z</time>
      </trkpt>
      <trkpt lat="47.282203" lon="0.388665">
        <ele>77.189</ele>
        <time>2021-09-10T14:25:44Z</time>
      </trkpt>
      <trkpt lat="47.282371" lon="0.389327">
        <ele>77.678</ele>
        <time>2021-09-10T14:25:52Z</time>
      </trkpt>
      <trkpt lat="47.281979" lon="0.392133">
        <ele>77.140</ele>
        <time>2021-09-10T14:26:33Z</time>
      </trkpt>
      <trkpt lat="47.281818" lon="0.392333">
        <ele>78.181</ele>
        <time>2021-09-10T14:26:39Z</time>
      </trkpt>
      <trkpt lat="47.281516" lon="0.392216">
        <ele>76.261</ele>
        <time>2021-09-10T14:26:47Z</time>
      </trkpt>
      <trkpt lat="47.281278" lon="0.392287">
        <ele>75.717</ele>
        <time>2021-09-10T14:26:53Z</time>
      </trkpt>
      <trkpt lat="47.280253" lon="0.393318">
        <ele>75.508</ele>
        <time>2021-09-10T14:27:24Z</time>
      </trkpt>
      <trkpt lat="47.279856" lon="0.394198">
        <ele>74.696</ele>
        <time>2021-09-10T14:27:40Z</time>
      </trkpt>
      <trkpt lat="47.279616" lon="0.395449">
        <ele>78.371</ele>
        <time>2021-09-10T14:28:01Z</time>
      </trkpt>
      <trkpt lat="47.279178" lon="0.396195">
        <ele>80.012</ele>
        <time>2021-09-10T14:28:15Z</time>
      </trkpt>
      <trkpt lat="47.278944" lon="0.397204">
        <ele>77.946</ele>
        <time>2021-09-10T14:28:30Z</time>
      </trkpt>
      <trkpt lat="47.277301" lon="0.399822">
        <ele>80.987</ele>
        <time>2021-09-10T14:29:19Z</time>
      </trkpt>
      <trkpt lat="47.276489" lon="0.401985">
        <ele>75.716</ele>
        <time>2021-09-10T14:29:55Z</time>
      </trkpt>
      <trkpt lat="47.276261" lon="0.402943">
        <ele>78.085</ele>
        <time>2021-09-10T14:30:08Z</time>
      </trkpt>
      <trkpt lat="47.276001" lon="0.406048">
        <ele>83.557</ele>
        <time>2021-09-10T14:30:49Z</time>
      </trkpt>
      <trkpt lat="47.274060" lon="0.412382">
        <ele>79.365</ele>
        <time>2021-09-10T14:32:19Z</time>
      </trkpt>
      <trkpt lat="47.273750" lon="0.414283">
        <ele>80.368</ele>
        <time>2021-09-10T14:34:05Z</time>
      </trkpt>
      <trkpt lat="47.272575" lon="0.418250">
        <ele>76.214</ele>
        <time>2021-09-10T14:35:08Z</time>
      </trkpt>
      <trkpt lat="47.271532" lon="0.422882">
        <ele>77.908</ele>
        <time>2021-09-10T14:36:12Z</time>
      </trkpt>
      <trkpt lat="47.271160" lon="0.423985">
        <ele>75.734</ele>
        <time>2021-09-10T14:36:29Z</time>
      </trkpt>
      <trkpt lat="47.270925" lon="0.426813">
        <ele>74.039</ele>
        <time>2021-09-10T14:37:21Z</time>
      </trkpt>
      <trkpt lat="47.268412" lon="0.435256">
        <ele>81.280</ele>
        <time>2021-09-10T14:39:45Z</time>
      </trkpt>
      <trkpt lat="47.268333" lon="0.435166">
        <ele>74.494</ele>
        <time>2021-09-10T14:40:43Z</time>
      </trkpt>
      <trkpt lat="47.268434" lon="0.435428">
        <ele>82.435</ele>
        <time>2021-09-10T14:46:34Z</time>
      </trkpt>
      <trkpt lat="47.268171" lon="0.435881">
        <ele>79.254</ele>
        <time>2021-09-10T14:47:08Z</time>
      </trkpt>
      <trkpt lat="47.267319" lon="0.438563">
        <ele>79.253</ele>
        <time>2021-09-10T14:49:24Z</time>
      </trkpt>
      <trkpt lat="47.266977" lon="0.440118">
        <ele>80.635</ele>
        <time>2021-09-10T14:49:49Z</time>
      </trkpt>
      <trkpt lat="47.265062" lon="0.444520">
        <ele>82.115</ele>
        <time>2021-09-10T14:51:05Z</time>
      </trkpt>
      <trkpt lat="47.265002" lon="0.447118">
        <ele>83.365</ele>
        <time>2021-09-10T14:51:48Z</time>
      </trkpt>
      <trkpt lat="47.264548" lon="0.448959">
        <ele>75.311</ele>
        <time>2021-09-10T14:52:23Z</time>
      </trkpt>
      <trkpt lat="47.263993" lon="0.452980">
        <ele>86.408</ele>
        <time>2021-09-10T14:53:26Z</time>
      </trkpt>
      <trkpt lat="47.263186" lon="0.456577">
        <ele>87.269</ele>
        <time>2021-09-10T14:54:22Z</time>
      </trkpt>
      <trkpt lat="47.262548" lon="0.460800">
        <ele>84.524</ele>
        <time>2021-09-10T14:55:35Z</time>
      </trkpt>
      <trkpt lat="47.261787" lon="0.463478">
        <ele>87.195</ele>
        <time>2021-09-10T14:56:26Z</time>
      </trkpt>
      <trkpt lat="47.262088" lon="0.465087">
        <ele>89.789</ele>
        <time>2021-09-10T14:58:08Z</time>
      </trkpt>
      <trkpt lat="47.260992" lon="0.467862">
        <ele>85.970</ele>
        <time>2021-09-10T15:00:48Z</time>
      </trkpt>
      <trkpt lat="47.259862" lon="0.466675">
        <ele>85.089</ele>
        <time>2021-09-10T15:04:06Z</time>
      </trkpt>
      <trkpt lat="47.259973" lon="0.466887">
        <ele>83.288</ele>
        <time>2021-09-10T15:06:06Z</time>
      </trkpt>
      <trkpt lat="47.260481" lon="0.466936">
        <ele>81.190</ele>
        <time>2021-09-10T15:07:07Z</time>
      </trkpt>
      <trkpt lat="47.261360" lon="0.466696">
        <ele>88.386</ele>
        <time>2021-09-10T15:07:51Z</time>
      </trkpt>
      <trkpt lat="47.261420" lon="0.465555">
        <ele>88.160</ele>
        <time>2021-09-10T15:08:20Z</time>
      </trkpt>
      <trkpt lat="47.261172" lon="0.465416">
        <ele>85.026</ele>
        <time>2021-09-10T15:08:46Z</time>
      </trkpt>
      <trkpt lat="47.260863" lon="0.466061">
        <ele>74.408</ele>
        <time>2021-09-10T15:09:05Z</time>
      </trkpt>
      <trkpt lat="47.260537" lon="0.465855">
        <ele>80.776</ele>
        <time>2021-09-10T15:10:05Z</time>
      </trkpt>
      <trkpt lat="47.260800" lon="0.466016">
        <ele>87.361</ele>
        <time>2021-09-10T15:12:45Z</time>
      </trkpt>
      <trkpt lat="47.260707" lon="0.466702">
        <ele>83.562</ele>
        <time>2021-09-10T15:13:16Z</time>
      </trkpt>
      <trkpt lat="47.260801" lon="0.466866">
        <ele>81.856</ele>
        <time>2021-09-10T15:13:26Z</time>
      </trkpt>
      <trkpt lat="47.261283" lon="0.466660">
        <ele>85.167</ele>
        <time>2021-09-10T15:13:51Z</time>
      </trkpt>
      <trkpt lat="47.261508" lon="0.466753">
        <ele>85.016</ele>
        <time>2021-09-10T15:14:04Z</time>
      </trkpt>
      <trkpt lat="47.261846" lon="0.465878">
        <ele>84.975</ele>
        <time>2021-09-10T15:19:39Z</time>
      </trkpt>
      <trkpt lat="47.262050" lon="0.465841">
        <ele>83.667</ele>
        <time>2021-09-10T15:20:20Z</time>
      </trkpt>
      <trkpt lat="47.261878" lon="0.465887">
        <ele>94.224</ele>
        <time>2021-09-10T15:25:51Z</time>
      </trkpt>
      <trkpt lat="47.261855" lon="0.465725">
        <ele>83.804</ele>
        <time>2021-09-10T15:28:16Z</time>
      </trkpt>
      <trkpt lat="47.261907" lon="0.465886">
        <ele>87.514</ele>
        <time>2021-09-10T15:34:10Z</time>
      </trkpt>
      <trkpt lat="47.261853" lon="0.465778">
        <ele>80.008</ele>
        <time>2021-09-10T15:49:46Z</time>
      </trkpt>
      <trkpt lat="47.264920" lon="0.467599">
        <ele>96.510</ele>
        <time>2021-09-10T15:53:47Z</time>
      </trkpt>
      <trkpt lat="47.265706" lon="0.469227">
        <ele>114.375</ele>
        <time>2021-09-10T15:55:07Z</time>
      </trkpt>
      <trkpt lat="47.266744" lon="0.472243">
        <ele>129.566</ele>
        <time>2021-09-10T15:57:08Z</time>
      </trkpt>
      <trkpt lat="47.266755" lon="0.472688">
        <ele>129.620</ele>
        <time>2021-09-10T15:57:22Z</time>
      </trkpt>
      <trkpt lat="47.266980" lon="0.472433">
        <ele>130.431</ele>
        <time>2021-09-10T15:57:35Z</time>
      </trkpt>
      <trkpt lat="47.267282" lon="0.472441">
        <ele>131.150</ele>
        <time>2021-09-10T15:57:49Z</time>
      </trkpt>
      <trkpt lat="47.269722" lon="0.478506">
        <ele>130.999</ele>
        <time>2021-09-10T16:00:13Z</time>
      </trkpt>
      <trkpt lat="47.271283" lon="0.481991">
        <ele>128.791</ele>
        <time>2021-09-10T16:01:18Z</time>
      </trkpt>
      <trkpt lat="47.273698" lon="0.483850">
        <ele>129.492</ele>
        <time>2021-09-10T16:03:11Z</time>
      </trkpt>
      <trkpt lat="47.275466" lon="0.484873">
        <ele>125.273</ele>
        <time>2021-09-10T16:03:44Z</time>
      </trkpt>
      <trkpt lat="47.276431" lon="0.485891">
        <ele>127.020</ele>
        <time>2021-09-10T16:04:14Z</time>
      </trkpt>
      <trkpt lat="47.278715" lon="0.487119">
        <ele>124.208</ele>
        <time>2021-09-10T16:05:02Z</time>
      </trkpt>
      <trkpt lat="47.278919" lon="0.487010">
        <ele>127.117</ele>
        <time>2021-09-10T16:05:07Z</time>
      </trkpt>
      <trkpt lat="47.280038" lon="0.482916">
        <ele>129.422</ele>
        <time>2021-09-10T16:06:25Z</time>
      </trkpt>
      <trkpt lat="47.279877" lon="0.480675">
        <ele>134.133</ele>
        <time>2021-09-10T16:07:03Z</time>
      </trkpt>
      <trkpt lat="47.280061" lon="0.479406">
        <ele>132.837</ele>
        <time>2021-09-10T16:08:08Z</time>
      </trkpt>
      <trkpt lat="47.280610" lon="0.479686">
        <ele>130.598</ele>
        <time>2021-09-10T16:09:29Z</time>
      </trkpt>
      <trkpt lat="47.280514" lon="0.479551">
        <ele>129.117</ele>
        <time>2021-09-10T16:09:56Z</time>
      </trkpt>
      <trkpt lat="47.282592" lon="0.480178">
        <ele>128.196</ele>
        <time>2021-09-10T16:11:31Z</time>
      </trkpt>
      <trkpt lat="47.283785" lon="0.480221">
        <ele>133.018</ele>
        <time>2021-09-10T16:12:27Z</time>
      </trkpt>
      <trkpt lat="47.287501" lon="0.479641">
        <ele>124.869</ele>
        <time>2021-09-10T16:13:47Z</time>
      </trkpt>
      <trkpt lat="47.289519" lon="0.479727">
        <ele>115.404</ele>
        <time>2021-09-10T16:14:26Z</time>
      </trkpt>
      <trkpt lat="47.291176" lon="0.479565">
        <ele>122.724</ele>
        <time>2021-09-10T16:14:51Z</time>
      </trkpt>
      <trkpt lat="47.292517" lon="0.479254">
        <ele>118.608</ele>
        <time>2021-09-10T16:15:14Z</time>
      </trkpt>
      <trkpt lat="47.293761" lon="0.479544">
        <ele>120.424</ele>
        <time>2021-09-10T16:15:38Z</time>
      </trkpt>
      <trkpt lat="47.295044" lon="0.480187">
        <ele>118.439</ele>
        <time>2021-09-10T16:16:16Z</time>
      </trkpt>
      <trkpt lat="47.296458" lon="0.480457">
        <ele>118.170</ele>
        <time>2021-09-10T16:16:46Z</time>
      </trkpt>
      <trkpt lat="47.297637" lon="0.480915">
        <ele>107.114</ele>
        <time>2021-09-10T16:17:09Z</time>
      </trkpt>
      <trkpt lat="47.298420" lon="0.480870">
        <ele>114.925</ele>
        <time>2021-09-10T16:17:27Z</time>
      </trkpt>
      <trkpt lat="47.300455" lon="0.481135">
        <ele>121.454</ele>
        <time>2021-09-10T16:18:09Z</time>
      </trkpt>
      <trkpt lat="47.302769" lon="0.480254">
        <ele>113.763</ele>
        <time>2021-09-10T16:18:49Z</time>
      </trkpt>
      <trkpt lat="47.304272" lon="0.478546">
        <ele>116.895</ele>
        <time>2021-09-10T16:19:49Z</time>
      </trkpt>
      <trkpt lat="47.304784" lon="0.477723">
        <ele>114.982</ele>
        <time>2021-09-10T16:20:05Z</time>
      </trkpt>
      <trkpt lat="47.307989" lon="0.474436">
        <ele>121.743</ele>
        <time>2021-09-10T16:21:35Z</time>
      </trkpt>
      <trkpt lat="47.308877" lon="0.473920">
        <ele>119.917</ele>
        <time>2021-09-10T16:21:56Z</time>
      </trkpt>
      <trkpt lat="47.309776" lon="0.474209">
        <ele>119.108</ele>
        <time>2021-09-10T16:22:13Z</time>
      </trkpt>
      <trkpt lat="47.310656" lon="0.474050">
        <ele>118.766</ele>
        <time>2021-09-10T16:22:33Z</time>
      </trkpt>
      <trkpt lat="47.310383" lon="0.476286">
        <ele>113.911</ele>
        <time>2021-09-10T16:23:27Z</time>
      </trkpt>
      <trkpt lat="47.310628" lon="0.478220">
        <ele>113.662</ele>
        <time>2021-09-10T16:24:31Z</time>
      </trkpt>
      <trkpt lat="47.311505" lon="0.480744">
        <ele>108.956</ele>
        <time>2021-09-10T16:25:27Z</time>
      </trkpt>
      <trkpt lat="47.312041" lon="0.481734">
        <ele>110.097</ele>
        <time>2021-09-10T16:25:42Z</time>
      </trkpt>
      <trkpt lat="47.312361" lon="0.483027">
        <ele>109.646</ele>
        <time>2021-09-10T16:26:01Z</time>
      </trkpt>
      <trkpt lat="47.312228" lon="0.483626">
        <ele>108.635</ele>
        <time>2021-09-10T16:26:09Z</time>
      </trkpt>
      <trkpt lat="47.311231" lon="0.484661">
        <ele>107.687</ele>
        <time>2021-09-10T16:26:26Z</time>
      </trkpt>
      <trkpt lat="47.311247" lon="0.486129">
        <ele>102.815</ele>
        <time>2021-09-10T16:26:37Z</time>
      </trkpt>
      <trkpt lat="47.311735" lon="0.487559">
        <ele>97.665</ele>
        <time>2021-09-10T16:26:56Z</time>
      </trkpt>
      <trkpt lat="47.311703" lon="0.488570">
        <ele>103.411</ele>
        <time>2021-09-10T16:27:42Z</time>
      </trkpt>
      <trkpt lat="47.312173" lon="0.489455">
        <ele>114.108</ele>
        <time>2021-09-10T16:28:26Z</time>
      </trkpt>
      <trkpt lat="47.312240" lon="0.490016">
        <ele>114.979</ele>
        <time>2021-09-10T16:28:47Z</time>
      </trkpt>
      <trkpt lat="47.312708" lon="0.490946">
        <ele>117.074</ele>
        <time>2021-09-10T16:29:15Z</time>
      </trkpt>
      <trkpt lat="47.313680" lon="0.493670">
        <ele>115.095</ele>
        <time>2021-09-10T16:30:10Z</time>
      </trkpt>
      <trkpt lat="47.313975" lon="0.496446">
        <ele>115.239</ele>
        <time>2021-09-10T16:30:51Z</time>
      </trkpt>
      <trkpt lat="47.314957" lon="0.499063">
        <ele>115.250</ele>
        <time>2021-09-10T16:32:18Z</time>
      </trkpt>
      <trkpt lat="47.315363" lon="0.503020">
        <ele>121.079</ele>
        <time>2021-09-10T16:33:31Z</time>
      </trkpt>
      <trkpt lat="47.315969" lon="0.506115">
        <ele>118.598</ele>
        <time>2021-09-10T16:34:25Z</time>
      </trkpt>
      <trkpt lat="47.316035" lon="0.509014">
        <ele>123.910</ele>
        <time>2021-09-10T16:35:32Z</time>
      </trkpt>
      <trkpt lat="47.316624" lon="0.510405">
        <ele>122.688</ele>
        <time>2021-09-10T16:35:56Z</time>
      </trkpt>
      <trkpt lat="47.316873" lon="0.510501">
        <ele>121.824</ele>
        <time>2021-09-10T16:36:02Z</time>
      </trkpt>
      <trkpt lat="47.319016" lon="0.509512">
        <ele>119.626</ele>
        <time>2021-09-10T16:36:53Z</time>
      </trkpt>
      <trkpt lat="47.320834" lon="0.509757">
        <ele>120.808</ele>
        <time>2021-09-10T16:37:39Z</time>
      </trkpt>
      <trkpt lat="47.324751" lon="0.509028">
        <ele>129.326</ele>
        <time>2021-09-10T16:39:14Z</time>
      </trkpt>
      <trkpt lat="47.326851" lon="0.508183">
        <ele>128.581</ele>
        <time>2021-09-10T16:39:58Z</time>
      </trkpt>
      <trkpt lat="47.328117" lon="0.509215">
        <ele>121.212</ele>
        <time>2021-09-10T16:40:25Z</time>
      </trkpt>
      <trkpt lat="47.329443" lon="0.510607">
        <ele>125.336</ele>
        <time>2021-09-10T16:41:01Z</time>
      </trkpt>
      <trkpt lat="47.331609" lon="0.512048">
        <ele>125.217</ele>
        <time>2021-09-10T16:41:47Z</time>
      </trkpt>
      <trkpt lat="47.332687" lon="0.513413">
        <ele>126.276</ele>
        <time>2021-09-10T16:42:19Z</time>
      </trkpt>
      <trkpt lat="47.333384" lon="0.512612">
        <ele>123.375</ele>
        <time>2021-09-10T16:42:37Z</time>
      </trkpt>
      <trkpt lat="47.333850" lon="0.512341">
        <ele>122.567</ele>
        <time>2021-09-10T16:42:45Z</time>
      </trkpt>
      <trkpt lat="47.334251" lon="0.512299">
        <ele>122.175</ele>
        <time>2021-09-10T16:42:51Z</time>
      </trkpt>
      <trkpt lat="47.335815" lon="0.512664">
        <ele>113.128</ele>
        <time>2021-09-10T16:43:14Z</time>
      </trkpt>
      <trkpt lat="47.337580" lon="0.512682">
        <ele>100.620</ele>
        <time>2021-09-10T16:43:35Z</time>
      </trkpt>
      <trkpt lat="47.337994" lon="0.512571">
        <ele>97.308</ele>
        <time>2021-09-10T16:43:41Z</time>
      </trkpt>
      <trkpt lat="47.338879" lon="0.511883">
        <ele>90.785</ele>
        <time>2021-09-10T16:43:57Z</time>
      </trkpt>
      <trkpt lat="47.339558" lon="0.511685">
        <ele>84.280</ele>
        <time>2021-09-10T16:45:42Z</time>
      </trkpt>
      <trkpt lat="47.339716" lon="0.511353">
        <ele>88.641</ele>
        <time>2021-09-10T16:46:27Z</time>
      </trkpt>
      <trkpt lat="47.339735" lon="0.510630">
        <ele>86.525</ele>
        <time>2021-09-10T16:46:40Z</time>
      </trkpt>
      <trkpt lat="47.339192" lon="0.509250">
        <ele>74.636</ele>
        <time>2021-09-10T16:47:21Z</time>
      </trkpt>
      <trkpt lat="47.338837" lon="0.507814">
        <ele>67.345</ele>
        <time>2021-09-10T16:47:47Z</time>
      </trkpt>
      <trkpt lat="47.339057" lon="0.507639">
        <ele>67.184</ele>
        <time>2021-09-10T16:47:55Z</time>
      </trkpt>
      <trkpt lat="47.339339" lon="0.507738">
        <ele>68.396</ele>
        <time>2021-09-10T16:48:05Z</time>
      </trkpt>
      <trkpt lat="47.340455" lon="0.509503">
        <ele>73.785</ele>
        <time>2021-09-10T16:48:47Z</time>
      </trkpt>
      <trkpt lat="47.340956" lon="0.512502">
        <ele>72.689</ele>
        <time>2021-09-10T16:50:34Z</time>
      </trkpt>
      <trkpt lat="47.341723" lon="0.515087">
        <ele>77.317</ele>
        <time>2021-09-10T16:51:42Z</time>
      </trkpt>
      <trkpt lat="47.341673" lon="0.514618">
        <ele>76.208</ele>
        <time>2021-09-10T16:52:54Z</time>
      </trkpt>
      <trkpt lat="47.341362" lon="0.514199">
        <ele>76.066</ele>
        <time>2021-09-10T16:58:32Z</time>
      </trkpt>
      <trkpt lat="47.341439" lon="0.514298">
        <ele>74.481</ele>
        <time>2021-09-10T17:00:01Z</time>
      </trkpt>
      <trkpt lat="47.341194" lon="0.513237">
        <ele>77.272</ele>
        <time>2021-09-10T17:02:37Z</time>
      </trkpt>
      <trkpt lat="47.343472" lon="0.520699">
        <ele>84.756</ele>
        <time>2021-09-10T17:05:20Z</time>
      </trkpt>
      <trkpt lat="47.343646" lon="0.520781">
        <ele>85.327</ele>
        <time>2021-09-10T17:05:25Z</time>
      </trkpt>
      <trkpt lat="47.343783" lon="0.520428">
        <ele>82.286</ele>
        <time>2021-09-10T17:05:36Z</time>
      </trkpt>
      <trkpt lat="47.344730" lon="0.522892">
        <ele>80.935</ele>
        <time>2021-09-10T17:06:20Z</time>
      </trkpt>
      <trkpt lat="47.345201" lon="0.523757">
        <ele>62.257</ele>
        <time>2021-09-10T17:06:33Z</time>
      </trkpt>
      <trkpt lat="47.345734" lon="0.524345">
        <ele>60.982</ele>
        <time>2021-09-10T17:06:45Z</time>
      </trkpt>
      <trkpt lat="47.345852" lon="0.524932">
        <ele>65.243</ele>
        <time>2021-09-10T17:06:56Z</time>
      </trkpt>
      <trkpt lat="47.346451" lon="0.525976">
        <ele>65.817</ele>
        <time>2021-09-10T17:07:15Z</time>
      </trkpt>
      <trkpt lat="47.347045" lon="0.528185">
        <ele>70.708</ele>
        <time>2021-09-10T17:07:49Z</time>
      </trkpt>
      <trkpt lat="47.347100" lon="0.528913">
        <ele>69.596</ele>
        <time>2021-09-10T17:07:59Z</time>
      </trkpt>
      <trkpt lat="47.346879" lon="0.529713">
        <ele>72.091</ele>
        <time>2021-09-10T17:08:11Z</time>
      </trkpt>
      <trkpt lat="47.347186" lon="0.532537">
        <ele>74.992</ele>
        <time>2021-09-10T17:08:53Z</time>
      </trkpt>
      <trkpt lat="47.347007" lon="0.533665">
        <ele>75.166</ele>
        <time>2021-09-10T17:09:09Z</time>
      </trkpt>
      <trkpt lat="47.346951" lon="0.536380">
        <ele>77.697</ele>
        <time>2021-09-10T17:09:47Z</time>
      </trkpt>
      <trkpt lat="47.347144" lon="0.537118">
        <ele>79.136</ele>
        <time>2021-09-10T17:10:38Z</time>
      </trkpt>
      <trkpt lat="47.347546" lon="0.541492">
        <ele>74.565</ele>
        <time>2021-09-10T17:11:41Z</time>
      </trkpt>
      <trkpt lat="47.347922" lon="0.543188">
        <ele>73.187</ele>
        <time>2021-09-10T17:12:17Z</time>
      </trkpt>
      <trkpt lat="47.347993" lon="0.545216">
        <ele>78.248</ele>
        <time>2021-09-10T17:13:37Z</time>
      </trkpt>
      <trkpt lat="47.348440" lon="0.546090">
        <ele>79.561</ele>
        <time>2021-09-10T17:14:06Z</time>
      </trkpt>
      <trkpt lat="47.348659" lon="0.547569">
        <ele>75.717</ele>
        <time>2021-09-10T17:14:42Z</time>
      </trkpt>
      <trkpt lat="47.349220" lon="0.548721">
        <ele>70.908</ele>
        <time>2021-09-10T17:15:53Z</time>
      </trkpt>
      <trkpt lat="47.351142" lon="0.549829">
        <ele>74.292</ele>
        <time>2021-09-10T17:16:49Z</time>
      </trkpt>
      <trkpt lat="47.352350" lon="0.549763">
        <ele>74.487</ele>
        <time>2021-09-10T17:17:15Z</time>
      </trkpt>
      <trkpt lat="47.353446" lon="0.549304">
        <ele>73.378</ele>
        <time>2021-09-10T17:17:40Z</time>
      </trkpt>
      <trkpt lat="47.354037" lon="0.548847">
        <ele>69.192</ele>
        <time>2021-09-10T17:17:54Z</time>
      </trkpt>
      <trkpt lat="47.356225" lon="0.546555">
        <ele>72.963</ele>
        <time>2021-09-10T17:18:50Z</time>
      </trkpt>
      <trkpt lat="47.356660" lon="0.546357">
        <ele>70.782</ele>
        <time>2021-09-10T17:18:59Z</time>
      </trkpt>
      <trkpt lat="47.357264" lon="0.546323">
        <ele>71.571</ele>
        <time>2021-09-10T17:19:11Z</time>
      </trkpt>
      <trkpt lat="47.358531" lon="0.546985">
        <ele>72.493</ele>
        <time>2021-09-10T17:19:38Z</time>
      </trkpt>
      <trkpt lat="47.359505" lon="0.548426">
        <ele>74.252</ele>
        <time>2021-09-10T17:20:08Z</time>
      </trkpt>
      <trkpt lat="47.360028" lon="0.551028">
        <ele>77.653</ele>
        <time>2021-09-10T17:20:46Z</time>
      </trkpt>
      <trkpt lat="47.360067" lon="0.552278">
        <ele>75.408</ele>
        <time>2021-09-10T17:21:05Z</time>
      </trkpt>
      <trkpt lat="47.359512" lon="0.552648">
        <ele>75.708</ele>
        <time>2021-09-10T17:21:22Z</time>
      </trkpt>
      <trkpt lat="47.359719" lon="0.553249">
        <ele>76.883</ele>
        <time>2021-09-10T17:26:43Z</time>
      </trkpt>
      <trkpt lat="47.359719" lon="0.554169">
        <ele>74.078</ele>
        <time>2021-09-10T17:26:58Z</time>
      </trkpt>
      <trkpt lat="47.360270" lon="0.555350">
        <ele>71.469</ele>
        <time>2021-09-10T17:27:18Z</time>
      </trkpt>
      <trkpt lat="47.360735" lon="0.557506">
        <ele>72.663</ele>
        <time>2021-09-10T17:27:50Z</time>
      </trkpt>
      <trkpt lat="47.361257" lon="0.558329">
        <ele>74.124</ele>
        <time>2021-09-10T17:28:06Z</time>
      </trkpt>
      <trkpt lat="47.362031" lon="0.560241">
        <ele>76.033</ele>
        <time>2021-09-10T17:28:42Z</time>
      </trkpt>
      <trkpt lat="47.363288" lon="0.562610">
        <ele>74.642</ele>
        <time>2021-09-10T17:29:27Z</time>
      </trkpt>
      <trkpt lat="47.363497" lon="0.563963">
        <ele>71.954</ele>
        <time>2021-09-10T17:29:45Z</time>
      </trkpt>
      <trkpt lat="47.363479" lon="0.564670">
        <ele>70.731</ele>
        <time>2021-09-10T17:29:55Z</time>
      </trkpt>
      <trkpt lat="47.363299" lon="0.565214">
        <ele>68.261</ele>
        <time>2021-09-10T17:30:05Z</time>
      </trkpt>
      <trkpt lat="47.360747" lon="0.570253">
        <ele>64.707</ele>
        <time>2021-09-10T17:31:31Z</time>
      </trkpt>
      <trkpt lat="47.360445" lon="0.572844">
        <ele>73.908</ele>
        <time>2021-09-10T17:32:07Z</time>
      </trkpt>
      <trkpt lat="47.360520" lon="0.574783">
        <ele>79.571</ele>
        <time>2021-09-10T17:32:33Z</time>
      </trkpt>
      <trkpt lat="47.361105" lon="0.578161">
        <ele>72.756</ele>
        <time>2021-09-10T17:33:21Z</time>
      </trkpt>
      <trkpt lat="47.363870" lon="0.585766">
        <ele>64.077</ele>
        <time>2021-09-10T17:35:18Z</time>
      </trkpt>
      <trkpt lat="47.364390" lon="0.588352">
        <ele>63.961</ele>
        <time>2021-09-10T17:35:51Z</time>
      </trkpt>
      <trkpt lat="47.364240" lon="0.591418">
        <ele>68.332</ele>
        <time>2021-09-10T17:36:33Z</time>
      </trkpt>
      <trkpt lat="47.363190" lon="0.596125">
        <ele>56.921</ele>
        <time>2021-09-10T17:37:37Z</time>
      </trkpt>
      <trkpt lat="47.362986" lon="0.597686">
        <ele>61.490</ele>
        <time>2021-09-10T17:37:56Z</time>
      </trkpt>
      <trkpt lat="47.362769" lon="0.602149">
        <ele>71.312</ele>
        <time>2021-09-10T17:38:52Z</time>
      </trkpt>
      <trkpt lat="47.362899" lon="0.603700">
        <ele>79.685</ele>
        <time>2021-09-10T17:39:16Z</time>
      </trkpt>
      <trkpt lat="47.362797" lon="0.604715">
        <ele>76.489</ele>
        <time>2021-09-10T17:39:28Z</time>
      </trkpt>
      <trkpt lat="47.363287" lon="0.605470">
        <ele>72.317</ele>
        <time>2021-09-10T17:39:43Z</time>
      </trkpt>
      <trkpt lat="47.363917" lon="0.607662">
        <ele>73.108</ele>
        <time>2021-09-10T17:40:14Z</time>
      </trkpt>
      <trkpt lat="47.364670" lon="0.609597">
        <ele>74.716</ele>
        <time>2021-09-10T17:40:45Z</time>
      </trkpt>
      <trkpt lat="47.365798" lon="0.611542">
        <ele>66.421</ele>
        <time>2021-09-10T17:41:19Z</time>
      </trkpt>
      <trkpt lat="47.367781" lon="0.613757">
        <ele>72.242</ele>
        <time>2021-09-10T17:42:08Z</time>
      </trkpt>
      <trkpt lat="47.368436" lon="0.614822">
        <ele>72.896</ele>
        <time>2021-09-10T17:42:27Z</time>
      </trkpt>
      <trkpt lat="47.368716" lon="0.615565">
        <ele>73.037</ele>
        <time>2021-09-10T17:42:38Z</time>
      </trkpt>
      <trkpt lat="47.370361" lon="0.624855">
        <ele>76.046</ele>
        <time>2021-09-10T17:46:21Z</time>
      </trkpt>
      <trkpt lat="47.370458" lon="0.628819">
        <ele>83.165</ele>
        <time>2021-09-10T17:47:26Z</time>
      </trkpt>
      <trkpt lat="47.370905" lon="0.632164">
        <ele>75.377</ele>
        <time>2021-09-10T17:48:08Z</time>
      </trkpt>
      <trkpt lat="47.371396" lon="0.637654">
        <ele>77.137</ele>
        <time>2021-09-10T17:49:27Z</time>
      </trkpt>
      <trkpt lat="47.372014" lon="0.639414">
        <ele>72.349</ele>
        <time>2021-09-10T17:49:55Z</time>
      </trkpt>
      <trkpt lat="47.372150" lon="0.640491">
        <ele>75.213</ele>
        <time>2021-09-10T17:50:10Z</time>
      </trkpt>
      <trkpt lat="47.372390" lon="0.646056">
        <ele>71.608</ele>
        <time>2021-09-10T17:51:27Z</time>
      </trkpt>
      <trkpt lat="47.372916" lon="0.647307">
        <ele>73.861</ele>
        <time>2021-09-10T17:51:46Z</time>
      </trkpt>
      <trkpt lat="47.374085" lon="0.649074">
        <ele>76.366</ele>
        <time>2021-09-10T17:52:20Z</time>
      </trkpt>
      <trkpt lat="47.374304" lon="0.649883">
        <ele>78.047</ele>
        <time>2021-09-10T17:52:32Z</time>
      </trkpt>
      <trkpt lat="47.373893" lon="0.653053">
        <ele>66.521</ele>
        <time>2021-09-10T17:53:13Z</time>
      </trkpt>
      <trkpt lat="47.370921" lon="0.654579">
        <ele>75.412</ele>
        <time>2021-09-10T17:54:22Z</time>
      </trkpt>
      <trkpt lat="47.370209" lon="0.656916">
        <ele>78.851</ele>
        <time>2021-09-10T17:54:57Z</time>
      </trkpt>
      <trkpt lat="47.368595" lon="0.658874">
        <ele>72.010</ele>
        <time>2021-09-10T17:55:38Z</time>
      </trkpt>
      <trkpt lat="47.368070" lon="0.660566">
        <ele>72.522</ele>
        <time>2021-09-10T17:56:07Z</time>
      </trkpt>
      <trkpt lat="47.367758" lon="0.661036">
        <ele>75.932</ele>
        <time>2021-09-10T17:56:32Z</time>
      </trkpt>
      <trkpt lat="47.365281" lon="0.659647">
        <ele>78.992</ele>
        <time>2021-09-10T17:57:45Z</time>
      </trkpt>
      <trkpt lat="47.364983" lon="0.659723">
        <ele>77.411</ele>
        <time>2021-09-10T17:57:53Z</time>
      </trkpt>
      <trkpt lat="47.363625" lon="0.665083">
        <ele>78.508</ele>
        <time>2021-09-10T17:59:23Z</time>
      </trkpt>
      <trkpt lat="47.363600" lon="0.665836">
        <ele>77.881</ele>
        <time>2021-09-10T17:59:33Z</time>
      </trkpt>
      <trkpt lat="47.363818" lon="0.666527">
        <ele>78.236</ele>
        <time>2021-09-10T17:59:43Z</time>
      </trkpt>
      <trkpt lat="47.363750" lon="0.668004">
        <ele>77.437</ele>
        <time>2021-09-10T18:00:05Z</time>
      </trkpt>
      <trkpt lat="47.363921" lon="0.669036">
        <ele>77.211</ele>
        <time>2021-09-10T18:00:20Z</time>
      </trkpt>
      <trkpt lat="47.363783" lon="0.670386">
        <ele>77.292</ele>
        <time>2021-09-10T18:00:39Z</time>
      </trkpt>
      <trkpt lat="47.364364" lon="0.672345">
        <ele>78.681</ele>
        <time>2021-09-10T18:01:12Z</time>
      </trkpt>
      <trkpt lat="47.364476" lon="0.673981">
        <ele>75.810</ele>
        <time>2021-09-10T18:01:37Z</time>
      </trkpt>
      <trkpt lat="47.364207" lon="0.675080">
        <ele>78.372</ele>
        <time>2021-09-10T18:02:13Z</time>
      </trkpt>
      <trkpt lat="47.362489" lon="0.677913">
        <ele>70.183</ele>
        <time>2021-09-10T18:05:13Z</time>
      </trkpt>
      <trkpt lat="47.362600" lon="0.678576">
        <ele>70.725</ele>
        <time>2021-09-10T18:05:24Z</time>
      </trkpt>
      <trkpt lat="47.362376" lon="0.679377">
        <ele>69.317</ele>
        <time>2021-09-10T18:05:37Z</time>
      </trkpt>
      <trkpt lat="47.362496" lon="0.681003">
        <ele>70.908</ele>
        <time>2021-09-10T18:06:07Z</time>
      </trkpt>
      <trkpt lat="47.362985" lon="0.682324">
        <ele>77.266</ele>
        <time>2021-09-10T18:06:33Z</time>
      </trkpt>
      <trkpt lat="47.363038" lon="0.683264">
        <ele>76.781</ele>
        <time>2021-09-10T18:06:47Z</time>
      </trkpt>
      <trkpt lat="47.363367" lon="0.684421">
        <ele>78.642</ele>
        <time>2021-09-10T18:07:10Z</time>
      </trkpt>
      <trkpt lat="47.363955" lon="0.684221">
        <ele>79.566</ele>
        <time>2021-09-10T18:07:35Z</time>
      </trkpt>
      <trkpt lat="47.364325" lon="0.684543">
        <ele>78.537</ele>
        <time>2021-09-10T18:07:55Z</time>
      </trkpt>
      <trkpt lat="47.363922" lon="0.686248">
        <ele>73.886</ele>
        <time>2021-09-10T18:08:29Z</time>
      </trkpt>
      <trkpt lat="47.363817" lon="0.687341">
        <ele>69.385</ele>
        <time>2021-09-10T18:08:44Z</time>
      </trkpt>
      <trkpt lat="47.363956" lon="0.687958">
        <ele>70.677</ele>
        <time>2021-09-10T18:09:03Z</time>
      </trkpt>
      <trkpt lat="47.364355" lon="0.687423">
        <ele>71.653</ele>
        <time>2021-09-10T18:09:46Z</time>
      </trkpt>
      <trkpt lat="47.364286" lon="0.687805">
        <ele>70.904</ele>
        <time>2021-09-10T18:10:11Z</time>
      </trkpt>
      <trkpt lat="47.364583" lon="0.688438">
        <ele>64.614</ele>
        <time>2021-09-10T18:10:29Z</time>
      </trkpt>
      <trkpt lat="47.364796" lon="0.688629">
        <ele>71.008</ele>
        <time>2021-09-10T18:10:37Z</time>
      </trkpt>
      <trkpt lat="47.365086" lon="0.688648">
        <ele>70.573</ele>
        <time>2021-09-10T18:10:44Z</time>
      </trkpt>
      <trkpt lat="47.365187" lon="0.688848">
        <ele>68.848</ele>
        <time>2021-09-10T18:10:48Z</time>
      </trkpt>
      <trkpt lat="47.365127" lon="0.690297">
        <ele>71.789</ele>
        <time>2021-09-10T18:11:18Z</time>
      </trkpt>
      <trkpt lat="47.365711" lon="0.692240">
        <ele>72.233</ele>
        <time>2021-09-10T18:11:48Z</time>
      </trkpt>
      <trkpt lat="47.365807" lon="0.693785">
        <ele>80.134</ele>
        <time>2021-09-10T18:12:17Z</time>
      </trkpt>
      <trkpt lat="47.366453" lon="0.696599">
        <ele>77.713</ele>
        <time>2021-09-10T18:13:07Z</time>
      </trkpt>
      <trkpt lat="47.366298" lon="0.697568">
        <ele>75.322</ele>
        <time>2021-09-10T18:16:37Z</time>
      </trkpt>
      <trkpt lat="47.366545" lon="0.697944">
        <ele>77.924</ele>
        <time>2021-09-10T18:24:54Z</time>
      </trkpt>
      <trkpt lat="47.366065" lon="0.697953">
        <ele>78.647</ele>
        <time>2021-09-10T18:25:30Z</time>
      </trkpt>
      <trkpt lat="47.366375" lon="0.698247">
        <ele>81.229</ele>
        <time>2021-09-10T18:25:49Z</time>
      </trkpt>
      <trkpt lat="47.366735" lon="0.698294">
        <ele>78.121</ele>
        <time>2021-09-10T18:26:01Z</time>
      </trkpt>
      <trkpt lat="47.368615" lon="0.697540">
        <ele>77.708</ele>
        <time>2021-09-10T18:27:20Z</time>
      </trkpt>
      <trkpt lat="47.368675" lon="0.697651">
        <ele>77.022</ele>
        <time>2021-09-10T18:27:35Z</time>
      </trkpt>
      <trkpt lat="47.368864" lon="0.699240">
        <ele>79.237</ele>
        <time>2021-09-10T18:29:05Z</time>
      </trkpt>
      <trkpt lat="47.368749" lon="0.699567">
        <ele>78.948</ele>
        <time>2021-09-10T18:29:11Z</time>
      </trkpt>
      <trkpt lat="47.368347" lon="0.699836">
        <ele>75.232</ele>
        <time>2021-09-10T18:29:23Z</time>
      </trkpt>
      <trkpt lat="47.368351" lon="0.700090">
        <ele>75.273</ele>
        <time>2021-09-10T18:29:29Z</time>
      </trkpt>
      <trkpt lat="47.368471" lon="0.700558">
        <ele>74.172</ele>
        <time>2021-09-10T18:29:39Z</time>
      </trkpt>
      <trkpt lat="47.369156" lon="0.701319">
        <ele>76.471</ele>
        <time>2021-09-10T18:30:03Z</time>
      </trkpt>
      <trkpt lat="47.369340" lon="0.701771">
        <ele>77.783</ele>
        <time>2021-09-10T18:30:12Z</time>
      </trkpt>
      <trkpt lat="47.369196" lon="0.702833">
        <ele>74.773</ele>
        <time>2021-09-10T18:30:35Z</time>
      </trkpt>
      <trkpt lat="47.369445" lon="0.703052">
        <ele>75.685</ele>
        <time>2021-09-10T18:30:46Z</time>
      </trkpt>
      <trkpt lat="47.369565" lon="0.705676">
        <ele>75.113</ele>
        <time>2021-09-10T18:31:42Z</time>
      </trkpt>
      <trkpt lat="47.369208" lon="0.705948">
        <ele>80.408</ele>
        <time>2021-09-10T18:32:15Z</time>
      </trkpt>
      <trkpt lat="47.369266" lon="0.706940">
        <ele>79.885</ele>
        <time>2021-09-10T18:32:38Z</time>
      </trkpt>
      <trkpt lat="47.368452" lon="0.707256">
        <ele>80.450</ele>
        <time>2021-09-10T18:33:09Z</time>
      </trkpt>
      <trkpt lat="47.368368" lon="0.706684">
        <ele>81.321</ele>
        <time>2021-09-10T18:33:30Z</time>
      </trkpt>
      <trkpt lat="47.368489" lon="0.707284">
        <ele>81.035</ele>
        <time>2021-09-10T18:34:02Z</time>
      </trkpt>
      <trkpt lat="47.368428" lon="0.706362">
        <ele>79.956</ele>
        <time>2021-09-10T18:34:58Z</time>
      </trkpt>
      <trkpt lat="47.368458" lon="0.706867">
        <ele>79.245</ele>
        <time>2021-09-10T18:35:14Z</time>
      </trkpt>
      <trkpt lat="47.368283" lon="0.707111">
        <ele>79.754</ele>
        <time>2021-09-10T18:35:43Z</time>
      </trkpt>
      <trkpt lat="47.368591" lon="0.707410">
        <ele>73.326</ele>
        <time>2021-09-10T18:36:09Z</time>
      </trkpt>
      <trkpt lat="47.368868" lon="0.707274">
        <ele>79.523</ele>
        <time>2021-09-10T18:36:24Z</time>
      </trkpt>
      <trkpt lat="47.368993" lon="0.707912">
        <ele>84.883</ele>
        <time>2021-09-10T18:36:51Z</time>
      </trkpt>
      <trkpt lat="47.372001" lon="0.720125">
        <ele>48.957</ele>
        <time>2021-09-11T10:22:53Z</time>
      </trkpt>
      <trkpt lat="47.372142" lon="0.716288">
        <ele>52.700</ele>
        <time>2021-09-11T10:24:58Z</time>
      </trkpt>
      <trkpt lat="47.372055" lon="0.714573">
        <ele>57.120</ele>
        <time>2021-09-11T10:25:27Z</time>
      </trkpt>
      <trkpt lat="47.371544" lon="0.712881">
        <ele>61.108</ele>
        <time>2021-09-11T10:26:07Z</time>
      </trkpt>
      <trkpt lat="47.370077" lon="0.709241">
        <ele>60.363</ele>
        <time>2021-09-11T10:27:18Z</time>
      </trkpt>
      <trkpt lat="47.369645" lon="0.707387">
        <ele>54.378</ele>
        <time>2021-09-11T10:27:50Z</time>
      </trkpt>
      <trkpt lat="47.369441" lon="0.703564">
        <ele>57.710</ele>
        <time>2021-09-11T10:28:55Z</time>
      </trkpt>
      <trkpt lat="47.369595" lon="0.701128">
        <ele>56.064</ele>
        <time>2021-09-11T10:29:45Z</time>
      </trkpt>
      <trkpt lat="47.369403" lon="0.698392">
        <ele>54.657</ele>
        <time>2021-09-11T10:30:56Z</time>
      </trkpt>
      <trkpt lat="47.369182" lon="0.697584">
        <ele>54.730</ele>
        <time>2021-09-11T10:31:20Z</time>
      </trkpt>
      <trkpt lat="47.372549" lon="0.696153">
        <ele>65.551</ele>
        <time>2021-09-11T10:33:22Z</time>
      </trkpt>
      <trkpt lat="47.373396" lon="0.695991">
        <ele>63.720</ele>
        <time>2021-09-11T10:33:55Z</time>
      </trkpt>
      <trkpt lat="47.373472" lon="0.695657">
        <ele>59.763</ele>
        <time>2021-09-11T10:34:21Z</time>
      </trkpt>
      <trkpt lat="47.373192" lon="0.695315">
        <ele>54.644</ele>
        <time>2021-09-11T10:34:34Z</time>
      </trkpt>
      <trkpt lat="47.373372" lon="0.695509">
        <ele>60.818</ele>
        <time>2021-09-11T10:40:26Z</time>
      </trkpt>
      <trkpt lat="47.373835" lon="0.695181">
        <ele>63.208</ele>
        <time>2021-09-11T10:41:09Z</time>
      </trkpt>
      <trkpt lat="47.374490" lon="0.695111">
        <ele>68.764</ele>
        <time>2021-09-11T10:41:35Z</time>
      </trkpt>
      <trkpt lat="47.375557" lon="0.694653">
        <ele>66.989</ele>
        <time>2021-09-11T10:42:11Z</time>
      </trkpt>
      <trkpt lat="47.375782" lon="0.694622">
        <ele>67.661</ele>
        <time>2021-09-11T10:42:21Z</time>
      </trkpt>
      <trkpt lat="47.375901" lon="0.694858">
        <ele>72.465</ele>
        <time>2021-09-11T10:42:34Z</time>
      </trkpt>
      <trkpt lat="47.379496" lon="0.693414">
        <ele>56.618</ele>
        <time>2021-09-11T10:44:41Z</time>
      </trkpt>
      <trkpt lat="47.379830" lon="0.693465">
        <ele>57.031</ele>
        <time>2021-09-11T10:45:06Z</time>
      </trkpt>
      <trkpt lat="47.380016" lon="0.693230">
        <ele>60.662</ele>
        <time>2021-09-11T10:45:14Z</time>
      </trkpt>
      <trkpt lat="47.380980" lon="0.692927">
        <ele>54.411</ele>
        <time>2021-09-11T10:45:42Z</time>
      </trkpt>
      <trkpt lat="47.381950" lon="0.692443">
        <ele>55.936</ele>
        <time>2021-09-11T10:46:06Z</time>
      </trkpt>
      <trkpt lat="47.382212" lon="0.692161">
        <ele>66.017</ele>
        <time>2021-09-11T10:46:17Z</time>
      </trkpt>
      <trkpt lat="47.385011" lon="0.690927">
        <ele>73.018</ele>
        <time>2021-09-11T10:47:46Z</time>
      </trkpt>
      <trkpt lat="47.386597" lon="0.690684">
        <ele>61.808</ele>
        <time>2021-09-11T10:48:38Z</time>
      </trkpt>
      <trkpt lat="47.387164" lon="0.690254">
        <ele>61.481</ele>
        <time>2021-09-11T10:49:05Z</time>
      </trkpt>
      <trkpt lat="47.389684" lon="0.689382">
        <ele>58.116</ele>
        <time>2021-09-11T10:51:39Z</time>
      </trkpt>
      <trkpt lat="47.389838" lon="0.689380">
        <ele>56.348</ele>
        <time>2021-09-11T10:52:39Z</time>
      </trkpt>
      <trkpt lat="47.389965" lon="0.689893">
        <ele>49.512</ele>
        <time>2021-09-11T10:52:57Z</time>
      </trkpt>
      <trkpt lat="47.390240" lon="0.689809">
        <ele>59.035</ele>
        <time>2021-09-11T10:54:20Z</time>
      </trkpt>
      <trkpt lat="47.390391" lon="0.690081">
        <ele>59.678</ele>
        <time>2021-09-11T10:54:36Z</time>
      </trkpt>
      <trkpt lat="47.390614" lon="0.691547">
        <ele>53.379</ele>
        <time>2021-09-11T10:55:20Z</time>
      </trkpt>
      <trkpt lat="47.390618" lon="0.692056">
        <ele>69.418</ele>
        <time>2021-09-11T10:56:49Z</time>
      </trkpt>
      <trkpt lat="47.390539" lon="0.691947">
        <ele>69.636</ele>
        <time>2021-09-11T10:56:58Z</time>
      </trkpt>
      <trkpt lat="47.389654" lon="0.692879">
        <ele>60.817</ele>
        <time>2021-09-11T10:57:49Z</time>
      </trkpt>
      <trkpt lat="47.389693" lon="0.692117">
        <ele>62.718</ele>
        <time>2021-09-11T10:59:25Z</time>
      </trkpt>
      <trkpt lat="47.389714" lon="0.692528">
        <ele>61.808</ele>
        <time>2021-09-11T11:06:32Z</time>
      </trkpt>
      <trkpt lat="47.389537" lon="0.692776">
        <ele>61.731</ele>
        <time>2021-09-11T11:06:52Z</time>
      </trkpt>
      <trkpt lat="47.389985" lon="0.693402">
        <ele>66.796</ele>
        <time>2021-09-11T11:09:25Z</time>
      </trkpt>
      <trkpt lat="47.390176" lon="0.693310">
        <ele>57.778</ele>
        <time>2021-09-11T11:13:03Z</time>
      </trkpt>
      <trkpt lat="47.390423" lon="0.693542">
        <ele>57.782</ele>
        <time>2021-09-11T11:19:03Z</time>
      </trkpt>
      <trkpt lat="47.390819" lon="0.693393">
        <ele>52.395</ele>
        <time>2021-09-11T11:22:10Z</time>
      </trkpt>
      <trkpt lat="47.391123" lon="0.693608">
        <ele>51.288</ele>
        <time>2021-09-11T11:22:28Z</time>
      </trkpt>
      <trkpt lat="47.392193" lon="0.693720">
        <ele>67.819</ele>
        <time>2021-09-11T11:23:14Z</time>
      </trkpt>
      <trkpt lat="47.394643" lon="0.692561">
        <ele>59.478</ele>
        <time>2021-09-11T11:25:09Z</time>
      </trkpt>
      <trkpt lat="47.394801" lon="0.692863">
        <ele>63.939</ele>
        <time>2021-09-11T11:25:26Z</time>
      </trkpt>
      <trkpt lat="47.395279" lon="0.692877">
        <ele>60.701</ele>
        <time>2021-09-11T11:26:33Z</time>
      </trkpt>
      <trkpt lat="47.395400" lon="0.693301">
        <ele>75.621</ele>
        <time>2021-09-11T11:45:26Z</time>
      </trkpt>
      <trkpt lat="47.395320" lon="0.693843">
        <ele>61.108</ele>
        <time>2021-09-11T11:48:30Z</time>
      </trkpt>
      <trkpt lat="47.395355" lon="0.693691">
        <ele>56.791</ele>
        <time>2021-09-11T11:54:10Z</time>
      </trkpt>
      <trkpt lat="47.395626" lon="0.693731">
        <ele>60.126</ele>
        <time>2021-09-11T11:55:04Z</time>
      </trkpt>
      <trkpt lat="47.395204" lon="0.693912">
        <ele>56.988</ele>
        <time>2021-09-11T11:55:26Z</time>
      </trkpt>
      <trkpt lat="47.394699" lon="0.693922">
        <ele>57.332</ele>
        <time>2021-09-11T11:56:26Z</time>
      </trkpt>
      <trkpt lat="47.394617" lon="0.693809">
        <ele>56.865</ele>
        <time>2021-09-11T11:56:31Z</time>
      </trkpt>
      <trkpt lat="47.394359" lon="0.692960">
        <ele>62.148</ele>
        <time>2021-09-11T11:56:48Z</time>
      </trkpt>
      <trkpt lat="47.394755" lon="0.692374">
        <ele>55.999</ele>
        <time>2021-09-11T11:57:10Z</time>
      </trkpt>
      <trkpt lat="47.394440" lon="0.690118">
        <ele>56.978</ele>
        <time>2021-09-11T11:58:08Z</time>
      </trkpt>
      <trkpt lat="47.394333" lon="0.690053">
        <ele>58.472</ele>
        <time>2021-09-11T11:58:44Z</time>
      </trkpt>
      <trkpt lat="47.393804" lon="0.690368">
        <ele>57.413</ele>
        <time>2021-09-11T11:59:07Z</time>
      </trkpt>
      <trkpt lat="47.393729" lon="0.690290">
        <ele>59.214</ele>
        <time>2021-09-11T11:59:22Z</time>
      </trkpt>
      <trkpt lat="47.393669" lon="0.689671">
        <ele>59.208</ele>
        <time>2021-09-11T11:59:37Z</time>
      </trkpt>
      <trkpt lat="47.393263" lon="0.688775">
        <ele>60.815</ele>
        <time>2021-09-11T11:59:55Z</time>
      </trkpt>
      <trkpt lat="47.392538" lon="0.685864">
        <ele>55.660</ele>
        <time>2021-09-11T12:01:11Z</time>
      </trkpt>
      <trkpt lat="47.392576" lon="0.685573">
        <ele>58.112</ele>
        <time>2021-09-11T12:01:25Z</time>
      </trkpt>
      <trkpt lat="47.393520" lon="0.685131">
        <ele>63.836</ele>
        <time>2021-09-11T12:02:17Z</time>
      </trkpt>
      <trkpt lat="47.393356" lon="0.683277">
        <ele>63.529</ele>
        <time>2021-09-11T12:02:59Z</time>
      </trkpt>
      <trkpt lat="47.393521" lon="0.682650">
        <ele>63.172</ele>
        <time>2021-09-11T12:03:27Z</time>
      </trkpt>
      <trkpt lat="47.393682" lon="0.682644">
        <ele>63.413</ele>
        <time>2021-09-11T12:03:39Z</time>
      </trkpt>
      <trkpt lat="47.393578" lon="0.682665">
        <ele>62.632</ele>
        <time>2021-09-11T12:05:20Z</time>
      </trkpt>
      <trkpt lat="47.393467" lon="0.682044">
        <ele>59.784</ele>
        <time>2021-09-11T12:05:58Z</time>
      </trkpt>
      <trkpt lat="47.393949" lon="0.681946">
        <ele>69.907</ele>
        <time>2021-09-11T12:06:24Z</time>
      </trkpt>
      <trkpt lat="47.394081" lon="0.682101">
        <ele>65.917</ele>
        <time>2021-09-11T12:08:29Z</time>
      </trkpt>
      <trkpt lat="47.394221" lon="0.681931">
        <ele>67.708</ele>
        <time>2021-09-11T12:12:36Z</time>
      </trkpt>
      <trkpt lat="47.394336" lon="0.682136">
        <ele>61.826</ele>
        <time>2021-09-11T12:14:02Z</time>
      </trkpt>
      <trkpt lat="47.394301" lon="0.680442">
        <ele>69.541</ele>
        <time>2021-09-11T12:19:54Z</time>
      </trkpt>
      <trkpt lat="47.394000" lon="0.680512">
        <ele>70.943</ele>
        <time>2021-09-11T12:20:42Z</time>
      </trkpt>
      <trkpt lat="47.394222" lon="0.680439">
        <ele>70.757</ele>
        <time>2021-09-11T12:21:00Z</time>
      </trkpt>
      <trkpt lat="47.394264" lon="0.681910">
        <ele>64.220</ele>
        <time>2021-09-11T12:23:33Z</time>
      </trkpt>
      <trkpt lat="47.395041" lon="0.682139">
        <ele>57.813</ele>
        <time>2021-09-11T12:24:29Z</time>
      </trkpt>
      <trkpt lat="47.395229" lon="0.682058">
        <ele>59.134</ele>
        <time>2021-09-11T12:24:42Z</time>
      </trkpt>
      <trkpt lat="47.395315" lon="0.681973">
        <ele>58.233</ele>
        <time>2021-09-11T12:24:46Z</time>
      </trkpt>
      <trkpt lat="47.395112" lon="0.681996">
        <ele>61.545</ele>
        <time>2021-09-11T12:25:03Z</time>
      </trkpt>
      <trkpt lat="47.395039" lon="0.681633">
        <ele>66.647</ele>
        <time>2021-09-11T12:25:25Z</time>
      </trkpt>
      <trkpt lat="47.394950" lon="0.681688">
        <ele>65.011</ele>
        <time>2021-09-11T12:25:34Z</time>
      </trkpt>
      <trkpt lat="47.394835" lon="0.680777">
        <ele>59.308</ele>
        <time>2021-09-11T12:28:45Z</time>
      </trkpt>
      <trkpt lat="47.394980" lon="0.681397">
        <ele>66.692</ele>
        <time>2021-09-11T12:30:23Z</time>
      </trkpt>
      <trkpt lat="47.394285" lon="0.681559">
        <ele>60.637</ele>
        <time>2021-09-11T12:34:06Z</time>
      </trkpt>
      <trkpt lat="47.394156" lon="0.681995">
        <ele>61.659</ele>
        <time>2021-09-11T12:34:31Z</time>
      </trkpt>
      <trkpt lat="47.393110" lon="0.682093">
        <ele>67.743</ele>
        <time>2021-09-11T12:36:13Z</time>
      </trkpt>
      <trkpt lat="47.392850" lon="0.681555">
        <ele>58.276</ele>
        <time>2021-09-11T12:37:24Z</time>
      </trkpt>
      <trkpt lat="47.393278" lon="0.682451">
        <ele>75.699</ele>
        <time>2021-09-11T12:46:04Z</time>
      </trkpt>
      <trkpt lat="47.393126" lon="0.682606">
        <ele>66.340</ele>
        <time>2021-09-11T12:53:37Z</time>
      </trkpt>
      <trkpt lat="47.393378" lon="0.683132">
        <ele>62.689</ele>
        <time>2021-09-11T12:54:05Z</time>
      </trkpt>
      <trkpt lat="47.393936" lon="0.687189">
        <ele>56.692</ele>
        <time>2021-09-11T12:55:56Z</time>
      </trkpt>
      <trkpt lat="47.394026" lon="0.687292">
        <ele>61.173</ele>
        <time>2021-09-11T12:56:02Z</time>
      </trkpt>
      <trkpt lat="47.394721" lon="0.686959">
        <ele>51.220</ele>
        <time>2021-09-11T12:56:29Z</time>
      </trkpt>
      <trkpt lat="47.394867" lon="0.687065">
        <ele>52.108</ele>
        <time>2021-09-11T12:56:40Z</time>
      </trkpt>
      <trkpt lat="47.395409" lon="0.686847">
        <ele>57.077</ele>
        <time>2021-09-11T12:57:03Z</time>
      </trkpt>
      <trkpt lat="47.395204" lon="0.686742">
        <ele>65.442</ele>
        <time>2021-09-11T12:57:46Z</time>
      </trkpt>
      <trkpt lat="47.395492" lon="0.686614">
        <ele>64.114</ele>
        <time>2021-09-11T12:58:11Z</time>
      </trkpt>
      <trkpt lat="47.395237" lon="0.686678">
        <ele>69.798</ele>
        <time>2021-09-11T12:59:38Z</time>
      </trkpt>
      <trkpt lat="47.396565" lon="0.686371">
        <ele>69.751</ele>
        <time>2021-09-11T13:05:16Z</time>
      </trkpt>
      <trkpt lat="47.396565" lon="0.686267">
        <ele>66.024</ele>
        <time>2021-09-11T13:09:23Z</time>
      </trkpt>
      <trkpt lat="47.396911" lon="0.686317">
        <ele>69.015</ele>
        <time>2021-09-11T13:09:44Z</time>
      </trkpt>
      <trkpt lat="47.397027" lon="0.687499">
        <ele>63.874</ele>
        <time>2021-09-11T13:10:05Z</time>
      </trkpt>
      <trkpt lat="47.397275" lon="0.688629">
        <ele>67.273</ele>
        <time>2021-09-11T13:10:26Z</time>
      </trkpt>
      <trkpt lat="47.397411" lon="0.688730">
        <ele>69.785</ele>
        <time>2021-09-11T13:10:34Z</time>
      </trkpt>
      <trkpt lat="47.397524" lon="0.689694">
        <ele>63.813</ele>
        <time>2021-09-11T13:12:13Z</time>
      </trkpt>
      <trkpt lat="47.397371" lon="0.689588">
        <ele>63.708</ele>
        <time>2021-09-11T13:12:28Z</time>
      </trkpt>
      <trkpt lat="47.397085" lon="0.689771">
        <ele>62.085</ele>
        <time>2021-09-11T13:12:44Z</time>
      </trkpt>
      <trkpt lat="47.395842" lon="0.690021">
        <ele>61.490</ele>
        <time>2021-09-11T13:14:14Z</time>
      </trkpt>
      <trkpt lat="47.396312" lon="0.693202">
        <ele>71.822</ele>
        <time>2021-09-11T14:04:23Z</time>
      </trkpt>
      <trkpt lat="47.396769" lon="0.693180">
        <ele>62.666</ele>
        <time>2021-09-11T14:04:54Z</time>
      </trkpt>
      <trkpt lat="47.397482" lon="0.692744">
        <ele>67.939</ele>
        <time>2021-09-11T14:05:19Z</time>
      </trkpt>
      <trkpt lat="47.397580" lon="0.692801">
        <ele>62.572</ele>
        <time>2021-09-11T14:05:25Z</time>
      </trkpt>
      <trkpt lat="47.397593" lon="0.701646">
        <ele>55.273</ele>
        <time>2021-09-11T14:09:28Z</time>
      </trkpt>
      <trkpt lat="47.397104" lon="0.705669">
        <ele>51.712</ele>
        <time>2021-09-11T14:10:34Z</time>
      </trkpt>
      <trkpt lat="47.397007" lon="0.709049">
        <ele>54.269</ele>
        <time>2021-09-11T14:11:39Z</time>
      </trkpt>
      <trkpt lat="47.396939" lon="0.723165">
        <ele>51.304</ele>
        <time>2021-09-11T14:14:41Z</time>
      </trkpt>
      <trkpt lat="47.397127" lon="0.725856">
        <ele>51.624</ele>
        <time>2021-09-11T14:15:16Z</time>
      </trkpt>
      <trkpt lat="47.397304" lon="0.726868">
        <ele>50.008</ele>
        <time>2021-09-11T14:15:31Z</time>
      </trkpt>
      <trkpt lat="47.398342" lon="0.730112">
        <ele>45.114</ele>
        <time>2021-09-11T14:16:21Z</time>
      </trkpt>
      <trkpt lat="47.399306" lon="0.732675">
        <ele>47.019</ele>
        <time>2021-09-11T14:16:58Z</time>
      </trkpt>
      <trkpt lat="47.399926" lon="0.733933">
        <ele>50.161</ele>
        <time>2021-09-11T14:17:17Z</time>
      </trkpt>
      <trkpt lat="47.400335" lon="0.736339">
        <ele>46.995</ele>
        <time>2021-09-11T14:17:49Z</time>
      </trkpt>
      <trkpt lat="47.400403" lon="0.739702">
        <ele>49.918</ele>
        <time>2021-09-11T14:18:31Z</time>
      </trkpt>
      <trkpt lat="47.400585" lon="0.741329">
        <ele>42.921</ele>
        <time>2021-09-11T14:19:10Z</time>
      </trkpt>
      <trkpt lat="47.401425" lon="0.745656">
        <ele>49.862</ele>
        <time>2021-09-11T14:20:14Z</time>
      </trkpt>
      <trkpt lat="47.402062" lon="0.747957">
        <ele>45.741</ele>
        <time>2021-09-11T14:21:06Z</time>
      </trkpt>
      <trkpt lat="47.402285" lon="0.749616">
        <ele>49.524</ele>
        <time>2021-09-11T14:21:32Z</time>
      </trkpt>
      <trkpt lat="47.403035" lon="0.751988">
        <ele>47.804</ele>
        <time>2021-09-11T14:22:11Z</time>
      </trkpt>
      <trkpt lat="47.403243" lon="0.753885">
        <ele>46.614</ele>
        <time>2021-09-11T14:22:38Z</time>
      </trkpt>
      <trkpt lat="47.403695" lon="0.754639">
        <ele>44.208</ele>
        <time>2021-09-11T14:22:52Z</time>
      </trkpt>
      <trkpt lat="47.403846" lon="0.755875">
        <ele>44.830</ele>
        <time>2021-09-11T14:24:51Z</time>
      </trkpt>
      <trkpt lat="47.403789" lon="0.757493">
        <ele>49.285</ele>
        <time>2021-09-11T14:25:18Z</time>
      </trkpt>
      <trkpt lat="47.404153" lon="0.759622">
        <ele>48.187</ele>
        <time>2021-09-11T14:25:49Z</time>
      </trkpt>
      <trkpt lat="47.403848" lon="0.766456">
        <ele>47.911</ele>
        <time>2021-09-11T14:27:41Z</time>
      </trkpt>
      <trkpt lat="47.403087" lon="0.769675">
        <ele>54.114</ele>
        <time>2021-09-11T14:28:34Z</time>
      </trkpt>
      <trkpt lat="47.402622" lon="0.773374">
        <ele>43.247</ele>
        <time>2021-09-11T14:29:33Z</time>
      </trkpt>
      <trkpt lat="47.403195" lon="0.780465">
        <ele>44.048</ele>
        <time>2021-09-11T14:31:04Z</time>
      </trkpt>
      <trkpt lat="47.403154" lon="0.785291">
        <ele>46.977</ele>
        <time>2021-09-11T14:32:02Z</time>
      </trkpt>
      <trkpt lat="47.402929" lon="0.785881">
        <ele>45.679</ele>
        <time>2021-09-11T14:32:12Z</time>
      </trkpt>
      <trkpt lat="47.402681" lon="0.788404">
        <ele>50.205</ele>
        <time>2021-09-11T14:32:46Z</time>
      </trkpt>
      <trkpt lat="47.402174" lon="0.789945">
        <ele>52.425</ele>
        <time>2021-09-11T14:33:12Z</time>
      </trkpt>
      <trkpt lat="47.401358" lon="0.793725">
        <ele>54.708</ele>
        <time>2021-09-11T14:34:11Z</time>
      </trkpt>
      <trkpt lat="47.401436" lon="0.795191">
        <ele>52.085</ele>
        <time>2021-09-11T14:34:31Z</time>
      </trkpt>
      <trkpt lat="47.401298" lon="0.795406">
        <ele>52.770</ele>
        <time>2021-09-11T14:34:37Z</time>
      </trkpt>
      <trkpt lat="47.401223" lon="0.796382">
        <ele>52.572</ele>
        <time>2021-09-11T14:34:52Z</time>
      </trkpt>
      <trkpt lat="47.401327" lon="0.796547">
        <ele>52.236</ele>
        <time>2021-09-11T14:34:56Z</time>
      </trkpt>
      <trkpt lat="47.401447" lon="0.796393">
        <ele>52.239</ele>
        <time>2021-09-11T14:35:00Z</time>
      </trkpt>
      <trkpt lat="47.401514" lon="0.796494">
        <ele>51.512</ele>
        <time>2021-09-11T14:35:04Z</time>
      </trkpt>
      <trkpt lat="47.400341" lon="0.800475">
        <ele>51.233</ele>
        <time>2021-09-11T14:36:03Z</time>
      </trkpt>
      <trkpt lat="47.398571" lon="0.803241">
        <ele>53.882</ele>
        <time>2021-09-11T14:36:48Z</time>
      </trkpt>
      <trkpt lat="47.397301" lon="0.806080">
        <ele>53.687</ele>
        <time>2021-09-11T14:37:37Z</time>
      </trkpt>
      <trkpt lat="47.396784" lon="0.806614">
        <ele>57.742</ele>
        <time>2021-09-11T14:37:50Z</time>
      </trkpt>
      <trkpt lat="47.396245" lon="0.807587">
        <ele>54.226</ele>
        <time>2021-09-11T14:38:07Z</time>
      </trkpt>
      <trkpt lat="47.395449" lon="0.810237">
        <ele>55.408</ele>
        <time>2021-09-11T14:38:48Z</time>
      </trkpt>
      <trkpt lat="47.395249" lon="0.810519">
        <ele>53.776</ele>
        <time>2021-09-11T14:39:01Z</time>
      </trkpt>
      <trkpt lat="47.395080" lon="0.810389">
        <ele>53.051</ele>
        <time>2021-09-11T14:39:26Z</time>
      </trkpt>
      <trkpt lat="47.393861" lon="0.812490">
        <ele>56.193</ele>
        <time>2021-09-11T14:40:14Z</time>
      </trkpt>
      <trkpt lat="47.393126" lon="0.813232">
        <ele>49.927</ele>
        <time>2021-09-11T14:40:45Z</time>
      </trkpt>
      <trkpt lat="47.392687" lon="0.813358">
        <ele>46.620</ele>
        <time>2021-09-11T14:40:55Z</time>
      </trkpt>
      <trkpt lat="47.392538" lon="0.814013">
        <ele>45.233</ele>
        <time>2021-09-11T14:41:07Z</time>
      </trkpt>
      <trkpt lat="47.392743" lon="0.814433">
        <ele>43.594</ele>
        <time>2021-09-11T14:41:17Z</time>
      </trkpt>
      <trkpt lat="47.391881" lon="0.817722">
        <ele>49.213</ele>
        <time>2021-09-11T14:42:33Z</time>
      </trkpt>
      <trkpt lat="47.391594" lon="0.817800">
        <ele>51.397</ele>
        <time>2021-09-11T14:43:01Z</time>
      </trkpt>
      <trkpt lat="47.391230" lon="0.817558">
        <ele>49.023</ele>
        <time>2021-09-11T14:43:16Z</time>
      </trkpt>
      <trkpt lat="47.391092" lon="0.817712">
        <ele>49.325</ele>
        <time>2021-09-11T14:43:23Z</time>
      </trkpt>
      <trkpt lat="47.391355" lon="0.818461">
        <ele>49.708</ele>
        <time>2021-09-11T14:46:04Z</time>
      </trkpt>
      <trkpt lat="47.391264" lon="0.818320">
        <ele>50.067</ele>
        <time>2021-09-11T14:46:25Z</time>
      </trkpt>
      <trkpt lat="47.391240" lon="0.818444">
        <ele>57.372</ele>
        <time>2021-09-11T15:03:32Z</time>
      </trkpt>
      <trkpt lat="47.391422" lon="0.818486">
        <ele>61.874</ele>
        <time>2021-09-11T15:08:22Z</time>
      </trkpt>
      <trkpt lat="47.391439" lon="0.818176">
        <ele>65.958</ele>
        <time>2021-09-11T15:08:37Z</time>
      </trkpt>
      <trkpt lat="47.391982" lon="0.817499">
        <ele>58.941</ele>
        <time>2021-09-11T15:09:12Z</time>
      </trkpt>
      <trkpt lat="47.391942" lon="0.817194">
        <ele>55.594</ele>
        <time>2021-09-11T15:09:20Z</time>
      </trkpt>
      <trkpt lat="47.391764" lon="0.816925">
        <ele>53.495</ele>
        <time>2021-09-11T15:09:29Z</time>
      </trkpt>
      <trkpt lat="47.391503" lon="0.816969">
        <ele>54.254</ele>
        <time>2021-09-11T15:09:36Z</time>
      </trkpt>
      <trkpt lat="47.390845" lon="0.816495">
        <ele>47.929</ele>
        <time>2021-09-11T15:09:52Z</time>
      </trkpt>
      <trkpt lat="47.389649" lon="0.815240">
        <ele>50.300</ele>
        <time>2021-09-11T15:10:22Z</time>
      </trkpt>
      <trkpt lat="47.388635" lon="0.813823">
        <ele>48.320</ele>
        <time>2021-09-11T15:10:49Z</time>
      </trkpt>
      <trkpt lat="47.388403" lon="0.813132">
        <ele>48.208</ele>
        <time>2021-09-11T15:11:03Z</time>
      </trkpt>
      <trkpt lat="47.388295" lon="0.813099">
        <ele>48.320</ele>
        <time>2021-09-11T15:11:07Z</time>
      </trkpt>
      <trkpt lat="47.387838" lon="0.813584">
        <ele>48.545</ele>
        <time>2021-09-11T15:11:21Z</time>
      </trkpt>
      <trkpt lat="47.386942" lon="0.813895">
        <ele>51.097</ele>
        <time>2021-09-11T15:11:47Z</time>
      </trkpt>
      <trkpt lat="47.387236" lon="0.815663">
        <ele>59.871</ele>
        <time>2021-09-11T15:12:25Z</time>
      </trkpt>
      <trkpt lat="47.387209" lon="0.817213">
        <ele>55.334</ele>
        <time>2021-09-11T15:12:48Z</time>
      </trkpt>
      <trkpt lat="47.388041" lon="0.820603">
        <ele>65.287</ele>
        <time>2021-09-11T15:14:02Z</time>
      </trkpt>
      <trkpt lat="47.388434" lon="0.823375">
        <ele>68.988</ele>
        <time>2021-09-11T15:15:10Z</time>
      </trkpt>
      <trkpt lat="47.388475" lon="0.826260">
        <ele>74.797</ele>
        <time>2021-09-11T15:16:10Z</time>
      </trkpt>
      <trkpt lat="47.388402" lon="0.826960">
        <ele>71.237</ele>
        <time>2021-09-11T15:16:34Z</time>
      </trkpt>
      <trkpt lat="47.388124" lon="0.827001">
        <ele>73.449</ele>
        <time>2021-09-11T15:16:53Z</time>
      </trkpt>
      <trkpt lat="47.388773" lon="0.827232">
        <ele>75.213</ele>
        <time>2021-09-11T15:17:24Z</time>
      </trkpt>
      <trkpt lat="47.389212" lon="0.827679">
        <ele>68.208</ele>
        <time>2021-09-11T15:17:42Z</time>
      </trkpt>
      <trkpt lat="47.389550" lon="0.827772">
        <ele>68.541</ele>
        <time>2021-09-11T15:17:55Z</time>
      </trkpt>
      <trkpt lat="47.389240" lon="0.828736">
        <ele>76.026</ele>
        <time>2021-09-11T15:19:10Z</time>
      </trkpt>
      <trkpt lat="47.389261" lon="0.834714">
        <ele>84.058</ele>
        <time>2021-09-11T15:21:09Z</time>
      </trkpt>
      <trkpt lat="47.388937" lon="0.837310">
        <ele>81.912</ele>
        <time>2021-09-11T15:21:50Z</time>
      </trkpt>
      <trkpt lat="47.389117" lon="0.838822">
        <ele>86.095</ele>
        <time>2021-09-11T15:22:16Z</time>
      </trkpt>
      <trkpt lat="47.390003" lon="0.838876">
        <ele>87.238</ele>
        <time>2021-09-11T15:22:38Z</time>
      </trkpt>
      <trkpt lat="47.390162" lon="0.839049">
        <ele>85.219</ele>
        <time>2021-09-11T15:22:44Z</time>
      </trkpt>
      <trkpt lat="47.389880" lon="0.840275">
        <ele>83.168</ele>
        <time>2021-09-11T15:23:03Z</time>
      </trkpt>
      <trkpt lat="47.389831" lon="0.841586">
        <ele>83.694</ele>
        <time>2021-09-11T15:23:28Z</time>
      </trkpt>
      <trkpt lat="47.389587" lon="0.842463">
        <ele>85.057</ele>
        <time>2021-09-11T15:23:45Z</time>
      </trkpt>
      <trkpt lat="47.389744" lon="0.844095">
        <ele>86.422</ele>
        <time>2021-09-11T15:24:21Z</time>
      </trkpt>
      <trkpt lat="47.390182" lon="0.846062">
        <ele>87.108</ele>
        <time>2021-09-11T15:24:58Z</time>
      </trkpt>
      <trkpt lat="47.390355" lon="0.849458">
        <ele>87.057</ele>
        <time>2021-09-11T15:25:47Z</time>
      </trkpt>
      <trkpt lat="47.390049" lon="0.850224">
        <ele>87.532</ele>
        <time>2021-09-11T15:26:06Z</time>
      </trkpt>
      <trkpt lat="47.390664" lon="0.850034">
        <ele>89.654</ele>
        <time>2021-09-11T15:27:10Z</time>
      </trkpt>
      <trkpt lat="47.389505" lon="0.850434">
        <ele>89.948</ele>
        <time>2021-09-11T15:27:54Z</time>
      </trkpt>
      <trkpt lat="47.387791" lon="0.850416">
        <ele>89.541</ele>
        <time>2021-09-11T15:28:40Z</time>
      </trkpt>
      <trkpt lat="47.387077" lon="0.850936">
        <ele>89.134</ele>
        <time>2021-09-11T15:29:01Z</time>
      </trkpt>
      <trkpt lat="47.386498" lon="0.851546">
        <ele>90.335</ele>
        <time>2021-09-11T15:29:19Z</time>
      </trkpt>
      <trkpt lat="47.385826" lon="0.852585">
        <ele>91.764</ele>
        <time>2021-09-11T15:29:46Z</time>
      </trkpt>
      <trkpt lat="47.385087" lon="0.854351">
        <ele>79.049</ele>
        <time>2021-09-11T15:30:05Z</time>
      </trkpt>
      <trkpt lat="47.383711" lon="0.856146">
        <ele>71.902</ele>
        <time>2021-09-11T15:30:28Z</time>
      </trkpt>
      <trkpt lat="47.384070" lon="0.857706">
        <ele>74.922</ele>
        <time>2021-09-11T15:31:31Z</time>
      </trkpt>
      <trkpt lat="47.385342" lon="0.860635">
        <ele>79.608</ele>
        <time>2021-09-11T15:32:30Z</time>
      </trkpt>
      <trkpt lat="47.385638" lon="0.862279">
        <ele>76.692</ele>
        <time>2021-09-11T15:32:50Z</time>
      </trkpt>
      <trkpt lat="47.385462" lon="0.864226">
        <ele>71.667</ele>
        <time>2021-09-11T15:33:10Z</time>
      </trkpt>
      <trkpt lat="47.385105" lon="0.864755">
        <ele>70.929</ele>
        <time>2021-09-11T15:33:23Z</time>
      </trkpt>
      <trkpt lat="47.385224" lon="0.864983">
        <ele>70.863</ele>
        <time>2021-09-11T15:33:30Z</time>
      </trkpt>
      <trkpt lat="47.385525" lon="0.864960">
        <ele>70.726</ele>
        <time>2021-09-11T15:33:39Z</time>
      </trkpt>
      <trkpt lat="47.385617" lon="0.872129">
        <ele>78.669</ele>
        <time>2021-09-11T15:36:12Z</time>
      </trkpt>
      <trkpt lat="47.385522" lon="0.873387">
        <ele>75.630</ele>
        <time>2021-09-11T15:36:29Z</time>
      </trkpt>
      <trkpt lat="47.386326" lon="0.877220">
        <ele>79.719</ele>
        <time>2021-09-11T15:37:38Z</time>
      </trkpt>
      <trkpt lat="47.386817" lon="0.878848">
        <ele>80.946</ele>
        <time>2021-09-11T15:38:10Z</time>
      </trkpt>
      <trkpt lat="47.387671" lon="0.880449">
        <ele>85.288</ele>
        <time>2021-09-11T15:38:50Z</time>
      </trkpt>
      <trkpt lat="47.387993" lon="0.883862">
        <ele>86.516</ele>
        <time>2021-09-11T15:39:52Z</time>
      </trkpt>
      <trkpt lat="47.388116" lon="0.883961">
        <ele>86.608</ele>
        <time>2021-09-11T15:39:56Z</time>
      </trkpt>
      <trkpt lat="47.388946" lon="0.883815">
        <ele>90.022</ele>
        <time>2021-09-11T15:40:18Z</time>
      </trkpt>
      <trkpt lat="47.389053" lon="0.883920">
        <ele>90.187</ele>
        <time>2021-09-11T15:40:22Z</time>
      </trkpt>
      <trkpt lat="47.389198" lon="0.886170">
        <ele>88.919</ele>
        <time>2021-09-11T15:41:02Z</time>
      </trkpt>
      <trkpt lat="47.388794" lon="0.888825">
        <ele>92.183</ele>
        <time>2021-09-11T15:41:49Z</time>
      </trkpt>
      <trkpt lat="47.388857" lon="0.891248">
        <ele>94.036</ele>
        <time>2021-09-11T15:42:29Z</time>
      </trkpt>
      <trkpt lat="47.388660" lon="0.894298">
        <ele>94.759</ele>
        <time>2021-09-11T15:43:16Z</time>
      </trkpt>
      <trkpt lat="47.388872" lon="0.897547">
        <ele>96.030</ele>
        <time>2021-09-11T15:44:08Z</time>
      </trkpt>
      <trkpt lat="47.389154" lon="0.899030">
        <ele>95.069</ele>
        <time>2021-09-11T15:44:29Z</time>
      </trkpt>
      <trkpt lat="47.389346" lon="0.901292">
        <ele>93.081</ele>
        <time>2021-09-11T15:44:59Z</time>
      </trkpt>
      <trkpt lat="47.389258" lon="0.906286">
        <ele>90.461</ele>
        <time>2021-09-11T15:46:00Z</time>
      </trkpt>
      <trkpt lat="47.389537" lon="0.908843">
        <ele>85.617</ele>
        <time>2021-09-11T15:46:50Z</time>
      </trkpt>
      <trkpt lat="47.389460" lon="0.913015">
        <ele>83.408</ele>
        <time>2021-09-11T15:48:02Z</time>
      </trkpt>
      <trkpt lat="47.389670" lon="0.917814">
        <ele>90.316</ele>
        <time>2021-09-11T15:49:13Z</time>
      </trkpt>
      <trkpt lat="47.389928" lon="0.919385">
        <ele>88.831</ele>
        <time>2021-09-11T15:50:20Z</time>
      </trkpt>
      <trkpt lat="47.390696" lon="0.921507">
        <ele>86.823</ele>
        <time>2021-09-11T15:50:59Z</time>
      </trkpt>
      <trkpt lat="47.391750" lon="0.920610">
        <ele>82.897</ele>
        <time>2021-09-11T15:51:31Z</time>
      </trkpt>
      <trkpt lat="47.392182" lon="0.918561">
        <ele>80.810</ele>
        <time>2021-09-11T15:51:55Z</time>
      </trkpt>
      <trkpt lat="47.392915" lon="0.917635">
        <ele>77.453</ele>
        <time>2021-09-11T15:52:16Z</time>
      </trkpt>
      <trkpt lat="47.394101" lon="0.916848">
        <ele>76.134</ele>
        <time>2021-09-11T15:52:42Z</time>
      </trkpt>
      <trkpt lat="47.394714" lon="0.916729">
        <ele>73.673</ele>
        <time>2021-09-11T15:52:55Z</time>
      </trkpt>
      <trkpt lat="47.395051" lon="0.916241">
        <ele>71.644</ele>
        <time>2021-09-11T15:53:40Z</time>
      </trkpt>
      <trkpt lat="47.395485" lon="0.916399">
        <ele>70.805</ele>
        <time>2021-09-11T15:53:54Z</time>
      </trkpt>
      <trkpt lat="47.394267" lon="0.913078">
        <ele>84.615</ele>
        <time>2021-09-11T15:55:05Z</time>
      </trkpt>
      <trkpt lat="47.394000" lon="0.911982">
        <ele>88.108</ele>
        <time>2021-09-11T15:55:29Z</time>
      </trkpt>
      <trkpt lat="47.394434" lon="0.913610">
        <ele>83.242</ele>
        <time>2021-09-11T15:56:02Z</time>
      </trkpt>
      <trkpt lat="47.395200" lon="0.915544">
        <ele>80.917</ele>
        <time>2021-09-11T15:56:30Z</time>
      </trkpt>
      <trkpt lat="47.395264" lon="0.916102">
        <ele>75.989</ele>
        <time>2021-09-11T15:56:37Z</time>
      </trkpt>
      <trkpt lat="47.397271" lon="0.918603">
        <ele>69.323</ele>
        <time>2021-09-11T15:57:33Z</time>
      </trkpt>
      <trkpt lat="47.398217" lon="0.920661">
        <ele>60.496</ele>
        <time>2021-09-11T15:58:11Z</time>
      </trkpt>
      <trkpt lat="47.398342" lon="0.924628">
        <ele>57.019</ele>
        <time>2021-09-11T15:59:42Z</time>
      </trkpt>
      <trkpt lat="47.398744" lon="0.927319">
        <ele>60.370</ele>
        <time>2021-09-11T16:00:29Z</time>
      </trkpt>
      <trkpt lat="47.398723" lon="0.928982">
        <ele>58.869</ele>
        <time>2021-09-11T16:00:55Z</time>
      </trkpt>
      <trkpt lat="47.399189" lon="0.931409">
        <ele>56.512</ele>
        <time>2021-09-11T16:01:30Z</time>
      </trkpt>
      <trkpt lat="47.399826" lon="0.937521">
        <ele>57.232</ele>
        <time>2021-09-11T16:03:02Z</time>
      </trkpt>
      <trkpt lat="47.400038" lon="0.937910">
        <ele>55.905</ele>
        <time>2021-09-11T16:03:09Z</time>
      </trkpt>
      <trkpt lat="47.401615" lon="0.937428">
        <ele>62.008</ele>
        <time>2021-09-11T16:03:40Z</time>
      </trkpt>
      <trkpt lat="47.401987" lon="0.937459">
        <ele>59.749</ele>
        <time>2021-09-11T16:03:47Z</time>
      </trkpt>
      <trkpt lat="47.402779" lon="0.938289">
        <ele>55.284</ele>
        <time>2021-09-11T16:04:06Z</time>
      </trkpt>
      <trkpt lat="47.403054" lon="0.939087">
        <ele>52.356</ele>
        <time>2021-09-11T16:04:18Z</time>
      </trkpt>
      <trkpt lat="47.403312" lon="0.939103">
        <ele>54.510</ele>
        <time>2021-09-11T16:04:28Z</time>
      </trkpt>
      <trkpt lat="47.403375" lon="0.940114">
        <ele>53.843</ele>
        <time>2021-09-11T16:04:41Z</time>
      </trkpt>
      <trkpt lat="47.403553" lon="0.940491">
        <ele>57.186</ele>
        <time>2021-09-11T16:04:50Z</time>
      </trkpt>
      <trkpt lat="47.405330" lon="0.949525">
        <ele>56.747</ele>
        <time>2021-09-11T16:07:02Z</time>
      </trkpt>
      <trkpt lat="47.405298" lon="0.949725">
        <ele>56.786</ele>
        <time>2021-09-11T16:07:06Z</time>
      </trkpt>
      <trkpt lat="47.405032" lon="0.949883">
        <ele>55.833</ele>
        <time>2021-09-11T16:07:13Z</time>
      </trkpt>
      <trkpt lat="47.403698" lon="0.950419">
        <ele>57.023</ele>
        <time>2021-09-11T16:07:43Z</time>
      </trkpt>
      <trkpt lat="47.403910" lon="0.951907">
        <ele>57.415</ele>
        <time>2021-09-11T16:08:07Z</time>
      </trkpt>
      <trkpt lat="47.404660" lon="0.954368">
        <ele>55.108</ele>
        <time>2021-09-11T16:08:45Z</time>
      </trkpt>
      <trkpt lat="47.405519" lon="0.955960">
        <ele>58.061</ele>
        <time>2021-09-11T16:09:15Z</time>
      </trkpt>
      <trkpt lat="47.406009" lon="0.957271">
        <ele>53.896</ele>
        <time>2021-09-11T16:09:37Z</time>
      </trkpt>
      <trkpt lat="47.406478" lon="0.957142">
        <ele>51.248</ele>
        <time>2021-09-11T16:09:50Z</time>
      </trkpt>
      <trkpt lat="47.406611" lon="0.957243">
        <ele>52.492</ele>
        <time>2021-09-11T16:09:53Z</time>
      </trkpt>
      <trkpt lat="47.407023" lon="0.960583">
        <ele>55.365</ele>
        <time>2021-09-11T16:10:40Z</time>
      </trkpt>
      <trkpt lat="47.407810" lon="0.964261">
        <ele>58.618</ele>
        <time>2021-09-11T16:11:36Z</time>
      </trkpt>
      <trkpt lat="47.407693" lon="0.965238">
        <ele>57.239</ele>
        <time>2021-09-11T16:11:53Z</time>
      </trkpt>
      <trkpt lat="47.408687" lon="0.969562">
        <ele>59.038</ele>
        <time>2021-09-11T16:13:02Z</time>
      </trkpt>
      <trkpt lat="47.409667" lon="0.971623">
        <ele>58.727</ele>
        <time>2021-09-11T16:13:41Z</time>
      </trkpt>
      <trkpt lat="47.410981" lon="0.973541">
        <ele>59.068</ele>
        <time>2021-09-11T16:14:28Z</time>
      </trkpt>
      <trkpt lat="47.411353" lon="0.975188">
        <ele>58.914</ele>
        <time>2021-09-11T16:14:58Z</time>
      </trkpt>
      <trkpt lat="47.412360" lon="0.977815">
        <ele>58.708</ele>
        <time>2021-09-11T16:16:03Z</time>
      </trkpt>
      <trkpt lat="47.412113" lon="0.978227">
        <ele>63.280</ele>
        <time>2021-09-11T16:16:25Z</time>
      </trkpt>
      <trkpt lat="47.412317" lon="0.978741">
        <ele>60.845</ele>
        <time>2021-09-11T16:16:39Z</time>
      </trkpt>
      <trkpt lat="47.412541" lon="0.980691">
        <ele>61.877</ele>
        <time>2021-09-11T16:17:28Z</time>
      </trkpt>
      <trkpt lat="47.412748" lon="0.981386">
        <ele>62.371</ele>
        <time>2021-09-11T16:17:49Z</time>
      </trkpt>
      <trkpt lat="47.412679" lon="0.981741">
        <ele>61.224</ele>
        <time>2021-09-11T16:18:35Z</time>
      </trkpt>
      <trkpt lat="47.412927" lon="0.982032">
        <ele>57.017</ele>
        <time>2021-09-11T16:39:05Z</time>
      </trkpt>
      <trkpt lat="47.413433" lon="0.983828">
        <ele>56.068</ele>
        <time>2021-09-11T16:41:22Z</time>
      </trkpt>
      <trkpt lat="47.414126" lon="0.985370">
        <ele>63.717</ele>
        <time>2021-09-11T16:42:48Z</time>
      </trkpt>
      <trkpt lat="47.414131" lon="0.985599">
        <ele>61.481</ele>
        <time>2021-09-11T16:43:11Z</time>
      </trkpt>
      <trkpt lat="47.413705" lon="0.985973">
        <ele>63.561</ele>
        <time>2021-09-11T16:45:10Z</time>
      </trkpt>
      <trkpt lat="47.413566" lon="0.985376">
        <ele>66.217</ele>
        <time>2021-09-11T16:45:52Z</time>
      </trkpt>
      <trkpt lat="47.413462" lon="0.985449">
        <ele>63.908</ele>
        <time>2021-09-11T16:46:57Z</time>
      </trkpt>
      <trkpt lat="47.413348" lon="0.985283">
        <ele>64.966</ele>
        <time>2021-09-11T16:47:10Z</time>
      </trkpt>
      <trkpt lat="47.413095" lon="0.984540">
        <ele>71.321</ele>
        <time>2021-09-11T16:47:53Z</time>
      </trkpt>
      <trkpt lat="47.412530" lon="0.984018">
        <ele>64.173</ele>
        <time>2021-09-11T16:51:03Z</time>
      </trkpt>
      <trkpt lat="47.412833" lon="0.984453">
        <ele>61.917</ele>
        <time>2021-09-11T16:52:46Z</time>
      </trkpt>
      <trkpt lat="47.412633" lon="0.986789">
        <ele>57.730</ele>
        <time>2021-09-11T16:56:37Z</time>
      </trkpt>
      <trkpt lat="47.412421" lon="0.986844">
        <ele>61.283</ele>
        <time>2021-09-11T16:58:36Z</time>
      </trkpt>
      <trkpt lat="47.412079" lon="0.986658">
        <ele>63.414</ele>
        <time>2021-09-11T16:58:51Z</time>
      </trkpt>
      <trkpt lat="47.411802" lon="0.987804">
        <ele>52.813</ele>
        <time>2021-09-11T16:59:21Z</time>
      </trkpt>
      <trkpt lat="47.410953" lon="0.989058">
        <ele>53.238</ele>
        <time>2021-09-11T17:00:06Z</time>
      </trkpt>
      <trkpt lat="47.411021" lon="0.990099">
        <ele>53.070</ele>
        <time>2021-09-11T17:00:30Z</time>
      </trkpt>
      <trkpt lat="47.410737" lon="0.990573">
        <ele>55.317</ele>
        <time>2021-09-11T17:00:47Z</time>
      </trkpt>
      <trkpt lat="47.410988" lon="0.990969">
        <ele>54.808</ele>
        <time>2021-09-11T17:01:07Z</time>
      </trkpt>
      <trkpt lat="47.411252" lon="0.990950">
        <ele>58.361</ele>
        <time>2021-09-11T17:01:42Z</time>
      </trkpt>
      <trkpt lat="47.411241" lon="0.991095">
        <ele>60.526</ele>
        <time>2021-09-11T17:01:51Z</time>
      </trkpt>
      <trkpt lat="47.410486" lon="0.992142">
        <ele>69.098</ele>
        <time>2021-09-11T17:02:51Z</time>
      </trkpt>
      <trkpt lat="47.410133" lon="0.992416">
        <ele>69.662</ele>
        <time>2021-09-11T17:03:26Z</time>
      </trkpt>
      <trkpt lat="47.410025" lon="0.992187">
        <ele>73.025</ele>
        <time>2021-09-11T17:04:37Z</time>
      </trkpt>
      <trkpt lat="47.410253" lon="0.992393">
        <ele>69.468</ele>
        <time>2021-09-11T17:07:31Z</time>
      </trkpt>
      <trkpt lat="47.410952" lon="0.991979">
        <ele>76.429</ele>
        <time>2021-09-11T17:08:54Z</time>
      </trkpt>
      <trkpt lat="47.411980" lon="0.990745">
        <ele>84.918</ele>
        <time>2021-09-11T17:10:14Z</time>
      </trkpt>
      <trkpt lat="47.412777" lon="0.988992">
        <ele>94.842</ele>
        <time>2021-09-11T17:11:43Z</time>
      </trkpt>
      <trkpt lat="47.412889" lon="0.989140">
        <ele>97.022</ele>
        <time>2021-09-11T17:12:57Z</time>
      </trkpt>
      <trkpt lat="47.413028" lon="0.989030">
        <ele>96.014</ele>
        <time>2021-09-11T17:13:14Z</time>
      </trkpt>
      <trkpt lat="47.412830" lon="0.989357">
        <ele>98.408</ele>
        <time>2021-09-11T17:13:39Z</time>
      </trkpt>
      <trkpt lat="47.412647" lon="0.991420">
        <ele>102.512</ele>
        <time>2021-09-11T17:14:43Z</time>
      </trkpt>
      <trkpt lat="47.412412" lon="0.998422">
        <ele>103.837</ele>
        <time>2021-09-11T17:16:51Z</time>
      </trkpt>
      <trkpt lat="47.413055" lon="0.999856">
        <ele>105.399</ele>
        <time>2021-09-11T17:17:18Z</time>
      </trkpt>
      <trkpt lat="47.413272" lon="1.001052">
        <ele>103.493</ele>
        <time>2021-09-11T17:17:38Z</time>
      </trkpt>
      <trkpt lat="47.414673" lon="1.000659">
        <ele>102.246</ele>
        <time>2021-09-11T17:18:08Z</time>
      </trkpt>
      <trkpt lat="47.415025" lon="1.000779">
        <ele>101.579</ele>
        <time>2021-09-11T17:18:14Z</time>
      </trkpt>
      <trkpt lat="47.415210" lon="1.001040">
        <ele>100.650</ele>
        <time>2021-09-11T17:18:18Z</time>
      </trkpt>
      <trkpt lat="47.415989" lon="1.003575">
        <ele>97.579</ele>
        <time>2021-09-11T17:18:52Z</time>
      </trkpt>
      <trkpt lat="47.416675" lon="1.005195">
        <ele>98.333</ele>
        <time>2021-09-11T17:19:17Z</time>
      </trkpt>
      <trkpt lat="47.416996" lon="1.008241">
        <ele>98.223</ele>
        <time>2021-09-11T17:20:01Z</time>
      </trkpt>
      <trkpt lat="47.417744" lon="1.013079">
        <ele>94.915</ele>
        <time>2021-09-11T17:21:06Z</time>
      </trkpt>
      <trkpt lat="47.418408" lon="1.014405">
        <ele>96.308</ele>
        <time>2021-09-11T17:21:29Z</time>
      </trkpt>
      <trkpt lat="47.419895" lon="1.015989">
        <ele>102.221</ele>
        <time>2021-09-11T17:22:16Z</time>
      </trkpt>
      <trkpt lat="47.420665" lon="1.017397">
        <ele>99.336</ele>
        <time>2021-09-11T17:22:45Z</time>
      </trkpt>
      <trkpt lat="47.420838" lon="1.017502">
        <ele>98.858</ele>
        <time>2021-09-11T17:32:33Z</time>
      </trkpt>
      <trkpt lat="47.420802" lon="1.017753">
        <ele>97.622</ele>
        <time>2021-09-11T17:35:33Z</time>
      </trkpt>
      <trkpt lat="47.421193" lon="1.018632">
        <ele>98.655</ele>
        <time>2021-09-11T17:35:52Z</time>
      </trkpt>
      <trkpt lat="47.422208" lon="1.020707">
        <ele>100.548</ele>
        <time>2021-09-11T17:36:29Z</time>
      </trkpt>
      <trkpt lat="47.422856" lon="1.021558">
        <ele>98.539</ele>
        <time>2021-09-11T17:36:46Z</time>
      </trkpt>
      <trkpt lat="47.422978" lon="1.022216">
        <ele>97.638</ele>
        <time>2021-09-11T17:36:56Z</time>
      </trkpt>
      <trkpt lat="47.423596" lon="1.023096">
        <ele>100.891</ele>
        <time>2021-09-11T17:37:12Z</time>
      </trkpt>
      <trkpt lat="47.424096" lon="1.024270">
        <ele>96.581</ele>
        <time>2021-09-11T17:37:28Z</time>
      </trkpt>
      <trkpt lat="47.424123" lon="1.024525">
        <ele>95.019</ele>
        <time>2021-09-11T17:37:33Z</time>
      </trkpt>
      <trkpt lat="47.423938" lon="1.024729">
        <ele>95.008</ele>
        <time>2021-09-11T17:37:39Z</time>
      </trkpt>
      <trkpt lat="47.421723" lon="1.026848">
        <ele>102.927</ele>
        <time>2021-09-11T17:38:46Z</time>
      </trkpt>
      <trkpt lat="47.421690" lon="1.027479">
        <ele>105.922</ele>
        <time>2021-09-11T17:38:58Z</time>
      </trkpt>
      <trkpt lat="47.421617" lon="1.027181">
        <ele>106.884</ele>
        <time>2021-09-11T17:39:18Z</time>
      </trkpt>
      <trkpt lat="47.422518" lon="1.030095">
        <ele>98.958</ele>
        <time>2021-09-11T17:40:07Z</time>
      </trkpt>
      <trkpt lat="47.423559" lon="1.035831">
        <ele>97.971</ele>
        <time>2021-09-11T17:41:17Z</time>
      </trkpt>
      <trkpt lat="47.425206" lon="1.038103">
        <ele>102.824</ele>
        <time>2021-09-11T17:42:16Z</time>
      </trkpt>
      <trkpt lat="47.422068" lon="1.039447">
        <ele>106.785</ele>
        <time>2021-09-11T17:43:25Z</time>
      </trkpt>
      <trkpt lat="47.418908" lon="1.041758">
        <ele>105.864</ele>
        <time>2021-09-11T17:44:35Z</time>
      </trkpt>
      <trkpt lat="47.415818" lon="1.046182">
        <ele>103.656</ele>
        <time>2021-09-11T17:45:51Z</time>
      </trkpt>
      <trkpt lat="47.415125" lon="1.047726">
        <ele>101.059</ele>
        <time>2021-09-11T17:46:10Z</time>
      </trkpt>
      <trkpt lat="47.414899" lon="1.047764">
        <ele>101.814</ele>
        <time>2021-09-11T17:46:14Z</time>
      </trkpt>
      <trkpt lat="47.414354" lon="1.047470">
        <ele>97.508</ele>
        <time>2021-09-11T17:46:23Z</time>
      </trkpt>
      <trkpt lat="47.413494" lon="1.047805">
        <ele>89.423</ele>
        <time>2021-09-11T17:46:37Z</time>
      </trkpt>
      <trkpt lat="47.412506" lon="1.047556">
        <ele>77.988</ele>
        <time>2021-09-11T17:46:49Z</time>
      </trkpt>
      <trkpt lat="47.412088" lon="1.047737">
        <ele>72.730</ele>
        <time>2021-09-11T17:46:54Z</time>
      </trkpt>
      <trkpt lat="47.411082" lon="1.048594">
        <ele>61.214</ele>
        <time>2021-09-11T17:47:09Z</time>
      </trkpt>
      <trkpt lat="47.410317" lon="1.050093">
        <ele>64.937</ele>
        <time>2021-09-11T17:48:38Z</time>
      </trkpt>
      <trkpt lat="47.410014" lon="1.052849">
        <ele>66.860</ele>
        <time>2021-09-11T17:49:11Z</time>
      </trkpt>
      <trkpt lat="47.409748" lon="1.053271">
        <ele>67.881</ele>
        <time>2021-09-11T17:49:20Z</time>
      </trkpt>
      <trkpt lat="47.409295" lon="1.053291">
        <ele>71.350</ele>
        <time>2021-09-11T17:49:32Z</time>
      </trkpt>
      <trkpt lat="47.408691" lon="1.052706">
        <ele>77.495</ele>
        <time>2021-09-11T17:49:56Z</time>
      </trkpt>
      <trkpt lat="47.408290" lon="1.052572">
        <ele>80.749</ele>
        <time>2021-09-11T17:50:11Z</time>
      </trkpt>
      <trkpt lat="47.407914" lon="1.051444">
        <ele>81.923</ele>
        <time>2021-09-11T17:53:23Z</time>
      </trkpt>
      <trkpt lat="47.407731" lon="1.049656">
        <ele>85.508</ele>
        <time>2021-09-11T17:53:57Z</time>
      </trkpt>
      <trkpt lat="47.407796" lon="1.047402">
        <ele>86.017</ele>
        <time>2021-09-11T17:54:33Z</time>
      </trkpt>
      <trkpt lat="47.407452" lon="1.045425">
        <ele>85.972</ele>
        <time>2021-09-11T17:55:08Z</time>
      </trkpt>
      <trkpt lat="47.405388" lon="1.046946">
        <ele>98.614</ele>
        <time>2021-09-11T17:56:42Z</time>
      </trkpt>
      <trkpt lat="47.398513" lon="1.051031">
        <ele>110.258</ele>
        <time>2021-09-11T17:59:23Z</time>
      </trkpt>
      <trkpt lat="47.398090" lon="1.051116">
        <ele>111.951</ele>
        <time>2021-09-11T17:59:33Z</time>
      </trkpt>
      <trkpt lat="47.395199" lon="1.049852">
        <ele>109.334</ele>
        <time>2021-09-11T18:00:38Z</time>
      </trkpt>
      <trkpt lat="47.390089" lon="1.047325">
        <ele>116.775</ele>
        <time>2021-09-11T18:02:25Z</time>
      </trkpt>
      <trkpt lat="47.389403" lon="1.047172">
        <ele>115.964</ele>
        <time>2021-09-11T18:02:43Z</time>
      </trkpt>
      <trkpt lat="47.387049" lon="1.046091">
        <ele>102.568</ele>
        <time>2021-09-11T18:05:04Z</time>
      </trkpt>
      <trkpt lat="47.384992" lon="1.044925">
        <ele>106.342</ele>
        <time>2021-09-11T18:05:48Z</time>
      </trkpt>
      <trkpt lat="47.383850" lon="1.044598">
        <ele>102.826</ele>
        <time>2021-09-11T18:06:16Z</time>
      </trkpt>
      <trkpt lat="47.382360" lon="1.043825">
        <ele>108.608</ele>
        <time>2021-09-11T18:06:49Z</time>
      </trkpt>
      <trkpt lat="47.380956" lon="1.043297">
        <ele>115.424</ele>
        <time>2021-09-11T18:07:16Z</time>
      </trkpt>
      <trkpt lat="47.378988" lon="1.042246">
        <ele>114.329</ele>
        <time>2021-09-11T18:07:50Z</time>
      </trkpt>
      <trkpt lat="47.369138" lon="1.037760">
        <ele>98.741</ele>
        <time>2021-09-11T18:11:06Z</time>
      </trkpt>
      <trkpt lat="47.366984" lon="1.035319">
        <ele>114.555</ele>
        <time>2021-09-11T18:11:54Z</time>
      </trkpt>
      <trkpt lat="47.366218" lon="1.034729">
        <ele>112.928</ele>
        <time>2021-09-11T18:12:28Z</time>
      </trkpt>
      <trkpt lat="47.365957" lon="1.035023">
        <ele>111.811</ele>
        <time>2021-09-11T18:12:42Z</time>
      </trkpt>
      <trkpt lat="47.365777" lon="1.034936">
        <ele>111.072</ele>
        <time>2021-09-11T18:12:49Z</time>
      </trkpt>
      <trkpt lat="47.364496" lon="1.033515">
        <ele>108.981</ele>
        <time>2021-09-11T18:13:21Z</time>
      </trkpt>
      <trkpt lat="47.364426" lon="1.032921">
        <ele>107.337</ele>
        <time>2021-09-11T18:13:29Z</time>
      </trkpt>
      <trkpt lat="47.364711" lon="1.031358">
        <ele>108.249</ele>
        <time>2021-09-11T18:13:48Z</time>
      </trkpt>
      <trkpt lat="47.365166" lon="1.030372">
        <ele>105.313</ele>
        <time>2021-09-11T18:14:02Z</time>
      </trkpt>
      <trkpt lat="47.365462" lon="1.029187">
        <ele>105.408</ele>
        <time>2021-09-11T18:14:16Z</time>
      </trkpt>
      <trkpt lat="47.366002" lon="1.028341">
        <ele>105.921</ele>
        <time>2021-09-11T18:14:29Z</time>
      </trkpt>
      <trkpt lat="47.366189" lon="1.027747">
        <ele>105.136</ele>
        <time>2021-09-11T18:14:36Z</time>
      </trkpt>
      <trkpt lat="47.365787" lon="1.027062">
        <ele>106.668</ele>
        <time>2021-09-11T18:14:46Z</time>
      </trkpt>
      <trkpt lat="47.364143" lon="1.025789">
        <ele>102.462</ele>
        <time>2021-09-11T18:15:16Z</time>
      </trkpt>
      <trkpt lat="47.364175" lon="1.024839">
        <ele>106.215</ele>
        <time>2021-09-11T18:15:44Z</time>
      </trkpt>
      <trkpt lat="47.362848" lon="1.025961">
        <ele>101.178</ele>
        <time>2021-09-11T18:16:11Z</time>
      </trkpt>
      <trkpt lat="47.362146" lon="1.026046">
        <ele>99.869</ele>
        <time>2021-09-11T18:16:19Z</time>
      </trkpt>
      <trkpt lat="47.357181" lon="1.023202">
        <ele>110.698</ele>
        <time>2021-09-11T18:18:46Z</time>
      </trkpt>
      <trkpt lat="47.355775" lon="1.022271">
        <ele>110.424</ele>
        <time>2021-09-11T18:19:19Z</time>
      </trkpt>
      <trkpt lat="47.354598" lon="1.020424">
        <ele>104.404</ele>
        <time>2021-09-11T18:19:46Z</time>
      </trkpt>
      <trkpt lat="47.352826" lon="1.019102">
        <ele>106.714</ele>
        <time>2021-09-11T18:20:21Z</time>
      </trkpt>
      <trkpt lat="47.352372" lon="1.018614">
        <ele>108.708</ele>
        <time>2021-09-11T18:20:30Z</time>
      </trkpt>
      <trkpt lat="47.351921" lon="1.017876">
        <ele>108.040</ele>
        <time>2021-09-11T18:20:42Z</time>
      </trkpt>
      <trkpt lat="47.351461" lon="1.016649">
        <ele>107.655</ele>
        <time>2021-09-11T18:20:58Z</time>
      </trkpt>
      <trkpt lat="47.350958" lon="1.016279">
        <ele>107.257</ele>
        <time>2021-09-11T18:21:07Z</time>
      </trkpt>
      <trkpt lat="47.350108" lon="1.015960">
        <ele>106.921</ele>
        <time>2021-09-11T18:21:20Z</time>
      </trkpt>
      <trkpt lat="47.349088" lon="1.015142">
        <ele>104.954</ele>
        <time>2021-09-11T18:21:38Z</time>
      </trkpt>
      <trkpt lat="47.348627" lon="1.014990">
        <ele>104.057</ele>
        <time>2021-09-11T18:21:45Z</time>
      </trkpt>
      <trkpt lat="47.347755" lon="1.014992">
        <ele>105.498</ele>
        <time>2021-09-11T18:22:01Z</time>
      </trkpt>
      <trkpt lat="47.347117" lon="1.015370">
        <ele>102.657</ele>
        <time>2021-09-11T18:22:16Z</time>
      </trkpt>
      <trkpt lat="47.346470" lon="1.016039">
        <ele>96.136</ele>
        <time>2021-09-11T18:22:30Z</time>
      </trkpt>
      <trkpt lat="47.346430" lon="1.016316">
        <ele>96.717</ele>
        <time>2021-09-11T18:22:36Z</time>
      </trkpt>
      <trkpt lat="47.346461" lon="1.016004">
        <ele>100.418</ele>
        <time>2021-09-11T18:23:59Z</time>
      </trkpt>
      <trkpt lat="47.346417" lon="1.016285">
        <ele>101.008</ele>
        <time>2021-09-11T18:24:08Z</time>
      </trkpt>
      <trkpt lat="47.347546" lon="1.018125">
        <ele>104.121</ele>
        <time>2021-09-11T18:24:59Z</time>
      </trkpt>
      <trkpt lat="47.348125" lon="1.019384">
        <ele>102.616</ele>
        <time>2021-09-11T18:25:25Z</time>
      </trkpt>
      <trkpt lat="47.348490" lon="1.021004">
        <ele>103.378</ele>
        <time>2021-09-11T18:25:52Z</time>
      </trkpt>
      <trkpt lat="47.348470" lon="1.022565">
        <ele>104.732</ele>
        <time>2021-09-11T18:26:14Z</time>
      </trkpt>
      <trkpt lat="47.348925" lon="1.023465">
        <ele>108.635</ele>
        <time>2021-09-11T18:26:38Z</time>
      </trkpt>
      <trkpt lat="47.349592" lon="1.025751">
        <ele>104.298</ele>
        <time>2021-09-11T18:27:19Z</time>
      </trkpt>
      <trkpt lat="47.349739" lon="1.027200">
        <ele>106.039</ele>
        <time>2021-09-11T18:27:39Z</time>
      </trkpt>
      <trkpt lat="47.350136" lon="1.027838">
        <ele>106.298</ele>
        <time>2021-09-11T18:27:52Z</time>
      </trkpt>
      <trkpt lat="47.351166" lon="1.028688">
        <ele>106.276</ele>
        <time>2021-09-11T18:28:18Z</time>
      </trkpt>
      <trkpt lat="47.352596" lon="1.031188">
        <ele>105.490</ele>
        <time>2021-09-11T18:29:03Z</time>
      </trkpt>
      <trkpt lat="47.354435" lon="1.033317">
        <ele>108.419</ele>
        <time>2021-09-11T18:29:57Z</time>
      </trkpt>
      <trkpt lat="47.355144" lon="1.034520">
        <ele>114.608</ele>
        <time>2021-09-11T18:30:23Z</time>
      </trkpt>
      <trkpt lat="47.356461" lon="1.038211">
        <ele>112.715</ele>
        <time>2021-09-11T18:31:25Z</time>
      </trkpt>
      <trkpt lat="47.357111" lon="1.041142">
        <ele>114.010</ele>
        <time>2021-09-11T18:32:12Z</time>
      </trkpt>
      <trkpt lat="47.354319" lon="1.042124">
        <ele>113.132</ele>
        <time>2021-09-11T18:33:10Z</time>
      </trkpt>
      <trkpt lat="47.353016" lon="1.043112">
        <ele>114.776</ele>
        <time>2021-09-11T18:33:34Z</time>
      </trkpt>
      <trkpt lat="47.352398" lon="1.043386">
        <ele>108.219</ele>
        <time>2021-09-11T18:33:43Z</time>
      </trkpt>
      <trkpt lat="47.351123" lon="1.042759">
        <ele>105.662</ele>
        <time>2021-09-11T18:34:04Z</time>
      </trkpt>
      <trkpt lat="47.350419" lon="1.042596">
        <ele>110.383</ele>
        <time>2021-09-11T18:34:19Z</time>
      </trkpt>
      <trkpt lat="47.347580" lon="1.042989">
        <ele>117.442</ele>
        <time>2021-09-11T18:35:27Z</time>
      </trkpt>
      <trkpt lat="47.346284" lon="1.044089">
        <ele>110.268</ele>
        <time>2021-09-11T18:35:51Z</time>
      </trkpt>
      <trkpt lat="47.343866" lon="1.044953">
        <ele>102.642</ele>
        <time>2021-09-11T18:36:27Z</time>
      </trkpt>
      <trkpt lat="47.343001" lon="1.045933">
        <ele>101.826</ele>
        <time>2021-09-11T18:36:41Z</time>
      </trkpt>
      <trkpt lat="47.341733" lon="1.046608">
        <ele>96.508</ele>
        <time>2021-09-11T18:36:59Z</time>
      </trkpt>
      <trkpt lat="47.340567" lon="1.046629">
        <ele>90.584</ele>
        <time>2021-09-11T18:37:14Z</time>
      </trkpt>
      <trkpt lat="47.339540" lon="1.046355">
        <ele>82.099</ele>
        <time>2021-09-11T18:37:25Z</time>
      </trkpt>
      <trkpt lat="47.336369" lon="1.046470">
        <ele>89.851</ele>
        <time>2021-09-11T18:38:17Z</time>
      </trkpt>
      <trkpt lat="47.335227" lon="1.047120">
        <ele>80.735</ele>
        <time>2021-09-11T18:38:34Z</time>
      </trkpt>
      <trkpt lat="47.334745" lon="1.047229">
        <ele>76.498</ele>
        <time>2021-09-11T18:38:42Z</time>
      </trkpt>
      <trkpt lat="47.332940" lon="1.046589">
        <ele>70.181</ele>
        <time>2021-09-11T18:39:14Z</time>
      </trkpt>
      <trkpt lat="47.332822" lon="1.046744">
        <ele>68.832</ele>
        <time>2021-09-11T18:42:48Z</time>
      </trkpt>
      <trkpt lat="47.332692" lon="1.046527">
        <ele>71.731</ele>
        <time>2021-09-11T18:43:02Z</time>
      </trkpt>
      <trkpt lat="47.331861" lon="1.046256">
        <ele>59.232</ele>
        <time>2021-09-11T18:44:48Z</time>
      </trkpt>
      <trkpt lat="47.331561" lon="1.047250">
        <ele>58.392</ele>
        <time>2021-09-11T18:46:45Z</time>
      </trkpt>
      <trkpt lat="47.331820" lon="1.047306">
        <ele>57.411</ele>
        <time>2021-09-11T18:49:07Z</time>
      </trkpt>
      <trkpt lat="47.331859" lon="1.048061">
        <ele>60.708</ele>
        <time>2021-09-11T18:49:30Z</time>
      </trkpt>
      <trkpt lat="47.332174" lon="1.048704">
        <ele>66.911</ele>
        <time>2021-09-11T18:53:03Z</time>
      </trkpt>
      <trkpt lat="47.332397" lon="1.050069">
        <ele>62.556</ele>
        <time>2021-09-11T18:53:45Z</time>
      </trkpt>
      <trkpt lat="47.332731" lon="1.050366">
        <ele>56.968</ele>
        <time>2021-09-11T18:54:00Z</time>
      </trkpt>
      <trkpt lat="47.332863" lon="1.052501">
        <ele>71.882</ele>
        <time>2021-09-11T18:54:46Z</time>
      </trkpt>
      <trkpt lat="47.332359" lon="1.058354">
        <ele>70.565</ele>
        <time>2021-09-11T18:56:06Z</time>
      </trkpt>
      <trkpt lat="47.332321" lon="1.060715">
        <ele>69.348</ele>
        <time>2021-09-11T18:56:39Z</time>
      </trkpt>
      <trkpt lat="47.332471" lon="1.060973">
        <ele>72.559</ele>
        <time>2021-09-11T18:59:25Z</time>
      </trkpt>
      <trkpt lat="47.332264" lon="1.061856">
        <ele>72.368</ele>
        <time>2021-09-11T18:59:45Z</time>
      </trkpt>
      <trkpt lat="47.332154" lon="1.066452">
        <ele>66.754</ele>
        <time>2021-09-11T19:02:33Z</time>
      </trkpt>
      <trkpt lat="47.331849" lon="1.067000">
        <ele>74.056</ele>
        <time>2021-09-11T19:02:47Z</time>
      </trkpt>
      <trkpt lat="47.331506" lon="1.067244">
        <ele>65.011</ele>
        <time>2021-09-11T19:07:25Z</time>
      </trkpt>
      <trkpt lat="47.330922" lon="1.066628">
        <ele>68.408</ele>
        <time>2021-09-11T19:07:47Z</time>
      </trkpt>
      <trkpt lat="47.330505" lon="1.066474">
        <ele>64.443</ele>
        <time>2021-09-11T19:08:11Z</time>
      </trkpt>
      <trkpt lat="47.330300" lon="1.078689">
        <ele>63.118</ele>
        <time>2021-09-11T19:11:24Z</time>
      </trkpt>
      <trkpt lat="47.330099" lon="1.081691">
        <ele>62.580</ele>
        <time>2021-09-11T19:12:18Z</time>
      </trkpt>
      <trkpt lat="47.328178" lon="1.082207">
        <ele>56.444</ele>
        <time>2021-09-11T19:13:08Z</time>
      </trkpt>
      <trkpt lat="47.327571" lon="1.082464">
        <ele>55.077</ele>
        <time>2021-09-11T19:13:28Z</time>
      </trkpt>
      <trkpt lat="47.327478" lon="1.082635">
        <ele>54.870</ele>
        <time>2021-09-11T19:13:34Z</time>
      </trkpt>
      <trkpt lat="47.328626" lon="1.085416">
        <ele>54.151</ele>
        <time>2021-09-11T19:14:46Z</time>
      </trkpt>
      <trkpt lat="47.329045" lon="1.088006">
        <ele>59.880</ele>
        <time>2021-09-11T19:15:34Z</time>
      </trkpt>
      <trkpt lat="47.329178" lon="1.087594">
        <ele>58.213</ele>
        <time>2021-09-11T19:17:45Z</time>
      </trkpt>
      <trkpt lat="47.329482" lon="1.087456">
        <ele>57.843</ele>
        <time>2021-09-11T19:18:21Z</time>
      </trkpt>
      <trkpt lat="47.329417" lon="1.087101">
        <ele>57.807</ele>
        <time>2021-09-11T19:19:10Z</time>
      </trkpt>
      <trkpt lat="47.329444" lon="1.087076">
        <ele>59.019</ele>
        <time>2021-09-12T10:31:54Z</time>
      </trkpt>
      <trkpt lat="47.329401" lon="1.087523">
        <ele>66.409</ele>
        <time>2021-09-12T10:34:27Z</time>
      </trkpt>
      <trkpt lat="47.329142" lon="1.087636">
        <ele>62.919</ele>
        <time>2021-09-12T10:34:46Z</time>
      </trkpt>
      <trkpt lat="47.329032" lon="1.088022">
        <ele>57.708</ele>
        <time>2021-09-12T10:35:33Z</time>
      </trkpt>
      <trkpt lat="47.328681" lon="1.085561">
        <ele>58.169</ele>
        <time>2021-09-12T10:36:17Z</time>
      </trkpt>
      <trkpt lat="47.327746" lon="1.083033">
        <ele>53.324</ele>
        <time>2021-09-12T10:37:00Z</time>
      </trkpt>
      <trkpt lat="47.327829" lon="1.082756">
        <ele>54.498</ele>
        <time>2021-09-12T10:37:05Z</time>
      </trkpt>
      <trkpt lat="47.328575" lon="1.082173">
        <ele>55.542</ele>
        <time>2021-09-12T10:37:27Z</time>
      </trkpt>
      <trkpt lat="47.330008" lon="1.081753">
        <ele>63.160</ele>
        <time>2021-09-12T10:38:09Z</time>
      </trkpt>
      <trkpt lat="47.330113" lon="1.081523">
        <ele>61.983</ele>
        <time>2021-09-12T10:38:15Z</time>
      </trkpt>
      <trkpt lat="47.330616" lon="1.066577">
        <ele>63.629</ele>
        <time>2021-09-12T10:42:17Z</time>
      </trkpt>
      <trkpt lat="47.330567" lon="1.066459">
        <ele>63.993</ele>
        <time>2021-09-12T10:42:26Z</time>
      </trkpt>
      <trkpt lat="47.329955" lon="1.066326">
        <ele>61.395</ele>
        <time>2021-09-12T10:42:49Z</time>
      </trkpt>
      <trkpt lat="47.329750" lon="1.066459">
        <ele>64.049</ele>
        <time>2021-09-12T10:43:21Z</time>
      </trkpt>
      <trkpt lat="47.330117" lon="1.066508">
        <ele>64.923</ele>
        <time>2021-09-12T10:43:55Z</time>
      </trkpt>
      <trkpt lat="47.330124" lon="1.066692">
        <ele>65.008</ele>
        <time>2021-09-12T10:44:02Z</time>
      </trkpt>
      <trkpt lat="47.329530" lon="1.066624">
        <ele>64.287</ele>
        <time>2021-09-12T10:48:44Z</time>
      </trkpt>
      <trkpt lat="47.329340" lon="1.066942">
        <ele>66.672</ele>
        <time>2021-09-12T10:50:29Z</time>
      </trkpt>
      <trkpt lat="47.329377" lon="1.066791">
        <ele>64.696</ele>
        <time>2021-09-12T10:54:08Z</time>
      </trkpt>
      <trkpt lat="47.328129" lon="1.067867">
        <ele>64.870</ele>
        <time>2021-09-12T10:56:39Z</time>
      </trkpt>
      <trkpt lat="47.326521" lon="1.068936">
        <ele>58.598</ele>
        <time>2021-09-12T10:58:28Z</time>
      </trkpt>
      <trkpt lat="47.325537" lon="1.069736">
        <ele>60.241</ele>
        <time>2021-09-12T11:00:00Z</time>
      </trkpt>
      <trkpt lat="47.325443" lon="1.069967">
        <ele>63.057</ele>
        <time>2021-09-12T11:00:27Z</time>
      </trkpt>
      <trkpt lat="47.325003" lon="1.070243">
        <ele>65.911</ele>
        <time>2021-09-12T11:01:05Z</time>
      </trkpt>
      <trkpt lat="47.324712" lon="1.070208">
        <ele>54.745</ele>
        <time>2021-09-12T11:03:18Z</time>
      </trkpt>
      <trkpt lat="47.324966" lon="1.070469">
        <ele>69.047</ele>
        <time>2021-09-12T11:03:38Z</time>
      </trkpt>
      <trkpt lat="47.325004" lon="1.070355">
        <ele>69.011</ele>
        <time>2021-09-12T11:03:39Z</time>
      </trkpt>
      <trkpt lat="47.324963" lon="1.070655">
        <ele>69.008</ele>
        <time>2021-09-12T11:04:00Z</time>
      </trkpt>
      <trkpt lat="47.324867" lon="1.070250">
        <ele>79.732</ele>
        <time>2021-09-12T11:09:37Z</time>
      </trkpt>
      <trkpt lat="47.324595" lon="1.070420">
        <ele>44.927</ele>
        <time>2021-09-12T11:11:42Z</time>
      </trkpt>
      <trkpt lat="47.324569" lon="1.071020">
        <ele>50.431</ele>
        <time>2021-09-12T11:11:51Z</time>
      </trkpt>
      <trkpt lat="47.324818" lon="1.069660">
        <ele>65.735</ele>
        <time>2021-09-12T11:38:27Z</time>
      </trkpt>
      <trkpt lat="47.324526" lon="1.070564">
        <ele>75.533</ele>
        <time>2021-09-12T11:40:14Z</time>
      </trkpt>
      <trkpt lat="47.324744" lon="1.070308">
        <ele>64.426</ele>
        <time>2021-09-12T11:41:59Z</time>
      </trkpt>
      <trkpt lat="47.324532" lon="1.070376">
        <ele>66.172</ele>
        <time>2021-09-12T11:42:10Z</time>
      </trkpt>
      <trkpt lat="47.324825" lon="1.070267">
        <ele>72.846</ele>
        <time>2021-09-12T11:44:19Z</time>
      </trkpt>
      <trkpt lat="47.324806" lon="1.071083">
        <ele>72.688</ele>
        <time>2021-09-12T11:47:46Z</time>
      </trkpt>
      <trkpt lat="47.324941" lon="1.070204">
        <ele>71.524</ele>
        <time>2021-09-12T12:08:19Z</time>
      </trkpt>
      <trkpt lat="47.325700" lon="1.069692">
        <ele>64.626</ele>
        <time>2021-09-12T12:12:55Z</time>
      </trkpt>
      <trkpt lat="47.326127" lon="1.070196">
        <ele>60.808</ele>
        <time>2021-09-12T12:13:50Z</time>
      </trkpt>
      <trkpt lat="47.325391" lon="1.070872">
        <ele>61.716</ele>
        <time>2021-09-12T12:15:15Z</time>
      </trkpt>
      <trkpt lat="47.325521" lon="1.071446">
        <ele>62.231</ele>
        <time>2021-09-12T12:16:49Z</time>
      </trkpt>
      <trkpt lat="47.325375" lon="1.070795">
        <ele>61.275</ele>
        <time>2021-09-12T12:20:01Z</time>
      </trkpt>
      <trkpt lat="47.326101" lon="1.070267">
        <ele>62.199</ele>
        <time>2021-09-12T12:21:04Z</time>
      </trkpt>
      <trkpt lat="47.326233" lon="1.069796">
        <ele>60.557</ele>
        <time>2021-09-12T12:21:32Z</time>
      </trkpt>
      <trkpt lat="47.326174" lon="1.069355">
        <ele>60.170</ele>
        <time>2021-09-12T12:21:57Z</time>
      </trkpt>
      <trkpt lat="47.326337" lon="1.069137">
        <ele>60.346</ele>
        <time>2021-09-12T12:22:13Z</time>
      </trkpt>
      <trkpt lat="47.329001" lon="1.067022">
        <ele>68.250</ele>
        <time>2021-09-12T12:28:25Z</time>
      </trkpt>
      <trkpt lat="47.329143" lon="1.066998">
        <ele>67.131</ele>
        <time>2021-09-12T12:29:15Z</time>
      </trkpt>
      <trkpt lat="47.329128" lon="1.067207">
        <ele>65.661</ele>
        <time>2021-09-12T12:29:38Z</time>
      </trkpt>
      <trkpt lat="47.329301" lon="1.067058">
        <ele>70.807</ele>
        <time>2021-09-12T12:30:06Z</time>
      </trkpt>
      <trkpt lat="47.329227" lon="1.066934">
        <ele>70.208</ele>
        <time>2021-09-12T12:30:42Z</time>
      </trkpt>
      <trkpt lat="47.329583" lon="1.066697">
        <ele>66.891</ele>
        <time>2021-09-12T12:31:32Z</time>
      </trkpt>
      <trkpt lat="47.330169" lon="1.066761">
        <ele>59.646</ele>
        <time>2021-09-12T12:42:29Z</time>
      </trkpt>
      <trkpt lat="47.330222" lon="1.066523">
        <ele>64.020</ele>
        <time>2021-09-12T12:42:39Z</time>
      </trkpt>
      <trkpt lat="47.330577" lon="1.066575">
        <ele>62.694</ele>
        <time>2021-09-12T12:43:31Z</time>
      </trkpt>
      <trkpt lat="47.330074" lon="1.081768">
        <ele>63.522</ele>
        <time>2021-09-12T12:48:22Z</time>
      </trkpt>
      <trkpt lat="47.328161" lon="1.082249">
        <ele>59.125</ele>
        <time>2021-09-12T12:49:09Z</time>
      </trkpt>
      <trkpt lat="47.327613" lon="1.082487">
        <ele>56.771</ele>
        <time>2021-09-12T12:49:22Z</time>
      </trkpt>
      <trkpt lat="47.327508" lon="1.082677">
        <ele>55.985</ele>
        <time>2021-09-12T12:49:28Z</time>
      </trkpt>
      <trkpt lat="47.328585" lon="1.085367">
        <ele>58.845</ele>
        <time>2021-09-12T12:50:23Z</time>
      </trkpt>
      <trkpt lat="47.328935" lon="1.087107">
        <ele>62.747</ele>
        <time>2021-09-12T12:50:50Z</time>
      </trkpt>
      <trkpt lat="47.329114" lon="1.089099">
        <ele>60.311</ele>
        <time>2021-09-12T12:51:23Z</time>
      </trkpt>
      <trkpt lat="47.329670" lon="1.090949">
        <ele>56.808</ele>
        <time>2021-09-12T12:51:59Z</time>
      </trkpt>
      <trkpt lat="47.330983" lon="1.090902">
        <ele>60.582</ele>
        <time>2021-09-12T12:52:45Z</time>
      </trkpt>
      <trkpt lat="47.331226" lon="1.091358">
        <ele>66.237</ele>
        <time>2021-09-12T12:56:00Z</time>
      </trkpt>
      <trkpt lat="47.332599" lon="1.090635">
        <ele>75.351</ele>
        <time>2021-09-12T12:57:22Z</time>
      </trkpt>
      <trkpt lat="47.335478" lon="1.090289">
        <ele>91.985</ele>
        <time>2021-09-12T12:59:47Z</time>
      </trkpt>
      <trkpt lat="47.336746" lon="1.090569">
        <ele>95.763</ele>
        <time>2021-09-12T13:00:48Z</time>
      </trkpt>
      <trkpt lat="47.338873" lon="1.091736">
        <ele>105.756</ele>
        <time>2021-09-12T13:02:29Z</time>
      </trkpt>
      <trkpt lat="47.340190" lon="1.092152">
        <ele>111.342</ele>
        <time>2021-09-12T13:03:23Z</time>
      </trkpt>
      <trkpt lat="47.341860" lon="1.092949">
        <ele>119.126</ele>
        <time>2021-09-12T13:04:34Z</time>
      </trkpt>
      <trkpt lat="47.344623" lon="1.095982">
        <ele>120.933</ele>
        <time>2021-09-12T13:06:12Z</time>
      </trkpt>
      <trkpt lat="47.345428" lon="1.097125">
        <ele>119.723</ele>
        <time>2021-09-12T13:06:35Z</time>
      </trkpt>
      <trkpt lat="47.346291" lon="1.098023">
        <ele>119.015</ele>
        <time>2021-09-12T13:06:56Z</time>
      </trkpt>
      <trkpt lat="47.347114" lon="1.099382">
        <ele>119.008</ele>
        <time>2021-09-12T13:07:24Z</time>
      </trkpt>
      <trkpt lat="47.347866" lon="1.100052">
        <ele>123.111</ele>
        <time>2021-09-12T13:07:50Z</time>
      </trkpt>
      <trkpt lat="47.350816" lon="1.101377">
        <ele>125.966</ele>
        <time>2021-09-12T13:09:18Z</time>
      </trkpt>
      <trkpt lat="47.351873" lon="1.101673">
        <ele>126.320</ele>
        <time>2021-09-12T13:10:15Z</time>
      </trkpt>
      <trkpt lat="47.353196" lon="1.102760">
        <ele>128.924</ele>
        <time>2021-09-12T13:10:57Z</time>
      </trkpt>
      <trkpt lat="47.354257" lon="1.103110">
        <ele>128.072</ele>
        <time>2021-09-12T13:11:23Z</time>
      </trkpt>
      <trkpt lat="47.357234" lon="1.102871">
        <ele>127.565</ele>
        <time>2021-09-12T13:12:29Z</time>
      </trkpt>
      <trkpt lat="47.360170" lon="1.103104">
        <ele>127.351</ele>
        <time>2021-09-12T13:13:32Z</time>
      </trkpt>
      <trkpt lat="47.361803" lon="1.103458">
        <ele>126.955</ele>
        <time>2021-09-12T13:14:01Z</time>
      </trkpt>
      <trkpt lat="47.363352" lon="1.104413">
        <ele>125.154</ele>
        <time>2021-09-12T13:14:32Z</time>
      </trkpt>
      <trkpt lat="47.365540" lon="1.104301">
        <ele>134.456</ele>
        <time>2021-09-12T13:15:40Z</time>
      </trkpt>
      <trkpt lat="47.367233" lon="1.104387">
        <ele>137.411</ele>
        <time>2021-09-12T13:16:25Z</time>
      </trkpt>
      <trkpt lat="47.368164" lon="1.104900">
        <ele>137.208</ele>
        <time>2021-09-12T13:17:51Z</time>
      </trkpt>
      <trkpt lat="47.368176" lon="1.104804">
        <ele>132.683</ele>
        <time>2021-09-12T13:22:53Z</time>
      </trkpt>
      <trkpt lat="47.368572" lon="1.105181">
        <ele>131.968</ele>
        <time>2021-09-12T13:23:09Z</time>
      </trkpt>
      <trkpt lat="47.368967" lon="1.105299">
        <ele>132.342</ele>
        <time>2021-09-12T13:23:16Z</time>
      </trkpt>
      <trkpt lat="47.372795" lon="1.107556">
        <ele>130.966</ele>
        <time>2021-09-12T13:24:57Z</time>
      </trkpt>
      <trkpt lat="47.377439" lon="1.107714">
        <ele>132.744</ele>
        <time>2021-09-12T13:26:27Z</time>
      </trkpt>
      <trkpt lat="47.382559" lon="1.106428">
        <ele>126.277</ele>
        <time>2021-09-12T13:27:57Z</time>
      </trkpt>
      <trkpt lat="47.383740" lon="1.106612">
        <ele>125.923</ele>
        <time>2021-09-12T13:28:15Z</time>
      </trkpt>
      <trkpt lat="47.385269" lon="1.106428">
        <ele>122.637</ele>
        <time>2021-09-12T13:28:35Z</time>
      </trkpt>
      <trkpt lat="47.387050" lon="1.106529">
        <ele>123.311</ele>
        <time>2021-09-12T13:29:11Z</time>
      </trkpt>
      <trkpt lat="47.391297" lon="1.105532">
        <ele>111.121</ele>
        <time>2021-09-12T13:30:27Z</time>
      </trkpt>
      <trkpt lat="47.392119" lon="1.105173">
        <ele>107.403</ele>
        <time>2021-09-12T13:30:41Z</time>
      </trkpt>
      <trkpt lat="47.394128" lon="1.103882">
        <ele>106.808</ele>
        <time>2021-09-12T13:31:17Z</time>
      </trkpt>
      <trkpt lat="47.394549" lon="1.103779">
        <ele>105.689</ele>
        <time>2021-09-12T13:31:24Z</time>
      </trkpt>
      <trkpt lat="47.400877" lon="1.105817">
        <ele>104.614</ele>
        <time>2021-09-12T13:33:29Z</time>
      </trkpt>
      <trkpt lat="47.401498" lon="1.105789">
        <ele>103.618</ele>
        <time>2021-09-12T13:33:47Z</time>
      </trkpt>
      <trkpt lat="47.401912" lon="1.105544">
        <ele>103.152</ele>
        <time>2021-09-12T13:34:01Z</time>
      </trkpt>
      <trkpt lat="47.403292" lon="1.103957">
        <ele>107.070</ele>
        <time>2021-09-12T13:34:49Z</time>
      </trkpt>
      <trkpt lat="47.404966" lon="1.102670">
        <ele>107.023</ele>
        <time>2021-09-12T13:35:32Z</time>
      </trkpt>
      <trkpt lat="47.405396" lon="1.101744">
        <ele>105.669</ele>
        <time>2021-09-12T13:35:48Z</time>
      </trkpt>
      <trkpt lat="47.406028" lon="1.099386">
        <ele>106.263</ele>
        <time>2021-09-12T13:36:25Z</time>
      </trkpt>
      <trkpt lat="47.407051" lon="1.097535">
        <ele>105.151</ele>
        <time>2021-09-12T13:36:59Z</time>
      </trkpt>
      <trkpt lat="47.408834" lon="1.095709">
        <ele>104.001</ele>
        <time>2021-09-12T13:37:42Z</time>
      </trkpt>
      <trkpt lat="47.409803" lon="1.093107">
        <ele>96.811</ele>
        <time>2021-09-12T13:38:19Z</time>
      </trkpt>
      <trkpt lat="47.410780" lon="1.091106">
        <ele>92.308</ele>
        <time>2021-09-12T13:38:43Z</time>
      </trkpt>
      <trkpt lat="47.411089" lon="1.090729">
        <ele>92.143</ele>
        <time>2021-09-12T13:38:50Z</time>
      </trkpt>
      <trkpt lat="47.411798" lon="1.090566">
        <ele>89.528</ele>
        <time>2021-09-12T13:39:14Z</time>
      </trkpt>
      <trkpt lat="47.412104" lon="1.089766">
        <ele>92.372</ele>
        <time>2021-09-12T13:39:43Z</time>
      </trkpt>
      <trkpt lat="47.413001" lon="1.089123">
        <ele>82.156</ele>
        <time>2021-09-12T13:40:05Z</time>
      </trkpt>
      <trkpt lat="47.413887" lon="1.086036">
        <ele>84.384</ele>
        <time>2021-09-12T13:41:15Z</time>
      </trkpt>
      <trkpt lat="47.413754" lon="1.083591">
        <ele>81.587</ele>
        <time>2021-09-12T13:41:44Z</time>
      </trkpt>
      <trkpt lat="47.414866" lon="1.081164">
        <ele>72.223</ele>
        <time>2021-09-12T13:42:17Z</time>
      </trkpt>
      <trkpt lat="47.415497" lon="1.080744">
        <ele>75.617</ele>
        <time>2021-09-12T13:42:39Z</time>
      </trkpt>
      <trkpt lat="47.416242" lon="1.079885">
        <ele>78.979</ele>
        <time>2021-09-12T13:43:13Z</time>
      </trkpt>
      <trkpt lat="47.417024" lon="1.079617">
        <ele>76.505</ele>
        <time>2021-09-12T13:43:39Z</time>
      </trkpt>
      <trkpt lat="47.417246" lon="1.079405">
        <ele>74.025</ele>
        <time>2021-09-12T13:43:47Z</time>
      </trkpt>
      <trkpt lat="47.419230" lon="1.076764">
        <ele>88.308</ele>
        <time>2021-09-12T13:45:31Z</time>
      </trkpt>
      <trkpt lat="47.422805" lon="1.072685">
        <ele>106.285</ele>
        <time>2021-09-12T13:48:32Z</time>
      </trkpt>
      <trkpt lat="47.424123" lon="1.070863">
        <ele>101.070</ele>
        <time>2021-09-12T13:49:19Z</time>
      </trkpt>
      <trkpt lat="47.427205" lon="1.068037">
        <ele>106.594</ele>
        <time>2021-09-12T13:52:28Z</time>
      </trkpt>
      <trkpt lat="47.430511" lon="1.064204">
        <ele>102.958</ele>
        <time>2021-09-12T13:54:00Z</time>
      </trkpt>
      <trkpt lat="47.433652" lon="1.061380">
        <ele>104.176</ele>
        <time>2021-09-12T13:55:12Z</time>
      </trkpt>
      <trkpt lat="47.435481" lon="1.059955">
        <ele>100.819</ele>
        <time>2021-09-12T13:55:54Z</time>
      </trkpt>
      <trkpt lat="47.436727" lon="1.058563">
        <ele>97.745</ele>
        <time>2021-09-12T13:56:29Z</time>
      </trkpt>
      <trkpt lat="47.437016" lon="1.059478">
        <ele>98.659</ele>
        <time>2021-09-12T13:56:54Z</time>
      </trkpt>
      <trkpt lat="47.437422" lon="1.062456">
        <ele>107.218</ele>
        <time>2021-09-12T13:58:16Z</time>
      </trkpt>
      <trkpt lat="47.437267" lon="1.064144">
        <ele>107.498</ele>
        <time>2021-09-12T13:58:46Z</time>
      </trkpt>
      <trkpt lat="47.437364" lon="1.066179">
        <ele>105.217</ele>
        <time>2021-09-12T13:59:18Z</time>
      </trkpt>
      <trkpt lat="47.438225" lon="1.070721">
        <ele>100.508</ele>
        <time>2021-09-12T14:00:17Z</time>
      </trkpt>
      <trkpt lat="47.437941" lon="1.071952">
        <ele>99.239</ele>
        <time>2021-09-12T14:00:31Z</time>
      </trkpt>
      <trkpt lat="47.438006" lon="1.074578">
        <ele>93.144</ele>
        <time>2021-09-12T14:00:54Z</time>
      </trkpt>
      <trkpt lat="47.437874" lon="1.076449">
        <ele>102.058</ele>
        <time>2021-09-12T14:01:33Z</time>
      </trkpt>
      <trkpt lat="47.438218" lon="1.079225">
        <ele>99.032</ele>
        <time>2021-09-12T14:02:21Z</time>
      </trkpt>
      <trkpt lat="47.437696" lon="1.082780">
        <ele>101.170</ele>
        <time>2021-09-12T14:03:24Z</time>
      </trkpt>
      <trkpt lat="47.439033" lon="1.085293">
        <ele>102.983</ele>
        <time>2021-09-12T14:04:24Z</time>
      </trkpt>
      <trkpt lat="47.440576" lon="1.086843">
        <ele>104.819</ele>
        <time>2021-09-12T14:05:12Z</time>
      </trkpt>
      <trkpt lat="47.440846" lon="1.087280">
        <ele>106.663</ele>
        <time>2021-09-12T14:05:22Z</time>
      </trkpt>
      <trkpt lat="47.441220" lon="1.088703">
        <ele>108.181</ele>
        <time>2021-09-12T14:05:53Z</time>
      </trkpt>
      <trkpt lat="47.442007" lon="1.090422">
        <ele>103.561</ele>
        <time>2021-09-12T14:07:11Z</time>
      </trkpt>
      <trkpt lat="47.442435" lon="1.093364">
        <ele>105.517</ele>
        <time>2021-09-12T14:07:56Z</time>
      </trkpt>
      <trkpt lat="47.443355" lon="1.095461">
        <ele>106.408</ele>
        <time>2021-09-12T14:08:35Z</time>
      </trkpt>
      <trkpt lat="47.444442" lon="1.099874">
        <ele>103.126</ele>
        <time>2021-09-12T14:09:53Z</time>
      </trkpt>
      <trkpt lat="47.448246" lon="1.099148">
        <ele>103.541</ele>
        <time>2021-09-12T14:11:18Z</time>
      </trkpt>
      <trkpt lat="47.450751" lon="1.097771">
        <ele>100.745</ele>
        <time>2021-09-12T14:12:06Z</time>
      </trkpt>
      <trkpt lat="47.451869" lon="1.096975">
        <ele>101.789</ele>
        <time>2021-09-12T14:12:27Z</time>
      </trkpt>
      <trkpt lat="47.452993" lon="1.096551">
        <ele>97.667</ele>
        <time>2021-09-12T14:12:48Z</time>
      </trkpt>
      <trkpt lat="47.453674" lon="1.098241">
        <ele>81.250</ele>
        <time>2021-09-12T14:13:06Z</time>
      </trkpt>
      <trkpt lat="47.454613" lon="1.099224">
        <ele>67.526</ele>
        <time>2021-09-12T14:13:26Z</time>
      </trkpt>
      <trkpt lat="47.455096" lon="1.098737">
        <ele>62.360</ele>
        <time>2021-09-12T14:14:22Z</time>
      </trkpt>
      <trkpt lat="47.455189" lon="1.098784">
        <ele>62.282</ele>
        <time>2021-09-12T14:14:32Z</time>
      </trkpt>
      <trkpt lat="47.455399" lon="1.099727">
        <ele>63.143</ele>
        <time>2021-09-12T14:16:02Z</time>
      </trkpt>
      <trkpt lat="47.455167" lon="1.099718">
        <ele>69.117</ele>
        <time>2021-09-12T14:26:29Z</time>
      </trkpt>
      <trkpt lat="47.455456" lon="1.100626">
        <ele>70.408</ele>
        <time>2021-09-12T14:27:19Z</time>
      </trkpt>
      <trkpt lat="47.455268" lon="1.099651">
        <ele>72.746</ele>
        <time>2021-09-12T14:27:39Z</time>
      </trkpt>
      <trkpt lat="47.455677" lon="1.099038">
        <ele>75.291</ele>
        <time>2021-09-12T14:29:30Z</time>
      </trkpt>
      <trkpt lat="47.458508" lon="1.097099">
        <ele>67.645</ele>
        <time>2021-09-12T14:30:57Z</time>
      </trkpt>
      <trkpt lat="47.458063" lon="1.094741">
        <ele>60.369</ele>
        <time>2021-09-12T14:31:35Z</time>
      </trkpt>
      <trkpt lat="47.461020" lon="1.093149">
        <ele>66.367</ele>
        <time>2021-09-12T14:32:42Z</time>
      </trkpt>
      <trkpt lat="47.461172" lon="1.093129">
        <ele>66.140</ele>
        <time>2021-09-12T14:32:45Z</time>
      </trkpt>
      <trkpt lat="47.461274" lon="1.093309">
        <ele>64.656</ele>
        <time>2021-09-12T14:32:49Z</time>
      </trkpt>
      <trkpt lat="47.462055" lon="1.096547">
        <ele>64.770</ele>
        <time>2021-09-12T14:34:02Z</time>
      </trkpt>
      <trkpt lat="47.462530" lon="1.097896">
        <ele>67.182</ele>
        <time>2021-09-12T14:36:05Z</time>
      </trkpt>
      <trkpt lat="47.462544" lon="1.102201">
        <ele>75.543</ele>
        <time>2021-09-12T14:39:06Z</time>
      </trkpt>
      <trkpt lat="47.462972" lon="1.105376">
        <ele>65.317</ele>
        <time>2021-09-12T14:40:00Z</time>
      </trkpt>
      <trkpt lat="47.463133" lon="1.105590">
        <ele>65.408</ele>
        <time>2021-09-12T14:40:42Z</time>
      </trkpt>
      <trkpt lat="47.463408" lon="1.106961">
        <ele>64.836</ele>
        <time>2021-09-12T14:45:35Z</time>
      </trkpt>
      <trkpt lat="47.463797" lon="1.110288">
        <ele>57.571</ele>
        <time>2021-09-12T14:46:21Z</time>
      </trkpt>
      <trkpt lat="47.464179" lon="1.111735">
        <ele>60.185</ele>
        <time>2021-09-12T14:46:42Z</time>
      </trkpt>
      <trkpt lat="47.464527" lon="1.114179">
        <ele>60.479</ele>
        <time>2021-09-12T14:47:13Z</time>
      </trkpt>
      <trkpt lat="47.465816" lon="1.119768">
        <ele>63.487</ele>
        <time>2021-09-12T14:48:36Z</time>
      </trkpt>
      <trkpt lat="47.468076" lon="1.127487">
        <ele>63.130</ele>
        <time>2021-09-12T14:51:13Z</time>
      </trkpt>
      <trkpt lat="47.467850" lon="1.130527">
        <ele>66.416</ele>
        <time>2021-09-12T14:51:58Z</time>
      </trkpt>
      <trkpt lat="47.468273" lon="1.132729">
        <ele>64.690</ele>
        <time>2021-09-12T14:52:38Z</time>
      </trkpt>
      <trkpt lat="47.468345" lon="1.134159">
        <ele>63.386</ele>
        <time>2021-09-12T14:52:59Z</time>
      </trkpt>
      <trkpt lat="47.467614" lon="1.135486">
        <ele>65.260</ele>
        <time>2021-09-12T14:53:51Z</time>
      </trkpt>
      <trkpt lat="47.466865" lon="1.134921">
        <ele>63.226</ele>
        <time>2021-09-12T14:54:13Z</time>
      </trkpt>
      <trkpt lat="47.466675" lon="1.134990">
        <ele>63.508</ele>
        <time>2021-09-12T14:54:19Z</time>
      </trkpt>
      <trkpt lat="47.466492" lon="1.136089">
        <ele>69.086</ele>
        <time>2021-09-12T14:54:46Z</time>
      </trkpt>
      <trkpt lat="47.466778" lon="1.136724">
        <ele>75.111</ele>
        <time>2021-09-12T14:55:06Z</time>
      </trkpt>
      <trkpt lat="47.466799" lon="1.137841">
        <ele>74.445</ele>
        <time>2021-09-12T14:55:42Z</time>
      </trkpt>
      <trkpt lat="47.465909" lon="1.138509">
        <ele>81.989</ele>
        <time>2021-09-12T14:56:36Z</time>
      </trkpt>
      <trkpt lat="47.466676" lon="1.139588">
        <ele>86.527</ele>
        <time>2021-09-12T14:57:15Z</time>
      </trkpt>
      <trkpt lat="47.466936" lon="1.140835">
        <ele>88.210</ele>
        <time>2021-09-12T14:57:39Z</time>
      </trkpt>
      <trkpt lat="47.466906" lon="1.142647">
        <ele>89.326</ele>
        <time>2021-09-12T14:58:13Z</time>
      </trkpt>
      <trkpt lat="47.467404" lon="1.143932">
        <ele>88.640</ele>
        <time>2021-09-12T14:58:38Z</time>
      </trkpt>
      <trkpt lat="47.467632" lon="1.146735">
        <ele>93.353</ele>
        <time>2021-09-12T14:59:32Z</time>
      </trkpt>
      <trkpt lat="47.468209" lon="1.148951">
        <ele>97.604</ele>
        <time>2021-09-12T15:00:18Z</time>
      </trkpt>
      <trkpt lat="47.468119" lon="1.150266">
        <ele>96.114</ele>
        <time>2021-09-12T15:00:42Z</time>
      </trkpt>
      <trkpt lat="47.468215" lon="1.152311">
        <ele>95.408</ele>
        <time>2021-09-12T15:01:17Z</time>
      </trkpt>
      <trkpt lat="47.468306" lon="1.152462">
        <ele>96.693</ele>
        <time>2021-09-12T15:01:21Z</time>
      </trkpt>
      <trkpt lat="47.468984" lon="1.152509">
        <ele>97.118</ele>
        <time>2021-09-12T15:01:39Z</time>
      </trkpt>
      <trkpt lat="47.469228" lon="1.154498">
        <ele>97.982</ele>
        <time>2021-09-12T15:04:24Z</time>
      </trkpt>
      <trkpt lat="47.470723" lon="1.158538">
        <ele>98.296</ele>
        <time>2021-09-12T15:05:45Z</time>
      </trkpt>
      <trkpt lat="47.472383" lon="1.161512">
        <ele>98.144</ele>
        <time>2021-09-12T15:06:51Z</time>
      </trkpt>
      <trkpt lat="47.472981" lon="1.162257">
        <ele>94.537</ele>
        <time>2021-09-12T15:07:07Z</time>
      </trkpt>
      <trkpt lat="47.473711" lon="1.164181">
        <ele>86.343</ele>
        <time>2021-09-12T15:07:29Z</time>
      </trkpt>
      <trkpt lat="47.473889" lon="1.164230">
        <ele>82.997</ele>
        <time>2021-09-12T15:07:32Z</time>
      </trkpt>
      <trkpt lat="47.474498" lon="1.163852">
        <ele>78.579</ele>
        <time>2021-09-12T15:07:41Z</time>
      </trkpt>
      <trkpt lat="47.474639" lon="1.163902">
        <ele>74.205</ele>
        <time>2021-09-12T15:07:43Z</time>
      </trkpt>
      <trkpt lat="47.475512" lon="1.165837">
        <ele>69.225</ele>
        <time>2021-09-12T15:08:01Z</time>
      </trkpt>
      <trkpt lat="47.476075" lon="1.166811">
        <ele>68.808</ele>
        <time>2021-09-12T15:08:14Z</time>
      </trkpt>
      <trkpt lat="47.476269" lon="1.166921">
        <ele>70.095</ele>
        <time>2021-09-12T15:08:23Z</time>
      </trkpt>
      <trkpt lat="47.478719" lon="1.176760">
        <ele>64.460</ele>
        <time>2021-09-12T15:10:57Z</time>
      </trkpt>
      <trkpt lat="47.479546" lon="1.179414">
        <ele>63.484</ele>
        <time>2021-09-12T15:11:52Z</time>
      </trkpt>
      <trkpt lat="47.480238" lon="1.182809">
        <ele>63.638</ele>
        <time>2021-09-12T15:13:43Z</time>
      </trkpt>
      <trkpt lat="47.480442" lon="1.183192">
        <ele>66.766</ele>
        <time>2021-09-12T15:14:28Z</time>
      </trkpt>
      <trkpt lat="47.480296" lon="1.183533">
        <ele>67.959</ele>
        <time>2021-09-12T15:14:48Z</time>
      </trkpt>
      <trkpt lat="47.481148" lon="1.187368">
        <ele>74.435</ele>
        <time>2021-09-12T15:21:52Z</time>
      </trkpt>
      <trkpt lat="47.481609" lon="1.187456">
        <ele>67.739</ele>
        <time>2021-09-12T16:26:01Z</time>
      </trkpt>
      <trkpt lat="47.481915" lon="1.187346">
        <ele>65.926</ele>
        <time>2021-09-12T16:26:11Z</time>
      </trkpt>
      <trkpt lat="47.482020" lon="1.187482">
        <ele>65.947</ele>
        <time>2021-09-12T16:26:15Z</time>
      </trkpt>
      <trkpt lat="47.483030" lon="1.189813">
        <ele>64.111</ele>
        <time>2021-09-12T16:27:06Z</time>
      </trkpt>
      <trkpt lat="47.484153" lon="1.193602">
        <ele>61.708</ele>
        <time>2021-09-12T16:28:10Z</time>
      </trkpt>
      <trkpt lat="47.486036" lon="1.197278">
        <ele>60.690</ele>
        <time>2021-09-12T16:29:29Z</time>
      </trkpt>
      <trkpt lat="47.486551" lon="1.198861">
        <ele>60.385</ele>
        <time>2021-09-12T16:29:56Z</time>
      </trkpt>
      <trkpt lat="47.487505" lon="1.200936">
        <ele>62.429</ele>
        <time>2021-09-12T16:30:36Z</time>
      </trkpt>
      <trkpt lat="47.489230" lon="1.203588">
        <ele>54.793</ele>
        <time>2021-09-12T16:31:31Z</time>
      </trkpt>
      <trkpt lat="47.489584" lon="1.204537">
        <ele>61.391</ele>
        <time>2021-09-12T16:31:45Z</time>
      </trkpt>
      <trkpt lat="47.490450" lon="1.208248">
        <ele>63.844</ele>
        <time>2021-09-12T16:32:38Z</time>
      </trkpt>
      <trkpt lat="47.491078" lon="1.212251">
        <ele>65.290</ele>
        <time>2021-09-12T16:33:37Z</time>
      </trkpt>
      <trkpt lat="47.491246" lon="1.215451">
        <ele>61.974</ele>
        <time>2021-09-12T16:34:23Z</time>
      </trkpt>
      <trkpt lat="47.490905" lon="1.221011">
        <ele>56.214</ele>
        <time>2021-09-12T16:35:44Z</time>
      </trkpt>
      <trkpt lat="47.490890" lon="1.223665">
        <ele>59.854</ele>
        <time>2021-09-12T16:36:17Z</time>
      </trkpt>
      <trkpt lat="47.490669" lon="1.225481">
        <ele>64.009</ele>
        <time>2021-09-12T16:36:46Z</time>
      </trkpt>
      <trkpt lat="47.490840" lon="1.227444">
        <ele>70.008</ele>
        <time>2021-09-12T16:37:19Z</time>
      </trkpt>
      <trkpt lat="47.491797" lon="1.234545">
        <ele>52.179</ele>
        <time>2021-09-12T16:39:01Z</time>
      </trkpt>
      <trkpt lat="47.493345" lon="1.240672">
        <ele>62.874</ele>
        <time>2021-09-12T16:40:33Z</time>
      </trkpt>
      <trkpt lat="47.492726" lon="1.243551">
        <ele>64.778</ele>
        <time>2021-09-12T16:41:13Z</time>
      </trkpt>
      <trkpt lat="47.492697" lon="1.244362">
        <ele>64.722</ele>
        <time>2021-09-12T16:41:25Z</time>
      </trkpt>
      <trkpt lat="47.492953" lon="1.244930">
        <ele>65.880</ele>
        <time>2021-09-12T16:41:34Z</time>
      </trkpt>
      <trkpt lat="47.493645" lon="1.245681">
        <ele>64.073</ele>
        <time>2021-09-12T16:41:51Z</time>
      </trkpt>
      <trkpt lat="47.494541" lon="1.247690">
        <ele>65.829</ele>
        <time>2021-09-12T16:42:25Z</time>
      </trkpt>
      <trkpt lat="47.494906" lon="1.251629">
        <ele>64.573</ele>
        <time>2021-09-12T16:43:20Z</time>
      </trkpt>
      <trkpt lat="47.494705" lon="1.253283">
        <ele>61.045</ele>
        <time>2021-09-12T16:43:46Z</time>
      </trkpt>
      <trkpt lat="47.494062" lon="1.255584">
        <ele>66.647</ele>
        <time>2021-09-12T16:44:20Z</time>
      </trkpt>
      <trkpt lat="47.493443" lon="1.256965">
        <ele>67.911</ele>
        <time>2021-09-12T16:44:43Z</time>
      </trkpt>
      <trkpt lat="47.493429" lon="1.257484">
        <ele>65.408</ele>
        <time>2021-09-12T16:44:50Z</time>
      </trkpt>
      <trkpt lat="47.493844" lon="1.259238">
        <ele>64.042</ele>
        <time>2021-09-12T16:45:19Z</time>
      </trkpt>
      <trkpt lat="47.493851" lon="1.260123">
        <ele>66.517</ele>
        <time>2021-09-12T16:45:40Z</time>
      </trkpt>
      <trkpt lat="47.494521" lon="1.260223">
        <ele>69.141</ele>
        <time>2021-09-12T16:46:08Z</time>
      </trkpt>
      <trkpt lat="47.494686" lon="1.258974">
        <ele>74.485</ele>
        <time>2021-09-12T16:46:38Z</time>
      </trkpt>
      <trkpt lat="47.494848" lon="1.258809">
        <ele>73.923</ele>
        <time>2021-09-12T16:47:02Z</time>
      </trkpt>
      <trkpt lat="47.495137" lon="1.258808">
        <ele>75.426</ele>
        <time>2021-09-12T16:47:42Z</time>
      </trkpt>
      <trkpt lat="47.495533" lon="1.259609">
        <ele>79.682</ele>
        <time>2021-09-12T16:49:12Z</time>
      </trkpt>
      <trkpt lat="47.495575" lon="1.261484">
        <ele>77.496</ele>
        <time>2021-09-12T16:49:44Z</time>
      </trkpt>
      <trkpt lat="47.495907" lon="1.263077">
        <ele>75.133</ele>
        <time>2021-09-12T16:50:19Z</time>
      </trkpt>
      <trkpt lat="47.497191" lon="1.263743">
        <ele>86.723</ele>
        <time>2021-09-12T16:51:18Z</time>
      </trkpt>
      <trkpt lat="47.497706" lon="1.264407">
        <ele>89.915</ele>
        <time>2021-09-12T16:51:52Z</time>
      </trkpt>
      <trkpt lat="47.497979" lon="1.264550">
        <ele>88.508</ele>
        <time>2021-09-12T16:52:05Z</time>
      </trkpt>
      <trkpt lat="47.499824" lon="1.268132">
        <ele>90.751</ele>
        <time>2021-09-12T16:54:10Z</time>
      </trkpt>
      <trkpt lat="47.501492" lon="1.270673">
        <ele>91.266</ele>
        <time>2021-09-12T16:55:19Z</time>
      </trkpt>
      <trkpt lat="47.503418" lon="1.271646">
        <ele>94.960</ele>
        <time>2021-09-12T16:56:09Z</time>
      </trkpt>
      <trkpt lat="47.505383" lon="1.273511">
        <ele>90.264</ele>
        <time>2021-09-12T16:57:01Z</time>
      </trkpt>
      <trkpt lat="47.509061" lon="1.278660">
        <ele>95.532</ele>
        <time>2021-09-12T16:59:42Z</time>
      </trkpt>
      <trkpt lat="47.509671" lon="1.279204">
        <ele>93.315</ele>
        <time>2021-09-12T16:59:54Z</time>
      </trkpt>
      <trkpt lat="47.510241" lon="1.280415">
        <ele>91.531</ele>
        <time>2021-09-12T17:00:11Z</time>
      </trkpt>
      <trkpt lat="47.510788" lon="1.281166">
        <ele>92.885</ele>
        <time>2021-09-12T17:00:28Z</time>
      </trkpt>
      <trkpt lat="47.511563" lon="1.281781">
        <ele>89.662</ele>
        <time>2021-09-12T17:00:50Z</time>
      </trkpt>
      <trkpt lat="47.513579" lon="1.281807">
        <ele>77.783</ele>
        <time>2021-09-12T17:01:18Z</time>
      </trkpt>
      <trkpt lat="47.514456" lon="1.281961">
        <ele>72.011</ele>
        <time>2021-09-12T17:01:33Z</time>
      </trkpt>
      <trkpt lat="47.515103" lon="1.282697">
        <ele>68.208</ele>
        <time>2021-09-12T17:01:48Z</time>
      </trkpt>
      <trkpt lat="47.516035" lon="1.283400">
        <ele>69.784</ele>
        <time>2021-09-12T17:02:07Z</time>
      </trkpt>
      <trkpt lat="47.516643" lon="1.284169">
        <ele>69.829</ele>
        <time>2021-09-12T17:02:26Z</time>
      </trkpt>
      <trkpt lat="47.516298" lon="1.285859">
        <ele>76.663</ele>
        <time>2021-09-12T17:03:22Z</time>
      </trkpt>
      <trkpt lat="47.516479" lon="1.287332">
        <ele>80.147</ele>
        <time>2021-09-12T17:04:06Z</time>
      </trkpt>
      <trkpt lat="47.516833" lon="1.288235">
        <ele>78.645</ele>
        <time>2021-09-12T17:04:31Z</time>
      </trkpt>
      <trkpt lat="47.516863" lon="1.288653">
        <ele>78.928</ele>
        <time>2021-09-12T17:04:41Z</time>
      </trkpt>
      <trkpt lat="47.516654" lon="1.289287">
        <ele>81.464</ele>
        <time>2021-09-12T17:05:01Z</time>
      </trkpt>
      <trkpt lat="47.517108" lon="1.291050">
        <ele>83.648</ele>
        <time>2021-09-12T17:06:13Z</time>
      </trkpt>
      <trkpt lat="47.517514" lon="1.291725">
        <ele>82.214</ele>
        <time>2021-09-12T17:06:26Z</time>
      </trkpt>
      <trkpt lat="47.517720" lon="1.291896">
        <ele>85.654</ele>
        <time>2021-09-12T17:06:35Z</time>
      </trkpt>
      <trkpt lat="47.517878" lon="1.290859">
        <ele>84.209</ele>
        <time>2021-09-12T17:07:44Z</time>
      </trkpt>
      <trkpt lat="47.519019" lon="1.289504">
        <ele>81.808</ele>
        <time>2021-09-12T17:08:10Z</time>
      </trkpt>
      <trkpt lat="47.519676" lon="1.287263">
        <ele>74.519</ele>
        <time>2021-09-12T17:08:41Z</time>
      </trkpt>
      <trkpt lat="47.519737" lon="1.286560">
        <ele>70.354</ele>
        <time>2021-09-12T17:08:51Z</time>
      </trkpt>
      <trkpt lat="47.519881" lon="1.286436">
        <ele>68.568</ele>
        <time>2021-09-12T17:08:54Z</time>
      </trkpt>
      <trkpt lat="47.523089" lon="1.289950">
        <ele>65.512</ele>
        <time>2021-09-12T17:10:23Z</time>
      </trkpt>
      <trkpt lat="47.525175" lon="1.293066">
        <ele>68.770</ele>
        <time>2021-09-12T17:11:33Z</time>
      </trkpt>
      <trkpt lat="47.526567" lon="1.294523">
        <ele>67.633</ele>
        <time>2021-09-12T17:12:11Z</time>
      </trkpt>
      <trkpt lat="47.528781" lon="1.297255">
        <ele>58.379</ele>
        <time>2021-09-12T17:13:22Z</time>
      </trkpt>
      <trkpt lat="47.529026" lon="1.297327">
        <ele>61.153</ele>
        <time>2021-09-12T17:13:29Z</time>
      </trkpt>
      <trkpt lat="47.529820" lon="1.296452">
        <ele>57.984</ele>
        <time>2021-09-12T17:13:45Z</time>
      </trkpt>
      <trkpt lat="47.530163" lon="1.296292">
        <ele>58.307</ele>
        <time>2021-09-12T17:13:51Z</time>
      </trkpt>
      <trkpt lat="47.535190" lon="1.301387">
        <ele>62.117</ele>
        <time>2021-09-12T17:16:35Z</time>
      </trkpt>
      <trkpt lat="47.537883" lon="1.305636">
        <ele>67.408</ele>
        <time>2021-09-12T17:18:17Z</time>
      </trkpt>
      <trkpt lat="47.539056" lon="1.303972">
        <ele>65.346</ele>
        <time>2021-09-12T17:18:57Z</time>
      </trkpt>
      <trkpt lat="47.539294" lon="1.303896">
        <ele>63.111</ele>
        <time>2021-09-12T17:19:02Z</time>
      </trkpt>
      <trkpt lat="47.539581" lon="1.304045">
        <ele>59.325</ele>
        <time>2021-09-12T17:19:09Z</time>
      </trkpt>
      <trkpt lat="47.540603" lon="1.305568">
        <ele>65.069</ele>
        <time>2021-09-12T17:19:45Z</time>
      </trkpt>
      <trkpt lat="47.541179" lon="1.305875">
        <ele>67.417</ele>
        <time>2021-09-12T17:19:59Z</time>
      </trkpt>
      <trkpt lat="47.541540" lon="1.306439">
        <ele>67.770</ele>
        <time>2021-09-12T17:20:11Z</time>
      </trkpt>
      <trkpt lat="47.541859" lon="1.307643">
        <ele>67.466</ele>
        <time>2021-09-12T17:20:31Z</time>
      </trkpt>
      <trkpt lat="47.542463" lon="1.308744">
        <ele>63.790</ele>
        <time>2021-09-12T17:20:53Z</time>
      </trkpt>
      <trkpt lat="47.542582" lon="1.309672">
        <ele>66.059</ele>
        <time>2021-09-12T17:21:11Z</time>
      </trkpt>
      <trkpt lat="47.543041" lon="1.309676">
        <ele>66.603</ele>
        <time>2021-09-12T17:21:22Z</time>
      </trkpt>
      <trkpt lat="47.543315" lon="1.309456">
        <ele>67.423</ele>
        <time>2021-09-12T17:21:30Z</time>
      </trkpt>
      <trkpt lat="47.548747" lon="1.301857">
        <ele>68.208</ele>
        <time>2021-09-12T17:24:12Z</time>
      </trkpt>
      <trkpt lat="47.548953" lon="1.301861">
        <ele>68.323</ele>
        <time>2021-09-12T17:24:23Z</time>
      </trkpt>
      <trkpt lat="47.549494" lon="1.301081">
        <ele>69.138</ele>
        <time>2021-09-12T17:24:41Z</time>
      </trkpt>
      <trkpt lat="47.550874" lon="1.302209">
        <ele>69.312</ele>
        <time>2021-09-12T17:25:30Z</time>
      </trkpt>
      <trkpt lat="47.550650" lon="1.301716">
        <ele>69.596</ele>
        <time>2021-09-12T17:25:48Z</time>
      </trkpt>
      <trkpt lat="47.551849" lon="1.299244">
        <ele>64.774</ele>
        <time>2021-09-12T17:26:37Z</time>
      </trkpt>
      <trkpt lat="47.553159" lon="1.300356">
        <ele>59.697</ele>
        <time>2021-09-12T17:27:07Z</time>
      </trkpt>
      <trkpt lat="47.553683" lon="1.299500">
        <ele>68.173</ele>
        <time>2021-09-12T17:27:27Z</time>
      </trkpt>
      <trkpt lat="47.554314" lon="1.299893">
        <ele>67.917</ele>
        <time>2021-09-12T17:27:41Z</time>
      </trkpt>
      <trkpt lat="47.554770" lon="1.300441">
        <ele>65.723</ele>
        <time>2021-09-12T17:27:53Z</time>
      </trkpt>
      <trkpt lat="47.556240" lon="1.301307">
        <ele>63.283</ele>
        <time>2021-09-12T17:28:24Z</time>
      </trkpt>
      <trkpt lat="47.561402" lon="1.305296">
        <ele>67.811</ele>
        <time>2021-09-12T17:30:52Z</time>
      </trkpt>
      <trkpt lat="47.564894" lon="1.308754">
        <ele>67.608</ele>
        <time>2021-09-12T17:32:27Z</time>
      </trkpt>
      <trkpt lat="47.566981" lon="1.311010">
        <ele>68.950</ele>
        <time>2021-09-12T17:33:22Z</time>
      </trkpt>
      <trkpt lat="47.567681" lon="1.312215">
        <ele>67.145</ele>
        <time>2021-09-12T17:33:49Z</time>
      </trkpt>
      <trkpt lat="47.568506" lon="1.312917">
        <ele>64.619</ele>
        <time>2021-09-12T17:34:11Z</time>
      </trkpt>
      <trkpt lat="47.569057" lon="1.313686">
        <ele>66.763</ele>
        <time>2021-09-12T17:34:29Z</time>
      </trkpt>
      <trkpt lat="47.572362" lon="1.320085">
        <ele>69.021</ele>
        <time>2021-09-12T17:36:34Z</time>
      </trkpt>
      <trkpt lat="47.573908" lon="1.323380">
        <ele>69.134</ele>
        <time>2021-09-12T17:37:38Z</time>
      </trkpt>
      <trkpt lat="47.574046" lon="1.323551">
        <ele>70.330</ele>
        <time>2021-09-12T17:37:45Z</time>
      </trkpt>
      <trkpt lat="47.574321" lon="1.323583">
        <ele>73.914</ele>
        <time>2021-09-12T17:37:57Z</time>
      </trkpt>
      <trkpt lat="47.574610" lon="1.323999">
        <ele>75.851</ele>
        <time>2021-09-12T17:38:14Z</time>
      </trkpt>
      <trkpt lat="47.574230" lon="1.323111">
        <ele>75.101</ele>
        <time>2021-09-12T17:38:47Z</time>
      </trkpt>
      <trkpt lat="47.574280" lon="1.322967">
        <ele>73.711</ele>
        <time>2021-09-12T17:38:51Z</time>
      </trkpt>
      <trkpt lat="47.574432" lon="1.323000">
        <ele>72.308</ele>
        <time>2021-09-12T17:38:55Z</time>
      </trkpt>
      <trkpt lat="47.575670" lon="1.325793">
        <ele>69.933</ele>
        <time>2021-09-12T17:39:47Z</time>
      </trkpt>
      <trkpt lat="47.577498" lon="1.329105">
        <ele>69.088</ele>
        <time>2021-09-12T17:41:47Z</time>
      </trkpt>
      <trkpt lat="47.578414" lon="1.330276">
        <ele>62.862</ele>
        <time>2021-09-12T17:42:14Z</time>
      </trkpt>
      <trkpt lat="47.579086" lon="1.331482">
        <ele>65.366</ele>
        <time>2021-09-12T17:42:48Z</time>
      </trkpt>
      <trkpt lat="47.580816" lon="1.333652">
        <ele>65.344</ele>
        <time>2021-09-12T17:43:46Z</time>
      </trkpt>
      <trkpt lat="47.584211" lon="1.339021">
        <ele>77.017</ele>
        <time>2021-09-12T17:51:27Z</time>
      </trkpt>
      <trkpt lat="47.584016" lon="1.339328">
        <ele>76.283</ele>
        <time>2021-09-12T17:52:28Z</time>
      </trkpt>
      <trkpt lat="47.583796" lon="1.339187">
        <ele>75.937</ele>
        <time>2021-09-12T17:54:52Z</time>
      </trkpt>
      <trkpt lat="47.583857" lon="1.339093">
        <ele>81.734</ele>
        <time>2021-09-12T17:57:24Z</time>
      </trkpt>
      <trkpt lat="47.583920" lon="1.339203">
        <ele>85.555</ele>
        <time>2021-09-12T17:59:21Z</time>
      </trkpt>
      <trkpt lat="47.583752" lon="1.339197">
        <ele>83.010</ele>
        <time>2021-09-12T18:00:42Z</time>
      </trkpt>
      <trkpt lat="47.583728" lon="1.339330">
        <ele>83.008</ele>
        <time>2021-09-12T18:00:54Z</time>
      </trkpt>
      <trkpt lat="47.583833" lon="1.339373">
        <ele>70.751</ele>
        <time>2021-09-12T18:07:46Z</time>
      </trkpt>
      <trkpt lat="47.583848" lon="1.339142">
        <ele>79.556</ele>
        <time>2021-09-12T18:13:06Z</time>
      </trkpt>
      <trkpt lat="47.584042" lon="1.339274">
        <ele>77.540</ele>
        <time>2021-09-12T18:13:19Z</time>
      </trkpt>
      <trkpt lat="47.584212" lon="1.339163">
        <ele>78.824</ele>
        <time>2021-09-12T18:13:43Z</time>
      </trkpt>
      <trkpt lat="47.584875" lon="1.340044">
        <ele>75.582</ele>
        <time>2021-09-12T18:14:11Z</time>
      </trkpt>
      <trkpt lat="47.585529" lon="1.341314">
        <ele>72.275</ele>
        <time>2021-09-12T18:14:43Z</time>
      </trkpt>
      <trkpt lat="47.585730" lon="1.343039">
        <ele>67.351</ele>
        <time>2021-09-12T18:15:18Z</time>
      </trkpt>
      <trkpt lat="47.586211" lon="1.344204">
        <ele>65.195</ele>
        <time>2021-09-12T18:15:40Z</time>
      </trkpt>
      <trkpt lat="47.589179" lon="1.350038">
        <ele>70.328</ele>
        <time>2021-09-12T18:17:49Z</time>
      </trkpt>
      <trkpt lat="47.590242" lon="1.354245">
        <ele>72.189</ele>
        <time>2021-09-12T18:19:12Z</time>
      </trkpt>
      <trkpt lat="47.590704" lon="1.355023">
        <ele>70.817</ele>
        <time>2021-09-12T18:19:35Z</time>
      </trkpt>
      <trkpt lat="47.591430" lon="1.355405">
        <ele>72.008</ele>
        <time>2021-09-12T18:20:03Z</time>
      </trkpt>
      <trkpt lat="47.592919" lon="1.357585">
        <ele>68.220</ele>
        <time>2021-09-12T18:20:51Z</time>
      </trkpt>
      <trkpt lat="47.596456" lon="1.364741">
        <ele>70.535</ele>
        <time>2021-09-12T18:23:21Z</time>
      </trkpt>
      <trkpt lat="47.596877" lon="1.365338">
        <ele>74.659</ele>
        <time>2021-09-12T18:23:43Z</time>
      </trkpt>
      <trkpt lat="47.597502" lon="1.365865">
        <ele>72.173</ele>
        <time>2021-09-12T18:23:58Z</time>
      </trkpt>
      <trkpt lat="47.599439" lon="1.369450">
        <ele>67.241</ele>
        <time>2021-09-12T18:25:19Z</time>
      </trkpt>
      <trkpt lat="47.599629" lon="1.369659">
        <ele>68.134</ele>
        <time>2021-09-12T18:25:25Z</time>
      </trkpt>
      <trkpt lat="47.600009" lon="1.369619">
        <ele>68.720</ele>
        <time>2021-09-12T18:25:34Z</time>
      </trkpt>
      <trkpt lat="47.600684" lon="1.370580">
        <ele>72.594</ele>
        <time>2021-09-12T18:25:58Z</time>
      </trkpt>
      <trkpt lat="47.600631" lon="1.371095">
        <ele>72.675</ele>
        <time>2021-09-12T18:26:12Z</time>
      </trkpt>
      <trkpt lat="47.600872" lon="1.371541">
        <ele>70.728</ele>
        <time>2021-09-12T18:26:26Z</time>
      </trkpt>
      <trkpt lat="47.601048" lon="1.371604">
        <ele>69.120</ele>
        <time>2021-09-12T18:26:30Z</time>
      </trkpt>
      <trkpt lat="47.601521" lon="1.371273">
        <ele>67.608</ele>
        <time>2021-09-12T18:26:41Z</time>
      </trkpt>
      <trkpt lat="47.602183" lon="1.371207">
        <ele>71.225</ele>
        <time>2021-09-12T18:26:57Z</time>
      </trkpt>
      <trkpt lat="47.603666" lon="1.371875">
        <ele>71.590</ele>
        <time>2021-09-12T18:27:33Z</time>
      </trkpt>
      <trkpt lat="47.605321" lon="1.373111">
        <ele>73.464</ele>
        <time>2021-09-12T18:28:18Z</time>
      </trkpt>
      <trkpt lat="47.605700" lon="1.373506">
        <ele>73.818</ele>
        <time>2021-09-12T18:28:32Z</time>
      </trkpt>
      <trkpt lat="47.606342" lon="1.375006">
        <ele>75.556</ele>
        <time>2021-09-12T18:29:06Z</time>
      </trkpt>
      <trkpt lat="47.607299" lon="1.376426">
        <ele>71.389</ele>
        <time>2021-09-12T18:29:46Z</time>
      </trkpt>
      <trkpt lat="47.607643" lon="1.377279">
        <ele>73.255</ele>
        <time>2021-09-12T18:30:09Z</time>
      </trkpt>
      <trkpt lat="47.606147" lon="1.376261">
        <ele>73.719</ele>
        <time>2021-09-12T18:31:05Z</time>
      </trkpt>
      <trkpt lat="47.605950" lon="1.376421">
        <ele>73.461</ele>
        <time>2021-09-12T18:32:30Z</time>
      </trkpt>
      <trkpt lat="47.606049" lon="1.376136">
        <ele>76.621</ele>
        <time>2021-09-12T18:42:33Z</time>
      </trkpt>
      <trkpt lat="47.605444" lon="1.375683">
        <ele>75.913</ele>
        <time>2021-09-12T18:43:00Z</time>
      </trkpt>
      <trkpt lat="47.605615" lon="1.374167">
        <ele>69.808</ele>
        <time>2021-09-12T18:43:49Z</time>
      </trkpt>
      <trkpt lat="47.604567" lon="1.373336">
        <ele>71.944</ele>
        <time>2021-09-12T18:44:48Z</time>
      </trkpt>
      <trkpt lat="47.604903" lon="1.373569">
        <ele>75.369</ele>
        <time>2021-09-12T18:45:09Z</time>
      </trkpt>
      <trkpt lat="47.604776" lon="1.374358">
        <ele>72.543</ele>
        <time>2021-09-12T18:46:12Z</time>
      </trkpt>
      <trkpt lat="47.604880" lon="1.374240">
        <ele>71.087</ele>
        <time>2021-09-12T18:46:27Z</time>
      </trkpt>
      <trkpt lat="47.605042" lon="1.374783">
        <ele>70.115</ele>
        <time>2021-09-12T18:46:47Z</time>
      </trkpt>
      <trkpt lat="47.605300" lon="1.374813">
        <ele>70.748</ele>
        <time>2021-09-12T18:47:01Z</time>
      </trkpt>
      <trkpt lat="47.605505" lon="1.375064">
        <ele>70.554</ele>
        <time>2021-09-12T18:47:17Z</time>
      </trkpt>
      <trkpt lat="47.605684" lon="1.374547">
        <ele>70.918</ele>
        <time>2021-09-12T18:47:38Z</time>
      </trkpt>
      <trkpt lat="47.605569" lon="1.374106">
        <ele>71.729</ele>
        <time>2021-09-12T18:47:53Z</time>
      </trkpt>
      <trkpt lat="47.604960" lon="1.373584">
        <ele>70.700</ele>
        <time>2021-09-12T18:49:10Z</time>
      </trkpt>
      <trkpt lat="47.604767" lon="1.374318">
        <ele>69.320</ele>
        <time>2021-09-12T18:49:30Z</time>
      </trkpt>
      <trkpt lat="47.604486" lon="1.374432">
        <ele>72.408</ele>
        <time>2021-09-12T18:50:09Z</time>
      </trkpt>
      <trkpt lat="47.604679" lon="1.374510">
        <ele>73.320</ele>
        <time>2021-09-12T18:50:24Z</time>
      </trkpt>
      <trkpt lat="47.604827" lon="1.374213">
        <ele>74.075</ele>
        <time>2021-09-12T18:50:36Z</time>
      </trkpt>
      <trkpt lat="47.605051" lon="1.374359">
        <ele>74.329</ele>
        <time>2021-09-12T18:51:14Z</time>
      </trkpt>
      <trkpt lat="47.605122" lon="1.374490">
        <ele>74.171</ele>
        <time>2021-09-13T10:03:05Z</time>
      </trkpt>
      <trkpt lat="47.605243" lon="1.374607">
        <ele>108.341</ele>
        <time>2021-09-13T10:03:19Z</time>
      </trkpt>
      <trkpt lat="47.605518" lon="1.374061">
        <ele>133.315</ele>
        <time>2021-09-13T10:03:45Z</time>
      </trkpt>
      <trkpt lat="47.605747" lon="1.374529">
        <ele>133.308</ele>
        <time>2021-09-13T10:04:00Z</time>
      </trkpt>
      <trkpt lat="47.605964" lon="1.374072">
        <ele>131.055</ele>
        <time>2021-09-13T10:04:21Z</time>
      </trkpt>
      <trkpt lat="47.605643" lon="1.373392">
        <ele>129.310</ele>
        <time>2021-09-13T10:04:34Z</time>
      </trkpt>
      <trkpt lat="47.604238" lon="1.372241">
        <ele>130.244</ele>
        <time>2021-09-13T10:05:09Z</time>
      </trkpt>
      <trkpt lat="47.602129" lon="1.371196">
        <ele>126.286</ele>
        <time>2021-09-13T10:05:52Z</time>
      </trkpt>
      <trkpt lat="47.601460" lon="1.371245">
        <ele>124.768</ele>
        <time>2021-09-13T10:06:04Z</time>
      </trkpt>
      <trkpt lat="47.601059" lon="1.371577">
        <ele>125.838</ele>
        <time>2021-09-13T10:06:15Z</time>
      </trkpt>
      <trkpt lat="47.600841" lon="1.371471">
        <ele>129.799</ele>
        <time>2021-09-13T10:06:24Z</time>
      </trkpt>
      <trkpt lat="47.600647" lon="1.371097">
        <ele>133.397</ele>
        <time>2021-09-13T10:06:36Z</time>
      </trkpt>
      <trkpt lat="47.600645" lon="1.370465">
        <ele>129.844</ele>
        <time>2021-09-13T10:06:47Z</time>
      </trkpt>
      <trkpt lat="47.600053" lon="1.369645">
        <ele>128.005</ele>
        <time>2021-09-13T10:07:05Z</time>
      </trkpt>
      <trkpt lat="47.599650" lon="1.369674">
        <ele>124.315</ele>
        <time>2021-09-13T10:07:14Z</time>
      </trkpt>
      <trkpt lat="47.599440" lon="1.369457">
        <ele>126.908</ele>
        <time>2021-09-13T10:07:20Z</time>
      </trkpt>
      <trkpt lat="47.597434" lon="1.365956">
        <ele>140.482</ele>
        <time>2021-09-13T10:08:24Z</time>
      </trkpt>
      <trkpt lat="47.596930" lon="1.365468">
        <ele>133.687</ele>
        <time>2021-09-13T10:08:42Z</time>
      </trkpt>
      <trkpt lat="47.595331" lon="1.362781">
        <ele>137.041</ele>
        <time>2021-09-13T10:09:36Z</time>
      </trkpt>
      <trkpt lat="47.593781" lon="1.359384">
        <ele>126.343</ele>
        <time>2021-09-13T10:10:32Z</time>
      </trkpt>
      <trkpt lat="47.593803" lon="1.359601">
        <ele>125.355</ele>
        <time>2021-09-13T10:10:44Z</time>
      </trkpt>
      <trkpt lat="47.592519" lon="1.357266">
        <ele>132.055</ele>
        <time>2021-09-13T10:12:08Z</time>
      </trkpt>
      <trkpt lat="47.592016" lon="1.356662">
        <ele>137.216</ele>
        <time>2021-09-13T10:12:28Z</time>
      </trkpt>
      <trkpt lat="47.595100" lon="1.352672">
        <ele>144.764</ele>
        <time>2021-09-13T10:14:24Z</time>
      </trkpt>
      <trkpt lat="47.595784" lon="1.352084">
        <ele>143.594</ele>
        <time>2021-09-13T10:14:44Z</time>
      </trkpt>
      <trkpt lat="47.596688" lon="1.352227">
        <ele>140.557</ele>
        <time>2021-09-13T10:15:08Z</time>
      </trkpt>
      <trkpt lat="47.596933" lon="1.352135">
        <ele>138.722</ele>
        <time>2021-09-13T10:15:17Z</time>
      </trkpt>
      <trkpt lat="47.596749" lon="1.352332">
        <ele>135.908</ele>
        <time>2021-09-13T10:15:29Z</time>
      </trkpt>
      <trkpt lat="47.596310" lon="1.352432">
        <ele>135.617</ele>
        <time>2021-09-13T10:15:39Z</time>
      </trkpt>
      <trkpt lat="47.596211" lon="1.353497">
        <ele>130.042</ele>
        <time>2021-09-13T10:15:55Z</time>
      </trkpt>
      <trkpt lat="47.595909" lon="1.354129">
        <ele>129.726</ele>
        <time>2021-09-13T10:16:07Z</time>
      </trkpt>
      <trkpt lat="47.595494" lon="1.354527">
        <ele>134.558</ele>
        <time>2021-09-13T10:16:21Z</time>
      </trkpt>
      <trkpt lat="47.593557" lon="1.351173">
        <ele>142.990</ele>
        <time>2021-09-13T10:17:28Z</time>
      </trkpt>
      <trkpt lat="47.593273" lon="1.350150">
        <ele>143.760</ele>
        <time>2021-09-13T10:17:44Z</time>
      </trkpt>
      <trkpt lat="47.592741" lon="1.349008">
        <ele>143.431</ele>
        <time>2021-09-13T10:18:04Z</time>
      </trkpt>
      <trkpt lat="47.592183" lon="1.346988">
        <ele>139.679</ele>
        <time>2021-09-13T10:18:35Z</time>
      </trkpt>
      <trkpt lat="47.591126" lon="1.344569">
        <ele>138.615</ele>
        <time>2021-09-13T10:19:17Z</time>
      </trkpt>
      <trkpt lat="47.589859" lon="1.342401">
        <ele>138.165</ele>
        <time>2021-09-13T10:20:40Z</time>
      </trkpt>
      <trkpt lat="47.589432" lon="1.341386">
        <ele>137.111</ele>
        <time>2021-09-13T10:21:14Z</time>
      </trkpt>
      <trkpt lat="47.588458" lon="1.339858">
        <ele>139.708</ele>
        <time>2021-09-13T10:21:54Z</time>
      </trkpt>
      <trkpt lat="47.588145" lon="1.339679">
        <ele>143.579</ele>
        <time>2021-09-13T10:22:07Z</time>
      </trkpt>
      <trkpt lat="47.587677" lon="1.339040">
        <ele>145.524</ele>
        <time>2021-09-13T10:22:32Z</time>
      </trkpt>
      <trkpt lat="47.587892" lon="1.338824">
        <ele>143.428</ele>
        <time>2021-09-13T10:23:18Z</time>
      </trkpt>
      <trkpt lat="47.586706" lon="1.337265">
        <ele>135.410</ele>
        <time>2021-09-13T10:25:01Z</time>
      </trkpt>
      <trkpt lat="47.586168" lon="1.336216">
        <ele>137.652</ele>
        <time>2021-09-13T10:26:00Z</time>
      </trkpt>
      <trkpt lat="47.586243" lon="1.335860">
        <ele>136.992</ele>
        <time>2021-09-13T10:26:10Z</time>
      </trkpt>
      <trkpt lat="47.586635" lon="1.335324">
        <ele>138.073</ele>
        <time>2021-09-13T10:26:28Z</time>
      </trkpt>
      <trkpt lat="47.586786" lon="1.335297">
        <ele>139.141</ele>
        <time>2021-09-13T10:26:46Z</time>
      </trkpt>
      <trkpt lat="47.587571" lon="1.336101">
        <ele>133.745</ele>
        <time>2021-09-13T10:28:41Z</time>
      </trkpt>
      <trkpt lat="47.587865" lon="1.337099">
        <ele>133.847</ele>
        <time>2021-09-13T10:29:22Z</time>
      </trkpt>
      <trkpt lat="47.587895" lon="1.336776">
        <ele>146.411</ele>
        <time>2021-09-13T10:31:23Z</time>
      </trkpt>
      <trkpt lat="47.587277" lon="1.335815">
        <ele>136.308</ele>
        <time>2021-09-13T10:32:32Z</time>
      </trkpt>
      <trkpt lat="47.587528" lon="1.334875">
        <ele>130.992</ele>
        <time>2021-09-13T10:33:38Z</time>
      </trkpt>
      <trkpt lat="47.587760" lon="1.335409">
        <ele>140.057</ele>
        <time>2021-09-13T10:34:31Z</time>
      </trkpt>
      <trkpt lat="47.588103" lon="1.335569">
        <ele>149.711</ele>
        <time>2021-09-13T10:35:17Z</time>
      </trkpt>
      <trkpt lat="47.588256" lon="1.335380">
        <ele>149.943</ele>
        <time>2021-09-13T10:35:39Z</time>
      </trkpt>
      <trkpt lat="47.588153" lon="1.335593">
        <ele>151.965</ele>
        <time>2021-09-13T10:36:25Z</time>
      </trkpt>
      <trkpt lat="47.588054" lon="1.335433">
        <ele>152.025</ele>
        <time>2021-09-13T10:36:43Z</time>
      </trkpt>
      <trkpt lat="47.588142" lon="1.335542">
        <ele>161.766</ele>
        <time>2021-09-13T10:40:29Z</time>
      </trkpt>
      <trkpt lat="47.588052" lon="1.335449">
        <ele>161.774</ele>
        <time>2021-09-13T10:40:52Z</time>
      </trkpt>
      <trkpt lat="47.588244" lon="1.335039">
        <ele>166.792</ele>
        <time>2021-09-13T10:41:41Z</time>
      </trkpt>
      <trkpt lat="47.588269" lon="1.335603">
        <ele>169.873</ele>
        <time>2021-09-13T10:43:04Z</time>
      </trkpt>
      <trkpt lat="47.588343" lon="1.334759">
        <ele>166.820</ele>
        <time>2021-09-13T10:44:12Z</time>
      </trkpt>
      <trkpt lat="47.587909" lon="1.335409">
        <ele>159.908</ele>
        <time>2021-09-13T10:45:08Z</time>
      </trkpt>
      <trkpt lat="47.587558" lon="1.334795">
        <ele>148.687</ele>
        <time>2021-09-13T10:45:56Z</time>
      </trkpt>
      <trkpt lat="47.587331" lon="1.335818">
        <ele>147.392</ele>
        <time>2021-09-13T10:46:23Z</time>
      </trkpt>
      <trkpt lat="47.586776" lon="1.335288">
        <ele>139.626</ele>
        <time>2021-09-13T10:50:11Z</time>
      </trkpt>
      <trkpt lat="47.586278" lon="1.335731">
        <ele>134.098</ele>
        <time>2021-09-13T10:50:47Z</time>
      </trkpt>
      <trkpt lat="47.586183" lon="1.335686">
        <ele>134.480</ele>
        <time>2021-09-13T10:50:51Z</time>
      </trkpt>
      <trkpt lat="47.585803" lon="1.334141">
        <ele>136.780</ele>
        <time>2021-09-13T10:51:41Z</time>
      </trkpt>
      <trkpt lat="47.586072" lon="1.333849">
        <ele>135.071</ele>
        <time>2021-09-13T10:52:03Z</time>
      </trkpt>
      <trkpt lat="47.585909" lon="1.333258">
        <ele>130.819</ele>
        <time>2021-09-13T10:52:22Z</time>
      </trkpt>
      <trkpt lat="47.585767" lon="1.333146">
        <ele>129.677</ele>
        <time>2021-09-13T10:52:28Z</time>
      </trkpt>
      <trkpt lat="47.585909" lon="1.333567">
        <ele>129.761</ele>
        <time>2021-09-13T10:52:41Z</time>
      </trkpt>
      <trkpt lat="47.585761" lon="1.333689">
        <ele>138.227</ele>
        <time>2021-09-13T10:52:47Z</time>
      </trkpt>
      <trkpt lat="47.584640" lon="1.332456">
        <ele>140.108</ele>
        <time>2021-09-13T10:54:21Z</time>
      </trkpt>
      <trkpt lat="47.584661" lon="1.332060">
        <ele>140.365</ele>
        <time>2021-09-13T10:54:46Z</time>
      </trkpt>
      <trkpt lat="47.584387" lon="1.331224">
        <ele>138.440</ele>
        <time>2021-09-13T10:55:35Z</time>
      </trkpt>
      <trkpt lat="47.583785" lon="1.330622">
        <ele>140.234</ele>
        <time>2021-09-13T10:56:20Z</time>
      </trkpt>
      <trkpt lat="47.582747" lon="1.328597">
        <ele>142.986</ele>
        <time>2021-09-13T11:00:12Z</time>
      </trkpt>
      <trkpt lat="47.582830" lon="1.328419">
        <ele>143.668</ele>
        <time>2021-09-13T11:00:20Z</time>
      </trkpt>
      <trkpt lat="47.582754" lon="1.328700">
        <ele>139.888</ele>
        <time>2021-09-13T11:00:45Z</time>
      </trkpt>
      <trkpt lat="47.583395" lon="1.329643">
        <ele>137.529</ele>
        <time>2021-09-13T11:01:27Z</time>
      </trkpt>
      <trkpt lat="47.583765" lon="1.330505">
        <ele>136.817</ele>
        <time>2021-09-13T11:01:49Z</time>
      </trkpt>
      <trkpt lat="47.584209" lon="1.330335">
        <ele>145.872</ele>
        <time>2021-09-13T11:03:14Z</time>
      </trkpt>
      <trkpt lat="47.584663" lon="1.330868">
        <ele>145.413</ele>
        <time>2021-09-13T11:03:39Z</time>
      </trkpt>
      <trkpt lat="47.584738" lon="1.331213">
        <ele>147.214</ele>
        <time>2021-09-13T11:04:31Z</time>
      </trkpt>
      <trkpt lat="47.585327" lon="1.329946">
        <ele>146.108</ele>
        <time>2021-09-13T11:05:50Z</time>
      </trkpt>
      <trkpt lat="47.585847" lon="1.330049">
        <ele>148.515</ele>
        <time>2021-09-13T11:06:24Z</time>
      </trkpt>
      <trkpt lat="47.586279" lon="1.329288">
        <ele>161.620</ele>
        <time>2021-09-13T11:07:49Z</time>
      </trkpt>
      <trkpt lat="47.586126" lon="1.327894">
        <ele>165.084</ele>
        <time>2021-09-13T11:08:31Z</time>
      </trkpt>
      <trkpt lat="47.585559" lon="1.327143">
        <ele>168.816</ele>
        <time>2021-09-13T11:09:02Z</time>
      </trkpt>
      <trkpt lat="47.584833" lon="1.325730">
        <ele>166.178</ele>
        <time>2021-09-13T11:09:58Z</time>
      </trkpt>
      <trkpt lat="47.584789" lon="1.325888">
        <ele>171.188</ele>
        <time>2021-09-13T11:13:00Z</time>
      </trkpt>
      <trkpt lat="47.585442" lon="1.325179">
        <ele>173.249</ele>
        <time>2021-09-13T11:14:06Z</time>
      </trkpt>
      <trkpt lat="47.585777" lon="1.325654">
        <ele>169.787</ele>
        <time>2021-09-13T11:14:31Z</time>
      </trkpt>
      <trkpt lat="47.585828" lon="1.326181">
        <ele>168.544</ele>
        <time>2021-09-13T11:14:43Z</time>
      </trkpt>
      <trkpt lat="47.586012" lon="1.326297">
        <ele>165.705</ele>
        <time>2021-09-13T11:15:34Z</time>
      </trkpt>
      <trkpt lat="47.585978" lon="1.326173">
        <ele>161.315</ele>
        <time>2021-09-13T11:18:39Z</time>
      </trkpt>
      <trkpt lat="47.585881" lon="1.326297">
        <ele>165.608</ele>
        <time>2021-09-13T11:22:37Z</time>
      </trkpt>
      <trkpt lat="47.586178" lon="1.326540">
        <ele>162.742</ele>
        <time>2021-09-13T11:24:37Z</time>
      </trkpt>
      <trkpt lat="47.585670" lon="1.326127">
        <ele>138.387</ele>
        <time>2021-09-13T11:35:04Z</time>
      </trkpt>
      <trkpt lat="47.585912" lon="1.326197">
        <ele>144.041</ele>
        <time>2021-09-13T11:39:07Z</time>
      </trkpt>
      <trkpt lat="47.585585" lon="1.326062">
        <ele>163.233</ele>
        <time>2021-09-13T11:40:09Z</time>
      </trkpt>
      <trkpt lat="47.585208" lon="1.326553">
        <ele>167.075</ele>
        <time>2021-09-13T11:40:38Z</time>
      </trkpt>
      <trkpt lat="47.584857" lon="1.325973">
        <ele>164.245</ele>
        <time>2021-09-13T11:40:54Z</time>
      </trkpt>
      <trkpt lat="47.585989" lon="1.328093">
        <ele>161.326</ele>
        <time>2021-09-13T11:41:43Z</time>
      </trkpt>
      <trkpt lat="47.586177" lon="1.329133">
        <ele>157.614</ele>
        <time>2021-09-13T11:41:54Z</time>
      </trkpt>
      <trkpt lat="47.585812" lon="1.329913">
        <ele>148.268</ele>
        <time>2021-09-13T11:42:42Z</time>
      </trkpt>
      <trkpt lat="47.585855" lon="1.330187">
        <ele>149.842</ele>
        <time>2021-09-13T11:43:11Z</time>
      </trkpt>
      <trkpt lat="47.586252" lon="1.330644">
        <ele>149.026</ele>
        <time>2021-09-13T11:43:23Z</time>
      </trkpt>
      <trkpt lat="47.586604" lon="1.330670">
        <ele>142.308</ele>
        <time>2021-09-13T11:43:31Z</time>
      </trkpt>
      <trkpt lat="47.586723" lon="1.330811">
        <ele>144.154</ele>
        <time>2021-09-13T11:43:35Z</time>
      </trkpt>
      <trkpt lat="47.587336" lon="1.332504">
        <ele>146.129</ele>
        <time>2021-09-13T11:44:02Z</time>
      </trkpt>
      <trkpt lat="47.587549" lon="1.333824">
        <ele>145.123</ele>
        <time>2021-09-13T11:44:23Z</time>
      </trkpt>
      <trkpt lat="47.578114" lon="1.347837">
        <ele>133.115</ele>
        <time>2021-09-13T11:48:50Z</time>
      </trkpt>
      <trkpt lat="47.577511" lon="1.348337">
        <ele>132.437</ele>
        <time>2021-09-13T11:49:03Z</time>
      </trkpt>
      <trkpt lat="47.577351" lon="1.349033">
        <ele>131.547</ele>
        <time>2021-09-13T11:49:12Z</time>
      </trkpt>
      <trkpt lat="47.566133" lon="1.365926">
        <ele>156.968</ele>
        <time>2021-09-13T11:55:18Z</time>
      </trkpt>
      <trkpt lat="47.566076" lon="1.366329">
        <ele>157.966</ele>
        <time>2021-09-13T11:55:26Z</time>
      </trkpt>
      <trkpt lat="47.567120" lon="1.367943">
        <ele>155.614</ele>
        <time>2021-09-13T11:56:01Z</time>
      </trkpt>
      <trkpt lat="47.567573" lon="1.367696">
        <ele>158.754</ele>
        <time>2021-09-13T11:56:15Z</time>
      </trkpt>
      <trkpt lat="47.567922" lon="1.367284">
        <ele>157.109</ele>
        <time>2021-09-13T11:56:25Z</time>
      </trkpt>
      <trkpt lat="47.568362" lon="1.367334">
        <ele>157.308</ele>
        <time>2021-09-13T11:56:37Z</time>
      </trkpt>
      <trkpt lat="47.569510" lon="1.369349">
        <ele>159.219</ele>
        <time>2021-09-13T11:57:19Z</time>
      </trkpt>
      <trkpt lat="47.569623" lon="1.369772">
        <ele>157.934</ele>
        <time>2021-09-13T11:57:27Z</time>
      </trkpt>
      <trkpt lat="47.569792" lon="1.369706">
        <ele>157.938</ele>
        <time>2021-09-13T11:57:31Z</time>
      </trkpt>
      <trkpt lat="47.569931" lon="1.369293">
        <ele>158.370</ele>
        <time>2021-09-13T11:57:38Z</time>
      </trkpt>
      <trkpt lat="47.570259" lon="1.368937">
        <ele>157.422</ele>
        <time>2021-09-13T11:57:47Z</time>
      </trkpt>
      <trkpt lat="47.570526" lon="1.369225">
        <ele>157.652</ele>
        <time>2021-09-13T11:57:57Z</time>
      </trkpt>
      <trkpt lat="47.570571" lon="1.369107">
        <ele>154.033</ele>
        <time>2021-09-13T12:00:49Z</time>
      </trkpt>
      <trkpt lat="47.570229" lon="1.368799">
        <ele>164.771</ele>
        <time>2021-09-13T12:01:09Z</time>
      </trkpt>
      <trkpt lat="47.569801" lon="1.369330">
        <ele>164.842</ele>
        <time>2021-09-13T12:01:29Z</time>
      </trkpt>
      <trkpt lat="47.569571" lon="1.369334">
        <ele>162.122</ele>
        <time>2021-09-13T12:01:40Z</time>
      </trkpt>
      <trkpt lat="47.568119" lon="1.366952">
        <ele>158.914</ele>
        <time>2021-09-13T12:02:34Z</time>
      </trkpt>
      <trkpt lat="47.567530" lon="1.367709">
        <ele>155.408</ele>
        <time>2021-09-13T12:02:54Z</time>
      </trkpt>
      <trkpt lat="47.567087" lon="1.367891">
        <ele>156.112</ele>
        <time>2021-09-13T12:03:06Z</time>
      </trkpt>
      <trkpt lat="47.566060" lon="1.366332">
        <ele>157.267</ele>
        <time>2021-09-13T12:03:39Z</time>
      </trkpt>
      <trkpt lat="47.567550" lon="1.363940">
        <ele>155.251</ele>
        <time>2021-09-13T12:04:38Z</time>
      </trkpt>
      <trkpt lat="47.567456" lon="1.363516">
        <ele>159.693</ele>
        <time>2021-09-13T12:05:14Z</time>
      </trkpt>
      <trkpt lat="47.567565" lon="1.363713">
        <ele>157.855</ele>
        <time>2021-09-13T12:13:12Z</time>
      </trkpt>
      <trkpt lat="47.567406" lon="1.363594">
        <ele>154.635</ele>
        <time>2021-09-13T12:14:59Z</time>
      </trkpt>
      <trkpt lat="47.567391" lon="1.363692">
        <ele>154.356</ele>
        <time>2021-09-13T12:15:16Z</time>
      </trkpt>
      <trkpt lat="47.567554" lon="1.363698">
        <ele>163.764</ele>
        <time>2021-09-13T12:44:36Z</time>
      </trkpt>
      <trkpt lat="47.567480" lon="1.363615">
        <ele>160.269</ele>
        <time>2021-09-13T12:45:03Z</time>
      </trkpt>
      <trkpt lat="47.567535" lon="1.363891">
        <ele>158.604</ele>
        <time>2021-09-13T13:50:13Z</time>
      </trkpt>
      <trkpt lat="47.566474" lon="1.365363">
        <ele>158.024</ele>
        <time>2021-09-13T13:50:53Z</time>
      </trkpt>
      <trkpt lat="47.566136" lon="1.365949">
        <ele>157.008</ele>
        <time>2021-09-13T13:51:05Z</time>
      </trkpt>
      <trkpt lat="47.566074" lon="1.366343">
        <ele>156.184</ele>
        <time>2021-09-13T13:51:16Z</time>
      </trkpt>
      <trkpt lat="47.567081" lon="1.367983">
        <ele>160.059</ele>
        <time>2021-09-13T13:52:13Z</time>
      </trkpt>
      <trkpt lat="47.567603" lon="1.367621">
        <ele>159.143</ele>
        <time>2021-09-13T13:52:34Z</time>
      </trkpt>
      <trkpt lat="47.567909" lon="1.367192">
        <ele>155.415</ele>
        <time>2021-09-13T13:52:46Z</time>
      </trkpt>
      <trkpt lat="47.568307" lon="1.367259">
        <ele>157.027</ele>
        <time>2021-09-13T13:53:00Z</time>
      </trkpt>
      <trkpt lat="47.569484" lon="1.369290">
        <ele>152.687</ele>
        <time>2021-09-13T13:53:58Z</time>
      </trkpt>
      <trkpt lat="47.569611" lon="1.369769">
        <ele>153.748</ele>
        <time>2021-09-13T13:54:08Z</time>
      </trkpt>
      <trkpt lat="47.570300" lon="1.368709">
        <ele>156.386</ele>
        <time>2021-09-13T13:54:37Z</time>
      </trkpt>
      <trkpt lat="47.570818" lon="1.368485">
        <ele>152.524</ele>
        <time>2021-09-13T13:54:55Z</time>
      </trkpt>
      <trkpt lat="47.571124" lon="1.367899">
        <ele>153.604</ele>
        <time>2021-09-13T13:55:17Z</time>
      </trkpt>
      <trkpt lat="47.571311" lon="1.367838">
        <ele>148.614</ele>
        <time>2021-09-13T13:58:30Z</time>
      </trkpt>
      <trkpt lat="47.570823" lon="1.368255">
        <ele>156.008</ele>
        <time>2021-09-13T14:00:10Z</time>
      </trkpt>
      <trkpt lat="47.570805" lon="1.368741">
        <ele>156.340</ele>
        <time>2021-09-13T14:00:22Z</time>
      </trkpt>
      <trkpt lat="47.570485" lon="1.369344">
        <ele>158.335</ele>
        <time>2021-09-13T14:02:38Z</time>
      </trkpt>
      <trkpt lat="47.570582" lon="1.369465">
        <ele>168.049</ele>
        <time>2021-09-13T14:35:20Z</time>
      </trkpt>
      <trkpt lat="47.570315" lon="1.368867">
        <ele>165.431</ele>
        <time>2021-09-13T14:41:16Z</time>
      </trkpt>
      <trkpt lat="47.569871" lon="1.369349">
        <ele>160.963</ele>
        <time>2021-09-13T14:41:40Z</time>
      </trkpt>
      <trkpt lat="47.569599" lon="1.369350">
        <ele>160.743</ele>
        <time>2021-09-13T14:41:51Z</time>
      </trkpt>
      <trkpt lat="47.568200" lon="1.366866">
        <ele>157.844</ele>
        <time>2021-09-13T14:43:05Z</time>
      </trkpt>
      <trkpt lat="47.567606" lon="1.367621">
        <ele>157.792</ele>
        <time>2021-09-13T14:43:25Z</time>
      </trkpt>
      <trkpt lat="47.566821" lon="1.368144">
        <ele>156.483</ele>
        <time>2021-09-13T14:44:20Z</time>
      </trkpt>
      <trkpt lat="47.565959" lon="1.369194">
        <ele>161.725</ele>
        <time>2021-09-13T14:44:47Z</time>
      </trkpt>
      <trkpt lat="47.566036" lon="1.369397">
        <ele>161.817</ele>
        <time>2021-09-13T14:44:51Z</time>
      </trkpt>
      <trkpt lat="47.567783" lon="1.369948">
        <ele>166.608</ele>
        <time>2021-09-13T14:45:38Z</time>
      </trkpt>
      <trkpt lat="47.568585" lon="1.371062">
        <ele>169.596</ele>
        <time>2021-09-13T14:46:08Z</time>
      </trkpt>
      <trkpt lat="47.569945" lon="1.374012">
        <ele>160.491</ele>
        <time>2021-09-13T14:46:56Z</time>
      </trkpt>
      <trkpt lat="47.570972" lon="1.378369">
        <ele>156.915</ele>
        <time>2021-09-13T14:48:36Z</time>
      </trkpt>
      <trkpt lat="47.573350" lon="1.377303">
        <ele>164.167</ele>
        <time>2021-09-13T14:49:57Z</time>
      </trkpt>
      <trkpt lat="47.576729" lon="1.376293">
        <ele>154.349</ele>
        <time>2021-09-13T14:50:54Z</time>
      </trkpt>
      <trkpt lat="47.577611" lon="1.375410">
        <ele>146.189</ele>
        <time>2021-09-13T14:51:32Z</time>
      </trkpt>
      <trkpt lat="47.577693" lon="1.375053">
        <ele>143.660</ele>
        <time>2021-09-13T14:51:40Z</time>
      </trkpt>
      <trkpt lat="47.578588" lon="1.374370">
        <ele>135.668</ele>
        <time>2021-09-13T14:51:58Z</time>
      </trkpt>
      <trkpt lat="47.579967" lon="1.374388">
        <ele>134.123</ele>
        <time>2021-09-13T14:52:51Z</time>
      </trkpt>
      <trkpt lat="47.580189" lon="1.374759">
        <ele>132.483</ele>
        <time>2021-09-13T14:53:05Z</time>
      </trkpt>
      <trkpt lat="47.580581" lon="1.377051">
        <ele>145.111</ele>
        <time>2021-09-13T14:54:43Z</time>
      </trkpt>
      <trkpt lat="47.580912" lon="1.377171">
        <ele>143.708</ele>
        <time>2021-09-13T14:54:55Z</time>
      </trkpt>
      <trkpt lat="47.583569" lon="1.376997">
        <ele>156.440</ele>
        <time>2021-09-13T14:56:04Z</time>
      </trkpt>
      <trkpt lat="47.584692" lon="1.377577">
        <ele>150.075</ele>
        <time>2021-09-13T14:56:32Z</time>
      </trkpt>
      <trkpt lat="47.585434" lon="1.378474">
        <ele>147.689</ele>
        <time>2021-09-13T14:56:58Z</time>
      </trkpt>
      <trkpt lat="47.586409" lon="1.380693">
        <ele>146.211</ele>
        <time>2021-09-13T14:57:40Z</time>
      </trkpt>
      <trkpt lat="47.587204" lon="1.381606">
        <ele>144.843</ele>
        <time>2021-09-13T14:58:06Z</time>
      </trkpt>
      <trkpt lat="47.587102" lon="1.381745">
        <ele>144.993</ele>
        <time>2021-09-13T14:58:16Z</time>
      </trkpt>
      <trkpt lat="47.586961" lon="1.381584">
        <ele>144.384</ele>
        <time>2021-09-13T14:58:25Z</time>
      </trkpt>
      <trkpt lat="47.584650" lon="1.383188">
        <ele>150.672</ele>
        <time>2021-09-13T14:59:29Z</time>
      </trkpt>
      <trkpt lat="47.583753" lon="1.383652">
        <ele>148.566</ele>
        <time>2021-09-13T14:59:53Z</time>
      </trkpt>
      <trkpt lat="47.582760" lon="1.383871">
        <ele>148.329</ele>
        <time>2021-09-13T15:00:15Z</time>
      </trkpt>
      <trkpt lat="47.581787" lon="1.383858">
        <ele>146.121</ele>
        <time>2021-09-13T15:00:42Z</time>
      </trkpt>
      <trkpt lat="47.582227" lon="1.387388">
        <ele>148.808</ele>
        <time>2021-09-13T15:01:41Z</time>
      </trkpt>
      <trkpt lat="47.583517" lon="1.393380">
        <ele>150.224</ele>
        <time>2021-09-13T15:03:14Z</time>
      </trkpt>
      <trkpt lat="47.583638" lon="1.393662">
        <ele>149.719</ele>
        <time>2021-09-13T15:03:19Z</time>
      </trkpt>
      <trkpt lat="47.584231" lon="1.394116">
        <ele>149.483</ele>
        <time>2021-09-13T15:03:33Z</time>
      </trkpt>
      <trkpt lat="47.584774" lon="1.395747">
        <ele>156.225</ele>
        <time>2021-09-13T15:04:00Z</time>
      </trkpt>
      <trkpt lat="47.585863" lon="1.397974">
        <ele>150.427</ele>
        <time>2021-09-13T15:04:41Z</time>
      </trkpt>
      <trkpt lat="47.585319" lon="1.399949">
        <ele>150.117</ele>
        <time>2021-09-13T15:05:12Z</time>
      </trkpt>
      <trkpt lat="47.585051" lon="1.401818">
        <ele>150.988</ele>
        <time>2021-09-13T15:05:38Z</time>
      </trkpt>
      <trkpt lat="47.584623" lon="1.403188">
        <ele>148.236</ele>
        <time>2021-09-13T15:05:58Z</time>
      </trkpt>
      <trkpt lat="47.584042" lon="1.404023">
        <ele>148.171</ele>
        <time>2021-09-13T15:06:12Z</time>
      </trkpt>
      <trkpt lat="47.582241" lon="1.405759">
        <ele>144.441</ele>
        <time>2021-09-13T15:06:51Z</time>
      </trkpt>
      <trkpt lat="47.580243" lon="1.408253">
        <ele>136.315</ele>
        <time>2021-09-13T15:08:20Z</time>
      </trkpt>
      <trkpt lat="47.580419" lon="1.409154">
        <ele>141.108</ele>
        <time>2021-09-13T15:08:49Z</time>
      </trkpt>
      <trkpt lat="47.580756" lon="1.409952">
        <ele>144.345</ele>
        <time>2021-09-13T15:09:09Z</time>
      </trkpt>
      <trkpt lat="47.581132" lon="1.410041">
        <ele>145.060</ele>
        <time>2021-09-13T15:09:21Z</time>
      </trkpt>
      <trkpt lat="47.582910" lon="1.409932">
        <ele>145.444</ele>
        <time>2021-09-13T15:10:15Z</time>
      </trkpt>
      <trkpt lat="47.584342" lon="1.414529">
        <ele>142.916</ele>
        <time>2021-09-13T15:11:25Z</time>
      </trkpt>
      <trkpt lat="47.584442" lon="1.415713">
        <ele>140.968</ele>
        <time>2021-09-13T15:11:37Z</time>
      </trkpt>
      <trkpt lat="47.585197" lon="1.417839">
        <ele>129.978</ele>
        <time>2021-09-13T15:12:06Z</time>
      </trkpt>
      <trkpt lat="47.585598" lon="1.419803">
        <ele>129.219</ele>
        <time>2021-09-13T15:12:32Z</time>
      </trkpt>
      <trkpt lat="47.586295" lon="1.420831">
        <ele>135.077</ele>
        <time>2021-09-13T15:12:51Z</time>
      </trkpt>
      <trkpt lat="47.586358" lon="1.421133">
        <ele>135.684</ele>
        <time>2021-09-13T15:12:59Z</time>
      </trkpt>
      <trkpt lat="47.586694" lon="1.421329">
        <ele>136.507</ele>
        <time>2021-09-13T15:13:59Z</time>
      </trkpt>
      <trkpt lat="47.587174" lon="1.421944">
        <ele>138.217</ele>
        <time>2021-09-13T15:14:24Z</time>
      </trkpt>
      <trkpt lat="47.588318" lon="1.424824">
        <ele>147.708</ele>
        <time>2021-09-13T15:15:24Z</time>
      </trkpt>
      <trkpt lat="47.588504" lon="1.424978">
        <ele>147.166</ele>
        <time>2021-09-13T15:15:29Z</time>
      </trkpt>
      <trkpt lat="47.588889" lon="1.424934">
        <ele>146.511</ele>
        <time>2021-09-13T15:15:39Z</time>
      </trkpt>
      <trkpt lat="47.589559" lon="1.425130">
        <ele>146.555</ele>
        <time>2021-09-13T15:15:57Z</time>
      </trkpt>
      <trkpt lat="47.590668" lon="1.426250">
        <ele>146.787</ele>
        <time>2021-09-13T15:16:28Z</time>
      </trkpt>
      <trkpt lat="47.590366" lon="1.427882">
        <ele>147.389</ele>
        <time>2021-09-13T15:16:55Z</time>
      </trkpt>
      <trkpt lat="47.590448" lon="1.428826">
        <ele>146.449</ele>
        <time>2021-09-13T15:17:07Z</time>
      </trkpt>
      <trkpt lat="47.591209" lon="1.430488">
        <ele>149.960</ele>
        <time>2021-09-13T15:17:35Z</time>
      </trkpt>
      <trkpt lat="47.591597" lon="1.432335">
        <ele>146.118</ele>
        <time>2021-09-13T15:18:03Z</time>
      </trkpt>
      <trkpt lat="47.593229" lon="1.436163">
        <ele>148.247</ele>
        <time>2021-09-13T15:19:04Z</time>
      </trkpt>
      <trkpt lat="47.593925" lon="1.438882">
        <ele>151.329</ele>
        <time>2021-09-13T15:19:42Z</time>
      </trkpt>
      <trkpt lat="47.594621" lon="1.444634">
        <ele>150.421</ele>
        <time>2021-09-13T15:21:09Z</time>
      </trkpt>
      <trkpt lat="47.594230" lon="1.449757">
        <ele>141.708</ele>
        <time>2021-09-13T15:22:19Z</time>
      </trkpt>
      <trkpt lat="47.593972" lon="1.451141">
        <ele>136.712</ele>
        <time>2021-09-13T15:22:34Z</time>
      </trkpt>
      <trkpt lat="47.593548" lon="1.451662">
        <ele>137.117</ele>
        <time>2021-09-13T15:23:42Z</time>
      </trkpt>
      <trkpt lat="47.592357" lon="1.452348">
        <ele>137.941</ele>
        <time>2021-09-13T15:24:18Z</time>
      </trkpt>
      <trkpt lat="47.592273" lon="1.452693">
        <ele>140.323</ele>
        <time>2021-09-13T15:24:26Z</time>
      </trkpt>
      <trkpt lat="47.592560" lon="1.454184">
        <ele>143.025</ele>
        <time>2021-09-13T15:25:01Z</time>
      </trkpt>
      <trkpt lat="47.593098" lon="1.454912">
        <ele>135.425</ele>
        <time>2021-09-13T15:25:19Z</time>
      </trkpt>
      <trkpt lat="47.593359" lon="1.455670">
        <ele>137.056</ele>
        <time>2021-09-13T15:25:33Z</time>
      </trkpt>
      <trkpt lat="47.593626" lon="1.458066">
        <ele>137.144</ele>
        <time>2021-09-13T15:26:13Z</time>
      </trkpt>
      <trkpt lat="47.593499" lon="1.458174">
        <ele>139.372</ele>
        <time>2021-09-13T15:26:17Z</time>
      </trkpt>
      <trkpt lat="47.593266" lon="1.458072">
        <ele>141.113</ele>
        <time>2021-09-13T15:26:23Z</time>
      </trkpt>
      <trkpt lat="47.593077" lon="1.457489">
        <ele>141.314</ele>
        <time>2021-09-13T15:26:35Z</time>
      </trkpt>
      <trkpt lat="47.592751" lon="1.458261">
        <ele>140.408</ele>
        <time>2021-09-13T15:27:04Z</time>
      </trkpt>
      <trkpt lat="47.592060" lon="1.458466">
        <ele>138.685</ele>
        <time>2021-09-13T15:27:23Z</time>
      </trkpt>
      <trkpt lat="47.591084" lon="1.459228">
        <ele>144.880</ele>
        <time>2021-09-13T15:28:05Z</time>
      </trkpt>
      <trkpt lat="47.590313" lon="1.460306">
        <ele>143.284</ele>
        <time>2021-09-13T15:28:37Z</time>
      </trkpt>
      <trkpt lat="47.590026" lon="1.461553">
        <ele>145.086</ele>
        <time>2021-09-13T15:29:00Z</time>
      </trkpt>
      <trkpt lat="47.590032" lon="1.464371">
        <ele>151.758</ele>
        <time>2021-09-13T15:29:53Z</time>
      </trkpt>
      <trkpt lat="47.589719" lon="1.466989">
        <ele>152.278</ele>
        <time>2021-09-13T15:30:36Z</time>
      </trkpt>
      <trkpt lat="47.589990" lon="1.471881">
        <ele>152.629</ele>
        <time>2021-09-13T15:32:39Z</time>
      </trkpt>
      <trkpt lat="47.590510" lon="1.475518">
        <ele>152.917</ele>
        <time>2021-09-13T15:33:27Z</time>
      </trkpt>
      <trkpt lat="47.590630" lon="1.475569">
        <ele>152.952</ele>
        <time>2021-09-13T15:33:30Z</time>
      </trkpt>
      <trkpt lat="47.591329" lon="1.475040">
        <ele>149.753</ele>
        <time>2021-09-13T15:33:45Z</time>
      </trkpt>
      <trkpt lat="47.591518" lon="1.475031">
        <ele>149.308</ele>
        <time>2021-09-13T15:33:49Z</time>
      </trkpt>
      <trkpt lat="47.591963" lon="1.477038">
        <ele>147.508</ele>
        <time>2021-09-13T15:34:19Z</time>
      </trkpt>
      <trkpt lat="47.592176" lon="1.477235">
        <ele>148.533</ele>
        <time>2021-09-13T15:34:25Z</time>
      </trkpt>
      <trkpt lat="47.594626" lon="1.476005">
        <ele>147.798</ele>
        <time>2021-09-13T15:35:10Z</time>
      </trkpt>
      <trkpt lat="47.594948" lon="1.476070">
        <ele>147.552</ele>
        <time>2021-09-13T15:35:15Z</time>
      </trkpt>
      <trkpt lat="47.595942" lon="1.476702">
        <ele>145.784</ele>
        <time>2021-09-13T15:35:33Z</time>
      </trkpt>
      <trkpt lat="47.597871" lon="1.476073">
        <ele>149.126</ele>
        <time>2021-09-13T15:37:42Z</time>
      </trkpt>
      <trkpt lat="47.598575" lon="1.477625">
        <ele>150.226</ele>
        <time>2021-09-13T15:38:09Z</time>
      </trkpt>
      <trkpt lat="47.599345" lon="1.478736">
        <ele>149.347</ele>
        <time>2021-09-13T15:39:02Z</time>
      </trkpt>
      <trkpt lat="47.599511" lon="1.478789">
        <ele>148.015</ele>
        <time>2021-09-13T15:39:06Z</time>
      </trkpt>
      <trkpt lat="47.601090" lon="1.477203">
        <ele>149.378</ele>
        <time>2021-09-13T15:39:41Z</time>
      </trkpt>
      <trkpt lat="47.602699" lon="1.475005">
        <ele>146.733</ele>
        <time>2021-09-13T15:40:39Z</time>
      </trkpt>
      <trkpt lat="47.604127" lon="1.477362">
        <ele>142.126</ele>
        <time>2021-09-13T15:41:34Z</time>
      </trkpt>
      <trkpt lat="47.604560" lon="1.477663">
        <ele>138.908</ele>
        <time>2021-09-13T15:41:48Z</time>
      </trkpt>
      <trkpt lat="47.604965" lon="1.478189">
        <ele>141.155</ele>
        <time>2021-09-13T15:42:01Z</time>
      </trkpt>
      <trkpt lat="47.608146" lon="1.482816">
        <ele>140.290</ele>
        <time>2021-09-13T15:43:32Z</time>
      </trkpt>
      <trkpt lat="47.609680" lon="1.486171">
        <ele>140.274</ele>
        <time>2021-09-13T15:44:35Z</time>
      </trkpt>
      <trkpt lat="47.610748" lon="1.488082">
        <ele>140.216</ele>
        <time>2021-09-13T15:45:04Z</time>
      </trkpt>
      <trkpt lat="47.610730" lon="1.488572">
        <ele>142.288</ele>
        <time>2021-09-13T15:45:10Z</time>
      </trkpt>
      <trkpt lat="47.611796" lon="1.492263">
        <ele>145.988</ele>
        <time>2021-09-13T15:46:06Z</time>
      </trkpt>
      <trkpt lat="47.612105" lon="1.492619">
        <ele>142.139</ele>
        <time>2021-09-13T15:46:14Z</time>
      </trkpt>
      <trkpt lat="47.613046" lon="1.498010">
        <ele>141.277</ele>
        <time>2021-09-13T15:47:50Z</time>
      </trkpt>
      <trkpt lat="47.613895" lon="1.500909">
        <ele>136.755</ele>
        <time>2021-09-13T15:48:52Z</time>
      </trkpt>
      <trkpt lat="47.614219" lon="1.503553">
        <ele>146.407</ele>
        <time>2021-09-13T15:49:35Z</time>
      </trkpt>
      <trkpt lat="47.614187" lon="1.505179">
        <ele>140.117</ele>
        <time>2021-09-13T15:50:09Z</time>
      </trkpt>
      <trkpt lat="47.613069" lon="1.505829">
        <ele>145.208</ele>
        <time>2021-09-13T15:50:48Z</time>
      </trkpt>
      <trkpt lat="47.613023" lon="1.506189">
        <ele>143.593</ele>
        <time>2021-09-13T15:50:54Z</time>
      </trkpt>
      <trkpt lat="47.614165" lon="1.510565">
        <ele>136.178</ele>
        <time>2021-09-13T15:53:22Z</time>
      </trkpt>
      <trkpt lat="47.614963" lon="1.512708">
        <ele>140.542</ele>
        <time>2021-09-13T15:54:01Z</time>
      </trkpt>
      <trkpt lat="47.615042" lon="1.513301">
        <ele>131.654</ele>
        <time>2021-09-13T15:54:09Z</time>
      </trkpt>
      <trkpt lat="47.614912" lon="1.513594">
        <ele>136.296</ele>
        <time>2021-09-13T15:54:15Z</time>
      </trkpt>
      <trkpt lat="47.615131" lon="1.513311">
        <ele>141.166</ele>
        <time>2021-09-13T15:54:28Z</time>
      </trkpt>
      <trkpt lat="47.615901" lon="1.513353">
        <ele>142.897</ele>
        <time>2021-09-13T15:56:20Z</time>
      </trkpt>
      <trkpt lat="47.615843" lon="1.514211">
        <ele>137.595</ele>
        <time>2021-09-13T15:57:19Z</time>
      </trkpt>
      <trkpt lat="47.615908" lon="1.514394">
        <ele>139.377</ele>
        <time>2021-09-13T15:57:49Z</time>
      </trkpt>
      <trkpt lat="47.616013" lon="1.514346">
        <ele>141.961</ele>
        <time>2021-09-13T15:57:53Z</time>
      </trkpt>
      <trkpt lat="47.616111" lon="1.513355">
        <ele>143.827</ele>
        <time>2021-09-13T15:58:17Z</time>
      </trkpt>
      <trkpt lat="47.616014" lon="1.512528">
        <ele>142.208</ele>
        <time>2021-09-13T15:58:42Z</time>
      </trkpt>
      <trkpt lat="47.616068" lon="1.513213">
        <ele>140.315</ele>
        <time>2021-09-13T15:59:22Z</time>
      </trkpt>
      <trkpt lat="47.615763" lon="1.513232">
        <ele>144.440</ele>
        <time>2021-09-13T16:02:13Z</time>
      </trkpt>
      <trkpt lat="47.615907" lon="1.513424">
        <ele>144.524</ele>
        <time>2021-09-13T16:02:49Z</time>
      </trkpt>
      <trkpt lat="47.615880" lon="1.513991">
        <ele>142.436</ele>
        <time>2021-09-13T16:03:35Z</time>
      </trkpt>
      <trkpt lat="47.616060" lon="1.514574">
        <ele>142.978</ele>
        <time>2021-09-13T16:06:46Z</time>
      </trkpt>
      <trkpt lat="47.616362" lon="1.514784">
        <ele>140.938</ele>
        <time>2021-09-13T16:07:05Z</time>
      </trkpt>
      <trkpt lat="47.616307" lon="1.515158">
        <ele>141.139</ele>
        <time>2021-09-13T16:08:02Z</time>
      </trkpt>
      <trkpt lat="47.615056" lon="1.516888">
        <ele>142.097</ele>
        <time>2021-09-13T16:09:51Z</time>
      </trkpt>
      <trkpt lat="47.615176" lon="1.517312">
        <ele>143.333</ele>
        <time>2021-09-13T16:10:50Z</time>
      </trkpt>
      <trkpt lat="47.614617" lon="1.518111">
        <ele>141.823</ele>
        <time>2021-09-13T16:20:16Z</time>
      </trkpt>
      <trkpt lat="47.614974" lon="1.518511">
        <ele>141.415</ele>
        <time>2021-09-13T17:06:47Z</time>
      </trkpt>
      <trkpt lat="47.615481" lon="1.517891">
        <ele>141.608</ele>
        <time>2021-09-13T17:08:26Z</time>
      </trkpt>
      <trkpt lat="47.615076" lon="1.516809">
        <ele>141.171</ele>
        <time>2021-09-13T17:09:00Z</time>
      </trkpt>
      <trkpt lat="47.616669" lon="1.514631">
        <ele>139.896</ele>
        <time>2021-09-13T17:11:14Z</time>
      </trkpt>
      <trkpt lat="47.616711" lon="1.514489">
        <ele>139.860</ele>
        <time>2021-09-13T17:11:21Z</time>
      </trkpt>
      <trkpt lat="47.616582" lon="1.514706">
        <ele>141.422</ele>
        <time>2021-09-13T17:12:39Z</time>
      </trkpt>
      <trkpt lat="47.616292" lon="1.514370">
        <ele>142.884</ele>
        <time>2021-09-13T17:12:56Z</time>
      </trkpt>
      <trkpt lat="47.616751" lon="1.514235">
        <ele>140.754</ele>
        <time>2021-09-13T17:13:13Z</time>
      </trkpt>
      <trkpt lat="47.617149" lon="1.513858">
        <ele>141.175</ele>
        <time>2021-09-13T17:13:30Z</time>
      </trkpt>
      <trkpt lat="47.617736" lon="1.514828">
        <ele>139.013</ele>
        <time>2021-09-13T17:15:23Z</time>
      </trkpt>
      <trkpt lat="47.617206" lon="1.513859">
        <ele>140.549</ele>
        <time>2021-09-13T17:21:12Z</time>
      </trkpt>
      <trkpt lat="47.617330" lon="1.513495">
        <ele>141.602</ele>
        <time>2021-09-13T17:21:22Z</time>
      </trkpt>
      <trkpt lat="47.617706" lon="1.513159">
        <ele>142.822</ele>
        <time>2021-09-13T17:21:38Z</time>
      </trkpt>
      <trkpt lat="47.618022" lon="1.513073">
        <ele>139.208</ele>
        <time>2021-09-13T17:21:50Z</time>
      </trkpt>
      <trkpt lat="47.618754" lon="1.513470">
        <ele>138.592</ele>
        <time>2021-09-13T17:22:21Z</time>
      </trkpt>
      <trkpt lat="47.618771" lon="1.512906">
        <ele>139.827</ele>
        <time>2021-09-13T17:22:38Z</time>
      </trkpt>
      <trkpt lat="47.618816" lon="1.513325">
        <ele>141.021</ele>
        <time>2021-09-13T17:22:57Z</time>
      </trkpt>
      <trkpt lat="47.620218" lon="1.511698">
        <ele>129.843</ele>
        <time>2021-09-13T17:23:53Z</time>
      </trkpt>
      <trkpt lat="47.622012" lon="1.509148">
        <ele>147.155</ele>
        <time>2021-09-13T17:28:56Z</time>
      </trkpt>
      <trkpt lat="47.622158" lon="1.509003">
        <ele>145.985</ele>
        <time>2021-09-13T17:29:02Z</time>
      </trkpt>
      <trkpt lat="47.622360" lon="1.509121">
        <ele>145.316</ele>
        <time>2021-09-13T17:29:10Z</time>
      </trkpt>
      <trkpt lat="47.622584" lon="1.509016">
        <ele>145.614</ele>
        <time>2021-09-13T17:29:18Z</time>
      </trkpt>
      <trkpt lat="47.622634" lon="1.508457">
        <ele>146.539</ele>
        <time>2021-09-13T17:29:31Z</time>
      </trkpt>
      <trkpt lat="47.629806" lon="1.498811">
        <ele>156.801</ele>
        <time>2021-09-13T17:33:51Z</time>
      </trkpt>
      <trkpt lat="47.630179" lon="1.498918">
        <ele>157.721</ele>
        <time>2021-09-13T17:34:04Z</time>
      </trkpt>
      <trkpt lat="47.630340" lon="1.498355">
        <ele>160.208</ele>
        <time>2021-09-13T17:34:15Z</time>
      </trkpt>
      <trkpt lat="47.631944" lon="1.496879">
        <ele>161.451</ele>
        <time>2021-09-13T17:34:54Z</time>
      </trkpt>
      <trkpt lat="47.634329" lon="1.495285">
        <ele>149.716</ele>
        <time>2021-09-13T17:35:43Z</time>
      </trkpt>
      <trkpt lat="47.634541" lon="1.494921">
        <ele>149.480</ele>
        <time>2021-09-13T17:35:49Z</time>
      </trkpt>
      <trkpt lat="47.634555" lon="1.494248">
        <ele>149.682</ele>
        <time>2021-09-13T17:36:00Z</time>
      </trkpt>
      <trkpt lat="47.637338" lon="1.491253">
        <ele>153.634</ele>
        <time>2021-09-13T17:37:28Z</time>
      </trkpt>
      <trkpt lat="47.637262" lon="1.491522">
        <ele>157.184</ele>
        <time>2021-09-13T17:38:01Z</time>
      </trkpt>
      <trkpt lat="47.637561" lon="1.492204">
        <ele>156.095</ele>
        <time>2021-09-13T17:38:17Z</time>
      </trkpt>
      <trkpt lat="47.639658" lon="1.496446">
        <ele>156.813</ele>
        <time>2021-09-13T17:39:30Z</time>
      </trkpt>
      <trkpt lat="47.640728" lon="1.496618">
        <ele>153.468</ele>
        <time>2021-09-13T17:39:51Z</time>
      </trkpt>
      <trkpt lat="47.643509" lon="1.496556">
        <ele>156.142</ele>
        <time>2021-09-13T17:40:44Z</time>
      </trkpt>
      <trkpt lat="47.645276" lon="1.495941">
        <ele>152.426</ele>
        <time>2021-09-13T17:41:17Z</time>
      </trkpt>
      <trkpt lat="47.646696" lon="1.495085">
        <ele>156.208</ele>
        <time>2021-09-13T17:41:47Z</time>
      </trkpt>
      <trkpt lat="47.648183" lon="1.493963">
        <ele>158.244</ele>
        <time>2021-09-13T17:42:21Z</time>
      </trkpt>
      <trkpt lat="47.650597" lon="1.492675">
        <ele>154.619</ele>
        <time>2021-09-13T17:43:08Z</time>
      </trkpt>
      <trkpt lat="47.653241" lon="1.490533">
        <ele>153.133</ele>
        <time>2021-09-13T17:44:06Z</time>
      </trkpt>
      <trkpt lat="47.654998" lon="1.489362">
        <ele>152.585</ele>
        <time>2021-09-13T17:44:51Z</time>
      </trkpt>
      <trkpt lat="47.655323" lon="1.488990">
        <ele>158.917</ele>
        <time>2021-09-13T17:45:05Z</time>
      </trkpt>
      <trkpt lat="47.656131" lon="1.488634">
        <ele>147.247</ele>
        <time>2021-09-13T17:46:35Z</time>
      </trkpt>
      <trkpt lat="47.656164" lon="1.488504">
        <ele>147.798</ele>
        <time>2021-09-13T17:46:46Z</time>
      </trkpt>
      <trkpt lat="47.655857" lon="1.488623">
        <ele>149.066</ele>
        <time>2021-09-13T17:47:06Z</time>
      </trkpt>
      <trkpt lat="47.655678" lon="1.487863">
        <ele>146.961</ele>
        <time>2021-09-13T17:47:27Z</time>
      </trkpt>
      <trkpt lat="47.655968" lon="1.487724">
        <ele>145.421</ele>
        <time>2021-09-13T17:47:41Z</time>
      </trkpt>
      <trkpt lat="47.656222" lon="1.488442">
        <ele>147.813</ele>
        <time>2021-09-13T17:48:05Z</time>
      </trkpt>
      <trkpt lat="47.656649" lon="1.488377">
        <ele>141.708</ele>
        <time>2021-09-13T17:48:27Z</time>
      </trkpt>
      <trkpt lat="47.656879" lon="1.488735">
        <ele>140.354</ele>
        <time>2021-09-13T17:48:42Z</time>
      </trkpt>
      <trkpt lat="47.657294" lon="1.488819">
        <ele>139.219</ele>
        <time>2021-09-13T17:51:16Z</time>
      </trkpt>
      <trkpt lat="47.658242" lon="1.492342">
        <ele>142.533</ele>
        <time>2021-09-13T17:53:32Z</time>
      </trkpt>
      <trkpt lat="47.658634" lon="1.494450">
        <ele>147.735</ele>
        <time>2021-09-13T17:54:12Z</time>
      </trkpt>
      <trkpt lat="47.662524" lon="1.506361">
        <ele>149.777</ele>
        <time>2021-09-13T17:57:34Z</time>
      </trkpt>
      <trkpt lat="47.662885" lon="1.507818">
        <ele>149.537</ele>
        <time>2021-09-13T17:57:57Z</time>
      </trkpt>
      <trkpt lat="47.664428" lon="1.511950">
        <ele>146.698</ele>
        <time>2021-09-13T17:59:12Z</time>
      </trkpt>
      <trkpt lat="47.665036" lon="1.513086">
        <ele>143.476</ele>
        <time>2021-09-13T17:59:41Z</time>
      </trkpt>
      <trkpt lat="47.666082" lon="1.515673">
        <ele>147.743</ele>
        <time>2021-09-13T18:01:06Z</time>
      </trkpt>
      <trkpt lat="47.668777" lon="1.520424">
        <ele>146.764</ele>
        <time>2021-09-13T18:03:50Z</time>
      </trkpt>
      <trkpt lat="47.669256" lon="1.521790">
        <ele>147.910</ele>
        <time>2021-09-13T18:04:20Z</time>
      </trkpt>
      <trkpt lat="47.669426" lon="1.523347">
        <ele>142.808</ele>
        <time>2021-09-13T18:05:50Z</time>
      </trkpt>
      <trkpt lat="47.669497" lon="1.523245">
        <ele>142.372</ele>
        <time>2021-09-13T18:06:33Z</time>
      </trkpt>
      <trkpt lat="47.669708" lon="1.524197">
        <ele>139.737</ele>
        <time>2021-09-13T18:09:04Z</time>
      </trkpt>
      <trkpt lat="47.670185" lon="1.525173">
        <ele>143.631</ele>
        <time>2021-09-13T18:09:25Z</time>
      </trkpt>
      <trkpt lat="47.670177" lon="1.525082">
        <ele>143.953</ele>
        <time>2021-09-13T18:09:31Z</time>
      </trkpt>
      <trkpt lat="47.670022" lon="1.524913">
        <ele>143.465</ele>
        <time>2021-09-13T18:09:37Z</time>
      </trkpt>
      <trkpt lat="47.669488" lon="1.525326">
        <ele>138.915</ele>
        <time>2021-09-13T18:10:00Z</time>
      </trkpt>
      <trkpt lat="47.668629" lon="1.525660">
        <ele>140.036</ele>
        <time>2021-09-13T18:10:31Z</time>
      </trkpt>
      <trkpt lat="47.667926" lon="1.526273">
        <ele>138.314</ele>
        <time>2021-09-13T18:11:03Z</time>
      </trkpt>
      <trkpt lat="47.667643" lon="1.525591">
        <ele>142.557</ele>
        <time>2021-09-13T18:11:29Z</time>
      </trkpt>
      <trkpt lat="47.667714" lon="1.525442">
        <ele>142.100</ele>
        <time>2021-09-13T18:12:54Z</time>
      </trkpt>
      <trkpt lat="47.667501" lon="1.525904">
        <ele>148.420</ele>
        <time>2021-09-13T18:13:41Z</time>
      </trkpt>
      <trkpt lat="47.666479" lon="1.526960">
        <ele>145.208</ele>
        <time>2021-09-13T18:14:31Z</time>
      </trkpt>
      <trkpt lat="47.665829" lon="1.528561">
        <ele>145.223</ele>
        <time>2021-09-13T18:15:34Z</time>
      </trkpt>
      <trkpt lat="47.666091" lon="1.529140">
        <ele>146.428</ele>
        <time>2021-09-13T18:16:02Z</time>
      </trkpt>
      <trkpt lat="47.666122" lon="1.528822">
        <ele>152.322</ele>
        <time>2021-09-13T18:22:37Z</time>
      </trkpt>
      <trkpt lat="47.666214" lon="1.528855">
        <ele>148.264</ele>
        <time>2021-09-13T18:30:24Z</time>
      </trkpt>
      <trkpt lat="47.666078" lon="1.528858">
        <ele>145.976</ele>
        <time>2021-09-13T18:31:52Z</time>
      </trkpt>
      <trkpt lat="47.666060" lon="1.529107">
        <ele>146.126</ele>
        <time>2021-09-13T18:37:13Z</time>
      </trkpt>
      <trkpt lat="47.665836" lon="1.528546">
        <ele>149.457</ele>
        <time>2021-09-13T18:37:35Z</time>
      </trkpt>
      <trkpt lat="47.666494" lon="1.527040">
        <ele>143.115</ele>
        <time>2021-09-13T18:38:10Z</time>
      </trkpt>
      <trkpt lat="47.666930" lon="1.526524">
        <ele>141.736</ele>
        <time>2021-09-13T18:38:46Z</time>
      </trkpt>
      <trkpt lat="47.667693" lon="1.525815">
        <ele>142.617</ele>
        <time>2021-09-13T18:39:18Z</time>
      </trkpt>
      <trkpt lat="47.667881" lon="1.525881">
        <ele>141.818</ele>
        <time>2021-09-13T18:39:43Z</time>
      </trkpt>
      <trkpt lat="47.667943" lon="1.526286">
        <ele>144.508</ele>
        <time>2021-09-13T18:40:06Z</time>
      </trkpt>
      <trkpt lat="47.668697" lon="1.525651">
        <ele>138.961</ele>
        <time>2021-09-13T18:40:42Z</time>
      </trkpt>
      <trkpt lat="47.670083" lon="1.524957">
        <ele>134.166</ele>
        <time>2021-09-13T18:41:28Z</time>
      </trkpt>
      <trkpt lat="47.672724" lon="1.528385">
        <ele>145.090</ele>
        <time>2021-09-13T18:43:39Z</time>
      </trkpt>
      <trkpt lat="47.673128" lon="1.527886">
        <ele>142.082</ele>
        <time>2021-09-13T18:43:49Z</time>
      </trkpt>
      <trkpt lat="47.673208" lon="1.527409">
        <ele>140.384</ele>
        <time>2021-09-13T18:43:55Z</time>
      </trkpt>
      <trkpt lat="47.672572" lon="1.526594">
        <ele>142.394</ele>
        <time>2021-09-13T18:44:17Z</time>
      </trkpt>
      <trkpt lat="47.672078" lon="1.526226">
        <ele>139.915</ele>
        <time>2021-09-13T18:44:33Z</time>
      </trkpt>
      <trkpt lat="47.671789" lon="1.526148">
        <ele>140.383</ele>
        <time>2021-09-13T18:44:41Z</time>
      </trkpt>
      <trkpt lat="47.671462" lon="1.526296">
        <ele>138.549</ele>
        <time>2021-09-13T18:50:10Z</time>
      </trkpt>
      <trkpt lat="47.671449" lon="1.525755">
        <ele>139.902</ele>
        <time>2021-09-13T18:53:41Z</time>
      </trkpt>
      <trkpt lat="47.671529" lon="1.525843">
        <ele>77.637</ele>
        <time>2021-09-14T10:18:20Z</time>
      </trkpt>
      <trkpt lat="47.671424" lon="1.525822">
        <ele>74.249</ele>
        <time>2021-09-14T10:19:47Z</time>
      </trkpt>
      <trkpt lat="47.671475" lon="1.526037">
        <ele>68.013</ele>
        <time>2021-09-14T10:19:54Z</time>
      </trkpt>
      <trkpt lat="47.672252" lon="1.526324">
        <ele>69.908</ele>
        <time>2021-09-14T10:20:18Z</time>
      </trkpt>
      <trkpt lat="47.673203" lon="1.527405">
        <ele>66.391</ele>
        <time>2021-09-14T10:20:52Z</time>
      </trkpt>
      <trkpt lat="47.673269" lon="1.527715">
        <ele>65.776</ele>
        <time>2021-09-14T10:21:03Z</time>
      </trkpt>
      <trkpt lat="47.672728" lon="1.528382">
        <ele>70.941</ele>
        <time>2021-09-14T10:21:34Z</time>
      </trkpt>
      <trkpt lat="47.672793" lon="1.528492">
        <ele>72.798</ele>
        <time>2021-09-14T10:21:43Z</time>
      </trkpt>
      <trkpt lat="47.677692" lon="1.524455">
        <ele>71.533</ele>
        <time>2021-09-14T10:26:11Z</time>
      </trkpt>
      <trkpt lat="47.678364" lon="1.523925">
        <ele>67.980</ele>
        <time>2021-09-14T10:26:26Z</time>
      </trkpt>
      <trkpt lat="47.678503" lon="1.523987">
        <ele>67.272</ele>
        <time>2021-09-14T10:26:29Z</time>
      </trkpt>
      <trkpt lat="47.682347" lon="1.533469">
        <ele>72.062</ele>
        <time>2021-09-14T10:28:59Z</time>
      </trkpt>
      <trkpt lat="47.683888" lon="1.536458">
        <ele>68.593</ele>
        <time>2021-09-14T10:29:50Z</time>
      </trkpt>
      <trkpt lat="47.688507" lon="1.540086">
        <ele>67.965</ele>
        <time>2021-09-14T10:31:31Z</time>
      </trkpt>
      <trkpt lat="47.690000" lon="1.541951">
        <ele>69.921</ele>
        <time>2021-09-14T10:32:08Z</time>
      </trkpt>
      <trkpt lat="47.690849" lon="1.543427">
        <ele>69.208</ele>
        <time>2021-09-14T10:32:33Z</time>
      </trkpt>
      <trkpt lat="47.692418" lon="1.546654">
        <ele>67.797</ele>
        <time>2021-09-14T10:33:29Z</time>
      </trkpt>
      <trkpt lat="47.692819" lon="1.547962">
        <ele>70.692</ele>
        <time>2021-09-14T10:33:48Z</time>
      </trkpt>
      <trkpt lat="47.692913" lon="1.548997">
        <ele>69.547</ele>
        <time>2021-09-14T10:34:02Z</time>
      </trkpt>
      <trkpt lat="47.692516" lon="1.552704">
        <ele>70.684</ele>
        <time>2021-09-14T10:34:51Z</time>
      </trkpt>
      <trkpt lat="47.692787" lon="1.553878">
        <ele>70.379</ele>
        <time>2021-09-14T10:35:07Z</time>
      </trkpt>
      <trkpt lat="47.695924" lon="1.560709">
        <ele>68.926</ele>
        <time>2021-09-14T10:38:41Z</time>
      </trkpt>
      <trkpt lat="47.696566" lon="1.561574">
        <ele>67.878</ele>
        <time>2021-09-14T10:38:57Z</time>
      </trkpt>
      <trkpt lat="47.697253" lon="1.562203">
        <ele>69.978</ele>
        <time>2021-09-14T10:39:13Z</time>
      </trkpt>
      <trkpt lat="47.699179" lon="1.566115">
        <ele>69.623</ele>
        <time>2021-09-14T10:40:14Z</time>
      </trkpt>
      <trkpt lat="47.701192" lon="1.568888">
        <ele>71.683</ele>
        <time>2021-09-14T10:41:02Z</time>
      </trkpt>
      <trkpt lat="47.707367" lon="1.572139">
        <ele>72.111</ele>
        <time>2021-09-14T10:43:12Z</time>
      </trkpt>
      <trkpt lat="47.708221" lon="1.572084">
        <ele>71.008</ele>
        <time>2021-09-14T10:43:28Z</time>
      </trkpt>
      <trkpt lat="47.710533" lon="1.572532">
        <ele>70.610</ele>
        <time>2021-09-14T10:44:17Z</time>
      </trkpt>
      <trkpt lat="47.711414" lon="1.572014">
        <ele>68.165</ele>
        <time>2021-09-14T10:44:34Z</time>
      </trkpt>
      <trkpt lat="47.712047" lon="1.572016">
        <ele>69.480</ele>
        <time>2021-09-14T10:44:51Z</time>
      </trkpt>
      <trkpt lat="47.712486" lon="1.572447">
        <ele>67.327</ele>
        <time>2021-09-14T10:45:04Z</time>
      </trkpt>
      <trkpt lat="47.712852" lon="1.573534">
        <ele>72.162</ele>
        <time>2021-09-14T10:45:24Z</time>
      </trkpt>
      <trkpt lat="47.713088" lon="1.573735">
        <ele>72.649</ele>
        <time>2021-09-14T10:45:58Z</time>
      </trkpt>
      <trkpt lat="47.718172" lon="1.570575">
        <ele>69.891</ele>
        <time>2021-09-14T10:50:09Z</time>
      </trkpt>
      <trkpt lat="47.719362" lon="1.570333">
        <ele>73.661</ele>
        <time>2021-09-14T10:50:30Z</time>
      </trkpt>
      <trkpt lat="47.720346" lon="1.570460">
        <ele>70.677</ele>
        <time>2021-09-14T10:50:47Z</time>
      </trkpt>
      <trkpt lat="47.721459" lon="1.570799">
        <ele>73.261</ele>
        <time>2021-09-14T10:51:07Z</time>
      </trkpt>
      <trkpt lat="47.722641" lon="1.571375">
        <ele>74.727</ele>
        <time>2021-09-14T10:51:29Z</time>
      </trkpt>
      <trkpt lat="47.726184" lon="1.574990">
        <ele>77.008</ele>
        <time>2021-09-14T10:52:50Z</time>
      </trkpt>
      <trkpt lat="47.726152" lon="1.575645">
        <ele>73.695</ele>
        <time>2021-09-14T10:53:00Z</time>
      </trkpt>
      <trkpt lat="47.726633" lon="1.576242">
        <ele>74.250</ele>
        <time>2021-09-14T10:53:14Z</time>
      </trkpt>
      <trkpt lat="47.728114" lon="1.578905">
        <ele>72.835</ele>
        <time>2021-09-14T10:54:05Z</time>
      </trkpt>
      <trkpt lat="47.729798" lon="1.582378">
        <ele>71.732</ele>
        <time>2021-09-14T10:55:06Z</time>
      </trkpt>
      <trkpt lat="47.730329" lon="1.583056">
        <ele>71.077</ele>
        <time>2021-09-14T10:55:21Z</time>
      </trkpt>
      <trkpt lat="47.731010" lon="1.584660">
        <ele>70.024</ele>
        <time>2021-09-14T10:55:49Z</time>
      </trkpt>
      <trkpt lat="47.731674" lon="1.585743">
        <ele>75.396</ele>
        <time>2021-09-14T10:56:14Z</time>
      </trkpt>
      <trkpt lat="47.731610" lon="1.586095">
        <ele>75.546</ele>
        <time>2021-09-14T10:56:44Z</time>
      </trkpt>
      <trkpt lat="47.731277" lon="1.586458">
        <ele>74.553</ele>
        <time>2021-09-14T10:58:00Z</time>
      </trkpt>
      <trkpt lat="47.731162" lon="1.587183">
        <ele>74.904</ele>
        <time>2021-09-14T10:58:11Z</time>
      </trkpt>
      <trkpt lat="47.729907" lon="1.588550">
        <ele>68.314</ele>
        <time>2021-09-14T10:58:43Z</time>
      </trkpt>
      <trkpt lat="47.729956" lon="1.591005">
        <ele>74.408</ele>
        <time>2021-09-14T10:59:18Z</time>
      </trkpt>
      <trkpt lat="47.732376" lon="1.599920">
        <ele>77.773</ele>
        <time>2021-09-14T11:01:28Z</time>
      </trkpt>
      <trkpt lat="47.733179" lon="1.601237">
        <ele>71.848</ele>
        <time>2021-09-14T11:01:52Z</time>
      </trkpt>
      <trkpt lat="47.734085" lon="1.603690">
        <ele>77.433</ele>
        <time>2021-09-14T11:02:29Z</time>
      </trkpt>
      <trkpt lat="47.734282" lon="1.605270">
        <ele>79.060</ele>
        <time>2021-09-14T11:02:51Z</time>
      </trkpt>
      <trkpt lat="47.734581" lon="1.606330">
        <ele>79.085</ele>
        <time>2021-09-14T11:03:08Z</time>
      </trkpt>
      <trkpt lat="47.734978" lon="1.606954">
        <ele>79.762</ele>
        <time>2021-09-14T11:03:20Z</time>
      </trkpt>
      <trkpt lat="47.735929" lon="1.607660">
        <ele>74.994</ele>
        <time>2021-09-14T11:03:41Z</time>
      </trkpt>
      <trkpt lat="47.736209" lon="1.608064">
        <ele>74.984</ele>
        <time>2021-09-14T11:03:48Z</time>
      </trkpt>
      <trkpt lat="47.736611" lon="1.610254">
        <ele>72.917</ele>
        <time>2021-09-14T11:04:16Z</time>
      </trkpt>
      <trkpt lat="47.737774" lon="1.612504">
        <ele>76.687</ele>
        <time>2021-09-14T11:04:57Z</time>
      </trkpt>
      <trkpt lat="47.738778" lon="1.613686">
        <ele>69.415</ele>
        <time>2021-09-14T11:05:25Z</time>
      </trkpt>
      <trkpt lat="47.739704" lon="1.615206">
        <ele>72.908</ele>
        <time>2021-09-14T11:05:53Z</time>
      </trkpt>
      <trkpt lat="47.742178" lon="1.618019">
        <ele>76.569</ele>
        <time>2021-09-14T11:06:56Z</time>
      </trkpt>
      <trkpt lat="47.745848" lon="1.621064">
        <ele>73.514</ele>
        <time>2021-09-14T11:08:58Z</time>
      </trkpt>
      <trkpt lat="47.746868" lon="1.621193">
        <ele>72.329</ele>
        <time>2021-09-14T11:09:17Z</time>
      </trkpt>
      <trkpt lat="47.748380" lon="1.621698">
        <ele>72.096</ele>
        <time>2021-09-14T11:09:47Z</time>
      </trkpt>
      <trkpt lat="47.750834" lon="1.621627">
        <ele>74.711</ele>
        <time>2021-09-14T11:10:39Z</time>
      </trkpt>
      <trkpt lat="47.751535" lon="1.621723">
        <ele>72.398</ele>
        <time>2021-09-14T11:10:53Z</time>
      </trkpt>
      <trkpt lat="47.752398" lon="1.622063">
        <ele>74.390</ele>
        <time>2021-09-14T11:11:11Z</time>
      </trkpt>
      <trkpt lat="47.753529" lon="1.622760">
        <ele>77.150</ele>
        <time>2021-09-14T11:11:37Z</time>
      </trkpt>
      <trkpt lat="47.754692" lon="1.622855">
        <ele>75.895</ele>
        <time>2021-09-14T11:12:03Z</time>
      </trkpt>
      <trkpt lat="47.756306" lon="1.623528">
        <ele>75.049</ele>
        <time>2021-09-14T11:12:38Z</time>
      </trkpt>
      <trkpt lat="47.758010" lon="1.624042">
        <ele>69.923</ele>
        <time>2021-09-14T11:13:13Z</time>
      </trkpt>
      <trkpt lat="47.760859" lon="1.625765">
        <ele>76.708</ele>
        <time>2021-09-14T11:14:15Z</time>
      </trkpt>
      <trkpt lat="47.761446" lon="1.624593">
        <ele>75.537</ele>
        <time>2021-09-14T11:14:37Z</time>
      </trkpt>
      <trkpt lat="47.763249" lon="1.625962">
        <ele>76.292</ele>
        <time>2021-09-14T11:15:21Z</time>
      </trkpt>
      <trkpt lat="47.763834" lon="1.627018">
        <ele>75.937</ele>
        <time>2021-09-14T11:15:40Z</time>
      </trkpt>
      <trkpt lat="47.765978" lon="1.628090">
        <ele>76.034</ele>
        <time>2021-09-14T11:19:29Z</time>
      </trkpt>
      <trkpt lat="47.768831" lon="1.630087">
        <ele>73.249</ele>
        <time>2021-09-14T11:29:02Z</time>
      </trkpt>
      <trkpt lat="47.772370" lon="1.632004">
        <ele>79.786</ele>
        <time>2021-09-14T11:31:52Z</time>
      </trkpt>
      <trkpt lat="47.774018" lon="1.632622">
        <ele>86.578</ele>
        <time>2021-09-14T11:35:54Z</time>
      </trkpt>
      <trkpt lat="47.774368" lon="1.633193">
        <ele>81.658</ele>
        <time>2021-09-14T11:36:42Z</time>
      </trkpt>
      <trkpt lat="47.774435" lon="1.632874">
        <ele>82.274</ele>
        <time>2021-09-14T11:37:07Z</time>
      </trkpt>
      <trkpt lat="47.776143" lon="1.633754">
        <ele>90.356</ele>
        <time>2021-09-14T11:40:28Z</time>
      </trkpt>
      <trkpt lat="47.776173" lon="1.633878">
        <ele>86.821</ele>
        <time>2021-09-14T11:40:37Z</time>
      </trkpt>
      <trkpt lat="47.776583" lon="1.632727">
        <ele>89.008</ele>
        <time>2021-09-14T11:42:26Z</time>
      </trkpt>
      <trkpt lat="47.776753" lon="1.632492">
        <ele>88.865</ele>
        <time>2021-09-14T11:42:59Z</time>
      </trkpt>
      <trkpt lat="47.776930" lon="1.632690">
        <ele>87.720</ele>
        <time>2021-09-14T11:43:12Z</time>
      </trkpt>
      <trkpt lat="47.776836" lon="1.632138">
        <ele>100.065</ele>
        <time>2021-09-14T11:45:48Z</time>
      </trkpt>
      <trkpt lat="47.776757" lon="1.632049">
        <ele>99.072</ele>
        <time>2021-09-14T11:45:58Z</time>
      </trkpt>
      <trkpt lat="47.776700" lon="1.632161">
        <ele>97.037</ele>
        <time>2021-09-14T11:46:20Z</time>
      </trkpt>
      <trkpt lat="47.776859" lon="1.632382">
        <ele>98.964</ele>
        <time>2021-09-14T11:47:23Z</time>
      </trkpt>
      <trkpt lat="47.776935" lon="1.631471">
        <ele>99.746</ele>
        <time>2021-09-14T11:48:26Z</time>
      </trkpt>
      <trkpt lat="47.777455" lon="1.631005">
        <ele>108.386</ele>
        <time>2021-09-14T11:49:44Z</time>
      </trkpt>
      <trkpt lat="47.777655" lon="1.631020">
        <ele>103.568</ele>
        <time>2021-09-14T11:49:55Z</time>
      </trkpt>
      <trkpt lat="47.777860" lon="1.631261">
        <ele>98.342</ele>
        <time>2021-09-14T11:50:57Z</time>
      </trkpt>
      <trkpt lat="47.777704" lon="1.631014">
        <ele>97.526</ele>
        <time>2021-09-14T11:51:14Z</time>
      </trkpt>
      <trkpt lat="47.778198" lon="1.630797">
        <ele>96.708</ele>
        <time>2021-09-14T11:51:38Z</time>
      </trkpt>
      <trkpt lat="47.777601" lon="1.632301">
        <ele>99.924</ele>
        <time>2021-09-14T11:53:26Z</time>
      </trkpt>
      <trkpt lat="47.777320" lon="1.632094">
        <ele>95.259</ele>
        <time>2021-09-14T11:53:43Z</time>
      </trkpt>
      <trkpt lat="47.777296" lon="1.631791">
        <ele>97.284</ele>
        <time>2021-09-14T11:53:56Z</time>
      </trkpt>
      <trkpt lat="47.776995" lon="1.631360">
        <ele>98.031</ele>
        <time>2021-09-14T11:54:31Z</time>
      </trkpt>
      <trkpt lat="47.777150" lon="1.631187">
        <ele>101.396</ele>
        <time>2021-09-14T11:57:37Z</time>
      </trkpt>
      <trkpt lat="47.776960" lon="1.632726">
        <ele>101.313</ele>
        <time>2021-09-14T12:22:30Z</time>
      </trkpt>
      <trkpt lat="47.777186" lon="1.633433">
        <ele>93.125</ele>
        <time>2021-09-14T12:22:46Z</time>
      </trkpt>
      <trkpt lat="47.777553" lon="1.633597">
        <ele>84.855</ele>
        <time>2021-09-14T12:23:45Z</time>
      </trkpt>
      <trkpt lat="47.777641" lon="1.633856">
        <ele>95.678</ele>
        <time>2021-09-14T12:25:55Z</time>
      </trkpt>
      <trkpt lat="47.777921" lon="1.634040">
        <ele>86.033</ele>
        <time>2021-09-14T12:26:05Z</time>
      </trkpt>
      <trkpt lat="47.777602" lon="1.634814">
        <ele>89.126</ele>
        <time>2021-09-14T12:27:03Z</time>
      </trkpt>
      <trkpt lat="47.779359" lon="1.636266">
        <ele>86.908</ele>
        <time>2021-09-14T12:28:21Z</time>
      </trkpt>
      <trkpt lat="47.779072" lon="1.637273">
        <ele>82.245</ele>
        <time>2021-09-14T12:28:46Z</time>
      </trkpt>
      <trkpt lat="47.780499" lon="1.641271">
        <ele>77.920</ele>
        <time>2021-09-14T12:29:55Z</time>
      </trkpt>
      <trkpt lat="47.782392" lon="1.643852">
        <ele>80.035</ele>
        <time>2021-09-14T12:30:45Z</time>
      </trkpt>
      <trkpt lat="47.783874" lon="1.645136">
        <ele>79.192</ele>
        <time>2021-09-14T12:31:20Z</time>
      </trkpt>
      <trkpt lat="47.784782" lon="1.646623">
        <ele>76.897</ele>
        <time>2021-09-14T12:31:47Z</time>
      </trkpt>
      <trkpt lat="47.785047" lon="1.646925">
        <ele>78.214</ele>
        <time>2021-09-14T12:31:53Z</time>
      </trkpt>
      <trkpt lat="47.785824" lon="1.647342">
        <ele>78.756</ele>
        <time>2021-09-14T12:32:08Z</time>
      </trkpt>
      <trkpt lat="47.786369" lon="1.648002">
        <ele>81.266</ele>
        <time>2021-09-14T12:32:20Z</time>
      </trkpt>
      <trkpt lat="47.786801" lon="1.648997">
        <ele>81.346</ele>
        <time>2021-09-14T12:32:35Z</time>
      </trkpt>
      <trkpt lat="47.787532" lon="1.650162">
        <ele>82.188</ele>
        <time>2021-09-14T12:32:56Z</time>
      </trkpt>
      <trkpt lat="47.787658" lon="1.651332">
        <ele>81.016</ele>
        <time>2021-09-14T12:33:11Z</time>
      </trkpt>
      <trkpt lat="47.788519" lon="1.653427">
        <ele>78.408</ele>
        <time>2021-09-14T12:33:42Z</time>
      </trkpt>
      <trkpt lat="47.789079" lon="1.655424">
        <ele>79.042</ele>
        <time>2021-09-14T12:34:11Z</time>
      </trkpt>
      <trkpt lat="47.788735" lon="1.656217">
        <ele>79.067</ele>
        <time>2021-09-14T12:34:26Z</time>
      </trkpt>
      <trkpt lat="47.788732" lon="1.656778">
        <ele>79.232</ele>
        <time>2021-09-14T12:34:34Z</time>
      </trkpt>
      <trkpt lat="47.789863" lon="1.660800">
        <ele>82.469</ele>
        <time>2021-09-14T12:35:34Z</time>
      </trkpt>
      <trkpt lat="47.790446" lon="1.665387">
        <ele>83.054</ele>
        <time>2021-09-14T12:36:42Z</time>
      </trkpt>
      <trkpt lat="47.790953" lon="1.666660">
        <ele>80.661</ele>
        <time>2021-09-14T12:37:03Z</time>
      </trkpt>
      <trkpt lat="47.790614" lon="1.668969">
        <ele>84.483</ele>
        <time>2021-09-14T12:37:37Z</time>
      </trkpt>
      <trkpt lat="47.790762" lon="1.673564">
        <ele>84.313</ele>
        <time>2021-09-14T12:38:48Z</time>
      </trkpt>
      <trkpt lat="47.791359" lon="1.675761">
        <ele>79.868</ele>
        <time>2021-09-14T12:39:23Z</time>
      </trkpt>
      <trkpt lat="47.791957" lon="1.677013">
        <ele>80.942</ele>
        <time>2021-09-14T12:39:46Z</time>
      </trkpt>
      <trkpt lat="47.793016" lon="1.678695">
        <ele>85.226</ele>
        <time>2021-09-14T12:40:19Z</time>
      </trkpt>
      <trkpt lat="47.794347" lon="1.680381">
        <ele>85.408</ele>
        <time>2021-09-14T12:40:58Z</time>
      </trkpt>
      <trkpt lat="47.796664" lon="1.682853">
        <ele>80.454</ele>
        <time>2021-09-14T12:42:00Z</time>
      </trkpt>
      <trkpt lat="47.797448" lon="1.683455">
        <ele>79.779</ele>
        <time>2021-09-14T12:42:18Z</time>
      </trkpt>
      <trkpt lat="47.798850" lon="1.683979">
        <ele>80.594</ele>
        <time>2021-09-14T12:42:49Z</time>
      </trkpt>
      <trkpt lat="47.800980" lon="1.685801">
        <ele>81.581</ele>
        <time>2021-09-14T12:43:43Z</time>
      </trkpt>
      <trkpt lat="47.801921" lon="1.685447">
        <ele>81.236</ele>
        <time>2021-09-14T12:44:36Z</time>
      </trkpt>
      <trkpt lat="47.803615" lon="1.684295">
        <ele>85.393</ele>
        <time>2021-09-14T12:45:17Z</time>
      </trkpt>
      <trkpt lat="47.806948" lon="1.683307">
        <ele>73.125</ele>
        <time>2021-09-14T12:46:21Z</time>
      </trkpt>
      <trkpt lat="47.809972" lon="1.683369">
        <ele>84.465</ele>
        <time>2021-09-14T12:47:18Z</time>
      </trkpt>
      <trkpt lat="47.812114" lon="1.683933">
        <ele>83.588</ele>
        <time>2021-09-14T12:48:01Z</time>
      </trkpt>
      <trkpt lat="47.813041" lon="1.684539">
        <ele>84.124</ele>
        <time>2021-09-14T12:48:23Z</time>
      </trkpt>
      <trkpt lat="47.813956" lon="1.685487">
        <ele>83.626</ele>
        <time>2021-09-14T12:48:44Z</time>
      </trkpt>
      <trkpt lat="47.815562" lon="1.687904">
        <ele>83.408</ele>
        <time>2021-09-14T12:49:29Z</time>
      </trkpt>
      <trkpt lat="47.815393" lon="1.688486">
        <ele>80.456</ele>
        <time>2021-09-14T12:49:43Z</time>
      </trkpt>
      <trkpt lat="47.815977" lon="1.688879">
        <ele>83.381</ele>
        <time>2021-09-14T12:50:50Z</time>
      </trkpt>
      <trkpt lat="47.816196" lon="1.689937">
        <ele>76.216</ele>
        <time>2021-09-14T12:51:11Z</time>
      </trkpt>
      <trkpt lat="47.816935" lon="1.691680">
        <ele>81.133</ele>
        <time>2021-09-14T12:51:41Z</time>
      </trkpt>
      <trkpt lat="47.817954" lon="1.692806">
        <ele>85.528</ele>
        <time>2021-09-14T12:52:06Z</time>
      </trkpt>
      <trkpt lat="47.819174" lon="1.693666">
        <ele>85.545</ele>
        <time>2021-09-14T12:52:33Z</time>
      </trkpt>
      <trkpt lat="47.821078" lon="1.695640">
        <ele>83.717</ele>
        <time>2021-09-14T12:53:21Z</time>
      </trkpt>
      <trkpt lat="47.822713" lon="1.697084">
        <ele>84.677</ele>
        <time>2021-09-14T12:53:59Z</time>
      </trkpt>
      <trkpt lat="47.822935" lon="1.697213">
        <ele>84.115</ele>
        <time>2021-09-14T12:54:05Z</time>
      </trkpt>
      <trkpt lat="47.823064" lon="1.697114">
        <ele>86.465</ele>
        <time>2021-09-14T12:54:46Z</time>
      </trkpt>
      <trkpt lat="47.823152" lon="1.697251">
        <ele>86.911</ele>
        <time>2021-09-14T12:54:54Z</time>
      </trkpt>
      <trkpt lat="47.824094" lon="1.697060">
        <ele>86.408</ele>
        <time>2021-09-14T12:55:26Z</time>
      </trkpt>
      <trkpt lat="47.824245" lon="1.696816">
        <ele>86.159</ele>
        <time>2021-09-14T12:55:32Z</time>
      </trkpt>
      <trkpt lat="47.824319" lon="1.695895">
        <ele>85.844</ele>
        <time>2021-09-14T12:56:43Z</time>
      </trkpt>
      <trkpt lat="47.824776" lon="1.694973">
        <ele>93.419</ele>
        <time>2021-09-14T12:57:24Z</time>
      </trkpt>
      <trkpt lat="47.824026" lon="1.694675">
        <ele>93.016</ele>
        <time>2021-09-14T12:58:58Z</time>
      </trkpt>
      <trkpt lat="47.823934" lon="1.694519">
        <ele>84.411</ele>
        <time>2021-09-14T13:00:38Z</time>
      </trkpt>
      <trkpt lat="47.824645" lon="1.695372">
        <ele>88.578</ele>
        <time>2021-09-14T13:01:39Z</time>
      </trkpt>
      <trkpt lat="47.824296" lon="1.696004">
        <ele>88.030</ele>
        <time>2021-09-14T13:02:00Z</time>
      </trkpt>
      <trkpt lat="47.824209" lon="1.696867">
        <ele>84.860</ele>
        <time>2021-09-14T13:02:15Z</time>
      </trkpt>
      <trkpt lat="47.824048" lon="1.697072">
        <ele>86.142</ele>
        <time>2021-09-14T13:03:30Z</time>
      </trkpt>
      <trkpt lat="47.824545" lon="1.698033">
        <ele>82.922</ele>
        <time>2021-09-14T13:03:56Z</time>
      </trkpt>
      <trkpt lat="47.824502" lon="1.698521">
        <ele>83.714</ele>
        <time>2021-09-14T13:04:10Z</time>
      </trkpt>
      <trkpt lat="47.822391" lon="1.702628">
        <ele>89.108</ele>
        <time>2021-09-14T13:05:54Z</time>
      </trkpt>
      <trkpt lat="47.821804" lon="1.704087">
        <ele>89.712</ele>
        <time>2021-09-14T13:06:24Z</time>
      </trkpt>
      <trkpt lat="47.823159" lon="1.705382">
        <ele>84.767</ele>
        <time>2021-09-14T13:06:55Z</time>
      </trkpt>
      <trkpt lat="47.824629" lon="1.706198">
        <ele>84.842</ele>
        <time>2021-09-14T13:07:24Z</time>
      </trkpt>
      <trkpt lat="47.825808" lon="1.707134">
        <ele>84.769</ele>
        <time>2021-09-14T13:07:54Z</time>
      </trkpt>
      <trkpt lat="47.826283" lon="1.708100">
        <ele>85.474</ele>
        <time>2021-09-14T13:08:12Z</time>
      </trkpt>
      <trkpt lat="47.829372" lon="1.711511">
        <ele>86.371</ele>
        <time>2021-09-14T13:09:33Z</time>
      </trkpt>
      <trkpt lat="47.830619" lon="1.713318">
        <ele>81.493</ele>
        <time>2021-09-14T13:10:07Z</time>
      </trkpt>
      <trkpt lat="47.832368" lon="1.715223">
        <ele>83.343</ele>
        <time>2021-09-14T13:10:49Z</time>
      </trkpt>
      <trkpt lat="47.832534" lon="1.716657">
        <ele>83.617</ele>
        <time>2021-09-14T13:11:10Z</time>
      </trkpt>
      <trkpt lat="47.834890" lon="1.720379">
        <ele>74.187</ele>
        <time>2021-09-14T13:12:16Z</time>
      </trkpt>
      <trkpt lat="47.835990" lon="1.723355">
        <ele>72.715</ele>
        <time>2021-09-14T13:13:05Z</time>
      </trkpt>
      <trkpt lat="47.836562" lon="1.724292">
        <ele>72.608</ele>
        <time>2021-09-14T13:13:21Z</time>
      </trkpt>
      <trkpt lat="47.837597" lon="1.725375">
        <ele>73.489</ele>
        <time>2021-09-14T13:13:49Z</time>
      </trkpt>
      <trkpt lat="47.838075" lon="1.726090">
        <ele>77.394</ele>
        <time>2021-09-14T13:14:01Z</time>
      </trkpt>
      <trkpt lat="47.840304" lon="1.732150">
        <ele>91.989</ele>
        <time>2021-09-14T13:15:29Z</time>
      </trkpt>
      <trkpt lat="47.841390" lon="1.736565">
        <ele>84.486</ele>
        <time>2021-09-14T13:16:28Z</time>
      </trkpt>
      <trkpt lat="47.841970" lon="1.741442">
        <ele>75.291</ele>
        <time>2021-09-14T13:17:37Z</time>
      </trkpt>
      <trkpt lat="47.842095" lon="1.744827">
        <ele>74.068</ele>
        <time>2021-09-14T13:18:22Z</time>
      </trkpt>
      <trkpt lat="47.841817" lon="1.745920">
        <ele>78.130</ele>
        <time>2021-09-14T13:18:38Z</time>
      </trkpt>
      <trkpt lat="47.842124" lon="1.746852">
        <ele>79.090</ele>
        <time>2021-09-14T13:18:57Z</time>
      </trkpt>
      <trkpt lat="47.846848" lon="1.751261">
        <ele>80.586</ele>
        <time>2021-09-14T13:22:03Z</time>
      </trkpt>
      <trkpt lat="47.848242" lon="1.753021">
        <ele>74.560</ele>
        <time>2021-09-14T13:22:40Z</time>
      </trkpt>
      <trkpt lat="47.849913" lon="1.755663">
        <ele>74.326</ele>
        <time>2021-09-14T13:23:31Z</time>
      </trkpt>
      <trkpt lat="47.850767" lon="1.757181">
        <ele>74.008</ele>
        <time>2021-09-14T13:24:00Z</time>
      </trkpt>
      <trkpt lat="47.852421" lon="1.760868">
        <ele>76.216</ele>
        <time>2021-09-14T13:25:08Z</time>
      </trkpt>
      <trkpt lat="47.854883" lon="1.767554">
        <ele>72.581</ele>
        <time>2021-09-14T13:26:57Z</time>
      </trkpt>
      <trkpt lat="47.856509" lon="1.770838">
        <ele>73.116</ele>
        <time>2021-09-14T13:27:57Z</time>
      </trkpt>
      <trkpt lat="47.856908" lon="1.772926">
        <ele>72.313</ele>
        <time>2021-09-14T13:28:27Z</time>
      </trkpt>
      <trkpt lat="47.857469" lon="1.773805">
        <ele>71.978</ele>
        <time>2021-09-14T13:28:45Z</time>
      </trkpt>
      <trkpt lat="47.858033" lon="1.775616">
        <ele>71.935</ele>
        <time>2021-09-14T13:29:18Z</time>
      </trkpt>
      <trkpt lat="47.861089" lon="1.780352">
        <ele>73.667</ele>
        <time>2021-09-14T13:30:48Z</time>
      </trkpt>
      <trkpt lat="47.862223" lon="1.781795">
        <ele>78.697</ele>
        <time>2021-09-14T13:31:16Z</time>
      </trkpt>
      <trkpt lat="47.863392" lon="1.785491">
        <ele>76.049</ele>
        <time>2021-09-14T13:32:37Z</time>
      </trkpt>
      <trkpt lat="47.862907" lon="1.790296">
        <ele>82.802</ele>
        <time>2021-09-14T13:33:48Z</time>
      </trkpt>
      <trkpt lat="47.863536" lon="1.792325">
        <ele>77.822</ele>
        <time>2021-09-14T13:34:17Z</time>
      </trkpt>
      <trkpt lat="47.863690" lon="1.795309">
        <ele>82.408</ele>
        <time>2021-09-14T13:34:58Z</time>
      </trkpt>
      <trkpt lat="47.863306" lon="1.797183">
        <ele>82.382</ele>
        <time>2021-09-14T13:35:25Z</time>
      </trkpt>
      <trkpt lat="47.862261" lon="1.799931">
        <ele>89.047</ele>
        <time>2021-09-14T13:36:10Z</time>
      </trkpt>
      <trkpt lat="47.861964" lon="1.801639">
        <ele>89.272</ele>
        <time>2021-09-14T13:36:33Z</time>
      </trkpt>
      <trkpt lat="47.862258" lon="1.804473">
        <ele>82.079</ele>
        <time>2021-09-14T13:37:15Z</time>
      </trkpt>
      <trkpt lat="47.863091" lon="1.808265">
        <ele>79.264</ele>
        <time>2021-09-14T13:39:56Z</time>
      </trkpt>
      <trkpt lat="47.863168" lon="1.816833">
        <ele>82.131</ele>
        <time>2021-09-14T13:42:06Z</time>
      </trkpt>
      <trkpt lat="47.863570" lon="1.821367">
        <ele>84.193</ele>
        <time>2021-09-14T13:43:17Z</time>
      </trkpt>
      <trkpt lat="47.863972" lon="1.822997">
        <ele>82.813</ele>
        <time>2021-09-14T13:43:49Z</time>
      </trkpt>
      <trkpt lat="47.863980" lon="1.824336">
        <ele>89.459</ele>
        <time>2021-09-14T13:44:17Z</time>
      </trkpt>
      <trkpt lat="47.864327" lon="1.825108">
        <ele>87.703</ele>
        <time>2021-09-14T13:44:35Z</time>
      </trkpt>
      <trkpt lat="47.864243" lon="1.824715">
        <ele>88.023</ele>
        <time>2021-09-14T13:44:47Z</time>
      </trkpt>
      <trkpt lat="47.864151" lon="1.824523">
        <ele>87.608</ele>
        <time>2021-09-14T13:44:53Z</time>
      </trkpt>
      <trkpt lat="47.865190" lon="1.828297">
        <ele>87.913</ele>
        <time>2021-09-14T13:46:48Z</time>
      </trkpt>
      <trkpt lat="47.866054" lon="1.830324">
        <ele>84.928</ele>
        <time>2021-09-14T13:47:25Z</time>
      </trkpt>
      <trkpt lat="47.867784" lon="1.835833">
        <ele>84.363</ele>
        <time>2021-09-14T13:48:51Z</time>
      </trkpt>
      <trkpt lat="47.868081" lon="1.838032">
        <ele>88.730</ele>
        <time>2021-09-14T13:49:35Z</time>
      </trkpt>
      <trkpt lat="47.868365" lon="1.838833">
        <ele>88.145</ele>
        <time>2021-09-14T13:49:51Z</time>
      </trkpt>
      <trkpt lat="47.869051" lon="1.838632">
        <ele>85.772</ele>
        <time>2021-09-14T13:50:17Z</time>
      </trkpt>
      <trkpt lat="47.869202" lon="1.838278">
        <ele>83.934</ele>
        <time>2021-09-14T13:50:36Z</time>
      </trkpt>
      <trkpt lat="47.869106" lon="1.838480">
        <ele>79.554</ele>
        <time>2021-09-14T13:51:25Z</time>
      </trkpt>
      <trkpt lat="47.869275" lon="1.838998">
        <ele>82.885</ele>
        <time>2021-09-14T13:51:42Z</time>
      </trkpt>
      <trkpt lat="47.870199" lon="1.838867">
        <ele>84.389</ele>
        <time>2021-09-14T13:52:16Z</time>
      </trkpt>
      <trkpt lat="47.870555" lon="1.839652">
        <ele>78.017</ele>
        <time>2021-09-14T13:52:36Z</time>
      </trkpt>
      <trkpt lat="47.871607" lon="1.839850">
        <ele>82.508</ele>
        <time>2021-09-14T13:53:05Z</time>
      </trkpt>
      <trkpt lat="47.871861" lon="1.840044">
        <ele>83.886</ele>
        <time>2021-09-14T13:53:17Z</time>
      </trkpt>
      <trkpt lat="47.873022" lon="1.840047">
        <ele>84.821</ele>
        <time>2021-09-14T13:53:49Z</time>
      </trkpt>
      <trkpt lat="47.873262" lon="1.840611">
        <ele>80.636</ele>
        <time>2021-09-14T13:54:20Z</time>
      </trkpt>
      <trkpt lat="47.873307" lon="1.840068">
        <ele>81.533</ele>
        <time>2021-09-14T13:54:33Z</time>
      </trkpt>
      <trkpt lat="47.873865" lon="1.839124">
        <ele>73.068</ele>
        <time>2021-09-14T13:54:50Z</time>
      </trkpt>
      <trkpt lat="47.874876" lon="1.838159">
        <ele>79.165</ele>
        <time>2021-09-14T13:55:17Z</time>
      </trkpt>
      <trkpt lat="47.876992" lon="1.837404">
        <ele>77.847</ele>
        <time>2021-09-14T13:56:02Z</time>
      </trkpt>
      <trkpt lat="47.877748" lon="1.838682">
        <ele>76.817</ele>
        <time>2021-09-14T13:56:25Z</time>
      </trkpt>
      <trkpt lat="47.878134" lon="1.838784">
        <ele>74.692</ele>
        <time>2021-09-14T13:56:33Z</time>
      </trkpt>
      <trkpt lat="47.878742" lon="1.838418">
        <ele>78.173</ele>
        <time>2021-09-14T13:56:47Z</time>
      </trkpt>
      <trkpt lat="47.879000" lon="1.838528">
        <ele>76.920</ele>
        <time>2021-09-14T13:56:55Z</time>
      </trkpt>
      <trkpt lat="47.880642" lon="1.840913">
        <ele>82.308</ele>
        <time>2021-09-14T13:57:53Z</time>
      </trkpt>
      <trkpt lat="47.881781" lon="1.843498">
        <ele>77.737</ele>
        <time>2021-09-14T13:59:39Z</time>
      </trkpt>
      <trkpt lat="47.882836" lon="1.844439">
        <ele>79.722</ele>
        <time>2021-09-14T14:00:05Z</time>
      </trkpt>
      <trkpt lat="47.883403" lon="1.845333">
        <ele>81.067</ele>
        <time>2021-09-14T14:00:23Z</time>
      </trkpt>
      <trkpt lat="47.885463" lon="1.850208">
        <ele>84.964</ele>
        <time>2021-09-14T14:01:43Z</time>
      </trkpt>
      <trkpt lat="47.886496" lon="1.853089">
        <ele>85.989</ele>
        <time>2021-09-14T14:02:31Z</time>
      </trkpt>
      <trkpt lat="47.887007" lon="1.855168">
        <ele>85.846</ele>
        <time>2021-09-14T14:03:03Z</time>
      </trkpt>
      <trkpt lat="47.887284" lon="1.857443">
        <ele>88.968</ele>
        <time>2021-09-14T14:03:38Z</time>
      </trkpt>
      <trkpt lat="47.888533" lon="1.861019">
        <ele>84.848</ele>
        <time>2021-09-14T14:04:32Z</time>
      </trkpt>
      <trkpt lat="47.888618" lon="1.862449">
        <ele>87.956</ele>
        <time>2021-09-14T14:05:00Z</time>
      </trkpt>
      <trkpt lat="47.889101" lon="1.863680">
        <ele>87.559</ele>
        <time>2021-09-14T14:05:33Z</time>
      </trkpt>
      <trkpt lat="47.890488" lon="1.868913">
        <ele>87.114</ele>
        <time>2021-09-14T14:07:07Z</time>
      </trkpt>
      <trkpt lat="47.890818" lon="1.869628">
        <ele>84.608</ele>
        <time>2021-09-14T14:07:21Z</time>
      </trkpt>
      <trkpt lat="47.891530" lon="1.872590">
        <ele>85.053</ele>
        <time>2021-09-14T14:08:09Z</time>
      </trkpt>
      <trkpt lat="47.892400" lon="1.874449">
        <ele>83.658</ele>
        <time>2021-09-14T14:08:44Z</time>
      </trkpt>
      <trkpt lat="47.892623" lon="1.875418">
        <ele>86.583</ele>
        <time>2021-09-14T14:09:41Z</time>
      </trkpt>
      <trkpt lat="47.893443" lon="1.876105">
        <ele>90.440</ele>
        <time>2021-09-14T14:10:16Z</time>
      </trkpt>
      <trkpt lat="47.897821" lon="1.876436">
        <ele>100.475</ele>
        <time>2021-09-14T14:19:22Z</time>
      </trkpt>
      <trkpt lat="47.897806" lon="1.892634">
        <ele>88.382</ele>
        <time>2021-09-14T14:23:07Z</time>
      </trkpt>
      <trkpt lat="47.897613" lon="1.895412">
        <ele>94.774</ele>
        <time>2021-09-14T14:23:57Z</time>
      </trkpt>
      <trkpt lat="47.897992" lon="1.900428">
        <ele>94.724</ele>
        <time>2021-09-14T14:25:55Z</time>
      </trkpt>
      <trkpt lat="47.897960" lon="1.903951">
        <ele>105.046</ele>
        <time>2021-09-14T14:27:33Z</time>
      </trkpt>
      <trkpt lat="47.898219" lon="1.904249">
        <ele>100.188</ele>
        <time>2021-09-14T14:28:23Z</time>
      </trkpt>
      <trkpt lat="47.898901" lon="1.904062">
        <ele>107.616</ele>
        <time>2021-09-14T14:28:43Z</time>
      </trkpt>
      <trkpt lat="47.900104" lon="1.904089">
        <ele>110.108</ele>
        <time>2021-09-14T14:29:22Z</time>
      </trkpt>
      <trkpt lat="47.900788" lon="1.903903">
        <ele>117.312</ele>
        <time>2021-09-14T14:29:42Z</time>
      </trkpt>
      <trkpt lat="47.901958" lon="1.903841">
        <ele>117.637</ele>
        <time>2021-09-14T14:30:45Z</time>
      </trkpt>
      <trkpt lat="47.902269" lon="1.904086">
        <ele>106.472</ele>
        <time>2021-09-14T14:31:00Z</time>
      </trkpt>
      <trkpt lat="47.902400" lon="1.903942">
        <ele>107.019</ele>
        <time>2021-09-14T14:35:01Z</time>
      </trkpt>
      <trkpt lat="47.902337" lon="1.904298">
        <ele>106.284</ele>
        <time>2021-09-14T14:35:27Z</time>
      </trkpt>
      <trkpt lat="47.902505" lon="1.904628">
        <ele>106.181</ele>
        <time>2021-09-14T14:35:52Z</time>
      </trkpt>
      <trkpt lat="47.902659" lon="1.904390">
        <ele>116.763</ele>
        <time>2021-09-14T14:36:56Z</time>
      </trkpt>
      <trkpt lat="47.902444" lon="1.903686">
        <ele>123.733</ele>
        <time>2021-09-14T14:39:14Z</time>
      </trkpt>
      <trkpt lat="47.902301" lon="1.903659">
        <ele>121.373</ele>
        <time>2021-09-14T14:40:24Z</time>
      </trkpt>
      <trkpt lat="47.902200" lon="1.904132">
        <ele>114.585</ele>
        <time>2021-09-14T14:46:26Z</time>
      </trkpt>
      <trkpt lat="47.902046" lon="1.903897">
        <ele>112.513</ele>
        <time>2021-09-14T14:46:42Z</time>
      </trkpt>
      <trkpt lat="47.901352" lon="1.904100">
        <ele>113.008</ele>
        <time>2021-09-14T14:47:33Z</time>
      </trkpt>
      <trkpt lat="47.901772" lon="1.908610">
        <ele>131.315</ele>
        <time>2021-09-14T14:55:43Z</time>
      </trkpt>
      <trkpt lat="47.901677" lon="1.908646">
        <ele>131.480</ele>
        <time>2021-09-14T14:55:53Z</time>
      </trkpt>
      <trkpt lat="47.901649" lon="1.908419">
        <ele>119.495</ele>
        <time>2021-09-14T14:56:10Z</time>
      </trkpt>
      <trkpt lat="47.901750" lon="1.907948">
        <ele>121.582</ele>
        <time>2021-09-14T14:57:10Z</time>
      </trkpt>
      <trkpt lat="47.901632" lon="1.907519">
        <ele>114.497</ele>
        <time>2021-09-14T14:58:02Z</time>
      </trkpt>
      <trkpt lat="47.901492" lon="1.907523">
        <ele>118.584</ele>
        <time>2021-09-14T14:58:19Z</time>
      </trkpt>
      <trkpt lat="47.901686" lon="1.907282">
        <ele>128.526</ele>
        <time>2021-09-14T14:59:31Z</time>
      </trkpt>
      <trkpt lat="47.901708" lon="1.906616">
        <ele>137.166</ele>
        <time>2021-09-14T15:11:44Z</time>
      </trkpt>
      <trkpt lat="47.901586" lon="1.906649">
        <ele>122.694</ele>
        <time>2021-09-14T15:13:41Z</time>
      </trkpt>
      <trkpt lat="47.901751" lon="1.908783">
        <ele>120.557</ele>
        <time>2021-09-14T15:15:25Z</time>
      </trkpt>
      <trkpt lat="47.901239" lon="1.909177">
        <ele>115.722</ele>
        <time>2021-09-14T15:15:56Z</time>
      </trkpt>
      <trkpt lat="47.901218" lon="1.910410">
        <ele>112.508</ele>
        <time>2021-09-14T15:16:32Z</time>
      </trkpt>
      <trkpt lat="47.901327" lon="1.911176">
        <ele>110.497</ele>
        <time>2021-09-14T15:17:47Z</time>
      </trkpt>
      <trkpt lat="47.901639" lon="1.911226">
        <ele>108.362</ele>
        <time>2021-09-14T15:18:08Z</time>
      </trkpt>
      <trkpt lat="47.901909" lon="1.911495">
        <ele>108.067</ele>
        <time>2021-09-14T15:18:28Z</time>
      </trkpt>
      <trkpt lat="47.902151" lon="1.911348">
        <ele>111.794</ele>
        <time>2021-09-14T15:18:42Z</time>
      </trkpt>
      <trkpt lat="47.902269" lon="1.910825">
        <ele>113.729</ele>
        <time>2021-09-14T15:19:02Z</time>
      </trkpt>
      <trkpt lat="47.902076" lon="1.911348">
        <ele>117.186</ele>
        <time>2021-09-14T15:19:30Z</time>
      </trkpt>
      <trkpt lat="47.901834" lon="1.911381">
        <ele>111.738</ele>
        <time>2021-09-14T15:19:46Z</time>
      </trkpt>
      <trkpt lat="47.901463" lon="1.909565">
        <ele>113.638</ele>
        <time>2021-09-14T15:23:34Z</time>
      </trkpt>
      <trkpt lat="47.902288" lon="1.939782">
        <ele>93.284</ele>
        <time>2021-09-14T16:25:53Z</time>
      </trkpt>
      <trkpt lat="47.902667" lon="1.941168">
        <ele>94.007</ele>
        <time>2021-09-14T16:26:26Z</time>
      </trkpt>
      <trkpt lat="47.902780" lon="1.943991">
        <ele>93.317</ele>
        <time>2021-09-14T16:27:16Z</time>
      </trkpt>
      <trkpt lat="47.903301" lon="1.945641">
        <ele>95.108</ele>
        <time>2021-09-14T16:27:44Z</time>
      </trkpt>
      <trkpt lat="47.903756" lon="1.947865">
        <ele>92.586</ele>
        <time>2021-09-14T16:28:22Z</time>
      </trkpt>
      <trkpt lat="47.904104" lon="1.951115">
        <ele>101.191</ele>
        <time>2021-09-14T16:29:19Z</time>
      </trkpt>
      <trkpt lat="47.904121" lon="1.955264">
        <ele>99.556</ele>
        <time>2021-09-14T16:30:21Z</time>
      </trkpt>
      <trkpt lat="47.904004" lon="1.958309">
        <ele>100.443</ele>
        <time>2021-09-14T16:31:07Z</time>
      </trkpt>
      <trkpt lat="47.903458" lon="1.963991">
        <ele>94.618</ele>
        <time>2021-09-14T16:32:44Z</time>
      </trkpt>
      <trkpt lat="47.903403" lon="1.972219">
        <ele>93.445</ele>
        <time>2021-09-14T16:34:36Z</time>
      </trkpt>
      <trkpt lat="47.903262" lon="1.973505">
        <ele>93.297</ele>
        <time>2021-09-14T16:34:54Z</time>
      </trkpt>
      <trkpt lat="47.902317" lon="1.979552">
        <ele>89.337</ele>
        <time>2021-09-14T16:36:21Z</time>
      </trkpt>
      <trkpt lat="47.901761" lon="1.981419">
        <ele>90.475</ele>
        <time>2021-09-14T16:36:51Z</time>
      </trkpt>
      <trkpt lat="47.900597" lon="1.984172">
        <ele>87.528</ele>
        <time>2021-09-14T16:37:47Z</time>
      </trkpt>
      <trkpt lat="47.900554" lon="1.985739">
        <ele>89.720</ele>
        <time>2021-09-14T16:38:10Z</time>
      </trkpt>
      <trkpt lat="47.900273" lon="1.987041">
        <ele>93.408</ele>
        <time>2021-09-14T16:38:30Z</time>
      </trkpt>
      <trkpt lat="47.899730" lon="1.987947">
        <ele>92.775</ele>
        <time>2021-09-14T16:38:49Z</time>
      </trkpt>
      <trkpt lat="47.899051" lon="1.989627">
        <ele>94.080</ele>
        <time>2021-09-14T16:39:17Z</time>
      </trkpt>
      <trkpt lat="47.898351" lon="1.991923">
        <ele>96.995</ele>
        <time>2021-09-14T16:39:51Z</time>
      </trkpt>
      <trkpt lat="47.898074" lon="1.993798">
        <ele>90.972</ele>
        <time>2021-09-14T16:40:36Z</time>
      </trkpt>
      <trkpt lat="47.897838" lon="1.993738">
        <ele>91.267</ele>
        <time>2021-09-14T16:40:47Z</time>
      </trkpt>
      <trkpt lat="47.897318" lon="1.995943">
        <ele>92.354</ele>
        <time>2021-09-14T16:41:27Z</time>
      </trkpt>
      <trkpt lat="47.895659" lon="2.000510">
        <ele>93.556</ele>
        <time>2021-09-14T16:42:41Z</time>
      </trkpt>
      <trkpt lat="47.895304" lon="2.001163">
        <ele>90.236</ele>
        <time>2021-09-14T16:43:17Z</time>
      </trkpt>
      <trkpt lat="47.895057" lon="2.000870">
        <ele>93.064</ele>
        <time>2021-09-14T16:43:37Z</time>
      </trkpt>
      <trkpt lat="47.894419" lon="2.001056">
        <ele>88.906</ele>
        <time>2021-09-14T16:43:48Z</time>
      </trkpt>
      <trkpt lat="47.894060" lon="2.001812">
        <ele>88.416</ele>
        <time>2021-09-14T16:44:00Z</time>
      </trkpt>
      <trkpt lat="47.893721" lon="2.003528">
        <ele>90.608</ele>
        <time>2021-09-14T16:44:23Z</time>
      </trkpt>
      <trkpt lat="47.893532" lon="2.006929">
        <ele>92.924</ele>
        <time>2021-09-14T16:45:12Z</time>
      </trkpt>
      <trkpt lat="47.893146" lon="2.010207">
        <ele>92.299</ele>
        <time>2021-09-14T16:46:01Z</time>
      </trkpt>
      <trkpt lat="47.892208" lon="2.014977">
        <ele>91.094</ele>
        <time>2021-09-14T16:47:09Z</time>
      </trkpt>
      <trkpt lat="47.891293" lon="2.020720">
        <ele>94.441</ele>
        <time>2021-09-14T16:48:36Z</time>
      </trkpt>
      <trkpt lat="47.890266" lon="2.024115">
        <ele>94.816</ele>
        <time>2021-09-14T16:49:35Z</time>
      </trkpt>
      <trkpt lat="47.890472" lon="2.026276">
        <ele>94.683</ele>
        <time>2021-09-14T16:50:11Z</time>
      </trkpt>
      <trkpt lat="47.890399" lon="2.027225">
        <ele>97.435</ele>
        <time>2021-09-14T16:50:34Z</time>
      </trkpt>
      <trkpt lat="47.890334" lon="2.027334">
        <ele>97.855</ele>
        <time>2021-09-14T16:51:09Z</time>
      </trkpt>
      <trkpt lat="47.890014" lon="2.027242">
        <ele>97.795</ele>
        <time>2021-09-14T16:51:23Z</time>
      </trkpt>
      <trkpt lat="47.889277" lon="2.027427">
        <ele>95.149</ele>
        <time>2021-09-14T16:51:41Z</time>
      </trkpt>
      <trkpt lat="47.888226" lon="2.027434">
        <ele>94.723</ele>
        <time>2021-09-14T16:52:04Z</time>
      </trkpt>
      <trkpt lat="47.885893" lon="2.027743">
        <ele>99.508</ele>
        <time>2021-09-14T16:53:20Z</time>
      </trkpt>
      <trkpt lat="47.885692" lon="2.028033">
        <ele>96.737</ele>
        <time>2021-09-14T16:53:28Z</time>
      </trkpt>
      <trkpt lat="47.885820" lon="2.028077">
        <ele>101.032</ele>
        <time>2021-09-14T16:54:57Z</time>
      </trkpt>
      <trkpt lat="47.885778" lon="2.027771">
        <ele>102.917</ele>
        <time>2021-09-14T16:55:19Z</time>
      </trkpt>
      <trkpt lat="47.888137" lon="2.027439">
        <ele>95.994</ele>
        <time>2021-09-14T16:56:09Z</time>
      </trkpt>
      <trkpt lat="47.890318" lon="2.027339">
        <ele>96.979</ele>
        <time>2021-09-14T16:56:56Z</time>
      </trkpt>
      <trkpt lat="47.890928" lon="2.027090">
        <ele>100.966</ele>
        <time>2021-09-14T16:57:12Z</time>
      </trkpt>
      <trkpt lat="47.891059" lon="2.026734">
        <ele>99.768</ele>
        <time>2021-09-14T16:57:20Z</time>
      </trkpt>
      <trkpt lat="47.891047" lon="2.025442">
        <ele>101.328</ele>
        <time>2021-09-14T16:57:50Z</time>
      </trkpt>
      <trkpt lat="47.891450" lon="2.024734">
        <ele>108.414</ele>
        <time>2021-09-14T16:58:13Z</time>
      </trkpt>
      <trkpt lat="47.891738" lon="2.023805">
        <ele>108.554</ele>
        <time>2021-09-14T16:58:35Z</time>
      </trkpt>
      <trkpt lat="47.891558" lon="2.024747">
        <ele>107.309</ele>
        <time>2021-09-14T17:03:50Z</time>
      </trkpt>
      <trkpt lat="47.891086" lon="2.025475">
        <ele>103.508</ele>
        <time>2021-09-14T17:04:02Z</time>
      </trkpt>
      <trkpt lat="47.891074" lon="2.026878">
        <ele>100.039</ele>
        <time>2021-09-14T17:04:17Z</time>
      </trkpt>
      <trkpt lat="47.890869" lon="2.027186">
        <ele>99.234</ele>
        <time>2021-09-14T17:04:22Z</time>
      </trkpt>
      <trkpt lat="47.890644" lon="2.027248">
        <ele>98.739</ele>
        <time>2021-09-14T17:04:26Z</time>
      </trkpt>
      <trkpt lat="47.886470" lon="2.027665">
        <ele>93.536</ele>
        <time>2021-09-14T17:05:46Z</time>
      </trkpt>
      <trkpt lat="47.885955" lon="2.027773">
        <ele>95.351</ele>
        <time>2021-09-14T17:05:57Z</time>
      </trkpt>
      <trkpt lat="47.885742" lon="2.028005">
        <ele>96.458</ele>
        <time>2021-09-14T17:06:05Z</time>
      </trkpt>
      <trkpt lat="47.885875" lon="2.027691">
        <ele>97.110</ele>
        <time>2021-09-14T17:16:15Z</time>
      </trkpt>
      <trkpt lat="47.889302" lon="2.027461">
        <ele>97.690</ele>
        <time>2021-09-14T17:17:30Z</time>
      </trkpt>
      <trkpt lat="47.890893" lon="2.027142">
        <ele>100.894</ele>
        <time>2021-09-14T17:18:12Z</time>
      </trkpt>
      <trkpt lat="47.891092" lon="2.026730">
        <ele>101.357</ele>
        <time>2021-09-14T17:18:22Z</time>
      </trkpt>
      <trkpt lat="47.891052" lon="2.025557">
        <ele>102.822</ele>
        <time>2021-09-14T17:18:48Z</time>
      </trkpt>
      <trkpt lat="47.891740" lon="2.023828">
        <ele>105.008</ele>
        <time>2021-09-14T17:20:29Z</time>
      </trkpt>
      <trkpt lat="47.891469" lon="2.024803">
        <ele>109.227</ele>
        <time>2021-09-14T17:20:54Z</time>
      </trkpt>
      <trkpt lat="47.891016" lon="2.025526">
        <ele>105.262</ele>
        <time>2021-09-14T17:21:09Z</time>
      </trkpt>
      <trkpt lat="47.891068" lon="2.026759">
        <ele>99.697</ele>
        <time>2021-09-14T17:21:24Z</time>
      </trkpt>
      <trkpt lat="47.890929" lon="2.027117">
        <ele>98.954</ele>
        <time>2021-09-14T17:21:29Z</time>
      </trkpt>
      <trkpt lat="47.885840" lon="2.027766">
        <ele>96.089</ele>
        <time>2021-09-14T17:23:22Z</time>
      </trkpt>
      <trkpt lat="47.885727" lon="2.027962">
        <ele>95.396</ele>
        <time>2021-09-14T17:23:29Z</time>
      </trkpt>
      <trkpt lat="47.885868" lon="2.028269">
        <ele>93.718</ele>
        <time>2021-09-14T17:25:38Z</time>
      </trkpt>
      <trkpt lat="47.885719" lon="2.028377">
        <ele>98.258</ele>
        <time>2021-09-14T17:26:59Z</time>
      </trkpt>
      <trkpt lat="47.885582" lon="2.028910">
        <ele>96.188</ele>
        <time>2021-09-14T17:27:44Z</time>
      </trkpt>
      <trkpt lat="47.885647" lon="2.028122">
        <ele>94.887</ele>
        <time>2021-09-15T10:27:20Z</time>
      </trkpt>
      <trkpt lat="47.884597" lon="2.029559">
        <ele>91.542</ele>
        <time>2021-09-15T10:28:06Z</time>
      </trkpt>
      <trkpt lat="47.883640" lon="2.030059">
        <ele>84.526</ele>
        <time>2021-09-15T10:28:32Z</time>
      </trkpt>
      <trkpt lat="47.882032" lon="2.032389">
        <ele>84.108</ele>
        <time>2021-09-15T10:29:35Z</time>
      </trkpt>
      <trkpt lat="47.881435" lon="2.033011">
        <ele>84.476</ele>
        <time>2021-09-15T10:29:51Z</time>
      </trkpt>
      <trkpt lat="47.879441" lon="2.034861">
        <ele>81.661</ele>
        <time>2021-09-15T10:30:50Z</time>
      </trkpt>
      <trkpt lat="47.878530" lon="2.035368">
        <ele>78.727</ele>
        <time>2021-09-15T10:31:11Z</time>
      </trkpt>
      <trkpt lat="47.877566" lon="2.035678">
        <ele>73.630</ele>
        <time>2021-09-15T10:31:31Z</time>
      </trkpt>
      <trkpt lat="47.876282" lon="2.035630">
        <ele>79.192</ele>
        <time>2021-09-15T10:32:00Z</time>
      </trkpt>
      <trkpt lat="47.874157" lon="2.036380">
        <ele>79.636</ele>
        <time>2021-09-15T10:32:48Z</time>
      </trkpt>
      <trkpt lat="47.872762" lon="2.036648">
        <ele>81.570</ele>
        <time>2021-09-15T10:33:18Z</time>
      </trkpt>
      <trkpt lat="47.871181" lon="2.036489">
        <ele>85.838</ele>
        <time>2021-09-15T10:33:53Z</time>
      </trkpt>
      <trkpt lat="47.869683" lon="2.036730">
        <ele>83.993</ele>
        <time>2021-09-15T10:34:25Z</time>
      </trkpt>
      <trkpt lat="47.867324" lon="2.036685">
        <ele>91.165</ele>
        <time>2021-09-15T10:35:17Z</time>
      </trkpt>
      <trkpt lat="47.865923" lon="2.039591">
        <ele>86.621</ele>
        <time>2021-09-15T10:36:09Z</time>
      </trkpt>
      <trkpt lat="47.865728" lon="2.039693">
        <ele>84.808</ele>
        <time>2021-09-15T10:36:15Z</time>
      </trkpt>
      <trkpt lat="47.865727" lon="2.040008">
        <ele>80.617</ele>
        <time>2021-09-15T10:36:58Z</time>
      </trkpt>
      <trkpt lat="47.863618" lon="2.044174">
        <ele>82.742</ele>
        <time>2021-09-15T10:39:04Z</time>
      </trkpt>
      <trkpt lat="47.863329" lon="2.047972">
        <ele>91.288</ele>
        <time>2021-09-15T10:40:33Z</time>
      </trkpt>
      <trkpt lat="47.862965" lon="2.050656">
        <ele>87.541</ele>
        <time>2021-09-15T10:41:11Z</time>
      </trkpt>
      <trkpt lat="47.863014" lon="2.053412">
        <ele>91.063</ele>
        <time>2021-09-15T10:41:50Z</time>
      </trkpt>
      <trkpt lat="47.863757" lon="2.054457">
        <ele>92.457</ele>
        <time>2021-09-15T10:42:10Z</time>
      </trkpt>
      <trkpt lat="47.865092" lon="2.054648">
        <ele>92.761</ele>
        <time>2021-09-15T10:42:34Z</time>
      </trkpt>
      <trkpt lat="47.865649" lon="2.055021">
        <ele>93.929</ele>
        <time>2021-09-15T10:42:47Z</time>
      </trkpt>
      <trkpt lat="47.867653" lon="2.056879">
        <ele>92.546</ele>
        <time>2021-09-15T10:45:00Z</time>
      </trkpt>
      <trkpt lat="47.867963" lon="2.057431">
        <ele>94.688</ele>
        <time>2021-09-15T10:45:12Z</time>
      </trkpt>
      <trkpt lat="47.869005" lon="2.061425">
        <ele>92.016</ele>
        <time>2021-09-15T10:46:08Z</time>
      </trkpt>
      <trkpt lat="47.871163" lon="2.066426">
        <ele>93.908</ele>
        <time>2021-09-15T10:47:23Z</time>
      </trkpt>
      <trkpt lat="47.871472" lon="2.067471">
        <ele>93.032</ele>
        <time>2021-09-15T10:47:37Z</time>
      </trkpt>
      <trkpt lat="47.872597" lon="2.072595">
        <ele>91.787</ele>
        <time>2021-09-15T10:48:46Z</time>
      </trkpt>
      <trkpt lat="47.872969" lon="2.075630">
        <ele>92.763</ele>
        <time>2021-09-15T10:49:26Z</time>
      </trkpt>
      <trkpt lat="47.873429" lon="2.076867">
        <ele>94.686</ele>
        <time>2021-09-15T10:49:46Z</time>
      </trkpt>
      <trkpt lat="47.873683" lon="2.081801">
        <ele>94.098</ele>
        <time>2021-09-15T10:51:33Z</time>
      </trkpt>
      <trkpt lat="47.874440" lon="2.084816">
        <ele>95.372</ele>
        <time>2021-09-15T10:52:18Z</time>
      </trkpt>
      <trkpt lat="47.874530" lon="2.084874">
        <ele>94.376</ele>
        <time>2021-09-15T10:52:32Z</time>
      </trkpt>
      <trkpt lat="47.874347" lon="2.084509">
        <ele>94.484</ele>
        <time>2021-09-15T10:52:48Z</time>
      </trkpt>
      <trkpt lat="47.874176" lon="2.083343">
        <ele>97.975</ele>
        <time>2021-09-15T10:53:07Z</time>
      </trkpt>
      <trkpt lat="47.873662" lon="2.081882">
        <ele>96.928</ele>
        <time>2021-09-15T10:53:30Z</time>
      </trkpt>
      <trkpt lat="47.873458" lon="2.076995">
        <ele>98.120</ele>
        <time>2021-09-15T10:54:43Z</time>
      </trkpt>
      <trkpt lat="47.874839" lon="2.080146">
        <ele>90.608</ele>
        <time>2021-09-15T10:55:41Z</time>
      </trkpt>
      <trkpt lat="47.875770" lon="2.081007">
        <ele>99.195</ele>
        <time>2021-09-15T10:56:12Z</time>
      </trkpt>
      <trkpt lat="47.877663" lon="2.081376">
        <ele>107.810</ele>
        <time>2021-09-15T10:57:27Z</time>
      </trkpt>
      <trkpt lat="47.877077" lon="2.082373">
        <ele>106.876</ele>
        <time>2021-09-15T10:58:02Z</time>
      </trkpt>
      <trkpt lat="47.877103" lon="2.084593">
        <ele>94.749</ele>
        <time>2021-09-15T10:58:39Z</time>
      </trkpt>
      <trkpt lat="47.876819" lon="2.086708">
        <ele>94.581</ele>
        <time>2021-09-15T10:59:11Z</time>
      </trkpt>
      <trkpt lat="47.876528" lon="2.087669">
        <ele>96.085</ele>
        <time>2021-09-15T10:59:23Z</time>
      </trkpt>
      <trkpt lat="47.875726" lon="2.089370">
        <ele>95.569</ele>
        <time>2021-09-15T10:59:52Z</time>
      </trkpt>
      <trkpt lat="47.875802" lon="2.093121">
        <ele>104.627</ele>
        <time>2021-09-15T11:00:51Z</time>
      </trkpt>
      <trkpt lat="47.875619" lon="2.095232">
        <ele>104.146</ele>
        <time>2021-09-15T11:01:21Z</time>
      </trkpt>
      <trkpt lat="47.878704" lon="2.098980">
        <ele>113.588</ele>
        <time>2021-09-15T11:02:58Z</time>
      </trkpt>
      <trkpt lat="47.878975" lon="2.099364">
        <ele>115.916</ele>
        <time>2021-09-15T11:03:07Z</time>
      </trkpt>
      <trkpt lat="47.879028" lon="2.099723">
        <ele>113.308</ele>
        <time>2021-09-15T11:03:13Z</time>
      </trkpt>
      <trkpt lat="47.876461" lon="2.109443">
        <ele>98.232</ele>
        <time>2021-09-15T11:05:24Z</time>
      </trkpt>
      <trkpt lat="47.875283" lon="2.115728">
        <ele>107.417</ele>
        <time>2021-09-15T11:06:56Z</time>
      </trkpt>
      <trkpt lat="47.872696" lon="2.126676">
        <ele>100.233</ele>
        <time>2021-09-15T11:10:13Z</time>
      </trkpt>
      <trkpt lat="47.872522" lon="2.126799">
        <ele>100.236</ele>
        <time>2021-09-15T11:10:19Z</time>
      </trkpt>
      <trkpt lat="47.871277" lon="2.126350">
        <ele>111.778</ele>
        <time>2021-09-15T11:10:53Z</time>
      </trkpt>
      <trkpt lat="47.867051" lon="2.123966">
        <ele>102.652</ele>
        <time>2021-09-15T11:12:24Z</time>
      </trkpt>
      <trkpt lat="47.867325" lon="2.124302">
        <ele>101.846</ele>
        <time>2021-09-15T11:12:42Z</time>
      </trkpt>
      <trkpt lat="47.866859" lon="2.127168">
        <ele>105.274</ele>
        <time>2021-09-15T11:13:37Z</time>
      </trkpt>
      <trkpt lat="47.866143" lon="2.128604">
        <ele>103.487</ele>
        <time>2021-09-15T11:14:03Z</time>
      </trkpt>
      <trkpt lat="47.864830" lon="2.130324">
        <ele>97.142</ele>
        <time>2021-09-15T11:14:38Z</time>
      </trkpt>
      <trkpt lat="47.863473" lon="2.132847">
        <ele>95.726</ele>
        <time>2021-09-15T11:15:22Z</time>
      </trkpt>
      <trkpt lat="47.857212" lon="2.140353">
        <ele>97.408</ele>
        <time>2021-09-15T11:17:59Z</time>
      </trkpt>
      <trkpt lat="47.857044" lon="2.140232">
        <ele>99.256</ele>
        <time>2021-09-15T11:18:08Z</time>
      </trkpt>
      <trkpt lat="47.856527" lon="2.138112">
        <ele>97.451</ele>
        <time>2021-09-15T11:18:39Z</time>
      </trkpt>
      <trkpt lat="47.856384" lon="2.138100">
        <ele>97.487</ele>
        <time>2021-09-15T11:18:43Z</time>
      </trkpt>
      <trkpt lat="47.856037" lon="2.138469">
        <ele>97.750</ele>
        <time>2021-09-15T11:18:51Z</time>
      </trkpt>
      <trkpt lat="47.855069" lon="2.139739">
        <ele>96.032</ele>
        <time>2021-09-15T11:19:18Z</time>
      </trkpt>
      <trkpt lat="47.853441" lon="2.142431">
        <ele>90.146</ele>
        <time>2021-09-15T11:20:03Z</time>
      </trkpt>
      <trkpt lat="47.850901" lon="2.145675">
        <ele>87.970</ele>
        <time>2021-09-15T11:21:03Z</time>
      </trkpt>
      <trkpt lat="47.849999" lon="2.147224">
        <ele>88.878</ele>
        <time>2021-09-15T11:21:27Z</time>
      </trkpt>
      <trkpt lat="47.849794" lon="2.147993">
        <ele>90.259</ele>
        <time>2021-09-15T11:21:37Z</time>
      </trkpt>
      <trkpt lat="47.849676" lon="2.151855">
        <ele>95.203</ele>
        <time>2021-09-15T11:22:22Z</time>
      </trkpt>
      <trkpt lat="47.850121" lon="2.154141">
        <ele>93.823</ele>
        <time>2021-09-15T11:22:54Z</time>
      </trkpt>
      <trkpt lat="47.850328" lon="2.156506">
        <ele>101.108</ele>
        <time>2021-09-15T11:23:39Z</time>
      </trkpt>
      <trkpt lat="47.850117" lon="2.158789">
        <ele>103.513</ele>
        <time>2021-09-15T11:24:11Z</time>
      </trkpt>
      <trkpt lat="47.848854" lon="2.164252">
        <ele>95.448</ele>
        <time>2021-09-15T11:25:21Z</time>
      </trkpt>
      <trkpt lat="47.848160" lon="2.168776">
        <ele>99.584</ele>
        <time>2021-09-15T11:26:16Z</time>
      </trkpt>
      <trkpt lat="47.848057" lon="2.171180">
        <ele>99.017</ele>
        <time>2021-09-15T11:26:44Z</time>
      </trkpt>
      <trkpt lat="47.848270" lon="2.174558">
        <ele>99.149</ele>
        <time>2021-09-15T11:28:07Z</time>
      </trkpt>
      <trkpt lat="47.848111" lon="2.177470">
        <ele>101.933</ele>
        <time>2021-09-15T11:28:41Z</time>
      </trkpt>
      <trkpt lat="47.847928" lon="2.178390">
        <ele>103.197</ele>
        <time>2021-09-15T11:28:52Z</time>
      </trkpt>
      <trkpt lat="47.847560" lon="2.179088">
        <ele>102.415</ele>
        <time>2021-09-15T11:29:02Z</time>
      </trkpt>
      <trkpt lat="47.847344" lon="2.179216">
        <ele>102.283</ele>
        <time>2021-09-15T11:29:06Z</time>
      </trkpt>
      <trkpt lat="47.846767" lon="2.179130">
        <ele>101.125</ele>
        <time>2021-09-15T11:29:16Z</time>
      </trkpt>
      <trkpt lat="47.846436" lon="2.179325">
        <ele>101.317</ele>
        <time>2021-09-15T11:29:22Z</time>
      </trkpt>
      <trkpt lat="47.846132" lon="2.179791">
        <ele>102.008</ele>
        <time>2021-09-15T11:29:30Z</time>
      </trkpt>
      <trkpt lat="47.846009" lon="2.180341">
        <ele>101.166</ele>
        <time>2021-09-15T11:29:37Z</time>
      </trkpt>
      <trkpt lat="47.846230" lon="2.182427">
        <ele>98.131</ele>
        <time>2021-09-15T11:30:02Z</time>
      </trkpt>
      <trkpt lat="47.845928" lon="2.184768">
        <ele>105.317</ele>
        <time>2021-09-15T11:30:29Z</time>
      </trkpt>
      <trkpt lat="47.845803" lon="2.188211">
        <ele>108.910</ele>
        <time>2021-09-15T11:31:08Z</time>
      </trkpt>
      <trkpt lat="47.845958" lon="2.191836">
        <ele>104.132</ele>
        <time>2021-09-15T11:33:30Z</time>
      </trkpt>
      <trkpt lat="47.846148" lon="2.193709">
        <ele>105.376</ele>
        <time>2021-09-15T11:33:57Z</time>
      </trkpt>
      <trkpt lat="47.847604" lon="2.200786">
        <ele>98.390</ele>
        <time>2021-09-15T11:35:39Z</time>
      </trkpt>
      <trkpt lat="47.847436" lon="2.203068">
        <ele>102.078</ele>
        <time>2021-09-15T11:36:04Z</time>
      </trkpt>
      <trkpt lat="47.846512" lon="2.207467">
        <ele>106.225</ele>
        <time>2021-09-15T11:37:14Z</time>
      </trkpt>
      <trkpt lat="47.848899" lon="2.208598">
        <ele>97.226</ele>
        <time>2021-09-15T11:37:59Z</time>
      </trkpt>
      <trkpt lat="47.850182" lon="2.210262">
        <ele>92.008</ele>
        <time>2021-09-15T11:38:28Z</time>
      </trkpt>
      <trkpt lat="47.851954" lon="2.213580">
        <ele>93.408</ele>
        <time>2021-09-15T11:39:19Z</time>
      </trkpt>
      <trkpt lat="47.853345" lon="2.217191">
        <ele>94.830</ele>
        <time>2021-09-15T11:40:06Z</time>
      </trkpt>
      <trkpt lat="47.854571" lon="2.219303">
        <ele>96.215</ele>
        <time>2021-09-15T11:40:39Z</time>
      </trkpt>
      <trkpt lat="47.855805" lon="2.221884">
        <ele>92.241</ele>
        <time>2021-09-15T11:41:20Z</time>
      </trkpt>
      <trkpt lat="47.856056" lon="2.222520">
        <ele>95.464</ele>
        <time>2021-09-15T11:41:30Z</time>
      </trkpt>
      <trkpt lat="47.856235" lon="2.223618">
        <ele>97.616</ele>
        <time>2021-09-15T11:42:39Z</time>
      </trkpt>
      <trkpt lat="47.859907" lon="2.223334">
        <ele>104.510</ele>
        <time>2021-09-15T11:44:18Z</time>
      </trkpt>
      <trkpt lat="47.860958" lon="2.224005">
        <ele>109.824</ele>
        <time>2021-09-15T11:45:13Z</time>
      </trkpt>
      <trkpt lat="47.860119" lon="2.223469">
        <ele>101.252</ele>
        <time>2021-09-15T11:47:34Z</time>
      </trkpt>
      <trkpt lat="47.860262" lon="2.223147">
        <ele>96.177</ele>
        <time>2021-09-15T11:48:33Z</time>
      </trkpt>
      <trkpt lat="47.860115" lon="2.223106">
        <ele>105.461</ele>
        <time>2021-09-15T12:14:08Z</time>
      </trkpt>
      <trkpt lat="47.859917" lon="2.223702">
        <ele>101.027</ele>
        <time>2021-09-15T12:14:31Z</time>
      </trkpt>
      <trkpt lat="47.859950" lon="2.226503">
        <ele>100.108</ele>
        <time>2021-09-15T12:16:06Z</time>
      </trkpt>
      <trkpt lat="47.859798" lon="2.228777">
        <ele>104.455</ele>
        <time>2021-09-15T12:16:41Z</time>
      </trkpt>
      <trkpt lat="47.859331" lon="2.231450">
        <ele>99.260</ele>
        <time>2021-09-15T12:17:28Z</time>
      </trkpt>
      <trkpt lat="47.859381" lon="2.231851">
        <ele>98.516</ele>
        <time>2021-09-15T12:18:05Z</time>
      </trkpt>
      <trkpt lat="47.859090" lon="2.232827">
        <ele>104.899</ele>
        <time>2021-09-15T12:18:39Z</time>
      </trkpt>
      <trkpt lat="47.858861" lon="2.234403">
        <ele>106.581</ele>
        <time>2021-09-15T12:23:52Z</time>
      </trkpt>
      <trkpt lat="47.858660" lon="2.234804">
        <ele>107.085</ele>
        <time>2021-09-15T12:24:08Z</time>
      </trkpt>
      <trkpt lat="47.858623" lon="2.235439">
        <ele>102.019</ele>
        <time>2021-09-15T12:24:23Z</time>
      </trkpt>
      <trkpt lat="47.857773" lon="2.238312">
        <ele>107.727</ele>
        <time>2021-09-15T12:25:16Z</time>
      </trkpt>
      <trkpt lat="47.857716" lon="2.239994">
        <ele>102.815</ele>
        <time>2021-09-15T12:25:43Z</time>
      </trkpt>
      <trkpt lat="47.857579" lon="2.240385">
        <ele>104.565</ele>
        <time>2021-09-15T12:25:50Z</time>
      </trkpt>
      <trkpt lat="47.857293" lon="2.240496">
        <ele>102.411</ele>
        <time>2021-09-15T12:25:59Z</time>
      </trkpt>
      <trkpt lat="47.857090" lon="2.241320">
        <ele>99.808</ele>
        <time>2021-09-15T12:26:13Z</time>
      </trkpt>
      <trkpt lat="47.856836" lon="2.241397">
        <ele>98.449</ele>
        <time>2021-09-15T12:26:23Z</time>
      </trkpt>
      <trkpt lat="47.854745" lon="2.243449">
        <ele>97.184</ele>
        <time>2021-09-15T12:27:13Z</time>
      </trkpt>
      <trkpt lat="47.852108" lon="2.245189">
        <ele>94.430</ele>
        <time>2021-09-15T12:28:08Z</time>
      </trkpt>
      <trkpt lat="47.851048" lon="2.245540">
        <ele>92.213</ele>
        <time>2021-09-15T12:28:29Z</time>
      </trkpt>
      <trkpt lat="47.850475" lon="2.245994">
        <ele>100.625</ele>
        <time>2021-09-15T12:28:49Z</time>
      </trkpt>
      <trkpt lat="47.849948" lon="2.245692">
        <ele>100.849</ele>
        <time>2021-09-15T12:29:02Z</time>
      </trkpt>
      <trkpt lat="47.848366" lon="2.245719">
        <ele>98.793</ele>
        <time>2021-09-15T12:29:33Z</time>
      </trkpt>
      <trkpt lat="47.847296" lon="2.245448">
        <ele>85.061</ele>
        <time>2021-09-15T12:29:56Z</time>
      </trkpt>
      <trkpt lat="47.846673" lon="2.245783">
        <ele>87.481</ele>
        <time>2021-09-15T12:30:13Z</time>
      </trkpt>
      <trkpt lat="47.845584" lon="2.245849">
        <ele>98.861</ele>
        <time>2021-09-15T12:30:38Z</time>
      </trkpt>
      <trkpt lat="47.844131" lon="2.247100">
        <ele>103.217</ele>
        <time>2021-09-15T12:31:14Z</time>
      </trkpt>
      <trkpt lat="47.843563" lon="2.247366">
        <ele>98.908</ele>
        <time>2021-09-15T12:31:28Z</time>
      </trkpt>
      <trkpt lat="47.842992" lon="2.248048">
        <ele>101.096</ele>
        <time>2021-09-15T12:31:42Z</time>
      </trkpt>
      <trkpt lat="47.841509" lon="2.250365">
        <ele>101.091</ele>
        <time>2021-09-15T12:32:22Z</time>
      </trkpt>
      <trkpt lat="47.840303" lon="2.252626">
        <ele>101.467</ele>
        <time>2021-09-15T12:32:56Z</time>
      </trkpt>
      <trkpt lat="47.839319" lon="2.253956">
        <ele>99.420</ele>
        <time>2021-09-15T12:33:21Z</time>
      </trkpt>
      <trkpt lat="47.837277" lon="2.258112">
        <ele>106.452</ele>
        <time>2021-09-15T12:34:20Z</time>
      </trkpt>
      <trkpt lat="47.835075" lon="2.260023">
        <ele>100.096</ele>
        <time>2021-09-15T12:35:04Z</time>
      </trkpt>
      <trkpt lat="47.834503" lon="2.261135">
        <ele>102.760</ele>
        <time>2021-09-15T12:35:21Z</time>
      </trkpt>
      <trkpt lat="47.830682" lon="2.263718">
        <ele>104.698</ele>
        <time>2021-09-15T12:36:44Z</time>
      </trkpt>
      <trkpt lat="47.830940" lon="2.266287">
        <ele>103.369</ele>
        <time>2021-09-15T12:37:19Z</time>
      </trkpt>
      <trkpt lat="47.830658" lon="2.269909">
        <ele>101.904</ele>
        <time>2021-09-15T12:38:01Z</time>
      </trkpt>
      <trkpt lat="47.831067" lon="2.272022">
        <ele>103.724</ele>
        <time>2021-09-15T12:38:27Z</time>
      </trkpt>
      <trkpt lat="47.830719" lon="2.276399">
        <ele>103.808</ele>
        <time>2021-09-15T12:39:18Z</time>
      </trkpt>
      <trkpt lat="47.831309" lon="2.279899">
        <ele>104.914</ele>
        <time>2021-09-15T12:40:08Z</time>
      </trkpt>
      <trkpt lat="47.831381" lon="2.282413">
        <ele>103.999</ele>
        <time>2021-09-15T12:40:48Z</time>
      </trkpt>
      <trkpt lat="47.831603" lon="2.282262">
        <ele>102.685</ele>
        <time>2021-09-15T12:40:56Z</time>
      </trkpt>
      <trkpt lat="47.831032" lon="2.285127">
        <ele>101.798</ele>
        <time>2021-09-15T12:41:34Z</time>
      </trkpt>
      <trkpt lat="47.831047" lon="2.286181">
        <ele>103.760</ele>
        <time>2021-09-15T12:41:47Z</time>
      </trkpt>
      <trkpt lat="47.830773" lon="2.287181">
        <ele>102.744</ele>
        <time>2021-09-15T12:41:59Z</time>
      </trkpt>
      <trkpt lat="47.831111" lon="2.288453">
        <ele>102.548</ele>
        <time>2021-09-15T12:42:17Z</time>
      </trkpt>
      <trkpt lat="47.830843" lon="2.289670">
        <ele>103.166</ele>
        <time>2021-09-15T12:42:33Z</time>
      </trkpt>
      <trkpt lat="47.829916" lon="2.292026">
        <ele>104.335</ele>
        <time>2021-09-15T12:43:04Z</time>
      </trkpt>
      <trkpt lat="47.827102" lon="2.296541">
        <ele>110.486</ele>
        <time>2021-09-15T12:44:17Z</time>
      </trkpt>
      <trkpt lat="47.826403" lon="2.297337">
        <ele>104.214</ele>
        <time>2021-09-15T12:44:32Z</time>
      </trkpt>
      <trkpt lat="47.824936" lon="2.298048">
        <ele>101.408</ele>
        <time>2021-09-15T12:44:58Z</time>
      </trkpt>
      <trkpt lat="47.823643" lon="2.298002">
        <ele>104.091</ele>
        <time>2021-09-15T12:45:21Z</time>
      </trkpt>
      <trkpt lat="47.822341" lon="2.298353">
        <ele>104.426</ele>
        <time>2021-09-15T12:45:45Z</time>
      </trkpt>
      <trkpt lat="47.818383" lon="2.300320">
        <ele>105.092</ele>
        <time>2021-09-15T12:46:54Z</time>
      </trkpt>
      <trkpt lat="47.817506" lon="2.300539">
        <ele>104.145</ele>
        <time>2021-09-15T12:47:29Z</time>
      </trkpt>
      <trkpt lat="47.817341" lon="2.300388">
        <ele>103.647</ele>
        <time>2021-09-15T12:47:37Z</time>
      </trkpt>
      <trkpt lat="47.816033" lon="2.300338">
        <ele>105.591</ele>
        <time>2021-09-15T12:48:05Z</time>
      </trkpt>
      <trkpt lat="47.815889" lon="2.300020">
        <ele>106.915</ele>
        <time>2021-09-15T12:48:34Z</time>
      </trkpt>
      <trkpt lat="47.814230" lon="2.298929">
        <ele>106.233</ele>
        <time>2021-09-15T12:49:38Z</time>
      </trkpt>
      <trkpt lat="47.811691" lon="2.298058">
        <ele>107.577</ele>
        <time>2021-09-15T12:50:34Z</time>
      </trkpt>
      <trkpt lat="47.811641" lon="2.298346">
        <ele>107.761</ele>
        <time>2021-09-15T12:50:40Z</time>
      </trkpt>
      <trkpt lat="47.811913" lon="2.299404">
        <ele>104.527</ele>
        <time>2021-09-15T12:50:55Z</time>
      </trkpt>
      <trkpt lat="47.813344" lon="2.302321">
        <ele>107.008</ele>
        <time>2021-09-15T12:51:50Z</time>
      </trkpt>
      <trkpt lat="47.810669" lon="2.305394">
        <ele>108.995</ele>
        <time>2021-09-15T12:53:06Z</time>
      </trkpt>
      <trkpt lat="47.809925" lon="2.304743">
        <ele>105.020</ele>
        <time>2021-09-15T12:53:34Z</time>
      </trkpt>
      <trkpt lat="47.809633" lon="2.305028">
        <ele>107.356</ele>
        <time>2021-09-15T12:54:25Z</time>
      </trkpt>
      <trkpt lat="47.809623" lon="2.305314">
        <ele>105.329</ele>
        <time>2021-09-15T12:54:39Z</time>
      </trkpt>
      <trkpt lat="47.809593" lon="2.305178">
        <ele>107.461</ele>
        <time>2021-09-15T12:55:38Z</time>
      </trkpt>
      <trkpt lat="47.809632" lon="2.305299">
        <ele>110.615</ele>
        <time>2021-09-15T12:55:49Z</time>
      </trkpt>
      <trkpt lat="47.810057" lon="2.305050">
        <ele>112.139</ele>
        <time>2021-09-15T13:03:08Z</time>
      </trkpt>
      <trkpt lat="47.810656" lon="2.305444">
        <ele>105.637</ele>
        <time>2021-09-15T13:03:33Z</time>
      </trkpt>
      <trkpt lat="47.810071" lon="2.306915">
        <ele>115.742</ele>
        <time>2021-09-15T13:04:07Z</time>
      </trkpt>
      <trkpt lat="47.809673" lon="2.307490">
        <ele>114.822</ele>
        <time>2021-09-15T13:04:21Z</time>
      </trkpt>
      <trkpt lat="47.808572" lon="2.306912">
        <ele>112.314</ele>
        <time>2021-09-15T13:05:06Z</time>
      </trkpt>
      <trkpt lat="47.809806" lon="2.307652">
        <ele>113.108</ele>
        <time>2021-09-15T13:06:00Z</time>
      </trkpt>
      <trkpt lat="47.810228" lon="2.307074">
        <ele>108.632</ele>
        <time>2021-09-15T13:06:13Z</time>
      </trkpt>
      <trkpt lat="47.810202" lon="2.306682">
        <ele>109.757</ele>
        <time>2021-09-15T13:06:19Z</time>
      </trkpt>
      <trkpt lat="47.810598" lon="2.305450">
        <ele>111.913</ele>
        <time>2021-09-15T13:06:42Z</time>
      </trkpt>
      <trkpt lat="47.809928" lon="2.304637">
        <ele>106.656</ele>
        <time>2021-09-15T13:07:09Z</time>
      </trkpt>
      <trkpt lat="47.810184" lon="2.303670">
        <ele>108.418</ele>
        <time>2021-09-15T13:07:28Z</time>
      </trkpt>
      <trkpt lat="47.811026" lon="2.302655">
        <ele>101.252</ele>
        <time>2021-09-15T13:08:00Z</time>
      </trkpt>
      <trkpt lat="47.810811" lon="2.301466">
        <ele>100.186</ele>
        <time>2021-09-15T13:08:19Z</time>
      </trkpt>
      <trkpt lat="47.809581" lon="2.300529">
        <ele>97.494</ele>
        <time>2021-09-15T13:08:48Z</time>
      </trkpt>
      <trkpt lat="47.808598" lon="2.297465">
        <ele>97.647</ele>
        <time>2021-09-15T13:09:36Z</time>
      </trkpt>
      <trkpt lat="47.807141" lon="2.296188">
        <ele>105.629</ele>
        <time>2021-09-15T13:10:34Z</time>
      </trkpt>
      <trkpt lat="47.807020" lon="2.295893">
        <ele>104.921</ele>
        <time>2021-09-15T13:10:40Z</time>
      </trkpt>
      <trkpt lat="47.807049" lon="2.295279">
        <ele>103.108</ele>
        <time>2021-09-15T13:10:48Z</time>
      </trkpt>
      <trkpt lat="47.806637" lon="2.294807">
        <ele>101.362</ele>
        <time>2021-09-15T13:11:00Z</time>
      </trkpt>
      <trkpt lat="47.806486" lon="2.294867">
        <ele>100.497</ele>
        <time>2021-09-15T13:11:11Z</time>
      </trkpt>
      <trkpt lat="47.806341" lon="2.295542">
        <ele>101.133</ele>
        <time>2021-09-15T13:11:28Z</time>
      </trkpt>
      <trkpt lat="47.805836" lon="2.295917">
        <ele>107.446</ele>
        <time>2021-09-15T13:11:46Z</time>
      </trkpt>
      <trkpt lat="47.805315" lon="2.296027">
        <ele>110.648</ele>
        <time>2021-09-15T13:11:57Z</time>
      </trkpt>
      <trkpt lat="47.803221" lon="2.294907">
        <ele>109.822</ele>
        <time>2021-09-15T13:12:42Z</time>
      </trkpt>
      <trkpt lat="47.802255" lon="2.294666">
        <ele>110.666</ele>
        <time>2021-09-15T13:12:59Z</time>
      </trkpt>
      <trkpt lat="47.801801" lon="2.294706">
        <ele>113.054</ele>
        <time>2021-09-15T13:13:09Z</time>
      </trkpt>
      <trkpt lat="47.801358" lon="2.293848">
        <ele>107.544</ele>
        <time>2021-09-15T13:13:25Z</time>
      </trkpt>
      <trkpt lat="47.801006" lon="2.293558">
        <ele>104.405</ele>
        <time>2021-09-15T13:13:33Z</time>
      </trkpt>
      <trkpt lat="47.799695" lon="2.293336">
        <ele>103.415</ele>
        <time>2021-09-15T13:13:57Z</time>
      </trkpt>
      <trkpt lat="47.798058" lon="2.292792">
        <ele>99.008</ele>
        <time>2021-09-15T13:14:29Z</time>
      </trkpt>
      <trkpt lat="47.796825" lon="2.292919">
        <ele>103.342</ele>
        <time>2021-09-15T13:14:51Z</time>
      </trkpt>
      <trkpt lat="47.795412" lon="2.293425">
        <ele>103.297</ele>
        <time>2021-09-15T13:15:18Z</time>
      </trkpt>
      <trkpt lat="47.792759" lon="2.295074">
        <ele>107.333</ele>
        <time>2021-09-15T13:16:09Z</time>
      </trkpt>
      <trkpt lat="47.791894" lon="2.295931">
        <ele>102.316</ele>
        <time>2021-09-15T13:16:26Z</time>
      </trkpt>
      <trkpt lat="47.791003" lon="2.297343">
        <ele>104.438</ele>
        <time>2021-09-15T13:16:49Z</time>
      </trkpt>
      <trkpt lat="47.790207" lon="2.299643">
        <ele>104.342</ele>
        <time>2021-09-15T13:17:22Z</time>
      </trkpt>
      <trkpt lat="47.789954" lon="2.301253">
        <ele>103.096</ele>
        <time>2021-09-15T13:17:42Z</time>
      </trkpt>
      <trkpt lat="47.790208" lon="2.304822">
        <ele>105.394</ele>
        <time>2021-09-15T13:18:23Z</time>
      </trkpt>
      <trkpt lat="47.790082" lon="2.307242">
        <ele>103.833</ele>
        <time>2021-09-15T13:18:53Z</time>
      </trkpt>
      <trkpt lat="47.790851" lon="2.316818">
        <ele>100.923</ele>
        <time>2021-09-15T13:20:44Z</time>
      </trkpt>
      <trkpt lat="47.790841" lon="2.321226">
        <ele>103.815</ele>
        <time>2021-09-15T13:21:31Z</time>
      </trkpt>
      <trkpt lat="47.790600" lon="2.323625">
        <ele>100.108</ele>
        <time>2021-09-15T13:21:58Z</time>
      </trkpt>
      <trkpt lat="47.789639" lon="2.327765">
        <ele>102.731</ele>
        <time>2021-09-15T13:22:47Z</time>
      </trkpt>
      <trkpt lat="47.787534" lon="2.332601">
        <ele>105.586</ele>
        <time>2021-09-15T13:23:50Z</time>
      </trkpt>
      <trkpt lat="47.787030" lon="2.334075">
        <ele>102.672</ele>
        <time>2021-09-15T13:24:10Z</time>
      </trkpt>
      <trkpt lat="47.787100" lon="2.334281">
        <ele>100.965</ele>
        <time>2021-09-15T13:24:14Z</time>
      </trkpt>
      <trkpt lat="47.787295" lon="2.334204">
        <ele>98.867</ele>
        <time>2021-09-15T13:24:20Z</time>
      </trkpt>
      <trkpt lat="47.787028" lon="2.334890">
        <ele>95.461</ele>
        <time>2021-09-15T13:24:31Z</time>
      </trkpt>
      <trkpt lat="47.784321" lon="2.339820">
        <ele>102.495</ele>
        <time>2021-09-15T13:25:41Z</time>
      </trkpt>
      <trkpt lat="47.782228" lon="2.342700">
        <ele>101.493</ele>
        <time>2021-09-15T13:26:30Z</time>
      </trkpt>
      <trkpt lat="47.778847" lon="2.346203">
        <ele>104.438</ele>
        <time>2021-09-15T13:27:41Z</time>
      </trkpt>
      <trkpt lat="47.777226" lon="2.348221">
        <ele>104.470</ele>
        <time>2021-09-15T13:28:21Z</time>
      </trkpt>
      <trkpt lat="47.775568" lon="2.350451">
        <ele>105.917</ele>
        <time>2021-09-15T13:29:00Z</time>
      </trkpt>
      <trkpt lat="47.774203" lon="2.352676">
        <ele>106.508</ele>
        <time>2021-09-15T13:29:37Z</time>
      </trkpt>
      <trkpt lat="47.772673" lon="2.357659">
        <ele>113.171</ele>
        <time>2021-09-15T13:30:42Z</time>
      </trkpt>
      <trkpt lat="47.771834" lon="2.363721">
        <ele>103.816</ele>
        <time>2021-09-15T13:32:05Z</time>
      </trkpt>
      <trkpt lat="47.771500" lon="2.365145">
        <ele>102.582</ele>
        <time>2021-09-15T13:32:25Z</time>
      </trkpt>
      <trkpt lat="47.770822" lon="2.366881">
        <ele>115.975</ele>
        <time>2021-09-15T13:35:27Z</time>
      </trkpt>
      <trkpt lat="47.770764" lon="2.368349">
        <ele>107.797</ele>
        <time>2021-09-15T13:36:10Z</time>
      </trkpt>
      <trkpt lat="47.771452" lon="2.368218">
        <ele>111.171</ele>
        <time>2021-09-15T13:36:34Z</time>
      </trkpt>
      <trkpt lat="47.771509" lon="2.368313">
        <ele>112.125</ele>
        <time>2021-09-15T13:36:39Z</time>
      </trkpt>
      <trkpt lat="47.767114" lon="2.370061">
        <ele>111.623</ele>
        <time>2021-09-15T13:47:45Z</time>
      </trkpt>
      <trkpt lat="47.767945" lon="2.373538">
        <ele>113.269</ele>
        <time>2021-09-15T13:48:37Z</time>
      </trkpt>
      <trkpt lat="47.767809" lon="2.373913">
        <ele>111.304</ele>
        <time>2021-09-15T13:48:55Z</time>
      </trkpt>
      <trkpt lat="47.768008" lon="2.374056">
        <ele>108.524</ele>
        <time>2021-09-15T13:49:48Z</time>
      </trkpt>
      <trkpt lat="47.768837" lon="2.376446">
        <ele>108.108</ele>
        <time>2021-09-15T13:51:46Z</time>
      </trkpt>
      <trkpt lat="47.768198" lon="2.376977">
        <ele>107.974</ele>
        <time>2021-09-15T13:53:37Z</time>
      </trkpt>
      <trkpt lat="47.768059" lon="2.376946">
        <ele>107.449</ele>
        <time>2021-09-15T13:53:43Z</time>
      </trkpt>
      <trkpt lat="47.767616" lon="2.375619">
        <ele>106.325</ele>
        <time>2021-09-15T13:57:49Z</time>
      </trkpt>
      <trkpt lat="47.767847" lon="2.376301">
        <ele>112.688</ele>
        <time>2021-09-15T13:59:24Z</time>
      </trkpt>
      <trkpt lat="47.767971" lon="2.376041">
        <ele>112.890</ele>
        <time>2021-09-15T13:59:40Z</time>
      </trkpt>
      <trkpt lat="47.768453" lon="2.375699">
        <ele>113.664</ele>
        <time>2021-09-15T14:00:06Z</time>
      </trkpt>
      <trkpt lat="47.768728" lon="2.375815">
        <ele>110.658</ele>
        <time>2021-09-15T14:00:32Z</time>
      </trkpt>
      <trkpt lat="47.767994" lon="2.374050">
        <ele>112.926</ele>
        <time>2021-09-15T14:02:17Z</time>
      </trkpt>
      <trkpt lat="47.767337" lon="2.374364">
        <ele>109.468</ele>
        <time>2021-09-15T14:03:06Z</time>
      </trkpt>
      <trkpt lat="47.767012" lon="2.374136">
        <ele>109.442</ele>
        <time>2021-09-15T14:03:33Z</time>
      </trkpt>
      <trkpt lat="47.766038" lon="2.374390">
        <ele>111.226</ele>
        <time>2021-09-15T14:04:28Z</time>
      </trkpt>
      <trkpt lat="47.765881" lon="2.374619">
        <ele>109.908</ele>
        <time>2021-09-15T14:04:36Z</time>
      </trkpt>
      <trkpt lat="47.765723" lon="2.375821">
        <ele>114.144</ele>
        <time>2021-09-15T14:05:35Z</time>
      </trkpt>
      <trkpt lat="47.765678" lon="2.375661">
        <ele>113.889</ele>
        <time>2021-09-15T14:06:46Z</time>
      </trkpt>
      <trkpt lat="47.765123" lon="2.375351">
        <ele>110.875</ele>
        <time>2021-09-15T14:07:14Z</time>
      </trkpt>
      <trkpt lat="47.764907" lon="2.375273">
        <ele>112.848</ele>
        <time>2021-09-15T14:07:28Z</time>
      </trkpt>
      <trkpt lat="47.764591" lon="2.375410">
        <ele>107.470</ele>
        <time>2021-09-15T14:07:49Z</time>
      </trkpt>
      <trkpt lat="47.764823" lon="2.375296">
        <ele>121.414</ele>
        <time>2021-09-15T14:13:17Z</time>
      </trkpt>
      <trkpt lat="47.765691" lon="2.375752">
        <ele>115.688</ele>
        <time>2021-09-15T14:14:24Z</time>
      </trkpt>
      <trkpt lat="47.765927" lon="2.374857">
        <ele>120.656</ele>
        <time>2021-09-15T14:14:41Z</time>
      </trkpt>
      <trkpt lat="47.766248" lon="2.374884">
        <ele>118.557</ele>
        <time>2021-09-15T14:15:01Z</time>
      </trkpt>
      <trkpt lat="47.766504" lon="2.374574">
        <ele>117.700</ele>
        <time>2021-09-15T14:15:14Z</time>
      </trkpt>
      <trkpt lat="47.766721" lon="2.374553">
        <ele>118.320</ele>
        <time>2021-09-15T14:15:23Z</time>
      </trkpt>
      <trkpt lat="47.766853" lon="2.374126">
        <ele>118.308</ele>
        <time>2021-09-15T14:15:34Z</time>
      </trkpt>
      <trkpt lat="47.767399" lon="2.374199">
        <ele>116.283</ele>
        <time>2021-09-15T14:15:47Z</time>
      </trkpt>
      <trkpt lat="47.767989" lon="2.373956">
        <ele>112.748</ele>
        <time>2021-09-15T14:16:02Z</time>
      </trkpt>
      <trkpt lat="47.768873" lon="2.376344">
        <ele>115.874</ele>
        <time>2021-09-15T14:16:44Z</time>
      </trkpt>
      <trkpt lat="47.768813" lon="2.376566">
        <ele>115.327</ele>
        <time>2021-09-15T14:16:51Z</time>
      </trkpt>
      <trkpt lat="47.768475" lon="2.376706">
        <ele>110.459</ele>
        <time>2021-09-15T14:19:44Z</time>
      </trkpt>
      <trkpt lat="47.769390" lon="2.376641">
        <ele>106.293</ele>
        <time>2021-09-15T14:26:55Z</time>
      </trkpt>
      <trkpt lat="47.769169" lon="2.376828">
        <ele>108.477</ele>
        <time>2021-09-15T14:57:04Z</time>
      </trkpt>
      <trkpt lat="47.768922" lon="2.376368">
        <ele>113.285</ele>
        <time>2021-09-15T14:57:43Z</time>
      </trkpt>
      <trkpt lat="47.770934" lon="2.382534">
        <ele>115.338</ele>
        <time>2021-09-15T14:59:23Z</time>
      </trkpt>
      <trkpt lat="47.771350" lon="2.383401">
        <ele>115.270</ele>
        <time>2021-09-15T14:59:39Z</time>
      </trkpt>
      <trkpt lat="47.771818" lon="2.390464">
        <ele>114.017</ele>
        <time>2021-09-15T15:01:04Z</time>
      </trkpt>
      <trkpt lat="47.771552" lon="2.392829">
        <ele>111.008</ele>
        <time>2021-09-15T15:01:29Z</time>
      </trkpt>
      <trkpt lat="47.768547" lon="2.402038">
        <ele>112.641</ele>
        <time>2021-09-15T15:03:25Z</time>
      </trkpt>
      <trkpt lat="47.767563" lon="2.407412">
        <ele>115.456</ele>
        <time>2021-09-15T15:04:30Z</time>
      </trkpt>
      <trkpt lat="47.766644" lon="2.413507">
        <ele>114.452</ele>
        <time>2021-09-15T15:05:42Z</time>
      </trkpt>
      <trkpt lat="47.766348" lon="2.417597">
        <ele>115.545</ele>
        <time>2021-09-15T15:06:27Z</time>
      </trkpt>
      <trkpt lat="47.765377" lon="2.423532">
        <ele>110.877</ele>
        <time>2021-09-15T15:07:33Z</time>
      </trkpt>
      <trkpt lat="47.765842" lon="2.426214">
        <ele>113.691</ele>
        <time>2021-09-15T15:08:03Z</time>
      </trkpt>
      <trkpt lat="47.765628" lon="2.433836">
        <ele>118.655</ele>
        <time>2021-09-15T15:09:29Z</time>
      </trkpt>
      <trkpt lat="47.765114" lon="2.437943">
        <ele>117.343</ele>
        <time>2021-09-15T15:10:16Z</time>
      </trkpt>
      <trkpt lat="47.764559" lon="2.440949">
        <ele>114.993</ele>
        <time>2021-09-15T15:10:50Z</time>
      </trkpt>
      <trkpt lat="47.763203" lon="2.445605">
        <ele>117.165</ele>
        <time>2021-09-15T15:11:52Z</time>
      </trkpt>
      <trkpt lat="47.760622" lon="2.452530">
        <ele>116.221</ele>
        <time>2021-09-15T15:13:18Z</time>
      </trkpt>
      <trkpt lat="47.759682" lon="2.454466">
        <ele>112.708</ele>
        <time>2021-09-15T15:13:44Z</time>
      </trkpt>
      <trkpt lat="47.756225" lon="2.462792">
        <ele>116.137</ele>
        <time>2021-09-15T15:15:32Z</time>
      </trkpt>
      <trkpt lat="47.755212" lon="2.464635">
        <ele>116.672</ele>
        <time>2021-09-15T15:16:02Z</time>
      </trkpt>
      <trkpt lat="47.752867" lon="2.469910">
        <ele>119.058</ele>
        <time>2021-09-15T15:17:19Z</time>
      </trkpt>
      <trkpt lat="47.751273" lon="2.470868">
        <ele>122.591</ele>
        <time>2021-09-15T15:17:49Z</time>
      </trkpt>
      <trkpt lat="47.749826" lon="2.472206">
        <ele>124.233</ele>
        <time>2021-09-15T15:18:20Z</time>
      </trkpt>
      <trkpt lat="47.749418" lon="2.472094">
        <ele>119.487</ele>
        <time>2021-09-15T15:19:12Z</time>
      </trkpt>
      <trkpt lat="47.747931" lon="2.472580">
        <ele>117.761</ele>
        <time>2021-09-15T15:19:39Z</time>
      </trkpt>
      <trkpt lat="47.746632" lon="2.473490">
        <ele>117.269</ele>
        <time>2021-09-15T15:20:06Z</time>
      </trkpt>
      <trkpt lat="47.742330" lon="2.477023">
        <ele>114.389</ele>
        <time>2021-09-15T15:21:59Z</time>
      </trkpt>
      <trkpt lat="47.741192" lon="2.478526">
        <ele>121.706</ele>
        <time>2021-09-15T15:22:26Z</time>
      </trkpt>
      <trkpt lat="47.739261" lon="2.479537">
        <ele>116.626</ele>
        <time>2021-09-15T15:23:06Z</time>
      </trkpt>
      <trkpt lat="47.735820" lon="2.481883">
        <ele>115.408</ele>
        <time>2021-09-15T15:24:39Z</time>
      </trkpt>
      <trkpt lat="47.731601" lon="2.485720">
        <ele>113.256</ele>
        <time>2021-09-15T15:26:12Z</time>
      </trkpt>
      <trkpt lat="47.730985" lon="2.486489">
        <ele>111.531</ele>
        <time>2021-09-15T15:26:26Z</time>
      </trkpt>
      <trkpt lat="47.730696" lon="2.486536">
        <ele>113.727</ele>
        <time>2021-09-15T15:26:32Z</time>
      </trkpt>
      <trkpt lat="47.730134" lon="2.486198">
        <ele>117.450</ele>
        <time>2021-09-15T15:26:50Z</time>
      </trkpt>
      <trkpt lat="47.730656" lon="2.486500">
        <ele>115.142</ele>
        <time>2021-09-15T15:27:19Z</time>
      </trkpt>
      <trkpt lat="47.730687" lon="2.486813">
        <ele>115.626</ele>
        <time>2021-09-15T15:27:27Z</time>
      </trkpt>
      <trkpt lat="47.729418" lon="2.487878">
        <ele>114.660</ele>
        <time>2021-09-15T15:28:20Z</time>
      </trkpt>
      <trkpt lat="47.728347" lon="2.488509">
        <ele>122.488</ele>
        <time>2021-09-15T15:28:52Z</time>
      </trkpt>
      <trkpt lat="47.728139" lon="2.490981">
        <ele>123.946</ele>
        <time>2021-09-15T15:30:17Z</time>
      </trkpt>
      <trkpt lat="47.727301" lon="2.493849">
        <ele>126.988</ele>
        <time>2021-09-15T15:31:40Z</time>
      </trkpt>
      <trkpt lat="47.725480" lon="2.499278">
        <ele>130.016</ele>
        <time>2021-09-15T15:34:25Z</time>
      </trkpt>
      <trkpt lat="47.723324" lon="2.504488">
        <ele>127.108</ele>
        <time>2021-09-15T15:35:33Z</time>
      </trkpt>
      <trkpt lat="47.722641" lon="2.505337">
        <ele>127.542</ele>
        <time>2021-09-15T15:35:47Z</time>
      </trkpt>
      <trkpt lat="47.720937" lon="2.506747">
        <ele>126.447</ele>
        <time>2021-09-15T15:36:20Z</time>
      </trkpt>
      <trkpt lat="47.719433" lon="2.509161">
        <ele>124.243</ele>
        <time>2021-09-15T15:36:55Z</time>
      </trkpt>
      <trkpt lat="47.712654" lon="2.517113">
        <ele>122.876</ele>
        <time>2021-09-15T15:39:15Z</time>
      </trkpt>
      <trkpt lat="47.709139" lon="2.524942">
        <ele>124.198</ele>
        <time>2021-09-15T15:41:04Z</time>
      </trkpt>
      <trkpt lat="47.707050" lon="2.530909">
        <ele>120.072</ele>
        <time>2021-09-15T15:42:18Z</time>
      </trkpt>
      <trkpt lat="47.704794" lon="2.534643">
        <ele>127.456</ele>
        <time>2021-09-15T15:43:30Z</time>
      </trkpt>
      <trkpt lat="47.704282" lon="2.535063">
        <ele>128.384</ele>
        <time>2021-09-15T15:43:42Z</time>
      </trkpt>
      <trkpt lat="47.703191" lon="2.535475">
        <ele>127.799</ele>
        <time>2021-09-15T15:44:07Z</time>
      </trkpt>
      <trkpt lat="47.704177" lon="2.535226">
        <ele>128.507</ele>
        <time>2021-09-15T15:44:36Z</time>
      </trkpt>
      <trkpt lat="47.703039" lon="2.537364">
        <ele>128.227</ele>
        <time>2021-09-15T15:45:17Z</time>
      </trkpt>
      <trkpt lat="47.701912" lon="2.538716">
        <ele>129.708</ele>
        <time>2021-09-15T15:45:50Z</time>
      </trkpt>
      <trkpt lat="47.701226" lon="2.540816">
        <ele>115.457</ele>
        <time>2021-09-15T15:46:38Z</time>
      </trkpt>
      <trkpt lat="47.701261" lon="2.541857">
        <ele>113.432</ele>
        <time>2021-09-15T15:48:15Z</time>
      </trkpt>
      <trkpt lat="47.700701" lon="2.542802">
        <ele>120.748</ele>
        <time>2021-09-15T15:48:59Z</time>
      </trkpt>
      <trkpt lat="47.700065" lon="2.543359">
        <ele>122.641</ele>
        <time>2021-09-15T15:49:37Z</time>
      </trkpt>
      <trkpt lat="47.700998" lon="2.544656">
        <ele>122.833</ele>
        <time>2021-09-15T15:50:08Z</time>
      </trkpt>
      <trkpt lat="47.701108" lon="2.548173">
        <ele>116.277</ele>
        <time>2021-09-15T15:50:40Z</time>
      </trkpt>
      <trkpt lat="47.701320" lon="2.549757">
        <ele>118.011</ele>
        <time>2021-09-15T15:50:56Z</time>
      </trkpt>
      <trkpt lat="47.701557" lon="2.550501">
        <ele>118.189</ele>
        <time>2021-09-15T15:51:04Z</time>
      </trkpt>
      <trkpt lat="47.702277" lon="2.551833">
        <ele>116.042</ele>
        <time>2021-09-15T15:51:22Z</time>
      </trkpt>
      <trkpt lat="47.701519" lon="2.554736">
        <ele>118.322</ele>
        <time>2021-09-15T15:51:57Z</time>
      </trkpt>
      <trkpt lat="47.702545" lon="2.558590">
        <ele>113.514</ele>
        <time>2021-09-15T15:52:46Z</time>
      </trkpt>
      <trkpt lat="47.703029" lon="2.561366">
        <ele>123.208</ele>
        <time>2021-09-15T15:53:22Z</time>
      </trkpt>
      <trkpt lat="47.702590" lon="2.563770">
        <ele>122.382</ele>
        <time>2021-09-15T15:53:56Z</time>
      </trkpt>
      <trkpt lat="47.702215" lon="2.564825">
        <ele>122.937</ele>
        <time>2021-09-15T15:54:12Z</time>
      </trkpt>
      <trkpt lat="47.699101" lon="2.571115">
        <ele>118.443</ele>
        <time>2021-09-15T15:55:44Z</time>
      </trkpt>
      <trkpt lat="47.696778" lon="2.576379">
        <ele>119.476</ele>
        <time>2021-09-15T15:56:58Z</time>
      </trkpt>
      <trkpt lat="47.695318" lon="2.580859">
        <ele>119.738</ele>
        <time>2021-09-15T15:57:55Z</time>
      </trkpt>
      <trkpt lat="47.693480" lon="2.587369">
        <ele>120.712</ele>
        <time>2021-09-15T15:59:14Z</time>
      </trkpt>
      <trkpt lat="47.692214" lon="2.590910">
        <ele>123.396</ele>
        <time>2021-09-15T15:59:56Z</time>
      </trkpt>
      <trkpt lat="47.691904" lon="2.592487">
        <ele>123.094</ele>
        <time>2021-09-15T16:00:13Z</time>
      </trkpt>
      <trkpt lat="47.691944" lon="2.593676">
        <ele>120.856</ele>
        <time>2021-09-15T16:00:27Z</time>
      </trkpt>
      <trkpt lat="47.691623" lon="2.596036">
        <ele>122.859</ele>
        <time>2021-09-15T16:00:52Z</time>
      </trkpt>
      <trkpt lat="47.690171" lon="2.601104">
        <ele>121.114</ele>
        <time>2021-09-15T16:01:48Z</time>
      </trkpt>
      <trkpt lat="47.689268" lon="2.603715">
        <ele>120.908</ele>
        <time>2021-09-15T16:02:20Z</time>
      </trkpt>
      <trkpt lat="47.686822" lon="2.609774">
        <ele>123.893</ele>
        <time>2021-09-15T16:03:39Z</time>
      </trkpt>
      <trkpt lat="47.685019" lon="2.616674">
        <ele>122.038</ele>
        <time>2021-09-15T16:05:03Z</time>
      </trkpt>
      <trkpt lat="47.682509" lon="2.622114">
        <ele>119.364</ele>
        <time>2021-09-15T16:06:24Z</time>
      </trkpt>
      <trkpt lat="47.681913" lon="2.623812">
        <ele>128.917</ele>
        <time>2021-09-15T16:09:32Z</time>
      </trkpt>
      <trkpt lat="47.681040" lon="2.630181">
        <ele>128.749</ele>
        <time>2021-09-15T16:12:21Z</time>
      </trkpt>
      <trkpt lat="47.683681" lon="2.631739">
        <ele>125.463</ele>
        <time>2021-09-15T16:14:50Z</time>
      </trkpt>
      <trkpt lat="47.683654" lon="2.632320">
        <ele>119.387</ele>
        <time>2021-09-15T16:16:08Z</time>
      </trkpt>
      <trkpt lat="47.683595" lon="2.632139">
        <ele>126.195</ele>
        <time>2021-09-15T16:19:35Z</time>
      </trkpt>
      <trkpt lat="47.683803" lon="2.631908">
        <ele>125.168</ele>
        <time>2021-09-15T16:20:03Z</time>
      </trkpt>
      <trkpt lat="47.684180" lon="2.632399">
        <ele>134.942</ele>
        <time>2021-09-15T16:22:33Z</time>
      </trkpt>
      <trkpt lat="47.683935" lon="2.633306">
        <ele>121.726</ele>
        <time>2021-09-15T16:23:42Z</time>
      </trkpt>
      <trkpt lat="47.684270" lon="2.632248">
        <ele>123.108</ele>
        <time>2021-09-15T16:24:26Z</time>
      </trkpt>
      <trkpt lat="47.684290" lon="2.631053">
        <ele>130.174</ele>
        <time>2021-09-15T16:24:56Z</time>
      </trkpt>
      <trkpt lat="47.684705" lon="2.630024">
        <ele>127.059</ele>
        <time>2021-09-15T16:25:30Z</time>
      </trkpt>
      <trkpt lat="47.685042" lon="2.628470">
        <ele>122.725</ele>
        <time>2021-09-15T16:26:28Z</time>
      </trkpt>
      <trkpt lat="47.685409" lon="2.627795">
        <ele>117.998</ele>
        <time>2021-09-15T16:26:54Z</time>
      </trkpt>
      <trkpt lat="47.686358" lon="2.628431">
        <ele>130.280</ele>
        <time>2021-09-15T16:28:31Z</time>
      </trkpt>
      <trkpt lat="47.686412" lon="2.628663">
        <ele>130.234</ele>
        <time>2021-09-15T16:28:40Z</time>
      </trkpt>
      <trkpt lat="47.685853" lon="2.630416">
        <ele>145.168</ele>
        <time>2021-09-15T16:30:45Z</time>
      </trkpt>
      <trkpt lat="47.685356" lon="2.631463">
        <ele>148.276</ele>
        <time>2021-09-15T16:31:23Z</time>
      </trkpt>
      <trkpt lat="47.685101" lon="2.631546">
        <ele>151.042</ele>
        <time>2021-09-15T16:32:49Z</time>
      </trkpt>
      <trkpt lat="47.685431" lon="2.631499">
        <ele>145.622</ele>
        <time>2021-09-15T16:34:48Z</time>
      </trkpt>
      <trkpt lat="47.685131" lon="2.631568">
        <ele>146.214</ele>
        <time>2021-09-15T16:35:43Z</time>
      </trkpt>
      <trkpt lat="47.685394" lon="2.631492">
        <ele>141.308</ele>
        <time>2021-09-15T16:53:49Z</time>
      </trkpt>
      <trkpt lat="47.685954" lon="2.630283">
        <ele>141.782</ele>
        <time>2021-09-15T16:54:25Z</time>
      </trkpt>
      <trkpt lat="47.686127" lon="2.630524">
        <ele>141.357</ele>
        <time>2021-09-15T16:54:35Z</time>
      </trkpt>
      <trkpt lat="47.686024" lon="2.631371">
        <ele>137.983</ele>
        <time>2021-09-15T16:54:47Z</time>
      </trkpt>
      <trkpt lat="47.685131" lon="2.632997">
        <ele>126.876</ele>
        <time>2021-09-15T16:55:23Z</time>
      </trkpt>
      <trkpt lat="47.684840" lon="2.633084">
        <ele>126.578</ele>
        <time>2021-09-15T16:55:42Z</time>
      </trkpt>
      <trkpt lat="47.683692" lon="2.631715">
        <ele>120.642</ele>
        <time>2021-09-15T16:56:27Z</time>
      </trkpt>
      <trkpt lat="47.681449" lon="2.630376">
        <ele>131.756</ele>
        <time>2021-09-15T16:58:17Z</time>
      </trkpt>
      <trkpt lat="47.681096" lon="2.630037">
        <ele>136.294</ele>
        <time>2021-09-15T16:59:08Z</time>
      </trkpt>
      <trkpt lat="47.678604" lon="2.637739">
        <ele>120.516</ele>
        <time>2021-09-15T17:01:13Z</time>
      </trkpt>
      <trkpt lat="47.674353" lon="2.635233">
        <ele>124.076</ele>
        <time>2021-09-15T17:02:57Z</time>
      </trkpt>
      <trkpt lat="47.674127" lon="2.635614">
        <ele>121.913</ele>
        <time>2021-09-15T17:03:09Z</time>
      </trkpt>
      <trkpt lat="47.674624" lon="2.637463">
        <ele>118.808</ele>
        <time>2021-09-15T17:03:40Z</time>
      </trkpt>
      <trkpt lat="47.674328" lon="2.637702">
        <ele>116.469</ele>
        <time>2021-09-15T17:03:50Z</time>
      </trkpt>
      <trkpt lat="47.672959" lon="2.637177">
        <ele>121.024</ele>
        <time>2021-09-15T17:04:23Z</time>
      </trkpt>
      <trkpt lat="47.671850" lon="2.638606">
        <ele>117.090</ele>
        <time>2021-09-15T17:04:56Z</time>
      </trkpt>
      <trkpt lat="47.671090" lon="2.639689">
        <ele>120.323</ele>
        <time>2021-09-15T17:05:17Z</time>
      </trkpt>
      <trkpt lat="47.669602" lon="2.642377">
        <ele>118.965</ele>
        <time>2021-09-15T17:05:58Z</time>
      </trkpt>
      <trkpt lat="47.667592" lon="2.646924">
        <ele>117.889</ele>
        <time>2021-09-15T17:07:04Z</time>
      </trkpt>
      <trkpt lat="47.666272" lon="2.646581">
        <ele>121.523</ele>
        <time>2021-09-15T17:07:30Z</time>
      </trkpt>
      <trkpt lat="47.664941" lon="2.646813">
        <ele>122.661</ele>
        <time>2021-09-15T17:07:56Z</time>
      </trkpt>
      <trkpt lat="47.663782" lon="2.645934">
        <ele>124.819</ele>
        <time>2021-09-15T17:08:23Z</time>
      </trkpt>
      <trkpt lat="47.662530" lon="2.645666">
        <ele>128.509</ele>
        <time>2021-09-15T17:08:59Z</time>
      </trkpt>
      <trkpt lat="47.661876" lon="2.648306">
        <ele>134.019</ele>
        <time>2021-09-15T17:09:47Z</time>
      </trkpt>
      <trkpt lat="47.661776" lon="2.650790">
        <ele>134.108</ele>
        <time>2021-09-15T17:10:22Z</time>
      </trkpt>
      <trkpt lat="47.660921" lon="2.654303">
        <ele>132.319</ele>
        <time>2021-09-15T17:11:09Z</time>
      </trkpt>
      <trkpt lat="47.659274" lon="2.658246">
        <ele>134.044</ele>
        <time>2021-09-15T17:12:16Z</time>
      </trkpt>
      <trkpt lat="47.658831" lon="2.660081">
        <ele>131.380</ele>
        <time>2021-09-15T17:12:45Z</time>
      </trkpt>
      <trkpt lat="47.658022" lon="2.661283">
        <ele>126.133</ele>
        <time>2021-09-15T17:13:06Z</time>
      </trkpt>
      <trkpt lat="47.656944" lon="2.664076">
        <ele>131.245</ele>
        <time>2021-09-15T17:13:59Z</time>
      </trkpt>
      <trkpt lat="47.656173" lon="2.667713">
        <ele>120.369</ele>
        <time>2021-09-15T17:14:33Z</time>
      </trkpt>
      <trkpt lat="47.655870" lon="2.667886">
        <ele>120.453</ele>
        <time>2021-09-15T17:14:39Z</time>
      </trkpt>
      <trkpt lat="47.653120" lon="2.666053">
        <ele>145.181</ele>
        <time>2021-09-15T17:16:41Z</time>
      </trkpt>
      <trkpt lat="47.652871" lon="2.666009">
        <ele>147.451</ele>
        <time>2021-09-15T17:16:52Z</time>
      </trkpt>
      <trkpt lat="47.651939" lon="2.669019">
        <ele>148.901</ele>
        <time>2021-09-15T17:18:34Z</time>
      </trkpt>
      <trkpt lat="47.650369" lon="2.671839">
        <ele>151.611</ele>
        <time>2021-09-15T17:19:26Z</time>
      </trkpt>
      <trkpt lat="47.649323" lon="2.674531">
        <ele>148.708</ele>
        <time>2021-09-15T17:20:03Z</time>
      </trkpt>
      <trkpt lat="47.648994" lon="2.675834">
        <ele>148.073</ele>
        <time>2021-09-15T17:20:17Z</time>
      </trkpt>
      <trkpt lat="47.648913" lon="2.677438">
        <ele>149.218</ele>
        <time>2021-09-15T17:20:35Z</time>
      </trkpt>
      <trkpt lat="47.648169" lon="2.679360">
        <ele>151.554</ele>
        <time>2021-09-15T17:21:06Z</time>
      </trkpt>
      <trkpt lat="47.648130" lon="2.680795">
        <ele>150.977</ele>
        <time>2021-09-15T17:21:26Z</time>
      </trkpt>
      <trkpt lat="47.647583" lon="2.681961">
        <ele>149.299</ele>
        <time>2021-09-15T17:21:51Z</time>
      </trkpt>
      <trkpt lat="47.647960" lon="2.682313">
        <ele>147.313</ele>
        <time>2021-09-15T17:22:10Z</time>
      </trkpt>
      <trkpt lat="47.648107" lon="2.682905">
        <ele>148.647</ele>
        <time>2021-09-15T17:22:26Z</time>
      </trkpt>
      <trkpt lat="47.647904" lon="2.684211">
        <ele>147.185</ele>
        <time>2021-09-15T17:22:49Z</time>
      </trkpt>
      <trkpt lat="47.648071" lon="2.684711">
        <ele>149.832</ele>
        <time>2021-09-15T17:23:02Z</time>
      </trkpt>
      <trkpt lat="47.648479" lon="2.684469">
        <ele>151.392</ele>
        <time>2021-09-15T17:23:24Z</time>
      </trkpt>
      <trkpt lat="47.649159" lon="2.683163">
        <ele>146.411</ele>
        <time>2021-09-15T17:24:03Z</time>
      </trkpt>
      <trkpt lat="47.648675" lon="2.684140">
        <ele>145.908</ele>
        <time>2021-09-15T17:25:24Z</time>
      </trkpt>
      <trkpt lat="47.648027" lon="2.684715">
        <ele>145.481</ele>
        <time>2021-09-15T17:26:09Z</time>
      </trkpt>
      <trkpt lat="47.648608" lon="2.686441">
        <ele>136.496</ele>
        <time>2021-09-15T17:26:34Z</time>
      </trkpt>
      <trkpt lat="47.648226" lon="2.688118">
        <ele>127.712</ele>
        <time>2021-09-15T17:26:50Z</time>
      </trkpt>
      <trkpt lat="47.648229" lon="2.689982">
        <ele>126.415</ele>
        <time>2021-09-15T17:27:10Z</time>
      </trkpt>
      <trkpt lat="47.647324" lon="2.691706">
        <ele>123.327</ele>
        <time>2021-09-15T17:27:33Z</time>
      </trkpt>
      <trkpt lat="47.647221" lon="2.692593">
        <ele>122.951</ele>
        <time>2021-09-15T17:27:45Z</time>
      </trkpt>
      <trkpt lat="47.646630" lon="2.693505">
        <ele>124.755</ele>
        <time>2021-09-15T17:28:01Z</time>
      </trkpt>
      <trkpt lat="47.644735" lon="2.698450">
        <ele>131.463</ele>
        <time>2021-09-15T17:29:25Z</time>
      </trkpt>
      <trkpt lat="47.643293" lon="2.701037">
        <ele>124.465</ele>
        <time>2021-09-15T17:30:11Z</time>
      </trkpt>
      <trkpt lat="47.642164" lon="2.704344">
        <ele>127.968</ele>
        <time>2021-09-15T17:30:56Z</time>
      </trkpt>
      <trkpt lat="47.639603" lon="2.709340">
        <ele>132.714</ele>
        <time>2021-09-15T17:32:27Z</time>
      </trkpt>
      <trkpt lat="47.638370" lon="2.712107">
        <ele>128.708</ele>
        <time>2021-09-15T17:33:09Z</time>
      </trkpt>
      <trkpt lat="47.637311" lon="2.713799">
        <ele>132.224</ele>
        <time>2021-09-15T17:33:43Z</time>
      </trkpt>
      <trkpt lat="47.636096" lon="2.715112">
        <ele>130.479</ele>
        <time>2021-09-15T17:34:17Z</time>
      </trkpt>
      <trkpt lat="47.634508" lon="2.717294">
        <ele>132.775</ele>
        <time>2021-09-15T17:39:23Z</time>
      </trkpt>
      <trkpt lat="47.632666" lon="2.719454">
        <ele>125.288</ele>
        <time>2021-09-15T17:40:24Z</time>
      </trkpt>
      <trkpt lat="47.631975" lon="2.721293">
        <ele>123.540</ele>
        <time>2021-09-15T17:40:49Z</time>
      </trkpt>
      <trkpt lat="47.632147" lon="2.722316">
        <ele>128.064</ele>
        <time>2021-09-15T17:41:06Z</time>
      </trkpt>
      <trkpt lat="47.630604" lon="2.723221">
        <ele>125.938</ele>
        <time>2021-09-15T17:41:43Z</time>
      </trkpt>
      <trkpt lat="47.628552" lon="2.725402">
        <ele>125.246</ele>
        <time>2021-09-15T17:42:32Z</time>
      </trkpt>
      <trkpt lat="47.627592" lon="2.726632">
        <ele>123.386</ele>
        <time>2021-09-15T17:42:58Z</time>
      </trkpt>
      <trkpt lat="47.627628" lon="2.726815">
        <ele>123.860</ele>
        <time>2021-09-15T17:43:02Z</time>
      </trkpt>
      <trkpt lat="47.628402" lon="2.727185">
        <ele>128.026</ele>
        <time>2021-09-15T17:43:21Z</time>
      </trkpt>
      <trkpt lat="47.629083" lon="2.727789">
        <ele>125.308</ele>
        <time>2021-09-15T17:43:39Z</time>
      </trkpt>
      <trkpt lat="47.629990" lon="2.729800">
        <ele>132.566</ele>
        <time>2021-09-15T17:44:37Z</time>
      </trkpt>
      <trkpt lat="47.630029" lon="2.730178">
        <ele>131.471</ele>
        <time>2021-09-15T17:44:47Z</time>
      </trkpt>
      <trkpt lat="47.629867" lon="2.730365">
        <ele>132.187</ele>
        <time>2021-09-15T17:45:00Z</time>
      </trkpt>
      <trkpt lat="47.630071" lon="2.730998">
        <ele>132.420</ele>
        <time>2021-09-15T17:47:54Z</time>
      </trkpt>
      <trkpt lat="47.632487" lon="2.738269">
        <ele>136.182</ele>
        <time>2021-09-15T17:50:39Z</time>
      </trkpt>
      <trkpt lat="47.633057" lon="2.739292">
        <ele>135.486</ele>
        <time>2021-09-15T17:51:14Z</time>
      </trkpt>
      <trkpt lat="47.632808" lon="2.739775">
        <ele>135.450</ele>
        <time>2021-09-15T17:53:23Z</time>
      </trkpt>
      <trkpt lat="47.633096" lon="2.740529">
        <ele>133.848</ele>
        <time>2021-09-15T17:53:38Z</time>
      </trkpt>
      <trkpt lat="47.632816" lon="2.741250">
        <ele>134.441</ele>
        <time>2021-09-15T17:53:52Z</time>
      </trkpt>
      <trkpt lat="47.630692" lon="2.743019">
        <ele>138.381</ele>
        <time>2021-09-15T17:54:51Z</time>
      </trkpt>
      <trkpt lat="47.630680" lon="2.743354">
        <ele>137.809</ele>
        <time>2021-09-15T17:54:57Z</time>
      </trkpt>
      <trkpt lat="47.631138" lon="2.744548">
        <ele>139.008</ele>
        <time>2021-09-15T17:55:20Z</time>
      </trkpt>
      <trkpt lat="47.630296" lon="2.745869">
        <ele>135.412</ele>
        <time>2021-09-15T17:55:54Z</time>
      </trkpt>
      <trkpt lat="47.626604" lon="2.749310">
        <ele>138.397</ele>
        <time>2021-09-15T17:57:24Z</time>
      </trkpt>
      <trkpt lat="47.625429" lon="2.750044">
        <ele>135.263</ele>
        <time>2021-09-15T17:57:51Z</time>
      </trkpt>
      <trkpt lat="47.624942" lon="2.749583">
        <ele>136.846</ele>
        <time>2021-09-15T17:58:06Z</time>
      </trkpt>
      <trkpt lat="47.624669" lon="2.749754">
        <ele>136.198</ele>
        <time>2021-09-15T17:58:17Z</time>
      </trkpt>
      <trkpt lat="47.624594" lon="2.749609">
        <ele>135.422</ele>
        <time>2021-09-15T17:58:53Z</time>
      </trkpt>
      <trkpt lat="47.624618" lon="2.749851">
        <ele>124.256</ele>
        <time>2021-09-15T18:36:19Z</time>
      </trkpt>
      <trkpt lat="47.624841" lon="2.749907">
        <ele>126.094</ele>
        <time>2021-09-15T18:41:43Z</time>
      </trkpt>
      <trkpt lat="47.625161" lon="2.749718">
        <ele>137.853</ele>
        <time>2021-09-15T18:41:56Z</time>
      </trkpt>
      <trkpt lat="47.625509" lon="2.750059">
        <ele>134.304</ele>
        <time>2021-09-15T18:42:14Z</time>
      </trkpt>
      <trkpt lat="47.626422" lon="2.749565">
        <ele>134.114</ele>
        <time>2021-09-15T18:42:38Z</time>
      </trkpt>
      <trkpt lat="47.630411" lon="2.745896">
        <ele>135.508</ele>
        <time>2021-09-15T18:44:32Z</time>
      </trkpt>
      <trkpt lat="47.631170" lon="2.744524">
        <ele>136.583</ele>
        <time>2021-09-15T18:45:00Z</time>
      </trkpt>
      <trkpt lat="47.630685" lon="2.743066">
        <ele>137.548</ele>
        <time>2021-09-15T18:45:27Z</time>
      </trkpt>
      <trkpt lat="47.632822" lon="2.741330">
        <ele>136.394</ele>
        <time>2021-09-15T18:46:20Z</time>
      </trkpt>
      <trkpt lat="47.633216" lon="2.740406">
        <ele>136.297</ele>
        <time>2021-09-15T18:46:38Z</time>
      </trkpt>
      <trkpt lat="47.632849" lon="2.739719">
        <ele>136.359</ele>
        <time>2021-09-15T18:46:57Z</time>
      </trkpt>
      <trkpt lat="47.633111" lon="2.739387">
        <ele>137.343</ele>
        <time>2021-09-15T18:48:07Z</time>
      </trkpt>
      <trkpt lat="47.632599" lon="2.738435">
        <ele>135.067</ele>
        <time>2021-09-15T18:48:34Z</time>
      </trkpt>
      <trkpt lat="47.633094" lon="2.739314">
        <ele>138.675</ele>
        <time>2021-09-15T18:49:43Z</time>
      </trkpt>
      <trkpt lat="47.634033" lon="2.739134">
        <ele>132.373</ele>
        <time>2021-09-15T18:50:11Z</time>
      </trkpt>
      <trkpt lat="47.633376" lon="2.739058">
        <ele>127.085</ele>
        <time>2021-09-15T18:50:44Z</time>
      </trkpt>
      <trkpt lat="47.633032" lon="2.738144">
        <ele>127.413</ele>
        <time>2021-09-15T18:51:02Z</time>
      </trkpt>
      <trkpt lat="47.634016" lon="2.737441">
        <ele>128.308</ele>
        <time>2021-09-15T18:51:28Z</time>
      </trkpt>
      <trkpt lat="47.635572" lon="2.735613">
        <ele>125.685</ele>
        <time>2021-09-15T18:52:12Z</time>
      </trkpt>
      <trkpt lat="47.635412" lon="2.734925">
        <ele>128.210</ele>
        <time>2021-09-15T18:52:35Z</time>
      </trkpt>
      <trkpt lat="47.638664" lon="2.729135">
        <ele>121.256</ele>
        <time>2021-09-15T18:54:35Z</time>
      </trkpt>
      <trkpt lat="47.638882" lon="2.729217">
        <ele>122.099</ele>
        <time>2021-09-15T18:54:45Z</time>
      </trkpt>
      <trkpt lat="47.639068" lon="2.728731">
        <ele>125.421</ele>
        <time>2021-09-15T18:54:59Z</time>
      </trkpt>
      <trkpt lat="47.639530" lon="2.728223">
        <ele>129.135</ele>
        <time>2021-09-15T18:55:17Z</time>
      </trkpt>
      <trkpt lat="47.639787" lon="2.728167">
        <ele>129.399</ele>
        <time>2021-09-15T18:55:31Z</time>
      </trkpt>
      <trkpt lat="47.641341" lon="2.725607">
        <ele>126.417</ele>
        <time>2021-09-15T18:56:29Z</time>
      </trkpt>
      <trkpt lat="47.641678" lon="2.725577">
        <ele>130.748</ele>
        <time>2021-09-15T19:01:20Z</time>
      </trkpt>
      <trkpt lat="47.641614" lon="2.725667">
        <ele>128.161</ele>
        <time>2021-09-15T19:05:57Z</time>
      </trkpt>
      <trkpt lat="47.641847" lon="2.725831">
        <ele>125.917</ele>
        <time>2021-09-15T19:06:16Z</time>
      </trkpt>
      <trkpt lat="47.642019" lon="2.726354">
        <ele>126.508</ele>
        <time>2021-09-15T19:06:53Z</time>
      </trkpt>
    </trkseg>
  </trk>
</gpx>
